# Wetter Temperatur Luftdruck Luftfeuchtigkeit Sichtweite Windgeschwindigkeit Windrichtung Zeit
1 Clouds 1 1010 80 10000 2.6 120 21:42 28.01.2020
2 Clouds 1 1010 80 10000 2.6 120 21:42 28.01.2020
3 Clouds 1 1010 80 10000 3.1 110 21:22 28.01.2020
4 Clouds 2 1011 74 10000 3.6 90 20:58 28.01.2020
5 Clouds 2 1011 74 10000 3.6 90 20:39 28.01.2020
6 Clouds 2 1011 74 10000 3.6 90 20:39 28.01.2020
7 Clouds 2 1011 75 8000 3.1 100 20:21 28.01.2020
8 Clouds 3 1011 75 10000 1 0 19:39 28.01.2020
9 Clouds 3 1011 75 10000 1 0 19:20 28.01.2020
10 Clouds 3 1011 75 10000 2.1 100 18:58 28.01.2020
11 Clouds 3 1011 75 10000 2.1 100 18:58 28.01.2020
12 Clouds 3 1011 75 10000 2.1 100 18:39 28.01.2020
13 Clouds 3 1011 65 10000 2.1 90 18:21 28.01.2020
14 Clouds 3 1011 75 10000 2.1 310 17:57 28.01.2020
15 Clouds 4 1011 53 10000 3.6 290 17:37 28.01.2020
16 Clouds 9 1011 53 10000 3.6 290 17:19 28.01.2020
17 Clouds 9 1011 53 10000 3.6 290 17:19 28.01.2020
18 Clouds 9 1011 53 10000 3.6 290 17:19 28.01.2020
19 Clouds 10 1012 53 10000 2.1 310 16:46 28.01.2020
20 Clouds 10 1011 53 10000 3.1 320 16:27 28.01.2020
21 Clouds 11 1011 53 10000 3.1 310 15:59 28.01.2020
22 Clouds 11 1011 53 10000 3.1 310 15:41 28.01.2020
23 Clouds 11 1011 50 10000 3.6 310 15:18 28.01.2020
24 Clouds 12 1011 66 10000 2.6 320 14:45 28.01.2020
25 Clouds 10 1012 53 10000 2.6 340 14:20 28.01.2020
26 Clouds 12 1012 46 10000 5.7 270 13:57 28.01.2020
27 Clouds 12 1012 46 10000 5.7 270 13:38 28.01.2020
28 Clouds 11 1012 56 10000 4.6 280 13:19 28.01.2020
29 Clouds 12 1013 53 10000 2.6 320 12:42 28.01.2020
30 Clouds 11 1013 61 10000 2.6 300 12:22 28.01.2020
31 Clouds 10 1014 61 10000 3.1 310 11:48 28.01.2020
32 Clouds 8 1014 65 10000 3.1 240 11:23 28.01.2020
33 Clouds 6 1015 75 10000 2.1 240 10:56 28.01.2020
34 Clouds 6 1015 75 10000 2.1 240 10:56 28.01.2020
35 Clouds 6 1015 75 10000 2.1 240 10:38 28.01.2020
36 Clouds 5 1015 80 10000 2.6 250 10:18 28.01.2020
37 Clouds 6 1015 80 10000 2.6 260 09:42 28.01.2020
38 Clouds 5 1015 80 10000 2.1 270 09:21 28.01.2020
39 Clouds 4 1015 86 8000 1.5 280 08:47 28.01.2020
40 Clouds 3 1015 93 8000 1 0 08:27 28.01.2020
41 Clouds 3 1015 92 8000 3.1 270 07:57 28.01.2020
42 Clouds 2 1015 92 8000 2.6 200 07:36 28.01.2020
43 Clouds 1 1015 92 8000 1.5 190 06:49 28.01.2020
44 Clouds 2 1015 93 8000 2.1 320 06:25 28.01.2020
45 Clouds 2 1015 93 8000 3.6 340 05:42 28.01.2020
46 Clouds 2 1015 93 8000 2.6 20 05:24 28.01.2020
47 Clouds 4 1015 86 10000 4.6 300 03:51 28.01.2020
48 Clouds 4 1015 86 10000 3.6 300 02:55 28.01.2020
49 Clouds 4 1015 86 10000 4.1 300 02:25 28.01.2020
50 Clouds 5 1015 80 10000 4.6 300 01:56 28.01.2020
51 Clouds 4 1015 86 10000 4.1 320 01:22 28.01.2020
52 Clouds 5 1016 80 10000 5.1 300 00:45 28.01.2020
53 Clouds 2 1016 80 10000 5.1 290 00:23 28.01.2020
54 Clouds 2 1016 80 10000 4.6 300 23:44 27.01.2020
55 Clouds 5 1016 80 10000 5.7 290 23:20 27.01.2020
56 Clouds 5 1016 80 10000 5.7 280 22:45 27.01.2020
57 Clouds 5 1016 86 10000 4.6 280 22:21 27.01.2020
58 Clouds 5 1016 86 10000 4.1 280 21:58 27.01.2020
59 Clouds 2 1016 86 10000 4.1 280 21:39 27.01.2020
60 Clouds 2 1016 86 10000 4.6 280 21:19 27.01.2020
61 Clouds 2 1016 86 10000 4.6 280 21:19 27.01.2020
62 Clouds 3 1016 81 10000 4.1 280 20:57 27.01.2020
63 Clouds 3 1016 81 10000 4.1 280 20:38 27.01.2020
64 Clouds 6 1015 81 10000 4.6 280 20:19 27.01.2020
65 Clouds 6 1015 87 10000 4.6 290 19:56 27.01.2020
66 Clouds 6 1015 87 10000 4.6 290 19:38 27.01.2020
67 Clouds 6 1015 87 10000 4.1 290 19:19 27.01.2020
68 Clouds 6 1015 87 10000 5.1 290 18:39 27.01.2020
69 Clouds 7 1015 81 10000 4.6 300 18:21 27.01.2020
70 Clouds 7 1015 87 7000 3.6 280 17:58 27.01.2020
71 Mist 6 1014 93 3000 2.1 260 17:38 27.01.2020
72 Mist 6 1014 93 3000 2.1 260 17:19 27.01.2020
73 Mist 6 1014 93 3000 2.1 260 16:55 27.01.2020
74 Mist 7 1014 93 3000 2.1 260 16:36 27.01.2020
75 Mist 7 1014 93 3000 2.1 260 16:36 27.01.2020
76 Rain 7 1015 93 3500 1.5 280 16:18 27.01.2020
77 Rain 6 1015 93 3000 2.1 270 15:41 27.01.2020
78 Rain 7 1014 81 4500 2.6 290 15:19 27.01.2020
79 Mist 7 1014 87 5000 2.6 280 14:56 27.01.2020
80 Mist 7 1014 87 5000 2.6 280 14:37 27.01.2020
81 Mist 7 1014 87 5000 2.6 280 14:37 27.01.2020
82 Mist 9 1014 81 5000 3.1 270 14:19 27.01.2020
83 Mist 7 1014 81 5000 2.6 290 13:42 27.01.2020
84 Mist 6 1014 87 4000 2.1 310 13:22 27.01.2020
85 Mist 9 1015 87 5000 2.1 280 12:56 27.01.2020
86 Mist 9 1015 87 4500 2.6 290 12:38 27.01.2020
87 Mist 8 1015 87 4500 2.6 290 12:20 27.01.2020
88 Rain 7 1015 87 5000 1 0 11:42 27.01.2020
89 Rain 5 1016 86 5000 1 0 11:21 27.01.2020
90 Rain 7 1016 86 4500 1 0 10:55 27.01.2020
91 Rain 6 1016 86 4500 1 0 10:36 27.01.2020
92 Rain 6 1016 93 3500 1 0 10:18 27.01.2020
93 Rain 5 1016 93 3000 1.5 10 09:39 27.01.2020
94 Rain 4 1016 93 2500 1.5 40 09:19 27.01.2020
95 Rain 3 1017 93 2500 1.5 320 08:47 27.01.2020
96 Rain 1 1017 93 4000 1 0 08:23 27.01.2020
97 Rain 1 1017 93 4500 1 0 07:55 27.01.2020
98 Rain 1 1017 90 6000 0.5 0 07:36 27.01.2020
99 Clouds 1 1017 90 7000 1 0 06:55 27.01.2020
100 Rain 1 1017 90 8000 1.5 130 06:27 27.01.2020
101 Clouds 1 1017 90 7000 3.1 340 05:37 27.01.2020
102 Clouds 1 1017 90 10000 1.5 360 05:37 27.01.2020
103 Clouds 0 1017 86 9000 2.1 140 04:20 27.01.2020
104 Clouds 0 1018 80 7000 2.1 140 03:23 27.01.2020
105 Clouds 1 1019 90 7000 1.5 140 01:32 27.01.2020
106 Clouds 1 1019 88 6000 2.1 180 00:59 27.01.2020
107 Clouds 2 1019 88 6000 2.1 180 00:37 27.01.2020
108 Clouds 2 1020 88 8000 0.5 0 00:19 27.01.2020
109 Clouds 2 1020 88 8000 0.5 0 23:41 26.01.2020
110 Clouds 2 1020 87 7000 1 0 23:19 26.01.2020
111 Clouds 3 1020 75 7000 1.38 156 22:55 26.01.2020
112 Clouds 3 1020 75 7000 1.38 156 22:37 26.01.2020
113 Clouds 3 1021 75 8000 2.6 210 22:18 26.01.2020
114 Mist 3 1020 87 5000 1 0 21:56 26.01.2020
115 Mist 4 1020 87 5000 1 0 21:38 26.01.2020
116 Clouds 3 1021 87 8000 1 0 21:19 26.01.2020
117 Clouds 3 1021 87 8000 1 0 20:55 26.01.2020
118 Clouds 3 1021 87 8000 1 0 20:36 26.01.2020
119 Clouds 3 1021 85 7000 0.5 0 20:18 26.01.2020
120 Clouds 3 1020 85 8000 2.1 150 19:56 26.01.2020
121 Clouds 3 1020 85 8000 2.1 150 19:36 26.01.2020
122 Clouds 4 1021 85 8000 2.6 110 19:18 26.01.2020
123 Clouds 4 1021 85 7000 1 100 18:40 26.01.2020
124 Clouds 4 1021 85 8000 2.1 130 18:22 26.01.2020
125 Clouds 4 1021 85 10000 3.1 100 17:58 26.01.2020
126 Clouds 4 1021 85 10000 3.1 100 17:38 26.01.2020
127 Clouds 5 1021 77 8000 2.6 90 17:19 26.01.2020
128 Clouds 5 1021 77 8000 3.1 160 16:58 26.01.2020
129 Clouds 5 1021 77 8000 3.1 160 16:39 26.01.2020
130 Clouds 9 1021 77 8000 2.6 150 16:20 26.01.2020
131 Clouds 9 1021 77 8000 2.6 150 16:20 26.01.2020
132 Clouds 11 1021 50 10000 2.1 160 15:55 26.01.2020
133 Clouds 6 1022 46 10000 1 0 15:36 26.01.2020
134 Clouds -2 1016 75 0 0.45 269 15:18 26.01.2020
135 Clouds -2 1016 75 0 0.45 282 14:39 26.01.2020
136 Clouds 9 1022 60 0 0.64 307 14:19 26.01.2020
137 Clouds 9 1022 60 0 0.64 307 13:42 26.01.2020
138 Clouds 9 1022 60 0 0.22 259 13:20 26.01.2020
139 Clouds 9 1022 60 0 0.22 259 12:57 26.01.2020
140 Clouds 9 1022 60 0 0.22 259 12:38 26.01.2020
141 Clouds 9 1022 60 0 0.22 259 12:20 26.01.2020
142 Clouds 9 1022 60 0 0.22 259 11:57 26.01.2020
143 Clouds 9 1022 60 0 0.22 259 11:37 26.01.2020
144 Clouds 2 1025 80 8000 1 0 11:18 26.01.2020
145 Clouds 2 1025 80 8000 1 0 10:56 26.01.2020
146 Clouds 2 1025 80 8000 1 0 10:38 26.01.2020
147 Clouds 2 1025 80 8000 1 0 10:19 26.01.2020
148 Clouds 2 1025 80 8000 1 0 10:19 26.01.2020
149 Clouds 5 1025 86 7000 0.5 0 09:56 26.01.2020
150 Clouds 5 1025 80 7000 0.72 268 09:37 26.01.2020
151 Clouds 4 1025 80 7000 0.72 268 09:19 26.01.2020
152 Clouds 1 1025 69 7000 1.5 50 08:41 26.01.2020
153 Clouds -1 1025 92 6000 1 0 08:22 26.01.2020
154 Clouds -2 1025 92 6000 1.33 254 07:50 26.01.2020
155 Clouds -2 1025 92 7000 1 0 07:27 26.01.2020
156 Clouds -3 1024 92 7000 1.33 254 06:55 26.01.2020
157 Clouds -3 1024 92 6000 2.1 120 06:25 26.01.2020
158 Clouds -3 1024 92 6000 1.33 254 05:29 26.01.2020
159 Clouds -4 1024 92 6000 1.67 258 03:57 26.01.2020
160 Clouds -3 1024 92 6000 1.5 120 02:38 26.01.2020
161 Mist -3 1024 92 5000 2.28 256 01:45 26.01.2020
162 Clouds -3 1024 92 6000 1.5 170 01:22 26.01.2020
163 Clouds -3 1024 92 7000 1.5 140 00:42 26.01.2020
164 Clouds -2 1024 86 7000 2.1 120 00:24 26.01.2020
165 Clouds -2 1022 81 0 1.88 263 23:39 25.01.2020
166 Clear -2 1017 73 0 3.13 256 23:21 25.01.2020
167 Clear -2 1023 80 0 2.25 255 22:56 25.01.2020
168 Clear -2 1023 79 0 2.25 255 22:36 25.01.2020
169 Clear -2 1023 79 0 2.25 255 22:18 25.01.2020
170 Clear -2 1023 78 0 2.25 255 21:41 25.01.2020
171 Clear -2 1023 76 0 2.25 255 21:23 25.01.2020
172 Clear 1 1026 87 0 2.25 255 20:56 25.01.2020
173 Clear 1 1026 87 0 2.25 255 20:38 25.01.2020
174 Clouds 1 1025 80 0 1.9 246 20:20 25.01.2020
175 Clouds 1 1025 80 0 1.9 246 19:44 25.01.2020
176 Clouds -1 1017 56 0 3.58 287 19:20 25.01.2020
177 Clouds -1 1023 68 0 1.98 244 18:57 25.01.2020
178 Clouds -1 1023 65 0 1.98 244 18:39 25.01.2020
179 Clouds 0 1023 63 0 1.9 246 18:20 25.01.2020
180 Clouds 1 1022 58 0 1.9 246 17:42 25.01.2020
181 Clouds 3 1022 56 0 1.72 270 17:23 25.01.2020
182 Clouds 4 1022 51 0 1.72 270 16:58 25.01.2020
183 Clouds 5 1022 48 0 1.66 271 16:39 25.01.2020
184 Clouds 2 1018 30 0 0.89 208 16:19 25.01.2020
185 Clouds 3 1018 29 0 0.89 218 15:47 25.01.2020
186 Clouds 3 1018 28 0 0.89 224 15:25 25.01.2020
187 Clouds 3 1018 31 0 1.34 246 14:59 25.01.2020
188 Clouds 3 1018 27 0 1.34 252 14:40 25.01.2020
189 Clear 3 1018 31 0 1.34 260 14:18 25.01.2020
190 Clear 3 1018 31 0 1.34 259 13:42 25.01.2020
191 Clear 3 1018 31 0 1.34 259 13:42 25.01.2020
192 Clouds 4 1018 28 0 1.34 283 13:23 25.01.2020
193 Clouds 7 1025 51 7000 1 0 12:45 25.01.2020
194 Clouds 8 1025 51 7000 1 0 12:26 25.01.2020
195 Clouds 7 1025 51 7000 1 0 11:45 25.01.2020
196 Clouds 3 1026 55 8000 1 0 11:22 25.01.2020
197 Clear 3 1026 59 7000 0.5 0 10:59 25.01.2020
198 Clear 3 1026 59 7000 0.5 0 10:40 25.01.2020
199 Clear 2 1026 64 6000 1 0 10:20 25.01.2020
200 Clear 2 1026 74 6000 1 0 09:41 25.01.2020
201 Mist 0 1026 79 5000 1.5 90 09:22 25.01.2020
202 Mist -1 1026 85 4500 1 0 08:44 25.01.2020
203 Mist -3 1026 85 4500 1 0 08:26 25.01.2020
204 Mist -5 1026 92 4200 1.67 269 07:50 25.01.2020
205 Clear -5 1026 92 6000 1.5 130 06:52 25.01.2020
206 Clear -5 1026 92 6000 1.5 130 06:51 25.01.2020
207 Clear -5 1026 92 7000 2.6 110 06:28 25.01.2020
208 Clear -5 1026 85 8000 1.5 110 05:46 25.01.2020
209 Clear -5 1026 92 6000 0.5 0 04:50 25.01.2020
210 Clear -5 1026 92 7000 1.89 262 03:51 25.01.2020
211 Clear -5 1026 92 7000 1.89 262 02:57 25.01.2020
212 Clear -5 1026 85 6000 1.5 110 02:18 25.01.2020
213 Clear -5 1026 92 8000 2.6 150 01:37 25.01.2020
214 Clear -4 1027 92 7000 1 60 00:44 25.01.2020
215 Clear -4 1027 92 8000 1.96 263 00:25 25.01.2020
216 Clear -3 1027 85 8000 1 0 23:57 24.01.2020
217 Clear -3 1027 85 8000 1 0 23:38 24.01.2020
218 Clear -3 1027 85 8000 1.5 120 23:20 24.01.2020
219 Clear -2 1027 79 7000 1.5 150 22:42 24.01.2020
220 Clear -3 1027 85 8000 1 0 22:24 24.01.2020
221 Mist -2 1028 85 5000 1.5 130 21:43 24.01.2020
222 Mist -1 1028 79 5000 1.5 150 21:20 24.01.2020
223 Mist -1 1028 79 5000 1.5 150 21:20 24.01.2020
224 Clear -2 1028 85 6000 1 0 20:56 24.01.2020
225 Mist -2 1028 79 5000 2.1 160 20:38 24.01.2020
226 Mist -2 1028 79 5000 2.1 160 20:19 24.01.2020
227 Clear -2 1028 79 6000 1.5 160 19:55 24.01.2020
228 Clear -2 1028 79 6000 1.5 160 19:37 24.01.2020
229 Clear -1 1028 73 8000 1.5 0 19:19 24.01.2020
230 Clear -1 1028 73 8000 1 0 18:43 24.01.2020
231 Clear -1 1028 73 8000 1 0 18:43 24.01.2020
232 Clear 0 1028 63 8000 1.92 250 18:23 24.01.2020
233 Clear 1 1028 67 10000 1 0 17:46 24.01.2020
234 Clear 2 1027 51 10000 1 0 17:23 24.01.2020
235 Clear 3 1027 47 10000 1 0 16:58 24.01.2020
236 Clear 3 1027 47 10000 1 0 16:39 24.01.2020
237 Clear 4 1028 48 10000 1 160 16:19 24.01.2020
238 Clear 4 1028 44 10000 0.5 0 15:42 24.01.2020
239 Clear 4 1028 44 10000 1.26 252 15:22 24.01.2020
240 Clear 4 1028 44 10000 1.26 252 14:55 24.01.2020
241 Clear 4 1029 51 10000 1 0 14:37 24.01.2020
242 Clear 4 1029 51 10000 1 0 14:19 24.01.2020
243 Clear 4 1029 51 9000 1 0 13:41 24.01.2020
244 Clear 3 1029 51 8000 1 0 13:22 24.01.2020
245 Clear 4 1030 55 8000 1.5 260 12:43 24.01.2020
246 Clear 4 1030 59 8000 1 0 12:21 24.01.2020
247 Clear 3 1031 36 8000 0.5 0 11:45 24.01.2020
248 Clear 1 1031 74 7000 1.5 160 11:19 24.01.2020
249 Clear 1 1031 74 7000 1.5 160 11:19 24.01.2020
250 Clear 1 1031 74 7000 1.5 160 11:19 24.01.2020
251 Clear 1 1032 79 6000 1.5 100 10:58 24.01.2020
252 Clear 0 1032 79 6000 1.5 100 10:40 24.01.2020
253 Mist 0 1032 85 5000 1 0 10:19 24.01.2020
254 Mist -2 1032 79 5000 0.5 0 09:41 24.01.2020
255 Mist -3 1032 85 4200 1.22 267 09:23 24.01.2020
256 Mist -8 1032 92 4000 0.5 0 08:41 24.01.2020
257 Mist -8 1032 92 4000 0.5 0 08:41 24.01.2020
258 Mist -7 1032 92 3000 1 0 08:21 24.01.2020
259 Mist -10 1032 92 4000 2.6 70 07:58 24.01.2020
260 Mist -9 1032 92 4000 2.6 70 07:37 24.01.2020
261 Mist -7 1032 92 5000 1.5 120 06:54 24.01.2020
262 Mist -7 1032 92 5000 1.5 241 06:33 24.01.2020
263 Mist -10 1032 92 5000 1.5 280 05:59 24.01.2020
264 Clear -7 1032 85 6000 1.5 350 05:18 24.01.2020
265 Clear -6 1033 92 6000 2.1 140 02:54 24.01.2020
266 Clear -7 1033 92 6000 1 0 02:27 24.01.2020
267 Mist -7 1033 92 5000 1.5 120 01:53 24.01.2020
268 Mist -6 1033 85 5000 2.1 70 01:33 24.01.2020
269 Mist -5 1033 92 5000 3.1 160 00:31 24.01.2020
270 Mist -5 1033 92 5000 2.6 160 23:56 23.01.2020
271 Mist -5 1033 92 5000 2.1 80 23:37 23.01.2020
272 Mist -5 1033 92 5000 2.1 80 23:18 23.01.2020
273 Mist -5 1033 85 5000 2.1 120 22:39 23.01.2020
274 Clear -5 1033 92 6000 1.5 90 22:19 23.01.2020
275 Clear -5 1033 79 7000 2.1 70 21:58 23.01.2020
276 Clear -5 1033 79 7000 2.1 70 21:58 23.01.2020
277 Clear -4 1033 85 7000 0.73 314 21:39 23.01.2020
278 Clear -4 1033 85 7000 0.73 314 21:20 23.01.2020
279 Clear -4 1033 79 8000 1.5 50 20:59 23.01.2020
280 Clear -4 1032 79 9000 2.1 290 20:39 23.01.2020
281 Clear -4 1032 79 9000 2.1 290 20:20 23.01.2020
282 Clear -3 1032 73 9000 4.6 280 19:56 23.01.2020
283 Clear -3 1032 79 9000 5.1 270 19:38 23.01.2020
284 Clear -4 1032 79 9000 5.1 270 19:19 23.01.2020
285 Clear -3 1032 74 9000 4.6 260 18:43 23.01.2020
286 Clear -3 1032 74 9000 5.1 270 18:21 23.01.2020
287 Clear -2 1031 68 10000 4.1 270 17:59 23.01.2020
288 Clear -2 1031 68 10000 4.1 270 17:40 23.01.2020
289 Clear -2 1031 65 10000 4.6 280 17:20 23.01.2020
290 Clear -2 1031 68 10000 5.7 280 16:56 23.01.2020
291 Clear -2 1031 68 10000 5.7 280 16:37 23.01.2020
292 Clear -1 1031 59 10000 5.1 280 16:18 23.01.2020
293 Clear 0 1031 59 10000 5.7 290 15:55 23.01.2020
294 Clear -1 1031 55 10000 5.7 280 15:37 23.01.2020
295 Clear 0 1031 55 10000 5.7 280 15:18 23.01.2020
296 Clear -1 1031 55 10000 6.2 280 14:55 23.01.2020
297 Clear -1 1031 55 10000 6.2 280 14:55 23.01.2020
298 Clear 2 1031 55 10000 6.2 280 14:37 23.01.2020
299 Clear 2 1031 55 10000 6.2 280 14:18 23.01.2020
300 Clear 3 1030 51 10000 7.2 270 13:39 23.01.2020
301 Clear 3 1030 51 10000 7.2 270 13:39 23.01.2020
302 Clear 2 1031 55 10000 6.7 280 13:20 23.01.2020
303 Clear 4 1031 55 10000 7.7 280 12:47 23.01.2020
304 Clear 4 1031 59 10000 7.2 280 12:25 23.01.2020
305 Clear 3 1031 59 10000 8.7 280 11:59 23.01.2020
306 Clear 3 1031 59 10000 8.7 280 11:39 23.01.2020
307 Clear 2 1031 59 10000 8.2 280 11:19 23.01.2020
308 Clear 2 1031 59 10000 8.2 280 11:19 23.01.2020
309 Clouds 2 1031 64 10000 7.7 280 10:45 23.01.2020
310 Clouds 1 1031 64 10000 7.7 280 10:23 23.01.2020
311 Clouds 1 1031 64 10000 6.7 280 09:59 23.01.2020
312 Clouds 2 1030 69 10000 6.2 280 09:37 23.01.2020
313 Clouds 2 1030 69 10000 6.2 280 09:19 23.01.2020
314 Clouds 0 1030 64 10000 5.1 280 08:41 23.01.2020
315 Clouds -1 1030 74 10000 5.1 270 08:22 23.01.2020
316 Clouds -1 1029 68 10000 5.7 280 07:45 23.01.2020
317 Clouds -1 1029 68 10000 5.7 290 07:26 23.01.2020
318 Clouds -1 1028 68 10000 4.6 280 06:53 23.01.2020
319 Clouds 0 1027 65 10000 6.2 280 06:23 23.01.2020
320 Clouds 0 1027 65 10000 6.7 290 05:57 23.01.2020
321 Clouds 2 1026 55 10000 7.7 290 04:24 23.01.2020
322 Clouds 3 1024 38 10000 9.8 280 02:34 23.01.2020
323 Clear 3 1024 38 10000 7.7 280 01:41 23.01.2020
324 Clear -5 1024 73 6000 1 0 00:28 23.01.2020
325 Clear -5 1024 73 6000 2.6 230 23:48 22.01.2020
326 Clear -5 1024 79 6000 1.5 190 23:30 22.01.2020
327 Clear -5 1024 79 6000 2.1 150 22:59 22.01.2020
328 Clear -5 1024 79 6000 2.1 150 22:41 22.01.2020
329 Clear -5 1024 79 6000 2.1 150 22:41 22.01.2020
330 Clear -4 1024 68 6000 1.5 30 22:22 22.01.2020
331 Clear -4 1024 68 6000 1.5 0 21:40 22.01.2020
332 Mist -4 1024 68 4900 1 0 21:22 22.01.2020
333 Clear -3 1024 73 6000 1 0 20:57 22.01.2020
334 Clear -3 1024 73 6000 1 0 20:57 22.01.2020
335 Clear -3 1024 73 6000 1 0 20:38 22.01.2020
336 Clear -1 1024 58 7000 0.5 0 20:38 22.01.2020
337 Clear -1 1024 58 7000 0.5 0 20:20 22.01.2020
338 Clear -1 1025 58 8000 2.1 220 19:56 22.01.2020
339 Clear 1 1025 43 7000 2.6 260 19:38 22.01.2020
340 Clear 1 1025 43 7000 2.6 260 19:18 22.01.2020
341 Clear 1 1025 43 7000 2.6 260 19:18 22.01.2020
342 Clear 2 1025 37 7000 3.1 230 18:56 22.01.2020
343 Clear 2 1025 40 8000 1 0 18:38 22.01.2020
344 Clear 3 1025 40 8000 1 0 18:19 22.01.2020
345 Clear 2 1025 43 8000 2.1 290 17:41 22.01.2020
346 Clear 3 1025 34 8000 1.5 210 17:21 22.01.2020
347 Clear 4 1026 27 10000 2.1 240 16:58 22.01.2020
348 Clear 4 1026 27 10000 2.1 240 16:40 22.01.2020
349 Clear 5 1026 28 10000 1 0 16:21 22.01.2020
350 Clear 7 1026 36 10000 2.1 220 15:56 22.01.2020
351 Clear 8 1027 36 10000 3.1 0 15:38 22.01.2020
352 Clear 8 1027 36 10000 3.1 0 15:19 22.01.2020
353 Clear 7 1027 39 10000 1.5 210 14:40 22.01.2020
354 Clear 7 1027 39 10000 1.5 210 14:40 22.01.2020
355 Clear 7 1027 39 10000 1.5 210 14:40 22.01.2020
356 Clear 7 1028 41 10000 1.5 190 14:21 22.01.2020
357 Clear 6 1028 44 10000 1.5 170 13:59 22.01.2020
358 Clear 5 1028 44 10000 1.5 170 13:38 22.01.2020
359 Clear 4 1028 48 10000 1 0 13:19 22.01.2020
360 Clear 6 1029 48 10000 1 0 12:57 22.01.2020
361 Clear 6 1029 48 10000 1 0 12:39 22.01.2020
362 Clear 5 1030 51 9000 1.5 0 12:19 22.01.2020
363 Clear 4 1030 59 8000 1 0 11:58 22.01.2020
364 Clear 3 1030 59 8000 1 0 11:39 22.01.2020
365 Clear 2 1031 30 8000 1.5 300 11:19 22.01.2020
366 Clear 2 1031 30 8000 1.5 300 11:19 22.01.2020
367 Clear 1 1032 74 8000 1.5 310 10:54 22.01.2020
368 Clear 1 1032 74 8000 1.5 310 10:36 22.01.2020
369 Clear 0 1032 74 8000 2.1 280 10:18 22.01.2020
370 Clear -2 1033 79 9000 2.1 300 09:41 22.01.2020
371 Clear -2 1033 85 8000 2.1 290 09:23 22.01.2020
372 Mist -2 1033 85 3500 1.98 273 08:56 22.01.2020
373 Mist -3 1033 85 3500 1.98 273 08:37 22.01.2020
374 Mist -4 1033 85 3000 1.5 130 08:19 22.01.2020
375 Mist -4 1033 85 3000 1.5 130 08:19 22.01.2020
376 Mist -7 1033 92 3500 1.5 140 07:44 22.01.2020
377 Mist -7 1033 92 3000 1 0 07:26 22.01.2020
378 Mist -7 1034 85 4500 0.5 0 06:37 22.01.2020
379 Clouds -6 1034 85 6000 1.5 340 06:18 22.01.2020
380 Clouds -6 1034 92 6000 2.1 350 04:27 22.01.2020
381 Clear -6 1034 92 7000 1.5 300 03:27 22.01.2020
382 Clouds -5 1035 85 7000 2.1 280 02:48 22.01.2020
383 Clear -4 1036 85 8000 2.6 300 00:48 22.01.2020
384 Clear -4 1036 85 8000 2.1 290 00:28 22.01.2020
385 Clear -4 1037 85 8000 4.1 290 23:59 21.01.2020
386 Clear -4 1037 85 8000 4.1 290 23:37 21.01.2020
387 Clear -4 1037 85 8000 3.6 290 23:19 21.01.2020
388 Clear -3 1037 79 8000 3.6 280 22:42 21.01.2020
389 Clear -3 1037 79 8000 4.1 290 22:23 21.01.2020
390 Clear -4 1037 85 8000 5.7 280 21:58 21.01.2020
391 Clear -4 1037 85 8000 5.7 280 21:39 21.01.2020
392 Clear -4 1037 85 8000 3.6 280 21:20 21.01.2020
393 Clear -4 1037 85 8000 3.6 280 20:57 21.01.2020
394 Clear -4 1037 85 8000 3.6 280 20:57 21.01.2020
395 Clear -4 1037 85 8000 3.6 280 20:39 21.01.2020
396 Clouds -3 1038 79 8000 4.1 280 20:20 21.01.2020
397 Clouds -2 1038 79 8000 4.6 280 19:57 21.01.2020
398 Clouds -2 1038 79 8000 4.6 280 19:39 21.01.2020
399 Clouds -2 1038 79 8000 5.1 280 19:20 21.01.2020
400 Clouds -2 1038 79 8000 5.1 280 19:20 21.01.2020
401 Clouds -2 1038 79 8000 5.7 270 18:55 21.01.2020
402 Clouds -3 1038 79 8000 5.7 270 18:37 21.01.2020
403 Clouds -2 1038 79 8000 4.1 280 18:18 21.01.2020
404 Clouds -2 1038 74 8000 4.6 270 17:45 21.01.2020
405 Clouds -1 1038 74 8000 4.6 280 17:20 21.01.2020
406 Clouds -1 1038 68 8000 4.1 280 16:59 21.01.2020
407 Clouds 0 1038 58 10000 5.1 280 16:37 21.01.2020
408 Clouds 0 1038 58 10000 5.1 280 16:37 21.01.2020
409 Clouds -1 1038 68 8000 4.1 280 16:37 21.01.2020
410 Clouds 0 1038 58 10000 5.1 280 16:19 21.01.2020
411 Clouds 1 1038 59 10000 5.1 290 15:54 21.01.2020
412 Clouds 1 1038 59 10000 5.1 290 15:36 21.01.2020
413 Clouds 2 1037 59 10000 6.2 290 15:18 21.01.2020
414 Clouds 3 1038 55 10000 6.2 290 14:38 21.01.2020
415 Clouds 3 1038 55 10000 6.2 290 14:38 21.01.2020
416 Clouds 2 1038 59 10000 5.7 290 14:19 21.01.2020
417 Clouds 2 1039 59 10000 5.7 290 13:40 21.01.2020
418 Clouds 3 1039 55 10000 6.7 280 13:19 21.01.2020
419 Clouds 2 1039 59 10000 6.2 280 12:44 21.01.2020
420 Clouds 2 1040 59 10000 6.2 290 12:25 21.01.2020
421 Clouds 1 1040 40 10000 6.7 280 11:57 21.01.2020
422 Clouds 0 1040 40 10000 6.7 280 11:39 21.01.2020
423 Clouds 1 1041 47 10000 6.7 280 11:21 21.01.2020
424 Clouds 0 1041 68 8000 6.7 280 10:55 21.01.2020
425 Clouds 0 1041 68 8000 6.7 280 10:37 21.01.2020
426 Clouds 0 1041 74 8000 3.1 310 10:18 21.01.2020
427 Clouds -2 1041 79 6000 2.1 300 09:41 21.01.2020
428 Mist -3 1041 85 5000 1 0 09:22 21.01.2020
429 Mist -5 1041 85 4000 1.6 307 08:49 21.01.2020
430 Mist -6 1041 85 4300 1 0 08:29 21.01.2020
431 Mist -8 1041 85 5000 1 100 07:59 21.01.2020
432 Mist -8 1041 85 5000 1 100 07:39 21.01.2020
433 Mist -8 1041 85 2700 1 80 07:21 21.01.2020
434 Mist -8 1041 92 5000 1.53 307 06:48 21.01.2020
435 Mist -8 1041 92 5000 1.53 307 06:26 21.01.2020
436 Mist -8 1041 92 5000 1.5 350 05:42 21.01.2020
437 Mist -8 1041 92 5000 1.41 309 04:39 21.01.2020
438 Mist -7 1042 92 5000 0.5 60 02:56 21.01.2020
439 Mist -6 1042 92 5000 1 10 01:51 21.01.2020
440 Clear -6 1042 92 7000 1 330 00:57 21.01.2020
441 Clear -5 1042 85 7000 2.1 360 00:35 21.01.2020
442 Clear -4 1042 85 8000 3.1 290 23:57 20.01.2020
443 Clear -4 1042 85 8000 3.1 290 23:37 20.01.2020
444 Clear -4 1042 79 8000 3.1 280 23:18 20.01.2020
445 Clear -4 1042 79 8000 3.1 280 23:18 20.01.2020
446 Clear -4 1042 79 8000 3.1 280 22:56 20.01.2020
447 Clear -4 1042 79 8000 3.1 280 22:37 20.01.2020
448 Clear -4 1042 79 8000 4.1 270 22:18 20.01.2020
449 Clear -4 1042 85 8000 3.6 280 21:57 20.01.2020
450 Clear -4 1042 85 8000 3.6 280 21:36 20.01.2020
451 Clear -4 1042 79 7000 4.6 270 21:18 20.01.2020
452 Clear -4 1042 85 7000 4.1 270 20:55 20.01.2020
453 Clear -4 1042 85 7000 4.1 270 20:36 20.01.2020
454 Clear -4 1041 85 8000 4.1 270 20:18 20.01.2020
455 Clear -3 1041 79 7000 3.6 280 19:56 20.01.2020
456 Clear -4 1041 85 7000 3.6 280 19:37 20.01.2020
457 Clear -4 1041 85 7000 3.6 280 19:18 20.01.2020
458 Clear -3 1041 79 7000 4.1 280 18:42 20.01.2020
459 Clear -2 1041 74 9000 5.1 280 18:21 20.01.2020
460 Clear -1 1040 68 9000 4.6 290 17:39 20.01.2020
461 Clear -1 1040 68 9000 5.1 280 17:19 20.01.2020
462 Clear -1 1040 68 9000 4.6 280 16:58 20.01.2020
463 Clear -1 1040 68 9000 4.6 280 16:37 20.01.2020
464 Clouds 0 1039 69 10000 5.1 280 16:18 20.01.2020
465 Clouds 1 1039 55 10000 4.6 290 15:41 20.01.2020
466 Clouds 2 1039 47 10000 3.6 310 15:22 20.01.2020
467 Clouds 2 1039 47 10000 2.1 300 14:59 20.01.2020
468 Clouds 2 1039 47 10000 2.1 300 14:41 20.01.2020
469 Clouds 2 1039 51 10000 4.1 320 14:21 20.01.2020
470 Clouds 1 1039 55 10000 3.1 290 13:57 20.01.2020
471 Clouds 1 1039 55 10000 3.1 290 13:38 20.01.2020
472 Clouds 1 1039 50 10000 3.6 290 13:20 20.01.2020
473 Clouds 1 1039 55 10000 3.6 300 12:44 20.01.2020
474 Clouds 1 1039 55 10000 3.1 300 12:25 20.01.2020
475 Clouds 1 1039 55 10000 3.1 300 12:25 20.01.2020
476 Clouds 1 1039 55 10000 3.1 300 11:56 20.01.2020
477 Clouds 1 1039 56 10000 2.6 320 11:37 20.01.2020
478 Clouds 1 1039 67 10000 2.6 320 11:18 20.01.2020
479 Clouds 0 1038 67 10000 2.6 320 10:46 20.01.2020
480 Clouds 0 1038 67 10000 2.6 330 10:21 20.01.2020
481 Clouds 0 1038 67 10000 2.6 330 09:42 20.01.2020
482 Clouds 0 1038 67 10000 2.1 20 09:24 20.01.2020
483 Clouds 0 1037 67 10000 2.1 340 08:56 20.01.2020
484 Clouds 0 1037 67 10000 1.5 20 08:34 20.01.2020
485 Clouds -1 1037 68 10000 1.5 310 07:59 20.01.2020
486 Clouds -1 1037 68 10000 1.5 310 07:41 20.01.2020
487 Clouds -1 1036 74 10000 2.1 300 07:21 20.01.2020
488 Clouds -1 1036 74 10000 2.6 310 06:44 20.01.2020
489 Clouds -1 1035 68 10000 2.6 330 06:22 20.01.2020
490 Clouds 0 1035 92 10000 2.6 320 05:38 20.01.2020
491 Clouds -1 1035 68 10000 2.1 330 05:19 20.01.2020
492 Clouds -1 1035 68 10000 3.1 360 04:23 20.01.2020
493 Clouds -1 1033 68 10000 2.1 10 01:59 20.01.2020
494 Clouds -1 1033 68 10000 2.1 10 01:40 20.01.2020
495 Clouds -1 1033 68 10000 2.1 360 01:18 20.01.2020
496 Clouds -1 1033 68 10000 2.1 360 00:42 20.01.2020
497 Clouds -1 1032 74 10000 1.5 340 00:20 20.01.2020
498 Clouds 0 1032 89 10000 1.5 360 23:38 19.01.2020
499 Clouds 0 1032 88 10000 1 0 23:19 19.01.2020
500 Clouds -1 1032 74 10000 2.1 90 22:56 19.01.2020
501 Clouds -1 1032 74 10000 2.1 90 22:37 19.01.2020
502 Clouds -1 1031 74 10000 2.1 90 22:19 19.01.2020
503 Clouds -1 1031 74 10000 1 90 21:56 19.01.2020
504 Clouds -1 1031 74 10000 1 90 21:38 19.01.2020
505 Clouds -1 1030 74 10000 2.1 90 21:19 19.01.2020
506 Clouds 0 1030 88 10000 1.5 80 20:56 19.01.2020
507 Clouds 0 1030 90 10000 2.1 70 20:38 19.01.2020
508 Clouds 0 1030 89 10000 2.1 70 20:19 19.01.2020
509 Clouds 0 1029 89 10000 3.1 70 19:55 19.01.2020
510 Clouds 0 1029 89 10000 3.1 70 19:37 19.01.2020
511 Clouds 0 1029 89 10000 3.6 60 19:19 19.01.2020
512 Clouds 0 1029 89 10000 4.1 50 18:55 19.01.2020
513 -273 0 0 0 0 0 18:37 19.01.2020
514 Clouds 0 1028 89 10000 3.1 60 18:19 19.01.2020
515 Clouds 0 1028 89 10000 3.1 70 17:57 19.01.2020
516 Clouds 0 1028 89 10000 3.1 70 17:38 19.01.2020
517 Clouds 0 1027 76 10000 1.86 19 17:19 19.01.2020
518 Clouds 0 1026 76 10000 1 0 16:57 19.01.2020
519 Clouds 0 1026 76 10000 1 0 16:57 19.01.2020
520 Clouds 0 1026 76 10000 0.5 0 16:37 19.01.2020
521 Clouds 0 1026 76 10000 0.5 0 16:37 19.01.2020
522 Clouds 0 1026 76 10000 0.5 0 16:37 19.01.2020
523 Clouds 0 1026 76 10000 0.5 0 16:19 19.01.2020
524 Clouds 0 1026 76 10000 2.1 360 15:55 19.01.2020
525 Clouds 0 1026 76 10000 2.1 360 15:55 19.01.2020
526 Clouds 1 1025 59 10000 2.6 360 15:36 19.01.2020
527 Clouds 1 1025 59 10000 2.6 360 15:18 19.01.2020
528 Clouds 1 1025 64 10000 2.1 50 14:41 19.01.2020
529 Clouds 1 1025 64 10000 2.1 50 14:41 19.01.2020
530 Clouds 1 1025 64 10000 2.6 40 14:21 19.01.2020
531 Clouds 1 1025 59 10000 2.6 70 13:59 19.01.2020
532 Clouds 1 1025 59 10000 2.6 70 13:40 19.01.2020
533 Clouds 1 1025 59 10000 3.1 90 13:22 19.01.2020
534 Clouds 2 1025 59 10000 2.1 100 12:59 19.01.2020
535 Clouds 1 1025 59 10000 2.1 100 12:41 19.01.2020
536 Clouds 1 1025 59 10000 1.5 0 12:21 19.01.2020
537 Clouds 1 1025 59 10000 1.5 90 11:57 19.01.2020
538 Clouds 1 1025 59 10000 1.5 90 11:38 19.01.2020
539 Clouds 1 1025 59 10000 3.1 100 11:18 19.01.2020
540 Clouds 0 1025 74 10000 3.6 120 10:40 19.01.2020
541 Clouds 0 1025 74 10000 3.1 100 10:21 19.01.2020
542 Clouds 0 1024 74 10000 2.1 140 09:57 19.01.2020
543 Clouds 0 1024 74 10000 2.1 140 09:38 19.01.2020
544 Clouds 0 1024 74 10000 2.1 160 09:20 19.01.2020
545 Clouds 0 1024 74 9000 1.5 150 08:55 19.01.2020
546 Clouds 0 1024 86 6000 1.5 10 08:33 19.01.2020
547 Clouds 0 1023 89 8000 1 20 07:55 19.01.2020
548 Clouds 0 1023 89 8000 1 0 07:29 19.01.2020
549 Clouds -1 1023 80 8000 0.5 0 06:55 19.01.2020
550 Clouds 0 1023 89 9000 1.5 320 06:22 19.01.2020
551 Clouds 0 1023 89 10000 3.1 100 03:58 19.01.2020
552 Clouds 0 1023 89 10000 3.1 110 02:34 19.01.2020
553 Clouds 0 1024 89 10000 3.6 110 01:42 19.01.2020
554 Clouds 0 1024 90 10000 3.1 120 01:20 19.01.2020
555 Clouds 0 1024 90 10000 2.6 130 00:44 19.01.2020
556 Clouds 0 1023 90 10000 3.6 130 00:20 19.01.2020
557 Clouds 0 1023 90 10000 4.1 130 23:45 18.01.2020
558 Clouds 1 1023 69 10000 3.6 140 23:25 18.01.2020
559 Clouds 1 1024 69 10000 4.6 130 22:58 18.01.2020
560 Clouds 1 1024 69 10000 4.6 130 22:40 18.01.2020
561 Clouds 1 1024 69 10000 5.1 130 22:21 18.01.2020
562 Clouds 1 1024 69 10000 5.7 130 21:58 18.01.2020
563 Clouds 1 1024 69 10000 5.7 130 21:38 18.01.2020
564 Clouds 1 1024 69 10000 6.2 130 21:20 18.01.2020
565 Clouds 1 1024 69 10000 6.2 130 21:20 18.01.2020
566 Clouds 1 1024 69 10000 6.7 130 20:55 18.01.2020
567 Clouds 1 1024 69 10000 6.7 130 20:36 18.01.2020
568 Clouds 0 1024 94 10000 6.7 130 20:18 18.01.2020
569 Clouds 0 1024 94 10000 6.7 130 19:42 18.01.2020
570 Clouds 0 1024 94 10000 6.7 130 19:24 18.01.2020
571 Clouds 0 1024 94 10000 6.7 130 18:43 18.01.2020
572 Clouds 0 1024 94 10000 7.2 120 18:24 18.01.2020
573 Clouds 0 1024 94 10000 5.1 130 17:57 18.01.2020
574 Clouds 0 1024 94 10000 5.1 130 17:39 18.01.2020
575 Clouds 0 1024 84 10000 6.2 120 17:19 18.01.2020
576 Clouds 0 1024 84 10000 6.2 120 16:55 18.01.2020
577 Clouds 0 1024 84 10000 6.2 120 16:37 18.01.2020
578 Clouds 0 1024 84 10000 7.2 110 16:19 18.01.2020
579 Clouds 1 1024 64 10000 8.7 110 15:42 18.01.2020
580 Clouds 1 1024 69 10000 7.7 110 15:24 18.01.2020
581 Clouds 1 1025 69 10000 8.2 110 14:57 18.01.2020
582 Clouds 1 1025 69 10000 8.2 110 14:39 18.01.2020
583 Clouds 1 1025 69 10000 8.7 110 14:18 18.01.2020
584 Clouds 1 1025 69 10000 9.8 110 13:44 18.01.2020
585 Clouds 1 1025 64 10000 9.3 110 13:26 18.01.2020
586 Clouds 1 1026 69 10000 9.3 110 12:58 18.01.2020
587 Clouds 1 1026 69 10000 9.3 120 12:39 18.01.2020
588 Clouds 1 1026 69 10000 9.3 120 12:20 18.01.2020
589 Clouds 1 1026 69 10000 9.8 110 11:44 18.01.2020
590 Clouds 1 1026 69 10000 9.8 110 11:22 18.01.2020
591 Clouds 1 1027 69 10000 8.7 120 10:57 18.01.2020
592 Clouds 1 1027 69 10000 8.7 120 10:38 18.01.2020
593 Clouds 1 1027 69 10000 8.7 110 10:20 18.01.2020
594 Clouds 0 1027 65 10000 9.3 120 09:46 18.01.2020
595 Clouds 0 1027 65 10000 8.2 120 09:28 18.01.2020
596 Clouds -1 1027 86 10000 7.2 110 08:56 18.01.2020
597 Clouds -1 1027 86 10000 7.2 110 08:38 18.01.2020
598 Clouds -1 1027 86 10000 6.2 130 08:19 18.01.2020
599 Clouds -1 1027 86 10000 5.7 120 07:47 18.01.2020
600 Clouds -1 1027 86 10000 4.6 100 07:29 18.01.2020
601 Clouds -1 1027 86 10000 4.6 100 06:47 18.01.2020
602 Clouds -1 1027 86 10000 4.1 110 05:59 18.01.2020
603 Clouds -1 1027 86 10000 4.1 110 05:19 18.01.2020
604 Clouds -1 1028 86 10000 5.1 100 02:53 18.01.2020
605 Clouds -1 1028 86 10000 5.7 100 01:52 18.01.2020
606 Clouds -1 1028 86 10000 6.2 90 01:29 18.01.2020
607 Clouds -1 1028 92 10000 5.7 100 00:36 18.01.2020
608 Clouds -1 1028 92 10000 5.7 100 00:18 18.01.2020
609 Clouds -1 1028 92 10000 6.2 100 23:40 17.01.2020
610 Clouds -1 1028 92 10000 6.2 120 23:19 17.01.2020
611 Clouds -1 1028 92 10000 4.6 130 22:44 17.01.2020
612 Clouds -1 1028 92 10000 4.6 130 22:21 17.01.2020
613 Clouds -1 1028 100 10000 5.1 120 21:58 17.01.2020
614 Clouds -1 1028 100 10000 5.1 120 21:58 17.01.2020
615 Clouds -1 1028 100 10000 5.1 120 21:40 17.01.2020
616 Clouds 0 1028 100 10000 5.1 120 21:22 17.01.2020
617 Clouds 0 1028 100 8000 5.1 120 20:57 17.01.2020
618 Clouds 0 1028 100 8000 5.7 120 20:37 17.01.2020
619 Clouds 0 1028 100 8000 5.7 120 20:19 17.01.2020
620 Clouds 0 1029 90 8000 4.6 110 19:54 17.01.2020
621 Clouds 0 1029 90 8000 4.6 110 19:36 17.01.2020
622 Mist -1 1029 100 3300 3.6 100 19:18 17.01.2020
623 Mist -1 1029 100 3300 3.6 100 19:18 17.01.2020
624 Fog -2 1029 100 400 2.6 100 18:44 17.01.2020
625 Fog 0 1028 92 300 1.5 150 18:26 17.01.2020
626 Fog 0 1028 100 250 1 0 17:56 17.01.2020
627 Fog 0 1028 100 250 1 0 17:38 17.01.2020
628 Fog 0 1028 77 450 1.5 90 17:20 17.01.2020
629 Mist 0 1028 77 1600 2.1 70 16:42 17.01.2020
630 Mist 0 1027 77 1300 2.1 70 16:20 17.01.2020
631 Mist 0 1027 77 1200 2.1 120 15:48 17.01.2020
632 Fog 1 1027 77 500 3.1 130 15:27 17.01.2020
633 Fog 0 1027 77 800 1 0 14:56 17.01.2020
634 Fog 1 1027 77 800 1 0 14:38 17.01.2020
635 Mist 1 1027 54 1100 1.5 20 14:20 17.01.2020
636 Mist 1 1027 54 1300 2.08 56 13:39 17.01.2020
637 Mist 2 1027 53 1400 1 0 13:21 17.01.2020
638 Mist 2 1027 53 1400 1 0 13:21 17.01.2020
639 Mist 2 1028 100 1400 1 0 12:45 17.01.2020
640 Mist 2 1028 92 1300 1 0 12:23 17.01.2020
641 Mist 1 1028 100 1300 0.5 0 11:41 17.01.2020
642 Fog 0 1028 92 800 1 0 11:19 17.01.2020
643 Fog 0 1029 92 450 1 0 10:54 17.01.2020
644 Fog 0 1029 92 450 1 0 10:36 17.01.2020
645 Fog -1 1029 100 350 1.72 56 10:18 17.01.2020
646 Fog -2 1029 100 300 1 0 09:41 17.01.2020
647 Fog -2 1029 100 350 1 0 09:20 17.01.2020
648 Fog -2 1029 92 300 1 0 08:55 17.01.2020
649 Fog -4 1029 100 300 1 0 08:36 17.01.2020
650 Fog -4 1029 100 300 1 0 08:18 17.01.2020
651 Fog -5 1029 100 400 0.5 0 07:42 17.01.2020
652 Fog -5 1029 100 400 1.02 25 07:24 17.01.2020
653 Fog -5 1029 100 450 1 0 06:43 17.01.2020
654 Fog -4 1029 92 400 1 0 05:59 17.01.2020
655 Clear -5 1026 92 0 0.99 21 03:44 17.01.2020
656 Fog -4 1029 92 350 1 0 02:55 17.01.2020
657 Fog -4 1029 92 350 1 0 02:28 17.01.2020
658 Clear -4 1025 94 0 0.88 20 01:32 17.01.2020
659 Clear -4 1026 93 0 0.99 6 00:55 17.01.2020
660 Fog -3 1029 92 300 0.99 6 00:28 17.01.2020
661 Fog -3 1029 92 300 0.99 6 23:50 16.01.2020
662 Fog -3 1029 92 300 0.99 6 23:26 16.01.2020
663 Fog -3 1029 92 300 1 0 22:58 16.01.2020
664 Fog -3 1029 92 300 1 0 22:40 16.01.2020
665 Fog -2 1029 92 350 1.5 10 22:21 16.01.2020
666 Fog -2 1029 100 300 1 350 21:55 16.01.2020
667 Fog -2 1029 100 300 1 350 21:37 16.01.2020
668 Fog -2 1029 100 300 1 0 21:18 16.01.2020
669 Fog -2 1029 100 350 1.5 320 20:56 16.01.2020
670 Fog -2 1029 100 350 1.5 320 20:37 16.01.2020
671 Fog -2 1029 100 300 2.1 320 20:18 16.01.2020
672 Fog -1 1029 100 300 0.5 0 19:41 16.01.2020
673 Fog -1 1029 100 350 1 0 19:23 16.01.2020
674 Fog -1 1028 100 350 0.5 0 18:58 16.01.2020
675 Fog -1 1028 100 350 0.5 0 18:39 16.01.2020
676 Fog -1 1028 100 350 1 0 18:21 16.01.2020
677 Fog -1 1028 100 350 0.5 0 17:59 16.01.2020
678 Fog 0 1028 100 450 1 0 17:41 16.01.2020
679 Fog 0 1028 100 350 0.5 0 17:41 16.01.2020
680 Fog 0 1028 100 450 1 0 17:21 16.01.2020
681 Fog 2 1028 92 450 1 0 16:56 16.01.2020
682 Fog 2 1028 92 450 1 0 16:36 16.01.2020
683 Fog 2 1028 92 450 1 0 16:18 16.01.2020
684 Fog -1 1028 92 550 0.5 0 15:42 16.01.2020
685 Fog -1 1028 92 500 0.5 0 15:21 16.01.2020
686 Fog -1 1028 92 750 1 0 14:45 16.01.2020
687 Fog -2 1028 100 700 1 0 14:24 16.01.2020
688 Fog -2 1028 100 750 1 0 13:56 16.01.2020
689 Fog -2 1028 100 750 1 0 13:37 16.01.2020
690 Fog -2 1028 100 650 1.38 56 13:37 16.01.2020
691 Fog -2 1028 100 650 1.37 57 13:19 16.01.2020
692 Fog 4 1029 100 600 1 0 12:43 16.01.2020
693 Fog 3 1029 100 650 0.5 0 12:25 16.01.2020
694 Fog 2 1029 92 500 1 0 11:43 16.01.2020
695 Fog 2 1029 92 400 1 0 11:25 16.01.2020
696 Fog 0 1030 92 400 1.03 65 10:59 16.01.2020
697 Fog -2 1030 92 400 1.03 65 10:38 16.01.2020
698 Fog -2 1030 100 400 1 0 10:20 16.01.2020
699 Fog -3 1030 100 350 1.5 330 09:56 16.01.2020
700 Fog -3 1030 100 350 1.5 330 09:37 16.01.2020
701 Fog -2 1030 92 400 1 0 09:19 16.01.2020
702 Fog -2 1030 92 400 0.5 0 08:48 16.01.2020
703 Fog -3 1030 100 400 0.5 0 08:29 16.01.2020
704 Fog -4 1030 100 550 0.54 128 07:44 16.01.2020
705 Fog -4 1030 100 650 1 0 07:25 16.01.2020
706 Fog -4 1030 100 800 1.5 70 06:59 16.01.2020
707 Fog -4 1030 100 800 1.5 70 06:37 16.01.2020
708 Fog -3 1030 92 650 0.5 0 05:56 16.01.2020
709 Fog -3 1030 92 650 0.5 0 05:56 16.01.2020
710 Fog -3 1029 92 700 0.54 128 05:31 16.01.2020
711 Fog -3 1029 92 650 0.5 0 04:37 16.01.2020
712 Fog -4 1030 100 550 0.5 0 03:28 16.01.2020
713 Fog -4 1030 100 550 0.59 144 02:29 16.01.2020
714 Fog -4 1030 100 450 1 0 00:45 16.01.2020
715 Fog -3 1030 100 500 1 0 00:24 16.01.2020
716 Fog -3 1030 100 550 1 0 23:48 15.01.2020
717 Fog -3 1030 100 450 0.6 150 23:22 15.01.2020
718 Fog -2 1030 92 450 1 0 22:57 15.01.2020
719 Fog -2 1030 92 450 1 0 22:39 15.01.2020
720 Fog -2 1031 92 450 0.5 0 22:19 15.01.2020
721 Fog -2 1031 100 500 1 0 21:57 15.01.2020
722 Fog -2 1031 100 500 1 0 21:37 15.01.2020
723 Fog -2 1031 100 450 1 0 21:19 15.01.2020
724 Fog -2 1031 100 450 1 80 20:56 15.01.2020
725 Fog -2 1031 100 450 1 80 20:38 15.01.2020
726 Fog -2 1031 100 400 1 0 20:19 15.01.2020
727 Fog -2 1031 100 450 1.5 100 19:54 15.01.2020
728 Fog -1 1031 100 450 1.5 100 19:36 15.01.2020
729 Fog -1 1031 100 400 1 0 19:18 15.01.2020
730 Fog -1 1031 100 400 1 0 19:18 15.01.2020
731 Fog -1 1030 100 350 0.5 0 18:56 15.01.2020
732 Fog -1 1030 100 350 0.5 0 18:37 15.01.2020
733 Fog -1 1030 100 350 0.5 0 18:37 15.01.2020
734 Fog 0 1030 92 350 1 0 18:19 15.01.2020
735 Fog 0 1030 92 400 1 0 17:55 15.01.2020
736 Fog 1 1030 92 400 1 0 17:36 15.01.2020
737 Fog 1 1030 100 350 1 0 17:18 15.01.2020
738 Fog 2 1029 100 350 1 0 16:39 15.01.2020
739 Fog -1 1029 100 300 0.5 0 16:21 15.01.2020
740 Fog -1 1029 100 300 0.5 0 16:21 15.01.2020
741 Fog -1 1029 100 350 1.19 107 15:44 15.01.2020
742 Fog -1 1029 100 400 0.5 0 15:22 15.01.2020
743 Fog -1 1029 100 400 1 0 14:59 15.01.2020
744 Fog -1 1029 100 400 1 0 14:41 15.01.2020
745 Fog -1 1029 100 550 1.5 230 14:18 15.01.2020
746 Fog -1 1029 100 500 1 0 13:46 15.01.2020
747 Fog -1 1029 100 600 0.5 0 13:26 15.01.2020
748 Fog 8 1030 100 600 0.5 0 12:58 15.01.2020
749 Fog 8 1030 100 600 0.5 0 12:39 15.01.2020
750 Fog 8 1030 92 750 0.5 0 12:19 15.01.2020
751 Fog 2 1030 92 750 1 0 11:56 15.01.2020
752 Fog 2 1030 92 750 1 0 11:36 15.01.2020
753 Fog 2 1030 92 900 0.5 0 11:18 15.01.2020
754 Fog 2 1031 100 600 1 0 10:41 15.01.2020
755 Fog 2 1031 100 550 1.5 0 10:23 15.01.2020
756 Fog -2 1031 100 400 1 0 09:42 15.01.2020
757 Fog -2 1031 100 400 1.5 60 09:22 15.01.2020
758 Fog -2 1030 100 400 1.5 30 08:55 15.01.2020
759 Fog -2 1030 100 400 0.75 80 08:37 15.01.2020
760 Fog -4 1030 100 400 0.07 258 08:19 15.01.2020
761 Fog -5 1030 100 450 1.5 60 07:43 15.01.2020
762 Fog -5 1030 100 500 0.5 0 07:24 15.01.2020
763 Fog -5 1030 100 550 1 0 06:44 15.01.2020
764 Fog -5 1029 100 450 0.5 0 05:57 15.01.2020
765 Fog -4 1029 92 400 0.44 298 03:56 15.01.2020
766 Fog -4 1029 100 300 1 300 02:28 15.01.2020
767 Fog -3 1028 100 250 1.5 240 01:22 15.01.2020
768 Fog -2 1029 92 300 0.5 0 00:44 15.01.2020
769 Fog -2 1028 92 300 1 350 00:25 15.01.2020
770 Fog -3 1028 100 250 0.56 221 23:47 14.01.2020
771 Fog -3 1028 100 250 0.56 221 23:29 14.01.2020
772 Fog -2 1028 92 300 0.69 285 22:58 14.01.2020
773 Fog -3 1028 92 300 0.69 285 22:40 14.01.2020
774 Fog -3 1028 100 250 1 0 22:19 14.01.2020
775 Fog -3 1028 100 300 1.5 130 21:58 14.01.2020
776 Fog -2 1028 92 300 1.5 110 21:39 14.01.2020
777 Fog -2 1028 92 300 1.5 110 21:19 14.01.2020
778 Fog -2 1028 92 250 1.5 100 20:56 14.01.2020
779 Fog -1 1028 92 250 1.5 100 20:38 14.01.2020
780 Fog -2 1027 100 250 2.1 90 20:18 14.01.2020
781 Fog 0 1027 100 250 2.1 90 19:55 14.01.2020
782 Fog 0 1027 100 250 2.1 90 19:37 14.01.2020
783 Mist 1 1027 100 3500 1.5 130 19:18 14.01.2020
784 Mist 1 1027 100 3500 1.5 130 19:18 14.01.2020
785 Mist 1 1026 85 5000 1.5 140 18:41 14.01.2020
786 Mist 1 1026 85 5000 1.5 140 18:20 14.01.2020
787 Mist 1 1026 85 5000 1.5 140 17:56 14.01.2020
788 Mist 1 1026 85 5000 1.5 140 17:36 14.01.2020
789 Mist 2 1026 83 5000 2.6 130 17:18 14.01.2020
790 Mist 3 1026 86 4500 2.6 120 16:42 14.01.2020
791 Mist 5 1025 83 5000 3.1 110 16:22 14.01.2020
792 Mist 3 1025 83 5000 2.6 110 15:56 14.01.2020
793 Mist 4 1025 80 5000 3.6 100 15:38 14.01.2020
794 Mist 4 1025 80 5000 3.6 100 15:19 14.01.2020
795 Mist 4 1025 80 4700 2.6 80 14:43 14.01.2020
796 Mist 4 1025 80 4000 2.6 90 14:20 14.01.2020
797 Mist 4 1025 80 4000 1.5 120 13:55 14.01.2020
798 Mist 7 1025 80 4000 1.5 120 13:37 14.01.2020
799 Mist 7 1025 60 4000 0.5 0 13:18 14.01.2020
800 Mist 8 1026 60 4000 1 0 12:41 14.01.2020
801 Mist 7 1026 60 4300 2.1 310 12:20 14.01.2020
802 Mist 7 1026 60 4200 0.5 0 11:43 14.01.2020
803 Mist 6 1026 60 4200 0.5 0 11:25 14.01.2020
804 Mist 5 1026 64 5000 1.5 10 10:59 14.01.2020
805 Mist 4 1026 64 5000 1.5 10 10:40 14.01.2020
806 Mist 3 1026 64 4500 1 0 10:20 14.01.2020
807 Mist 3 1026 64 5000 1.5 360 09:58 14.01.2020
808 Mist 2 1026 64 5000 1.5 360 09:40 14.01.2020
809 Mist 2 1026 64 5000 1.5 360 09:20 14.01.2020
810 Mist 1 1026 64 5000 1.5 350 08:48 14.01.2020
811 Mist 1 1026 64 5000 0.61 286 08:25 14.01.2020
812 Mist 1 1026 85 5000 2.1 310 07:53 14.01.2020
813 Mist 1 1026 85 5000 0.9 257 07:33 14.01.2020
814 Clouds 1 1025 85 6000 1.5 350 06:54 14.01.2020
815 Clouds 1 1025 85 6000 1.5 360 06:27 14.01.2020
816 Clouds 1 1025 85 7000 1 330 05:25 14.01.2020
817 Mist 1 1025 87 5000 1 140 03:52 14.01.2020
818 Mist 2 1025 93 5000 1.02 252 02:42 14.01.2020
819 Mist 2 1025 93 5000 1.06 259 01:53 14.01.2020
820 Mist 2 1025 93 5000 1 360 00:51 14.01.2020
821 Mist 2 1025 93 5000 1.5 360 00:32 14.01.2020
822 Mist 2 1025 93 5000 2.1 350 23:54 13.01.2020
823 Mist 2 1025 93 5000 2.1 350 23:54 13.01.2020
824 Mist 2 1025 93 5000 2.1 350 23:36 13.01.2020
825 Mist 2 1026 93 5000 1.5 330 23:18 13.01.2020
826 Clouds 2 1026 93 6000 2.1 340 22:41 13.01.2020
827 Clouds 2 1026 93 7000 2.1 330 22:21 13.01.2020
828 Clouds 2 1026 93 7000 2.6 330 21:56 13.01.2020
829 Clouds 2 1026 93 7000 2.6 330 21:38 13.01.2020
830 Clouds 2 1025 93 7000 2.1 320 21:18 13.01.2020
831 Clouds 3 1025 86 6000 1 0 20:57 13.01.2020
832 Clouds 3 1025 86 6000 1 0 20:38 13.01.2020
833 Clouds 3 1025 86 7000 1 0 20:20 13.01.2020
834 Mist 3 1026 86 5000 1 0 19:57 13.01.2020
835 Mist 3 1026 86 5000 1 0 19:38 13.01.2020
836 Mist 3 1026 86 5000 1.5 150 19:18 13.01.2020
837 Mist 3 1026 86 5000 1.5 0 18:56 13.01.2020
838 Mist 3 1026 86 5000 1.5 0 18:56 13.01.2020
839 Mist 3 1026 86 5000 1.5 0 18:37 13.01.2020
840 Mist 3 1026 86 5000 1.5 0 18:37 13.01.2020
841 Mist 3 1026 86 5000 1.5 170 18:18 13.01.2020
842 Clouds 3 1025 86 7000 1 0 17:40 13.01.2020
843 Clouds 3 1025 86 7000 1 0 17:40 13.01.2020
844 Clouds 3 1025 86 7000 1.5 140 17:22 13.01.2020
845 Mist 3 1025 86 5000 1.5 150 16:56 13.01.2020
846 Mist 3 1025 86 5000 1.5 150 16:37 13.01.2020
847 Clear 4 1023 85 0 1.79 346 16:19 13.01.2020
848 Clear 4 1023 83 0 1.34 344 15:43 13.01.2020
849 Clear 2 1025 89 0 0.63 264 15:22 13.01.2020
850 Clear 2 1025 89 0 0.63 264 15:22 13.01.2020
851 Clear 5 1023 78 0 2.24 3 14:57 13.01.2020
852 Clear 6 1023 76 0 1.79 318 14:37 13.01.2020
853 Clear 6 1023 76 0 1.79 318 14:37 13.01.2020
854 Clear 6 1023 75 0 1.34 286 14:18 13.01.2020
855 Clear 7 1024 72 0 1.34 9 13:41 13.01.2020
856 Clear 7 1024 73 0 1.34 357 13:22 13.01.2020
857 Clouds 5 1027 86 7000 1.5 320 12:58 13.01.2020
858 Clouds 5 1027 86 7000 1.5 320 12:40 13.01.2020
859 Clouds 5 1027 86 7000 1.5 320 12:21 13.01.2020
860 Clouds 5 1027 86 7000 1.5 320 11:56 13.01.2020
861 Clouds 5 1027 86 7000 1.5 320 11:36 13.01.2020
862 Clouds 5 1028 86 8000 1 0 11:18 13.01.2020
863 Clouds 5 1028 86 8000 1 0 11:18 13.01.2020
864 Clouds 5 1028 86 8000 1 0 11:18 13.01.2020
865 Clouds 4 1028 86 6000 1 0 10:55 13.01.2020
866 Clouds 4 1028 86 6000 1 0 10:36 13.01.2020
867 Mist 4 1028 86 5000 1.5 350 10:18 13.01.2020
868 Mist 3 1028 93 4500 1.5 360 09:40 13.01.2020
869 Mist 3 1028 93 4500 1.5 360 09:40 13.01.2020
870 Mist 2 1028 93 1700 1 300 09:22 13.01.2020
871 Mist 2 1028 93 1600 1 10 08:41 13.01.2020
872 Mist 2 1028 93 1500 1 0 08:21 13.01.2020
873 Mist 2 1027 100 1600 1 0 07:52 13.01.2020
874 Mist 1 1028 100 2500 1 40 07:33 13.01.2020
875 Mist 1 1028 100 4000 0.5 20 06:44 13.01.2020
876 Mist 1 1027 100 3700 1 0 06:22 13.01.2020
877 Mist 1 1028 100 4800 1 0 05:36 13.01.2020
878 Mist 1 1028 100 4000 1.21 277 03:57 13.01.2020
879 Mist 0 1028 95 5000 1.21 277 03:25 13.01.2020
880 Mist 0 1029 95 4300 1.21 277 02:47 13.01.2020
881 Mist 0 1029 95 5000 1.21 277 02:28 13.01.2020
882 Mist 1 1029 97 4000 1.01 170 01:21 13.01.2020
883 Mist 1 1029 100 4100 1 0 00:41 13.01.2020
884 Mist 1 1029 100 3200 2.1 110 00:22 13.01.2020
885 Mist 1 1029 100 2600 1.5 100 23:44 12.01.2020
886 Mist 1 1029 93 2800 1.5 140 23:24 12.01.2020
887 Mist 1 1029 98 2500 1 0 22:58 12.01.2020
888 Mist 1 1029 98 2500 1 0 22:40 12.01.2020
889 Mist 1 1029 98 2300 0.5 0 22:21 12.01.2020
890 Mist 1 1029 98 2400 0.71 122 21:56 12.01.2020
891 Mist 1 1029 98 2800 1.5 240 21:38 12.01.2020
892 Mist 1 1029 98 2800 1.5 240 21:38 12.01.2020
893 Mist 1 1029 98 2800 1.5 240 21:19 12.01.2020
894 Mist 1 1029 93 3000 1.5 90 20:56 12.01.2020
895 Mist 1 1029 93 3000 1.5 90 20:37 12.01.2020
896 Mist 1 1028 93 5000 2.1 100 20:19 12.01.2020
897 Mist 1 1028 93 5000 2.1 100 20:19 12.01.2020
898 Clouds 2 1028 86 6000 2.1 110 19:55 12.01.2020
899 Clouds 2 1028 86 6000 2.1 110 19:37 12.01.2020
900 Clouds 2 1028 86 7000 3.1 100 19:18 12.01.2020
901 Clouds 3 1029 86 7000 3.1 110 18:57 12.01.2020
902 Clouds 4 1029 86 8000 3.1 130 18:38 12.01.2020
903 Clouds 4 1029 86 8000 3.1 130 18:20 12.01.2020
904 Clouds 4 1028 86 8000 3.1 120 17:42 12.01.2020
905 Clouds 4 1028 86 8000 3.1 110 17:23 12.01.2020
906 Clouds 4 1028 86 7000 2.1 110 16:59 12.01.2020
907 Clouds 4 1028 86 7000 2.1 110 16:39 12.01.2020
908 Clouds 4 1028 86 7000 2.1 150 16:20 12.01.2020
909 Clouds 4 1028 80 6000 2.1 130 15:56 12.01.2020
910 Clouds 4 1028 80 6000 2.1 130 15:38 12.01.2020
911 Clouds 5 1028 80 6000 2.6 120 15:20 12.01.2020
912 Clouds 5 1028 80 7000 2.1 120 14:42 12.01.2020
913 Clouds 5 1028 80 6000 2.1 130 14:23 12.01.2020
914 Mist 5 1028 80 5000 1 0 13:57 12.01.2020
915 Mist 5 1028 80 5000 1 0 13:39 12.01.2020
916 Mist 4 1028 86 5000 1.5 140 13:20 12.01.2020
917 Mist 5 1028 86 4000 1 0 12:56 12.01.2020
918 Mist 4 1028 86 4000 1 0 12:37 12.01.2020
919 Mist 4 1028 86 4000 1 0 12:19 12.01.2020
920 Mist 4 1029 93 3500 1.5 60 11:42 12.01.2020
921 Mist 3 1029 86 2700 2.1 70 11:22 12.01.2020
922 Snow 3 1029 93 2500 2.6 110 10:56 12.01.2020
923 Snow 3 1029 100 1800 2.6 130 10:37 12.01.2020
924 Snow 2 1029 100 1800 2.6 130 10:19 12.01.2020
925 Snow 2 1029 98 900 3.1 130 09:42 12.01.2020
926 Snow 2 1028 98 1000 2.6 130 09:22 12.01.2020
927 Snow 1 1028 98 1200 1.5 100 08:48 12.01.2020
928 Snow 1 1028 98 2100 2.1 90 08:24 12.01.2020
929 Snow 1 1027 98 2300 2.1 100 07:47 12.01.2020
930 Snow 1 1027 86 3000 1.5 110 07:26 12.01.2020
931 Snow 1 1027 86 3000 1.5 110 07:26 12.01.2020
932 Snow 1 1027 98 5000 2.6 130 06:54 12.01.2020
933 Snow 1 1027 98 5000 2.1 150 06:36 12.01.2020
934 Clouds 1 1027 98 6000 1.5 110 05:50 12.01.2020
935 Snow 1 1026 98 7000 1.5 100 04:54 12.01.2020
936 Clouds 2 1026 98 7000 4.6 270 03:35 12.01.2020
937 Clouds 2 1026 98 7000 5.1 280 02:43 12.01.2020
938 Clouds 2 1026 98 7000 5.7 270 02:24 12.01.2020
939 Clouds 2 1026 98 7000 5.1 280 01:31 12.01.2020
940 Clouds 2 1026 98 7000 5.7 280 00:46 12.01.2020
941 Clouds 2 1025 98 7000 5.7 280 00:22 12.01.2020
942 Snow 2 1025 80 7000 6.2 260 23:56 11.01.2020
943 Snow 2 1025 80 7000 6.2 260 23:37 11.01.2020
944 Snow 2 1025 86 7000 5.1 270 23:18 11.01.2020
945 Snow 2 1026 80 7000 3.6 280 22:56 11.01.2020
946 Snow 2 1026 80 7000 3.6 280 22:37 11.01.2020
947 Snow 2 1026 80 7000 3.1 280 22:18 11.01.2020
948 Snow 3 1026 74 8000 3.6 280 21:43 11.01.2020
949 Snow 3 1026 98 8000 4.6 280 21:19 11.01.2020
950 Snow 4 1025 69 8000 3.6 290 20:56 11.01.2020
951 Snow 4 1025 69 8000 3.6 290 20:37 11.01.2020
952 Snow 4 1025 69 8000 4.1 280 20:19 11.01.2020
953 Snow 4 1025 89 8000 4.1 280 19:55 11.01.2020
954 Snow 4 1025 89 8000 4.1 280 19:55 11.01.2020
955 Snow 4 1025 89 8000 4.1 280 19:36 11.01.2020
956 Clouds 4 1025 89 10000 5.1 280 19:18 11.01.2020
957 Clouds 4 1025 89 10000 5.1 280 18:54 11.01.2020
958 Clouds 4 1025 89 10000 5.1 280 18:36 11.01.2020
959 Snow 5 1025 89 8000 6.2 280 18:18 11.01.2020
960 Clouds 5 1024 89 8000 6.2 280 17:54 11.01.2020
961 Clouds 5 1024 89 8000 6.2 280 17:36 11.01.2020
962 Clouds 5 1024 84 10000 4.6 270 17:18 11.01.2020
963 Clouds 5 1024 65 10000 5.1 280 16:41 11.01.2020
964 Clouds 5 1024 65 8000 6.2 280 16:22 11.01.2020
965 Clouds 5 1024 65 8000 6.2 280 16:22 11.01.2020
966 Clouds 5 1024 65 8000 6.2 280 15:42 11.01.2020
967 Clouds 6 1024 60 8000 6.2 290 15:24 11.01.2020
968 Clouds 6 1023 60 8000 7.7 290 14:58 11.01.2020
969 Clouds 6 1023 60 8000 7.7 290 14:40 11.01.2020
970 -273 0 0 0 0 0 14:22 11.01.2020
971 Clouds 6 1023 60 8000 5.1 280 13:55 11.01.2020
972 Clouds 6 1023 60 8000 5.1 280 13:55 11.01.2020
973 Clouds 7 1023 56 8000 5.1 280 13:36 11.01.2020
974 Clouds 7 1023 56 8000 5.1 280 13:18 11.01.2020
975 Clouds 7 1023 56 8000 6.2 280 12:42 11.01.2020
976 Clouds 7 1024 52 8000 5.7 280 12:23 11.01.2020
977 Clouds 8 1024 52 8000 5.7 280 11:48 11.01.2020
978 Clouds 7 1024 56 8000 5.7 280 11:27 11.01.2020
979 Clouds 6 1024 60 8000 2.6 300 10:55 11.01.2020
980 Clouds 7 1024 60 8000 2.6 300 10:36 11.01.2020
981 Clouds 7 1024 60 8000 2.6 300 10:36 11.01.2020
982 Clouds 6 1025 69 6000 2.1 330 10:18 11.01.2020
983 Mist 4 1025 74 5000 1 0 09:39 11.01.2020
984 Clouds 3 1025 57 7000 0.5 0 09:20 11.01.2020
985 Clouds 3 1025 57 7000 0.5 0 09:20 11.01.2020
986 Mist 2 1025 86 5000 1 0 08:42 11.01.2020
987 Clouds 1 1024 92 6000 2.1 90 08:22 11.01.2020
988 Clouds -2 1024 92 6000 1 0 07:44 11.01.2020
989 Mist -3 1024 92 4700 2.1 80 07:25 11.01.2020
990 Clouds -3 1024 92 6000 0.5 0 06:51 11.01.2020
991 Clouds -4 1024 100 6000 0.5 0 05:48 11.01.2020
992 Mist -4 1024 85 5000 1 0 04:47 11.01.2020
993 Mist -4 1023 92 5000 1.33 284 04:28 11.01.2020
994 Mist -4 1024 92 5000 1.33 284 02:49 11.01.2020
995 Mist -4 1024 92 5000 1 0 02:27 11.01.2020
996 Mist -3 1023 92 5000 1.5 80 01:43 11.01.2020
997 Mist -3 1023 86 5000 1 0 01:19 11.01.2020
998 Mist -2 1023 86 4000 1 0 00:40 11.01.2020
999 Mist -2 1023 86 3800 1.5 160 23:59 10.01.2020
1000 Mist -2 1023 86 3800 1.5 160 23:40 10.01.2020
1001 Mist -2 1023 86 5000 1.07 263 23:22 10.01.2020
1002 Mist -2 1023 86 4200 1.07 263 22:58 10.01.2020
1003 Mist -2 1023 86 4200 1.07 263 22:40 10.01.2020
1004 Mist -1 1023 86 4000 1 0 22:20 10.01.2020
1005 Mist -1 1023 80 5000 1.5 220 21:56 10.01.2020
1006 Mist -1 1023 80 5000 1.5 220 21:36 10.01.2020
1007 Mist 0 1023 81 5000 1.5 180 21:18 10.01.2020
1008 Mist 0 1022 80 5000 0.5 0 20:43 10.01.2020
1009 Mist 0 1023 81 5000 2.1 170 20:43 10.01.2020
1010 Mist -1 1022 80 5000 0.5 0 20:24 10.01.2020
1011 Smoke 0 1022 76 6000 1.04 263 19:58 10.01.2020
1012 Clear 1 1022 76 7000 0.5 0 19:38 10.01.2020
1013 Clear 1 1022 76 7000 0.5 0 19:19 10.01.2020
1014 Clear 1 1022 64 7000 0.5 0 18:43 10.01.2020
1015 Clear 2 1022 59 8000 1.04 263 18:19 10.01.2020
1016 Clear 3 1022 55 10000 1 150 17:57 10.01.2020
1017 Clear 3 1022 55 10000 1 150 17:39 10.01.2020
1018 Clear 4 1021 51 10000 1 0 17:20 10.01.2020
1019 Clear 5 1021 45 10000 1 100 16:56 10.01.2020
1020 Clear 6 1021 42 10000 1.5 90 16:37 10.01.2020
1021 Clear 7 1021 42 10000 1.5 90 16:19 10.01.2020
1022 Clear 9 1021 39 10000 1 80 15:56 10.01.2020
1023 Clear 9 1021 39 10000 1 80 15:36 10.01.2020
1024 Clear 9 1021 36 10000 1 0 15:18 10.01.2020
1025 Clear 9 1021 36 10000 0.5 0 14:54 10.01.2020
1026 Clear 9 1021 36 10000 1 0 14:36 10.01.2020
1027 Clear 9 1021 36 10000 1 0 14:18 10.01.2020
1028 Clear 9 1021 36 10000 1 0 13:41 10.01.2020
1029 Clear 8 1021 39 10000 1 0 13:23 10.01.2020
1030 Clear 7 1022 42 10000 1.5 0 12:58 10.01.2020
1031 Clear 7 1022 42 10000 1 0 12:38 10.01.2020
1032 Clear 7 1022 42 10000 1 0 12:19 10.01.2020
1033 Clear 6 1023 45 8000 0.5 0 11:55 10.01.2020
1034 Clear 10 1023 45 8000 0.5 0 11:37 10.01.2020
1035 Clear 4 1023 55 8000 1 0 11:18 10.01.2020
1036 Clear 8 1024 55 7000 0.5 0 10:42 10.01.2020
1037 Clear 6 1024 64 7000 0.5 0 10:24 10.01.2020
1038 Clear 4 1024 69 7000 1 0 09:56 10.01.2020
1039 Clear 4 1024 69 7000 1 0 09:56 10.01.2020
1040 Clear 3 1024 80 7000 1 0 09:37 10.01.2020
1041 Clear 3 1024 80 7000 1 0 09:19 10.01.2020
1042 Clear 1 1024 74 7000 1 0 08:41 10.01.2020
1043 Clouds -1 1024 79 6000 1.5 140 08:23 10.01.2020
1044 Clouds -4 1024 92 6000 1 170 07:45 10.01.2020
1045 Clouds -4 1024 92 6000 0.5 0 07:26 10.01.2020
1046 Clouds -5 1023 92 6000 1.5 90 06:46 10.01.2020
1047 Clouds -4 1023 86 8000 1.5 110 06:26 10.01.2020
1048 Clouds -4 1023 86 8000 1 0 05:48 10.01.2020
1049 Mist -4 1024 92 5000 1 240 03:37 10.01.2020
1050 Clear -4 1024 92 6000 1.05 272 03:18 10.01.2020
1051 Clear -4 1024 92 6000 1 70 02:39 10.01.2020
1052 Clouds -4 1024 92 6000 1.5 150 01:38 10.01.2020
1053 Clouds -4 1024 92 6000 1.5 150 01:19 10.01.2020
1054 Clouds -3 1024 86 7000 1.5 160 00:39 10.01.2020
1055 Clouds -3 1024 86 8000 1 110 23:58 09.01.2020
1056 Clouds -3 1024 86 8000 1 110 23:38 09.01.2020
1057 Clouds -3 1025 86 6000 1.5 80 23:20 09.01.2020
1058 Mist -2 1025 79 5000 1.5 80 22:57 09.01.2020
1059 Mist -2 1025 79 5000 1.5 80 22:37 09.01.2020
1060 Clouds -2 1025 79 6000 2.1 160 22:19 09.01.2020
1061 Clouds -2 1025 86 8000 1.5 130 21:56 09.01.2020
1062 Clouds -1 1025 86 8000 1.5 130 21:37 09.01.2020
1063 Clouds -1 1025 86 8000 1.5 130 21:37 09.01.2020
1064 Clouds -1 1025 86 8000 1.5 130 21:37 09.01.2020
1065 Clouds -1 1025 79 8000 1.5 150 21:18 09.01.2020
1066 Clouds -1 1025 79 10000 1.12 269 20:56 09.01.2020
1067 Clouds -1 1025 79 10000 1.12 269 20:38 09.01.2020
1068 Clouds 0 1025 74 10000 1 40 20:19 09.01.2020
1069 Clouds 0 1025 74 10000 1 40 20:19 09.01.2020
1070 Clouds -1 1025 74 10000 1 300 19:55 09.01.2020
1071 Clouds 0 1025 56 10000 1.5 260 19:36 09.01.2020
1072 Clouds 0 1025 56 10000 1.5 260 19:18 09.01.2020
1073 Clouds 0 1025 56 8000 1.5 310 18:54 09.01.2020
1074 Clouds 0 1025 74 8000 0.5 0 18:36 09.01.2020
1075 Clouds 0 1025 74 8000 0.5 0 18:18 09.01.2020
1076 Clouds 0 1025 74 8000 0.5 0 18:18 09.01.2020
1077 Clouds 0 1025 56 7000 1 0 17:40 09.01.2020
1078 Clouds 1 1025 61 7000 1 0 17:18 09.01.2020
1079 Clouds 1 1025 61 7000 1 0 17:18 09.01.2020
1080 Clouds 2 1025 59 8000 0.5 0 16:47 09.01.2020
1081 Clouds 2 1025 55 8000 1.5 130 16:22 09.01.2020
1082 Clouds 4 1025 48 10000 2.1 160 15:44 09.01.2020
1083 Clouds 4 1025 48 10000 2.1 160 15:25 09.01.2020
1084 Clouds 4 1025 48 10000 1.5 150 14:59 09.01.2020
1085 Clouds 4 1025 51 10000 1 0 14:41 09.01.2020
1086 Clouds 4 1025 51 10000 1 0 14:19 09.01.2020
1087 Clouds 3 1025 51 10000 0.5 0 13:56 09.01.2020
1088 Clouds 3 1025 51 10000 1 0 13:38 09.01.2020
1089 Clouds 3 1025 51 10000 1 0 13:19 09.01.2020
1090 Clouds 4 1026 55 9000 1 0 12:56 09.01.2020
1091 Clouds 3 1026 46 8000 2.6 280 12:38 09.01.2020
1092 Clouds 3 1027 46 8000 2.6 260 12:18 09.01.2020
1093 Clouds 1 1028 74 8000 2.1 290 11:42 09.01.2020
1094 Clouds 1 1028 74 8000 2.1 290 11:24 09.01.2020
1095 Clouds 1 1028 74 8000 2.1 290 11:24 09.01.2020
1096 Clouds 1 1028 74 8000 2.1 290 11:24 09.01.2020
1097 Clouds 1 1028 68 8000 1.5 250 10:58 09.01.2020
1098 Clouds 0 1028 79 8000 1 0 10:40 09.01.2020
1099 Clouds 0 1028 79 8000 1 0 10:21 09.01.2020
1100 Mist -2 1029 79 5000 1.5 130 09:47 09.01.2020
1101 Mist -2 1029 79 5000 1.5 130 09:25 09.01.2020
1102 Mist -4 1029 85 5000 1 0 08:58 09.01.2020
1103 Mist -5 1029 92 5000 1.5 110 08:39 09.01.2020
1104 Mist -5 1029 92 5000 1.5 110 08:20 09.01.2020
1105 Mist -5 1029 92 5000 1.5 110 08:20 09.01.2020
1106 Mist -8 1029 92 5000 2.1 30 07:47 09.01.2020
1107 Mist -8 1029 92 5000 0.5 0 07:28 09.01.2020
1108 Clear -9 1029 85 7000 2.1 120 06:40 09.01.2020
1109 Clear -9 1029 85 7000 2.1 120 06:22 09.01.2020
1110 Clear -9 1029 92 7000 2.1 80 05:51 09.01.2020
1111 Clear -9 1028 85 7000 1.5 80 05:18 09.01.2020
1112 Clear -9 1028 85 6000 1 220 04:38 09.01.2020
1113 Clear -8 1029 85 7000 0.5 310 03:27 09.01.2020
1114 Clear -8 1029 85 7000 1.5 350 02:46 09.01.2020
1115 Clear -7 1030 85 8000 1 0 01:42 09.01.2020
1116 Clear -7 1030 79 8000 1.5 240 00:57 09.01.2020
1117 Clear -7 1030 85 7000 1 0 00:37 09.01.2020
1118 Clear -7 1030 85 7000 1 0 00:19 09.01.2020
1119 Clear -6 1030 85 6000 1.5 100 23:39 08.01.2020
1120 Clouds -6 1030 85 6000 1.5 100 23:20 08.01.2020
1121 Clouds -5 1030 73 9000 1 0 22:40 08.01.2020
1122 Clouds -5 1030 73 9000 1 0 22:21 08.01.2020
1123 Clouds -5 1030 73 10000 3.1 280 21:58 08.01.2020
1124 Clouds -4 1030 73 10000 3.6 280 21:40 08.01.2020
1125 Clouds -4 1030 73 10000 3.6 280 21:40 08.01.2020
1126 Clouds -3 1030 73 10000 3.6 280 21:20 08.01.2020
1127 Clouds -4 1030 73 10000 4.6 270 20:59 08.01.2020
1128 Clouds -3 1031 68 10000 3.6 280 20:40 08.01.2020
1129 Clear -4 1031 68 10000 3.6 280 20:20 08.01.2020
1130 Clear -4 1031 68 10000 3.6 280 20:20 08.01.2020
1131 Clear -3 1030 68 10000 3.6 280 19:57 08.01.2020
1132 Clear -2 1030 68 10000 4.6 280 19:38 08.01.2020
1133 Clear -2 1030 68 10000 4.6 280 19:19 08.01.2020
1134 Clear -2 1030 63 10000 4.6 280 18:57 08.01.2020
1135 Clear -2 1030 63 10000 4.1 270 18:38 08.01.2020
1136 Clear -2 1030 63 10000 4.1 270 18:18 08.01.2020
1137 Clear -1 1029 58 10000 3.1 290 17:56 08.01.2020
1138 Clear -1 1029 58 10000 3.1 290 17:56 08.01.2020
1139 Clear -1 1029 58 10000 4.6 280 17:37 08.01.2020
1140 Clear 0 1029 47 10000 4.1 290 17:18 08.01.2020
1141 Clear 0 1029 47 10000 4.1 290 16:54 08.01.2020
1142 Clear 1 1029 47 10000 4.1 300 16:36 08.01.2020
1143 Clear 1 1029 47 10000 4.1 300 16:18 08.01.2020
1144 Clear 3 1029 40 10000 3.1 290 15:41 08.01.2020
1145 Clear 3 1029 40 10000 3.1 290 15:21 08.01.2020
1146 Clear 3 1028 40 10000 2.6 290 14:57 08.01.2020
1147 Clear 3 1028 37 10000 2.6 270 14:39 08.01.2020
1148 Clear 3 1028 37 10000 2.6 270 14:20 08.01.2020
1149 Clear 3 1029 40 10000 3.1 290 13:40 08.01.2020
1150 Clear 3 1029 40 10000 3.1 290 13:40 08.01.2020
1151 Clear 3 1029 40 10000 3.1 290 13:19 08.01.2020
1152 Clear 3 1029 47 10000 3.6 290 12:42 08.01.2020
1153 Clear 3 1029 47 10000 3.6 290 12:19 08.01.2020
1154 Clear 2 1030 42 10000 3.1 280 11:55 08.01.2020
1155 Clear 2 1030 42 10000 3.1 280 11:55 08.01.2020
1156 Clear 1 1030 68 10000 3.6 300 11:37 08.01.2020
1157 Clear 0 1030 68 10000 2.6 300 11:19 08.01.2020
1158 Clear 0 1030 68 10000 2.6 300 10:55 08.01.2020
1159 Clear -1 1030 73 10000 3.1 280 10:37 08.01.2020
1160 Clear -1 1030 79 8000 2.6 290 10:18 08.01.2020
1161 Clear -3 1030 92 6000 2.6 290 09:41 08.01.2020
1162 Clear -3 1030 92 6000 2.6 290 09:19 08.01.2020
1163 Mist -3 1030 85 5000 2.1 310 08:56 08.01.2020
1164 Mist -6 1030 85 3000 1.31 354 08:37 08.01.2020
1165 Mist -6 1030 85 3000 1.24 317 08:19 08.01.2020
1166 Clear -8 1030 85 6000 1.5 220 07:48 08.01.2020
1167 Clear -9 1029 92 6000 1 130 07:29 08.01.2020
1168 Clouds -9 1029 92 8000 1.5 70 06:45 08.01.2020
1169 Clouds -8 1029 92 8000 1.5 70 06:19 08.01.2020
1170 Clear -9 1028 85 6000 1.24 317 05:41 08.01.2020
1171 Clear -9 1028 85 6000 1.24 317 05:41 08.01.2020
1172 Clear -9 1028 92 7000 1 0 04:56 08.01.2020
1173 Clear -9 1028 92 7000 1.01 327 04:24 08.01.2020
1174 Clear -8 1028 85 6000 1 80 02:45 08.01.2020
1175 Clear -8 1028 85 6000 1 80 02:21 08.01.2020
1176 Clear -8 1028 92 8000 2.1 290 01:42 08.01.2020
1177 Clear -8 1028 92 7000 1.5 240 00:59 08.01.2020
1178 Clear -7 1028 85 8000 1 0 00:27 08.01.2020
1179 Clear -6 1028 85 7000 1.5 330 23:47 07.01.2020
1180 Clear -6 1028 85 7000 1.5 330 23:47 07.01.2020
1181 Clear -6 1027 92 7000 1.5 330 23:22 07.01.2020
1182 Clear -6 1027 79 8000 1.5 240 22:58 07.01.2020
1183 Clear -6 1027 85 10000 2.1 310 22:39 07.01.2020
1184 Clear -6 1027 85 10000 2.1 310 22:20 07.01.2020
1185 Clear -5 1027 79 10000 1 0 21:55 07.01.2020
1186 Clear -5 1027 79 10000 2.6 290 21:37 07.01.2020
1187 Clear -5 1026 79 10000 3.1 290 21:19 07.01.2020
1188 Clear -5 1027 79 10000 2.6 290 21:19 07.01.2020
1189 Clear -5 1026 79 10000 2.1 270 20:42 07.01.2020
1190 Clear -5 1026 79 10000 2.1 270 20:24 07.01.2020
1191 Clear -5 1026 79 8000 2.6 280 19:59 07.01.2020
1192 Clear -4 1026 79 8000 3.6 280 19:38 07.01.2020
1193 Clear -4 1026 79 8000 3.6 280 19:19 07.01.2020
1194 Clear -4 1026 79 10000 3.6 280 18:58 07.01.2020
1195 Clear -3 1026 73 10000 3.1 280 18:39 07.01.2020
1196 Clear -3 1026 73 10000 3.1 280 18:18 07.01.2020
1197 Clear -3 1026 73 10000 3.1 280 18:18 07.01.2020
1198 Clear -2 1026 68 10000 2.6 290 17:58 07.01.2020
1199 Clear -2 1025 68 10000 3.1 300 17:38 07.01.2020
1200 Clear -2 1025 68 10000 3.1 300 17:20 07.01.2020
1201 Clear -1 1025 68 10000 2.6 300 16:55 07.01.2020
1202 Clear -1 1025 62 10000 2.1 280 16:37 07.01.2020
1203 Clear 1 1025 55 10000 2.1 280 16:18 07.01.2020
1204 Clear 1 1024 50 10000 2.6 290 15:43 07.01.2020
1205 Clear 1 1024 50 10000 2.6 290 15:24 07.01.2020
1206 Clear 1 1024 50 10000 2.6 290 15:24 07.01.2020
1207 Clear 1 1024 50 10000 2.6 290 15:24 07.01.2020
1208 Clear 1 1024 55 10000 2.1 270 14:59 07.01.2020
1209 Clear 2 1024 51 10000 1 0 14:41 07.01.2020
1210 Clear 2 1024 51 10000 1 0 14:22 07.01.2020
1211 Clear 1 1024 55 10000 2.6 300 13:56 07.01.2020
1212 Clear 1 1024 50 10000 2.6 0 13:37 07.01.2020
1213 Clear 1 1024 50 10000 2.6 0 13:18 07.01.2020
1214 Clouds 2 1025 51 10000 3.1 290 12:40 07.01.2020
1215 Clouds 2 1025 51 10000 3.1 290 12:40 07.01.2020
1216 Clouds 2 1025 51 10000 3.1 290 12:19 07.01.2020
1217 Clouds 1 1025 51 10000 3.6 300 11:43 07.01.2020
1218 Clouds 0 1025 51 10000 3.6 300 11:23 07.01.2020
1219 Clouds -1 1025 63 10000 3.1 310 10:58 07.01.2020
1220 Clouds -2 1026 74 10000 4.1 290 10:39 07.01.2020
1221 Clouds -2 1026 74 10000 4.1 290 10:21 07.01.2020
1222 Clouds -1 1026 73 10000 4.6 280 09:55 07.01.2020
1223 Clouds -1 1026 73 10000 4.1 280 09:37 07.01.2020
1224 Clouds -2 1026 73 10000 4.1 280 09:19 07.01.2020
1225 Clouds -3 1026 85 10000 4.6 280 08:41 07.01.2020
1226 Clouds -5 1026 85 10000 4.6 280 08:18 07.01.2020
1227 Clouds -5 1025 85 10000 5.1 270 07:49 07.01.2020
1228 Clouds -5 1025 85 10000 4.1 270 07:23 07.01.2020
1229 Clouds -5 1025 85 10000 5.7 270 06:50 07.01.2020
1230 Clouds -5 1025 85 10000 4.1 270 06:30 07.01.2020
1231 Clouds -5 1025 79 10000 4.6 280 05:41 07.01.2020
1232 Clouds -5 1025 79 10000 3.1 290 03:51 07.01.2020
1233 Clouds -5 1025 79 10000 3.6 310 03:25 07.01.2020
1234 Clouds -5 1025 74 10000 3.6 300 02:20 07.01.2020
1235 Clouds -4 1025 68 10000 3.6 340 01:40 07.01.2020
1236 Clouds -3 1025 74 10000 3.1 350 00:59 07.01.2020
1237 Clouds -3 1025 74 10000 1.5 10 00:21 07.01.2020
1238 Clouds -3 1025 74 10000 1.5 10 23:57 06.01.2020
1239 Clouds -3 1025 74 10000 2.6 20 23:38 06.01.2020
1240 Clouds -3 1025 74 10000 2.6 20 23:20 06.01.2020
1241 Clouds -2 1026 74 10000 1.5 310 22:44 06.01.2020
1242 Clouds -2 1026 74 10000 1.5 310 22:44 06.01.2020
1243 Clouds -2 1026 74 10000 1.5 310 22:25 06.01.2020
1244 Clouds -2 1026 74 10000 2.1 330 21:59 06.01.2020
1245 Clouds -2 1026 74 10000 2.1 360 21:40 06.01.2020
1246 Clouds -2 1026 74 10000 2.1 360 21:20 06.01.2020
1247 Clouds -2 1026 68 10000 1.5 330 20:57 06.01.2020
1248 Clouds -2 1026 74 10000 2.1 270 20:39 06.01.2020
1249 Clouds -2 1026 74 10000 2.1 270 20:20 06.01.2020
1250 Clouds -2 1026 80 10000 2.1 210 19:57 06.01.2020
1251 Clouds -2 1026 86 10000 1 0 19:38 06.01.2020
1252 Clouds -2 1026 86 10000 1 0 19:20 06.01.2020
1253 Snow -2 1026 86 10000 1 0 18:48 06.01.2020
1254 Snow -2 1026 74 10000 1 0 18:48 06.01.2020
1255 Snow -2 1026 86 10000 1 0 18:23 06.01.2020
1256 Snow -2 1026 86 4000 1 0 17:59 06.01.2020
1257 Snow -2 1025 92 4500 1 0 17:38 06.01.2020
1258 Snow -2 1025 92 4500 1 0 17:19 06.01.2020
1259 Snow -1 1025 74 10000 3.1 50 16:46 06.01.2020
1260 Snow -1 1025 74 10000 3.1 50 16:46 06.01.2020
1261 Snow -1 1025 74 10000 3.1 50 16:27 06.01.2020
1262 Snow -1 1025 74 5000 3.1 20 15:59 06.01.2020
1263 Snow 0 1025 86 7000 3.6 40 15:41 06.01.2020
1264 Snow 0 1025 86 7000 3.6 40 15:20 06.01.2020
1265 Clouds 0 1025 86 10000 4.6 70 14:58 06.01.2020
1266 Clouds 0 1025 86 10000 4.1 50 14:40 06.01.2020
1267 Clouds 1 1025 74 10000 4.1 50 14:20 06.01.2020
1268 Snow 1 1025 74 6000 3.1 30 13:55 06.01.2020
1269 Snow 1 1025 74 6000 3.1 30 13:55 06.01.2020
1270 Clouds 1 1025 73 10000 4.6 60 13:37 06.01.2020
1271 Clouds 0 1025 73 10000 4.6 60 13:19 06.01.2020
1272 Snow 1 1025 74 10000 5.7 40 12:42 06.01.2020
1273 Snow -1 1025 74 10000 5.7 40 12:20 06.01.2020
1274 Clouds 0 1025 73 10000 3.6 40 11:57 06.01.2020
1275 Rain 0 1025 73 10000 5.1 40 11:39 06.01.2020
1276 Rain 0 1025 76 10000 5.1 40 11:20 06.01.2020
1277 Clouds 0 1026 76 10000 6.2 30 10:45 06.01.2020
1278 Clouds 0 1026 76 10000 6.2 30 10:45 06.01.2020
1279 Clouds 0 1026 76 10000 6.2 30 10:27 06.01.2020
1280 Clouds 0 1026 76 10000 2.1 360 09:59 06.01.2020
1281 Clouds 0 1025 63 10000 2.1 300 09:37 06.01.2020
1282 Clouds -1 1025 68 10000 2.1 300 09:19 06.01.2020
1283 Clouds -1 1025 74 10000 2.6 280 08:43 06.01.2020
1284 Clouds -2 1025 74 10000 2.6 280 08:24 06.01.2020
1285 Clouds -3 1025 74 10000 3.1 270 07:48 06.01.2020
1286 Clouds -3 1024 79 10000 4.1 280 07:26 06.01.2020
1287 Clouds -3 1024 79 10000 3.6 290 06:45 06.01.2020
1288 Clouds -3 1024 79 10000 3.6 290 06:18 06.01.2020
1289 Clouds -2 1024 74 10000 4.1 290 05:40 06.01.2020
1290 Clouds -2 1023 74 10000 2.6 300 04:30 06.01.2020
1291 Clouds -1 1024 68 10000 2.6 290 03:58 06.01.2020
1292 Clouds -1 1023 74 10000 3.1 280 02:40 06.01.2020
1293 Clouds -1 1023 74 10000 3.1 280 02:21 06.01.2020
1294 Clouds -1 1023 68 10000 3.1 290 01:41 06.01.2020
1295 Clouds -1 1023 68 10000 3.1 290 01:20 06.01.2020
1296 Clouds 0 1023 92 10000 5.1 310 00:40 06.01.2020
1297 Clouds 0 1023 92 10000 5.1 310 00:19 06.01.2020
1298 Clouds 0 1023 92 10000 5.1 310 00:19 06.01.2020
1299 Clouds 0 1022 92 10000 4.6 280 23:41 05.01.2020
1300 Clouds -1 1022 91 10000 4.1 280 23:21 05.01.2020
1301 Clouds -1 1022 91 10000 4.1 280 22:55 05.01.2020
1302 Clouds -1 1022 91 10000 3.6 290 22:37 05.01.2020
1303 Clouds -1 1022 91 10000 3.6 290 22:18 05.01.2020
1304 Clouds 0 1021 91 10000 5.1 290 21:41 05.01.2020
1305 Clouds 0 1021 91 10000 5.1 290 21:21 05.01.2020
1306 Clouds 0 1021 91 10000 4.6 290 20:58 05.01.2020
1307 Clouds 0 1021 91 10000 5.1 300 20:39 05.01.2020
1308 Clouds 0 1021 93 10000 5.1 300 20:20 05.01.2020
1309 Clouds 0 1020 94 10000 4.6 280 19:59 05.01.2020
1310 Snow 0 1020 94 10000 5.7 280 19:39 05.01.2020
1311 Snow 0 1020 94 10000 5.7 280 19:20 05.01.2020
1312 Clouds -1 1020 86 10000 5.7 280 18:56 05.01.2020
1313 Snow 0 1019 94 10000 5.7 280 18:38 05.01.2020
1314 Clouds 0 1019 94 10000 6.2 280 18:19 05.01.2020
1315 Clouds 0 1019 94 10000 6.2 280 17:58 05.01.2020
1316 Clouds 0 1018 94 10000 5.7 280 17:39 05.01.2020
1317 Clouds 0 1018 83 10000 5.7 280 17:20 05.01.2020
1318 Clouds 0 1018 83 10000 5.7 280 16:57 05.01.2020
1319 Clouds 0 1018 83 10000 5.7 280 16:57 05.01.2020
1320 Clouds 0 1018 83 10000 5.1 280 16:38 05.01.2020
1321 Clouds 0 1018 83 10000 5.1 280 16:19 05.01.2020
1322 Snow 1 1017 74 7000 6.7 280 15:39 05.01.2020
1323 Snow 1 1017 74 7000 6.7 280 15:39 05.01.2020
1324 Snow 1 1017 74 7000 6.7 280 15:20 05.01.2020
1325 Snow 1 1017 74 8000 6.7 300 14:56 05.01.2020
1326 Clouds 2 1016 64 10000 8.2 290 14:38 05.01.2020
1327 Clouds 2 1016 64 10000 8.2 290 14:20 05.01.2020
1328 Clouds 2 1016 64 10000 7.7 280 13:56 05.01.2020
1329 Clouds 3 1016 69 10000 7.7 280 13:38 05.01.2020
1330 Clouds 2 1016 69 10000 7.2 280 13:19 05.01.2020
1331 Clouds 2 1016 69 10000 7.2 280 12:55 05.01.2020
1332 Clouds 2 1015 69 10000 8.2 280 12:37 05.01.2020
1333 Clouds 2 1015 69 10000 8.2 280 12:19 05.01.2020
1334 Clouds 2 1016 59 10000 6.7 290 11:44 05.01.2020
1335 Clouds 2 1016 59 10000 6.7 290 11:20 05.01.2020
1336 Clouds 2 1016 59 10000 6.7 290 11:20 05.01.2020
1337 Snow 2 1016 69 10000 7.7 280 10:58 05.01.2020
1338 Rain 2 1017 74 10000 6.7 290 10:40 05.01.2020
1339 Rain 2 1017 74 10000 6.7 290 10:19 05.01.2020
1340 Clouds 2 1017 74 10000 6.7 280 09:42 05.01.2020
1341 Clouds 2 1017 74 10000 6.7 280 09:22 05.01.2020
1342 Clouds 2 1017 74 10000 6.7 280 08:51 05.01.2020
1343 Clouds 2 1017 74 10000 6.7 280 08:32 05.01.2020
1344 Clouds 2 1017 74 10000 6.2 290 07:59 05.01.2020
1345 Clouds 1 1017 69 10000 4.6 290 07:39 05.01.2020
1346 Clouds 1 1017 69 10000 4.6 290 07:20 05.01.2020
1347 Clouds 1 1017 74 10000 5.1 280 06:21 05.01.2020
1348 Clouds 2 1016 74 10000 6.7 280 05:34 05.01.2020
1349 Clouds 2 1016 74 10000 6.7 280 05:34 05.01.2020
1350 Clouds 3 1016 74 10000 6.2 280 04:48 05.01.2020
1351 Clouds 3 1016 74 10000 5.7 290 04:18 05.01.2020
1352 Drizzle 3 1017 87 10000 5.1 280 04:18 05.01.2020
1353 Clouds 3 1017 87 10000 4.6 280 02:50 05.01.2020
1354 Clouds 3 1017 87 10000 5.1 270 02:32 05.01.2020
1355 Clouds 3 1017 94 10000 4.1 280 01:49 05.01.2020
1356 Clouds 3 1017 94 10000 3.1 270 01:19 05.01.2020
1357 Clouds 3 1018 93 10000 4.6 270 00:55 05.01.2020
1358 Clouds 3 1018 93 10000 4.6 280 00:36 05.01.2020
1359 Clouds 3 1018 93 10000 4.6 270 00:18 05.01.2020
1360 Clouds 4 1018 93 10000 3.6 280 23:40 04.01.2020
1361 Clouds 4 1018 85 10000 3.6 280 23:20 04.01.2020
1362 Clouds 4 1018 85 10000 6.2 280 22:40 04.01.2020
1363 Clouds 4 1018 85 10000 6.2 280 22:22 04.01.2020
1364 Clouds 4 1018 85 10000 6.2 280 22:22 04.01.2020
1365 Clouds 4 1018 85 10000 6.7 280 21:58 04.01.2020
1366 Clouds 4 1019 85 10000 6.2 280 21:40 04.01.2020
1367 Clouds 4 1019 85 10000 6.2 280 21:21 04.01.2020
1368 Clouds 4 1018 85 10000 6.7 290 20:59 04.01.2020
1369 Clouds 4 1018 65 10000 4.6 290 20:40 04.01.2020
1370 Clouds 5 1018 65 10000 4.6 290 20:22 04.01.2020
1371 Clouds 4 1018 69 10000 4.6 280 19:57 04.01.2020
1372 Clouds 4 1018 64 10000 6.2 280 19:38 04.01.2020
1373 Clouds 4 1018 64 10000 6.2 280 19:20 04.01.2020
1374 Clouds 4 1019 60 10000 6.2 280 18:56 04.01.2020
1375 Clouds 4 1018 55 10000 6.7 280 18:37 04.01.2020
1376 Clouds 4 1018 55 10000 6.7 280 18:19 04.01.2020
1377 Clouds 5 1018 48 10000 6.2 280 17:41 04.01.2020
1378 Clouds 5 1018 48 10000 6.2 280 17:23 04.01.2020
1379 Clouds 5 1018 48 10000 6.2 290 16:58 04.01.2020
1380 Clouds 5 1018 45 10000 5.1 280 16:39 04.01.2020
1381 Clouds 5 1018 45 10000 5.1 280 16:21 04.01.2020
1382 Clouds 6 1018 41 10000 6.2 280 15:55 04.01.2020
1383 Clouds 7 1018 36 10000 5.1 290 15:37 04.01.2020
1384 Clouds 7 1018 36 10000 5.1 290 15:18 04.01.2020
1385 Clouds 8 1018 31 10000 4.1 280 14:42 04.01.2020
1386 Clouds 8 1018 31 10000 4.1 280 14:20 04.01.2020
1387 Clouds 8 1018 31 10000 6.2 300 13:59 04.01.2020
1388 Clouds 9 1018 26 10000 5.1 300 13:38 04.01.2020
1389 Clouds 9 1018 26 10000 5.1 300 13:19 04.01.2020
1390 Clouds 8 1019 31 10000 1.5 220 12:57 04.01.2020
1391 Clouds 8 1019 44 8000 1.5 250 12:39 04.01.2020
1392 Clouds 8 1019 44 8000 1.5 250 12:39 04.01.2020
1393 Clouds 7 1020 55 8000 1 0 12:18 04.01.2020
1394 Clouds 8 1019 44 8000 1.5 250 12:18 04.01.2020
1395 Clouds 7 1020 55 8000 1 0 11:56 04.01.2020
1396 Clouds 6 1020 59 8000 1 0 11:37 04.01.2020
1397 Clear 2 1020 59 8000 1 0 11:18 04.01.2020
1398 Clear 5 1021 80 6000 1.5 190 10:40 04.01.2020
1399 Clear -1 1021 80 6000 1.5 190 10:21 04.01.2020
1400 Clear 2 1021 85 6000 1.5 90 09:47 04.01.2020
1401 Clear 2 1021 85 6000 1.5 90 09:26 04.01.2020
1402 Clear -1 1021 85 6000 0.5 0 08:49 04.01.2020
1403 Mist -2 1021 92 5000 0.5 0 08:29 04.01.2020
1404 Mist -5 1021 92 3500 1 220 07:57 04.01.2020
1405 Mist -6 1021 92 4000 1 180 07:39 04.01.2020
1406 Mist -7 1021 92 5000 0.5 0 06:44 04.01.2020
1407 Mist -6 1021 92 3600 2.1 272 05:59 04.01.2020
1408 Mist -6 1021 100 2800 2.11 273 04:52 04.01.2020
1409 Mist -6 1021 92 3000 2.11 273 04:31 04.01.2020
1410 Mist -6 1022 92 4000 2.11 273 03:30 04.01.2020
1411 Mist -5 1022 92 5000 0.5 0 02:52 04.01.2020
1412 Mist -4 1022 92 5000 0.5 0 02:18 04.01.2020
1413 Mist -4 1022 92 5000 0.5 0 01:45 04.01.2020
1414 Mist -4 1022 92 5000 1 130 01:27 04.01.2020
1415 Mist -4 1023 92 5000 2.1 120 00:29 04.01.2020
1416 Mist -4 1023 92 5000 2.6 140 23:59 03.01.2020
1417 Mist -4 1023 92 5000 2.6 140 23:59 03.01.2020
1418 Mist -3 1023 92 5000 2.1 100 23:37 03.01.2020
1419 Mist -3 1023 92 5000 2.1 100 23:18 03.01.2020
1420 Mist -2 1023 92 5000 1 0 22:40 03.01.2020
1421 Mist -1 1023 85 5000 1 0 22:19 03.01.2020
1422 Mist -3 1023 85 5000 1 0 21:57 03.01.2020
1423 Mist -2 1023 86 4300 2.6 150 21:38 03.01.2020
1424 Mist -2 1023 86 4300 2.6 150 21:19 03.01.2020
1425 Mist -2 1023 86 4500 2.6 150 20:55 03.01.2020
1426 Mist -2 1023 86 5000 1.5 150 20:37 03.01.2020
1427 Mist -2 1023 86 5000 1.5 150 20:18 03.01.2020
1428 Mist -2 1024 85 4800 2.6 110 19:54 03.01.2020
1429 Mist -2 1024 86 5000 1 0 19:36 03.01.2020
1430 Mist -1 1024 86 5000 1 0 19:18 03.01.2020
1431 Mist -1 1024 86 5000 0.5 0 18:39 03.01.2020
1432 Mist -1 1024 86 5000 0.5 0 18:39 03.01.2020
1433 Mist 0 1024 86 5000 0.5 0 18:20 03.01.2020
1434 Clouds 1 1024 69 8000 1.5 170 17:42 03.01.2020
1435 Clouds 1 1024 69 8000 1.5 170 17:22 03.01.2020
1436 Clouds 2 1023 69 10000 0.5 0 16:59 03.01.2020
1437 Clouds 2 1024 64 10000 1 100 16:40 03.01.2020
1438 Clouds 2 1024 64 10000 1 100 16:21 03.01.2020
1439 Clouds 6 1024 52 10000 0.5 0 15:42 03.01.2020
1440 Clouds 5 1024 52 10000 1.3 295 15:19 03.01.2020
1441 Clouds 6 1024 60 10000 1.3 295 14:40 03.01.2020
1442 Clear 6 1024 60 10000 1.18 345 14:21 03.01.2020
1443 Clear 6 1024 60 10000 1 0 13:59 03.01.2020
1444 Clear 4 1025 55 10000 1 0 13:40 03.01.2020
1445 Clear 4 1025 55 10000 1 0 13:22 03.01.2020
1446 Clear 6 1025 64 10000 1.5 330 12:41 03.01.2020
1447 Clear 5 1025 64 10000 1.5 330 12:22 03.01.2020
1448 Clear 4 1026 69 10000 1.5 310 11:57 03.01.2020
1449 Clear 4 1026 69 10000 1.5 310 11:57 03.01.2020
1450 Clear 3 1026 40 10000 1 0 11:39 03.01.2020
1451 Clear 3 1027 80 10000 1.5 310 10:59 03.01.2020
1452 Clear 2 1027 79 8000 1 0 10:40 03.01.2020
1453 Clear 1 1027 79 8000 1 0 10:22 03.01.2020
1454 Clear 0 1028 79 7000 1.19 311 09:55 03.01.2020
1455 Clear -1 1028 92 8000 1 0 09:37 03.01.2020
1456 Clear -1 1028 92 8000 1 0 09:19 03.01.2020
1457 Mist -3 1028 92 5000 1 0 08:45 03.01.2020
1458 Mist -3 1028 92 5000 1 0 08:23 03.01.2020
1459 Mist -5 1028 92 5000 1 0 07:56 03.01.2020
1460 Mist -5 1028 92 5000 1 0 07:37 03.01.2020
1461 Mist -5 1028 92 5000 1 0 07:18 03.01.2020
1462 Clear -5 1027 85 6000 2.1 100 06:42 03.01.2020
1463 Clear -5 1027 85 6000 2.1 100 06:22 03.01.2020
1464 Mist -6 1027 92 5000 1 0 04:59 03.01.2020
1465 Mist -5 1028 92 4000 1.23 299 03:38 03.01.2020
1466 Mist -5 1028 92 5000 1 150 02:53 03.01.2020
1467 Mist -4 1028 92 5000 1.5 250 01:51 03.01.2020
1468 Mist -4 1028 92 4300 1.24 294 01:31 03.01.2020
1469 Mist -4 1029 92 3300 1 0 00:40 03.01.2020
1470 Mist -3 1029 92 3300 1 0 00:20 03.01.2020
1471 Clouds -3 1029 92 7000 1.5 240 23:39 02.01.2020
1472 Clouds -4 1029 92 7000 1.5 240 23:20 02.01.2020
1473 Clouds -4 1029 92 7000 1 0 22:58 02.01.2020
1474 Clouds -4 1029 92 7000 0.5 0 22:40 02.01.2020
1475 Clouds -4 1029 92 7000 0.5 0 22:19 02.01.2020
1476 Clouds -3 1029 92 7000 1.25 284 21:55 02.01.2020
1477 Clouds -3 1029 86 7000 3.1 350 21:37 02.01.2020
1478 Clouds -3 1029 86 7000 3.1 350 21:18 02.01.2020
1479 Clouds -2 1029 79 8000 2.1 360 20:56 02.01.2020
1480 Clouds -2 1029 79 10000 2.6 280 20:37 02.01.2020
1481 Clear -2 1029 79 10000 2.6 280 20:18 02.01.2020
1482 Clear -1 1029 80 10000 2.6 270 19:54 02.01.2020
1483 Clear -1 1029 78 10000 3.1 280 19:36 02.01.2020
1484 Clear 0 1029 78 10000 3.1 280 19:18 02.01.2020
1485 Clear -1 1029 80 10000 4.6 270 18:42 02.01.2020
1486 Clear -1 1029 80 10000 4.6 270 18:23 02.01.2020
1487 Clear -1 1029 80 10000 4.1 280 17:58 02.01.2020
1488 Clear -1 1029 80 10000 4.6 280 17:38 02.01.2020
1489 Clear -1 1029 80 10000 4.6 280 17:19 02.01.2020
1490 Clear 0 1029 78 10000 4.6 280 16:58 02.01.2020
1491 Clear 1 1029 69 10000 3.6 280 16:40 02.01.2020
1492 Clear 1 1029 69 10000 3.6 280 16:20 02.01.2020
1493 Clear 2 1029 59 10000 4.6 280 15:57 02.01.2020
1494 Clear 3 1029 55 10000 5.7 270 15:39 02.01.2020
1495 Clear 3 1029 55 10000 5.7 270 15:19 02.01.2020
1496 Clear 3 1029 55 10000 5.7 270 14:55 02.01.2020
1497 Clear 3 1029 55 10000 5.7 270 14:55 02.01.2020
1498 Clear 3 1029 55 10000 5.7 270 14:36 02.01.2020
1499 Clear 3 1029 55 10000 5.7 270 14:18 02.01.2020
1500 Clouds 3 1029 59 10000 5.1 270 13:47 02.01.2020
1501 Clouds 3 1029 59 10000 5.1 270 13:29 02.01.2020
1502 Clouds 4 1030 59 10000 3.1 290 12:45 02.01.2020
1503 Clouds 4 1030 59 10000 3.1 290 12:25 02.01.2020
1504 Clouds 3 1031 64 10000 4.1 280 11:44 02.01.2020
1505 Clouds 2 1031 64 10000 4.1 280 11:26 02.01.2020
1506 Clouds 3 1031 64 10000 4.1 280 11:26 02.01.2020
1507 Clouds 0 1031 65 10000 3.6 280 10:58 02.01.2020
1508 Clouds 0 1031 65 10000 3.1 290 10:39 02.01.2020
1509 Clear -2 1031 86 10000 2.6 300 10:19 02.01.2020
1510 Clear -1 1031 86 8000 2.6 330 09:42 02.01.2020
1511 Clear 0 1031 86 8000 2.6 330 09:24 02.01.2020
1512 Clouds -2 1031 85 8000 2.1 60 08:45 02.01.2020
1513 Clouds -2 1031 85 8000 2.1 60 08:45 02.01.2020
1514 Clouds -5 1031 85 8000 2.1 60 08:27 02.01.2020
1515 Clouds -4 1031 85 7000 2.1 260 07:50 02.01.2020
1516 Clouds -5 1031 92 10000 1.5 320 07:30 02.01.2020
1517 Clouds -5 1031 92 7000 1.5 300 06:45 02.01.2020
1518 Clouds -7 1031 92 7000 1.5 300 06:26 02.01.2020
1519 Clouds -5 1031 92 6000 1 110 04:53 02.01.2020
1520 Clouds -4 1031 92 7000 2.1 100 04:30 02.01.2020
1521 Clear -5 1031 92 8000 0.5 0 02:32 02.01.2020
1522 Clear -4 1031 86 8000 2.1 0 01:58 02.01.2020
1523 Clear -3 1030 86 10000 2.6 280 01:32 02.01.2020
1524 Clear -4 1030 86 10000 3.6 270 00:53 02.01.2020
1525 Clear -4 1030 92 10000 4.6 270 00:33 02.01.2020
1526 Clear -3 1030 86 10000 4.6 280 23:49 01.01.2020
1527 Clear -2 1030 86 10000 4.1 280 23:26 01.01.2020
1528 Clear -2 1030 86 10000 3.6 280 22:55 01.01.2020
1529 Clear -2 1030 86 10000 4.1 280 22:37 01.01.2020
1530 Clear -3 1030 86 10000 4.1 280 22:18 01.01.2020
1531 Clear -2 1030 86 10000 4.6 270 21:42 01.01.2020
1532 Clear -2 1030 86 10000 4.6 270 21:21 01.01.2020
1533 Clear -2 1030 86 10000 4.6 280 20:59 01.01.2020
1534 Clear -1 1030 80 10000 4.1 280 20:39 01.01.2020
1535 Clouds -1 1030 80 10000 4.1 280 20:20 01.01.2020
1536 Clouds -2 1030 80 10000 4.6 280 19:58 01.01.2020
1537 Clouds -2 1029 80 9000 4.6 270 19:39 01.01.2020
1538 Clouds -1 1029 80 9000 4.6 270 19:20 01.01.2020
1539 Clouds -1 1029 80 9000 4.6 270 18:57 01.01.2020
1540 Clouds 0 1029 92 10000 5.7 270 18:39 01.01.2020
1541 Clouds 0 1029 92 10000 5.7 270 18:20 01.01.2020
1542 Clouds 0 1029 92 10000 5.7 270 17:59 01.01.2020
1543 Clouds 0 1028 92 10000 5.7 270 17:40 01.01.2020
1544 Clear 1 1028 88 10000 5.7 270 17:20 01.01.2020
1545 Clear 1 1028 69 10000 5.1 280 16:58 01.01.2020
1546 Clear 2 1028 64 10000 5.7 280 16:38 01.01.2020
1547 Clear 2 1028 64 10000 5.7 280 16:38 01.01.2020
1548 Clear 2 1028 64 10000 5.7 280 16:19 01.01.2020
1549 Clear 2 1027 59 10000 6.2 280 15:57 01.01.2020
1550 Clear 2 1027 59 10000 6.2 280 15:57 01.01.2020
1551 Clear 3 1027 55 10000 6.2 280 15:37 01.01.2020
1552 Clear 3 1027 55 10000 6.2 280 15:19 01.01.2020
1553 Clear 3 1027 55 10000 7.7 270 14:55 01.01.2020
1554 Clear 3 1027 55 10000 6.7 280 14:37 01.01.2020
1555 Clear 3 1027 55 10000 6.7 280 14:19 01.01.2020
1556 Clear 3 1027 55 10000 7.7 270 13:55 01.01.2020
1557 Clear 3 1027 55 10000 7.7 270 13:55 01.01.2020
1558 Clear 3 1027 55 10000 6.2 290 13:36 01.01.2020
1559 Clear 3 1027 55 10000 6.2 290 13:18 01.01.2020
1560 Clear 3 1027 64 10000 7.7 270 12:40 01.01.2020
1561 Clear 3 1027 64 10000 7.7 270 12:19 01.01.2020
1562 Clear 3 1028 64 10000 8.2 280 11:57 01.01.2020
1563 Clear 3 1028 64 10000 8.7 270 11:38 01.01.2020
1564 Clear 2 1028 64 10000 8.7 270 11:19 01.01.2020
1565 Clear 2 1028 64 10000 6.2 290 10:55 01.01.2020
1566 Clear 2 1028 69 10000 7.2 280 10:36 01.01.2020
1567 Clear 2 1028 69 10000 7.2 280 10:18 01.01.2020
1568 Clear 1 1028 64 10000 7.2 270 09:40 01.01.2020
1569 Clear 1 1028 64 10000 7.2 270 09:20 01.01.2020
1570 Clear 0 1027 64 10000 6.7 280 08:57 01.01.2020
1571 Clear 0 1027 80 10000 6.7 280 08:37 01.01.2020
1572 Clouds -1 1027 80 10000 6.7 280 08:19 01.01.2020
1573 Clouds -1 1026 80 10000 6.7 280 07:56 01.01.2020
1574 Clouds -1 1026 80 10000 6.7 280 07:38 01.01.2020
1575 Clouds -1 1026 80 10000 7.2 280 06:50 01.01.2020
1576 Clouds -1 1026 80 10000 7.7 270 06:32 01.01.2020
1577 Clouds -1 1025 80 10000 7.2 270 05:46 01.01.2020
1578 Clouds 1 1024 59 10000 6.2 280 03:48 01.01.2020
1579 Clouds 1 1024 55 10000 5.1 280 03:28 01.01.2020
1580 Clouds 1 1024 50 10000 5.1 280 02:59 01.01.2020
1581 Clouds 2 1024 47 10000 8.2 280 02:41 01.01.2020
1582 Clouds 2 1024 47 10000 8.2 280 02:21 01.01.2020
1583 Clouds 2 1023 43 10000 7.7 280 01:39 01.01.2020
1584 Clouds 2 1023 43 10000 7.7 280 01:39 01.01.2020
1585 Clouds 2 1023 43 10000 7.7 280 01:21 01.01.2020
1586 Clouds 0 1023 60 10000 3.1 310 00:44 01.01.2020
1587 Clouds 0 1023 60 10000 3.1 310 00:26 01.01.2020
1588 Clouds 1 1023 60 10000 1 0 23:42 31.12.2019
1589 Clouds 1 1023 51 10000 1 0 23:22 31.12.2019
1590 Clouds 1 1024 55 10000 2.6 320 22:59 31.12.2019
1591 Clouds 1 1024 55 10000 2.6 300 22:39 31.12.2019
1592 Clouds 1 1024 55 10000 2.6 300 22:20 31.12.2019
1593 Clouds 1 1024 55 10000 3.6 310 21:59 31.12.2019
1594 Clouds 1 1024 55 10000 3.6 310 21:59 31.12.2019
1595 Clouds 1 1024 55 10000 4.6 300 21:40 31.12.2019
1596 Clouds 1 1024 55 10000 4.6 300 21:40 31.12.2019
1597 Clouds 1 1024 55 10000 4.6 300 21:22 31.12.2019
1598 Clouds 1 1024 51 10000 4.1 320 20:57 31.12.2019
1599 Clouds 1 1024 55 10000 2.1 310 20:37 31.12.2019
1600 Clouds 1 1024 55 10000 2.1 310 20:19 31.12.2019
1601 Clouds 1 1025 59 10000 4.1 310 19:55 31.12.2019
1602 Clouds 1 1025 59 10000 2.6 290 19:36 31.12.2019
1603 Clouds 1 1025 59 10000 2.6 290 19:18 31.12.2019
1604 Clouds 1 1025 59 10000 4.6 310 18:54 31.12.2019
1605 Clouds 0 1025 59 10000 3.6 310 18:36 31.12.2019
1606 Clouds 0 1025 49 10000 2.6 300 18:18 31.12.2019
1607 Clouds 0 1025 59 10000 3.6 310 18:18 31.12.2019
1608 Clouds 0 1025 49 10000 2.6 300 17:54 31.12.2019
1609 Clouds -1 1025 74 8000 1 0 17:36 31.12.2019
1610 Clouds -1 1025 74 8000 1 0 17:18 31.12.2019
1611 Clouds -1 1025 79 8000 1 0 16:54 31.12.2019
1612 Clouds -1 1025 79 7000 1 130 16:36 31.12.2019
1613 Clouds -1 1025 79 7000 1 130 16:18 31.12.2019
1614 Clouds -1 1025 74 8000 2.1 130 16:18 31.12.2019
1615 Clouds -1 1025 74 8000 2.1 130 15:54 31.12.2019
1616 Clouds -1 1025 74 9000 2.1 120 15:36 31.12.2019
1617 Clouds -1 1025 74 9000 2.1 120 15:36 31.12.2019
1618 Clouds 0 1025 74 9000 2.1 120 15:18 31.12.2019
1619 Clouds 0 1026 74 10000 1 0 14:54 31.12.2019
1620 Clouds 0 1026 74 10000 1.5 100 14:36 31.12.2019
1621 Clear 1 1026 74 10000 1.5 100 14:18 31.12.2019
1622 Clear 1 1026 74 10000 1.5 50 13:54 31.12.2019
1623 Clouds 0 1026 74 10000 2.1 0 13:36 31.12.2019
1624 Clouds 0 1026 74 10000 2.1 0 13:18 31.12.2019
1625 Clouds -1 1028 79 10000 2.6 310 12:40 31.12.2019
1626 Clouds 0 1028 79 10000 2.6 310 12:20 31.12.2019
1627 Clouds -1 1028 79 10000 2.1 310 11:57 31.12.2019
1628 Clouds -2 1029 85 10000 2.6 310 11:39 31.12.2019
1629 Clouds -2 1029 85 10000 2.6 310 11:20 31.12.2019
1630 Clouds -2 1029 85 8000 2.6 310 10:58 31.12.2019
1631 Clouds -3 1029 85 7000 3.1 310 10:38 31.12.2019
1632 Clouds -3 1029 85 7000 3.1 310 10:38 31.12.2019
1633 Clouds -3 1029 85 7000 3.1 310 10:20 31.12.2019
1634 Clouds -4 1030 85 8000 2.6 310 09:59 31.12.2019
1635 Clouds -4 1030 85 7000 2.6 320 09:39 31.12.2019
1636 Clouds -4 1030 85 7000 2.6 320 09:21 31.12.2019
1637 Clouds -5 1030 92 7000 2.1 290 08:57 31.12.2019
1638 Clouds -5 1030 92 8000 2.1 330 08:39 31.12.2019
1639 Clouds -6 1030 92 8000 2.1 330 08:19 31.12.2019
1640 Clouds -7 1030 85 7000 2.6 300 07:43 31.12.2019
1641 Clouds -7 1030 85 7000 2.6 300 07:21 31.12.2019
1642 Clouds -7 1030 85 8000 3.1 300 06:50 31.12.2019
1643 Clouds -6 1030 85 10000 2.6 310 05:57 31.12.2019
1644 Clouds -6 1030 85 10000 4.6 280 04:29 31.12.2019
1645 Clouds -6 1031 85 10000 4.6 270 03:38 31.12.2019
1646 Clouds -6 1031 85 10000 5.7 280 02:55 31.12.2019
1647 Clouds -5 1031 85 10000 5.1 280 02:18 31.12.2019
1648 Clouds -5 1031 85 10000 5.1 280 01:42 31.12.2019
1649 Clouds -5 1031 85 10000 5.1 280 01:23 31.12.2019
1650 Clear -5 1031 85 10000 4.6 280 00:46 31.12.2019
1651 Clear -5 1031 85 10000 4.6 280 00:22 31.12.2019
1652 Clear -5 1031 92 10000 4.1 280 23:56 30.12.2019
1653 Clear -5 1031 92 10000 4.1 280 23:38 30.12.2019
1654 Clear -5 1031 92 10000 4.1 280 23:20 30.12.2019
1655 Clear -5 1032 85 10000 4.6 290 22:57 30.12.2019
1656 Clear -4 1032 79 10000 4.1 280 22:38 30.12.2019
1657 Clear -4 1031 79 10000 3.6 300 22:19 30.12.2019
1658 Clear -4 1031 79 10000 3.6 300 21:56 30.12.2019
1659 Clear -4 1031 85 8000 2.6 310 21:38 30.12.2019
1660 Clear -4 1031 85 8000 2.6 310 21:18 30.12.2019
1661 Clouds -4 1032 79 10000 2.1 320 20:56 30.12.2019
1662 Clear -4 1032 73 8000 2.1 300 20:38 30.12.2019
1663 Clouds -4 1032 73 8000 2.1 300 20:19 30.12.2019
1664 Clouds -4 1032 79 8000 2.6 310 19:56 30.12.2019
1665 Clouds -3 1032 74 10000 3.1 300 19:37 30.12.2019
1666 Clouds -3 1032 74 10000 3.1 300 19:37 30.12.2019
1667 Clouds -3 1032 74 10000 3.1 300 19:19 30.12.2019
1668 Clouds -3 1031 74 10000 3.1 290 18:56 30.12.2019
1669 Clouds -2 1031 74 10000 4.6 320 18:37 30.12.2019
1670 Clouds -2 1031 74 10000 4.6 320 18:19 30.12.2019
1671 Clouds -2 1031 68 10000 4.6 340 17:54 30.12.2019
1672 Clouds -1 1031 68 10000 3.6 350 17:36 30.12.2019
1673 Clouds -1 1031 68 10000 3.6 350 17:18 30.12.2019
1674 Clouds -2 1031 74 10000 3.6 340 16:41 30.12.2019
1675 Clouds -2 1031 74 10000 3.6 340 16:41 30.12.2019
1676 Clouds -2 1031 74 10000 3.6 340 16:21 30.12.2019
1677 Clouds -1 1031 74 10000 3.6 350 15:58 30.12.2019
1678 Clouds -1 1031 74 10000 3.1 360 15:40 30.12.2019
1679 Clouds -1 1031 74 10000 3.1 360 15:20 30.12.2019
1680 Clouds -1 1031 74 10000 3.1 360 15:20 30.12.2019
1681 Clouds -1 1031 74 10000 3.1 360 15:20 30.12.2019
1682 Clouds 0 1031 83 10000 3.1 350 14:56 30.12.2019
1683 Clouds 0 1031 83 10000 4.1 360 14:38 30.12.2019
1684 Clouds 1 1031 68 10000 4.1 360 14:18 30.12.2019
1685 Clouds 1 1030 64 10000 4.6 360 13:42 30.12.2019
1686 Clouds 1 1030 64 10000 4.6 360 13:24 30.12.2019
1687 Clouds 1 1030 69 10000 4.6 10 12:59 30.12.2019
1688 Clouds 1 1030 64 10000 4.1 10 12:41 30.12.2019
1689 Clouds 1 1030 64 10000 4.1 10 12:19 30.12.2019
1690 Clouds 1 1031 64 10000 3.6 360 11:56 30.12.2019
1691 Clouds 0 1031 69 10000 4.1 50 11:38 30.12.2019
1692 Clouds 0 1031 72 10000 3.1 40 11:18 30.12.2019
1693 Clouds 0 1031 72 10000 5.1 50 10:43 30.12.2019
1694 Clouds 0 1031 72 10000 5.1 50 10:20 30.12.2019
1695 Clouds 0 1031 72 10000 3.1 60 09:55 30.12.2019
1696 Clouds 0 1031 72 10000 3.1 60 09:55 30.12.2019
1697 Clouds 0 1031 72 10000 1.5 0 09:37 30.12.2019
1698 Clouds -1 1031 72 10000 1.5 0 09:18 30.12.2019
1699 Clouds -2 1031 74 10000 2.6 360 08:46 30.12.2019
1700 Clouds -2 1030 74 10000 1.5 20 08:23 30.12.2019
1701 Clouds -3 1030 74 10000 2.6 60 07:53 30.12.2019
1702 Clouds -3 1030 74 10000 4.1 40 07:32 30.12.2019
1703 Snow -3 1029 74 10000 4.1 40 06:39 30.12.2019
1704 Snow -3 1028 74 10000 3.1 60 04:32 30.12.2019
1705 Snow -2 1028 74 10000 4.1 20 03:51 30.12.2019
1706 Snow -2 1028 74 10000 2.1 20 02:47 30.12.2019
1707 Snow -2 1028 74 10000 1.5 30 02:27 30.12.2019
1708 Snow -2 1028 80 10000 2.6 40 01:39 30.12.2019
1709 Snow -2 1028 80 10000 2.6 40 01:19 30.12.2019
1710 Snow -2 1028 86 7000 3.6 280 00:42 30.12.2019
1711 Snow -3 1028 92 6000 3.1 280 23:58 29.12.2019
1712 Snow -3 1028 92 3000 2.6 280 23:37 29.12.2019
1713 Snow -3 1028 92 3000 2.6 280 23:19 29.12.2019
1714 Snow -3 1028 92 4500 3.1 270 22:41 29.12.2019
1715 Snow -3 1028 92 4500 3.1 270 22:22 29.12.2019
1716 Snow -2 1027 86 3000 3.1 280 21:56 29.12.2019
1717 Snow -2 1027 86 3000 3.1 280 21:56 29.12.2019
1718 Snow -2 1027 86 6000 3.1 290 21:38 29.12.2019
1719 Snow -2 1027 86 6000 3.1 290 21:19 29.12.2019
1720 Snow -2 1027 86 5000 4.6 310 20:55 29.12.2019
1721 Snow -2 1027 92 6000 2.6 290 20:37 29.12.2019
1722 Snow -2 1027 92 6000 2.6 290 20:18 29.12.2019
1723 Snow -2 1026 86 8000 4.6 270 19:56 29.12.2019
1724 Snow -2 1026 86 8000 4.6 270 19:37 29.12.2019
1725 Snow -2 1026 86 8000 4.6 270 19:19 29.12.2019
1726 Snow -2 1026 86 10000 4.1 270 18:55 29.12.2019
1727 Snow -2 1026 86 10000 4.1 270 18:55 29.12.2019
1728 Clouds -2 1026 92 10000 3.1 270 18:37 29.12.2019
1729 Clouds -2 1025 86 10000 3.6 280 18:18 29.12.2019
1730 Clouds -2 1025 86 10000 3.6 280 17:56 29.12.2019
1731 Snow -2 1025 86 6000 4.1 270 17:37 29.12.2019
1732 Snow -2 1025 86 6000 4.1 270 17:37 29.12.2019
1733 Snow -2 1025 86 6000 4.1 270 17:37 29.12.2019
1734 Snow -2 1025 86 8000 4.1 270 17:19 29.12.2019
1735 Snow -2 1025 86 8000 4.1 270 16:55 29.12.2019
1736 Snow -2 1025 86 2400 5.1 290 16:36 29.12.2019
1737 Snow -2 1025 86 2400 5.1 290 16:36 29.12.2019
1738 Snow -2 1025 86 2400 5.1 290 16:18 29.12.2019
1739 Snow -1 1025 74 10000 4.6 290 15:55 29.12.2019
1740 Snow -1 1025 74 10000 4.6 290 15:37 29.12.2019
1741 Snow -1 1025 74 10000 4.6 290 15:18 29.12.2019
1742 Snow -1 1024 74 10000 4.6 290 14:55 29.12.2019
1743 Snow -1 1024 74 10000 5.1 290 14:37 29.12.2019
1744 Snow -1 1024 74 10000 5.1 290 14:18 29.12.2019
1745 Snow -1 1024 74 10000 5.7 280 13:40 29.12.2019
1746 Snow -1 1024 74 10000 5.7 280 13:40 29.12.2019
1747 Snow -1 1024 74 10000 5.7 280 13:22 29.12.2019
1748 Clouds 0 1024 80 10000 5.7 280 12:58 29.12.2019
1749 Clouds -1 1024 80 10000 5.7 280 12:40 29.12.2019
1750 Clouds 0 1024 80 10000 5.7 280 12:22 29.12.2019
1751 Clouds 0 1024 80 10000 5.7 280 12:22 29.12.2019
1752 Clouds -1 1025 80 10000 6.2 290 11:43 29.12.2019
1753 Clouds -1 1025 80 10000 6.2 290 11:23 29.12.2019
1754 Clouds -1 1025 74 10000 7.2 280 11:00 29.12.2019
1755 Clouds 0 1025 80 10000 5.7 280 10:41 29.12.2019
1756 Clouds -1 1025 80 10000 5.7 280 10:19 29.12.2019
1757 Snow -1 1025 80 10000 5.7 280 09:47 29.12.2019
1758 Snow -1 1025 80 10000 5.7 280 09:28 29.12.2019
1759 Snow -1 1024 86 7000 5.7 280 08:59 29.12.2019
1760 Snow -2 1024 86 8000 5.7 280 08:41 29.12.2019
1761 Snow -2 1024 86 8000 5.7 280 08:23 29.12.2019
1762 Snow -2 1024 86 8000 5.1 290 07:45 29.12.2019
1763 Snow -2 1024 86 8000 4.6 290 07:26 29.12.2019
1764 Snow -2 1024 92 6000 5.1 280 06:42 29.12.2019
1765 Snow -3 1023 86 10000 5.7 270 06:19 29.12.2019
1766 Snow -2 1023 80 10000 4.6 280 05:44 29.12.2019
1767 Clouds -2 1023 86 10000 4.6 270 04:33 29.12.2019
1768 Clouds -2 1023 86 10000 4.6 280 03:36 29.12.2019
1769 Clouds -2 1023 86 10000 5.1 270 02:30 29.12.2019
1770 Clouds -2 1023 80 10000 4.6 280 01:52 29.12.2019
1771 Clouds -2 1023 86 10000 4.6 280 01:29 29.12.2019
1772 Clouds -2 1023 79 10000 4.6 280 00:47 29.12.2019
1773 Clouds -2 1023 79 10000 4.6 280 00:25 29.12.2019
1774 Clouds -2 1023 79 10000 5.1 280 23:55 28.12.2019
1775 Clouds -2 1023 74 10000 5.1 270 23:37 28.12.2019
1776 Clouds -2 1023 74 10000 5.1 270 23:18 28.12.2019
1777 Clouds -2 1023 80 10000 5.1 280 22:37 28.12.2019
1778 Clouds -2 1023 80 10000 5.1 280 22:18 28.12.2019
1779 Clouds -1 1022 80 10000 4.1 280 21:56 28.12.2019
1780 Clouds -1 1022 80 10000 4.1 280 21:56 28.12.2019
1781 Clouds -1 1022 80 10000 4.1 280 21:37 28.12.2019
1782 Clouds -1 1022 80 10000 4.1 280 21:19 28.12.2019
1783 Clouds -1 1022 80 10000 4.1 280 20:42 28.12.2019
1784 Clouds -1 1022 80 10000 4.1 280 20:23 28.12.2019
1785 Clouds 0 1021 91 10000 3.6 280 19:59 28.12.2019
1786 Clouds 0 1021 91 10000 3.6 280 19:41 28.12.2019
1787 Clouds 0 1021 91 10000 3.6 280 19:23 28.12.2019
1788 Snow 0 1021 91 10000 4.6 270 18:59 28.12.2019
1789 Snow -1 1021 91 10000 4.6 280 18:40 28.12.2019
1790 Snow -1 1021 91 10000 4.6 280 18:20 28.12.2019
1791 Snow -1 1020 92 5000 5.1 290 17:57 28.12.2019
1792 Snow -1 1020 91 3000 4.6 350 17:38 28.12.2019
1793 Snow 0 1020 81 3000 4.6 350 17:19 28.12.2019
1794 Clouds 0 1019 74 10000 5.1 290 16:47 28.12.2019
1795 Clouds 1 1019 69 10000 4.1 300 16:26 28.12.2019
1796 Clouds 1 1019 74 10000 3.6 280 15:57 28.12.2019
1797 Clouds 1 1019 69 10000 1.5 340 15:39 28.12.2019
1798 Clouds 2 1019 69 10000 1.5 340 15:19 28.12.2019
1799 Clouds 3 1018 55 10000 4.6 330 14:44 28.12.2019
1800 Clouds 3 1018 55 10000 4.6 330 14:24 28.12.2019
1801 Clouds 3 1018 55 10000 4.6 330 14:24 28.12.2019
1802 Clouds 2 1018 55 10000 4.1 320 13:57 28.12.2019
1803 Clouds 2 1018 59 10000 3.6 320 13:38 28.12.2019
1804 Clouds 2 1018 59 10000 3.6 320 13:19 28.12.2019
1805 Clouds 2 1018 59 10000 3.6 320 13:19 28.12.2019
1806 Clouds 2 1018 69 10000 4.1 300 12:43 28.12.2019
1807 Clouds 1 1018 69 10000 4.1 300 12:24 28.12.2019
1808 Clouds 2 1018 64 10000 3.6 320 11:57 28.12.2019
1809 Clouds 2 1019 69 10000 3.6 300 11:38 28.12.2019
1810 Clouds 2 1019 69 10000 3.6 300 11:20 28.12.2019
1811 Clouds 2 1019 80 10000 4.1 300 10:44 28.12.2019
1812 Clouds 1 1019 80 10000 4.1 300 10:22 28.12.2019
1813 Snow 2 1019 80 8000 4.1 290 09:58 28.12.2019
1814 Clouds 2 1019 80 10000 3.1 280 09:40 28.12.2019
1815 Clouds 1 1019 80 10000 3.1 280 09:20 28.12.2019
1816 Snow 1 1019 75 8000 3.6 280 08:44 28.12.2019
1817 Snow 0 1019 75 8000 3.6 280 08:26 28.12.2019
1818 Clouds 0 1018 91 10000 4.1 270 07:55 28.12.2019
1819 Clouds 0 1018 91 10000 3.1 270 07:31 28.12.2019
1820 Clouds 0 1018 91 10000 3.6 270 06:41 28.12.2019
1821 Clouds 0 1018 88 10000 3.1 290 04:51 28.12.2019
1822 Clouds 0 1019 74 10000 3.6 290 03:47 28.12.2019
1823 Snow 1 1019 74 10000 4.6 290 02:48 28.12.2019
1824 Clouds 1 1019 74 10000 4.1 280 01:59 28.12.2019
1825 Clouds 1 1019 74 10000 4.6 280 01:30 28.12.2019
1826 Clouds 1 1019 74 10000 5.7 280 00:58 28.12.2019
1827 Clouds 1 1019 74 10000 5.1 280 00:38 28.12.2019
1828 Clouds 1 1019 74 10000 5.1 280 00:19 28.12.2019
1829 Clouds 1 1019 74 10000 4.6 280 23:43 27.12.2019
1830 Clouds 1 1019 74 10000 4.6 280 23:20 27.12.2019
1831 Clouds 1 1019 74 10000 4.6 280 22:57 27.12.2019
1832 Clouds 1 1019 74 10000 4.6 280 22:38 27.12.2019
1833 Clouds 1 1019 74 10000 4.6 280 22:20 27.12.2019
1834 Clouds 1 1019 74 10000 5.1 280 21:55 27.12.2019
1835 Clouds 1 1019 69 10000 5.7 280 21:36 27.12.2019
1836 Clouds 2 1019 69 10000 5.7 280 21:18 27.12.2019
1837 Clouds 2 1019 69 10000 6.2 280 20:41 27.12.2019
1838 Clouds 2 1019 69 10000 5.7 280 20:22 27.12.2019
1839 Clouds 2 1019 69 10000 5.1 280 19:43 27.12.2019
1840 Clouds 2 1019 69 10000 6.2 280 19:21 27.12.2019
1841 Clouds 2 1019 69 10000 6.2 280 18:59 27.12.2019
1842 Clouds 2 1019 64 10000 5.7 280 18:39 27.12.2019
1843 Clouds 2 1019 64 10000 5.7 280 18:20 27.12.2019
1844 Clouds 2 1019 59 10000 5.1 290 17:57 27.12.2019
1845 Clouds 2 1018 64 10000 5.7 290 17:39 27.12.2019
1846 Clouds 2 1018 64 10000 5.7 290 17:19 27.12.2019
1847 Clouds 2 1018 59 10000 5.1 290 16:58 27.12.2019
1848 Clouds 3 1018 59 10000 5.7 290 16:38 27.12.2019
1849 Clouds 3 1018 59 10000 5.7 290 16:19 27.12.2019
1850 Clouds 3 1018 59 10000 5.7 290 16:19 27.12.2019
1851 Clouds 3 1018 59 10000 5.7 290 15:43 27.12.2019
1852 Clouds 3 1018 59 10000 5.7 290 15:22 27.12.2019
1853 Clouds 3 1018 59 10000 5.1 300 14:57 27.12.2019
1854 Clouds 4 1018 51 10000 6.2 290 14:39 27.12.2019
1855 Clouds 4 1018 51 10000 6.2 290 14:20 27.12.2019
1856 Clouds 4 1018 51 10000 7.2 290 13:48 27.12.2019
1857 Clouds 4 1018 51 10000 6.2 290 13:25 27.12.2019
1858 Clouds 4 1018 51 10000 6.2 290 13:25 27.12.2019
1859 Clouds 4 1018 55 10000 6.7 300 12:58 27.12.2019
1860 Clouds 4 1018 60 10000 6.7 280 12:39 27.12.2019
1861 Clouds 5 1018 60 10000 6.7 280 12:21 27.12.2019
1862 Clouds 4 1019 55 10000 6.2 300 11:44 27.12.2019
1863 Clouds 4 1019 55 10000 6.2 300 11:24 27.12.2019
1864 Clouds 3 1020 64 10000 6.2 290 10:55 27.12.2019
1865 Clouds 4 1020 64 10000 6.2 300 10:37 27.12.2019
1866 Clouds 3 1020 64 10000 6.2 300 10:19 27.12.2019
1867 Clouds 2 1020 74 10000 5.7 280 09:42 27.12.2019
1868 Clouds 2 1020 74 10000 5.7 280 09:21 27.12.2019
1869 Clouds 2 1020 74 10000 5.7 290 08:55 27.12.2019
1870 Clouds 2 1020 74 10000 5.7 280 08:35 27.12.2019
1871 Clouds 2 1019 74 10000 4.6 280 07:50 27.12.2019
1872 Clouds 2 1019 74 10000 4.1 290 07:31 27.12.2019
1873 Clouds 2 1019 74 10000 5.7 280 06:36 27.12.2019
1874 Clouds 2 1019 74 10000 4.6 280 04:59 27.12.2019
1875 Clouds 2 1020 74 10000 3.6 290 02:53 27.12.2019
1876 Clouds 2 1020 74 10000 5.1 280 01:59 27.12.2019
1877 Clouds 2 1019 74 10000 6.2 280 01:24 27.12.2019
1878 Clouds 2 1019 74 10000 5.1 280 00:54 27.12.2019
1879 Clouds 2 1019 80 10000 5.7 280 00:35 27.12.2019
1880 Clouds 2 1019 74 10000 6.2 290 23:59 26.12.2019
1881 Clouds 2 1019 80 10000 6.2 280 23:41 26.12.2019
1882 Clouds 2 1019 80 10000 6.2 280 23:21 26.12.2019
1883 Clouds 3 1019 88 10000 5.7 290 22:45 26.12.2019
1884 Clouds 3 1019 88 10000 5.7 290 22:22 26.12.2019
1885 Clouds 3 1018 88 10000 6.7 280 21:58 26.12.2019
1886 Clouds 3 1018 88 10000 6.2 290 21:38 26.12.2019
1887 Clouds 3 1018 88 10000 6.2 290 21:38 26.12.2019
1888 Clouds 3 1018 88 10000 6.2 290 21:20 26.12.2019
1889 Clouds 3 1018 88 10000 6.2 280 20:45 26.12.2019
1890 Clouds 3 1018 85 10000 6.2 290 20:23 26.12.2019
1891 Clouds 3 1018 94 10000 5.7 290 19:58 26.12.2019
1892 Clouds 3 1018 94 10000 6.7 290 19:39 26.12.2019
1893 Clouds 3 1018 94 10000 6.7 290 19:20 26.12.2019
1894 Clouds 3 1018 94 10000 6.2 280 18:57 26.12.2019
1895 Clouds 3 1018 94 10000 5.7 290 18:38 26.12.2019
1896 Clouds 3 1018 94 10000 5.7 290 18:19 26.12.2019
1897 Clouds 3 1018 94 10000 5.7 290 18:19 26.12.2019
1898 Clouds 3 1017 94 10000 6.2 290 17:42 26.12.2019
1899 Clouds 3 1017 91 10000 6.2 290 17:22 26.12.2019
1900 Clouds 3 1017 91 10000 6.7 290 16:54 26.12.2019
1901 Clouds 3 1017 91 10000 6.2 290 16:36 26.12.2019
1902 Clouds 3 1017 91 10000 6.2 290 16:36 26.12.2019
1903 Clouds 3 1017 91 10000 6.2 290 16:18 26.12.2019
1904 Clouds 4 1016 91 10000 6.2 300 15:41 26.12.2019
1905 Clouds 4 1016 91 10000 6.2 300 15:20 26.12.2019
1906 Rain 4 1016 80 10000 8.2 290 14:54 26.12.2019
1907 Clouds 4 1016 80 10000 7.7 290 14:36 26.12.2019
1908 Clouds 4 1016 80 10000 7.7 290 14:36 26.12.2019
1909 Clouds 4 1016 80 10000 7.7 290 14:18 26.12.2019
1910 Rain 4 1015 80 10000 7.7 290 13:42 26.12.2019
1911 Rain 4 1015 86 10000 8.2 290 13:19 26.12.2019
1912 Rain 5 1015 86 10000 8.2 290 12:56 26.12.2019
1913 Rain 5 1015 80 10000 7.2 290 12:37 26.12.2019
1914 Rain 5 1015 80 10000 7.2 290 12:18 26.12.2019
1915 Clouds 5 1015 80 10000 6.2 290 11:43 26.12.2019
1916 Clouds 5 1015 80 10000 6.2 290 11:23 26.12.2019
1917 Rain 5 1015 80 8000 3.1 290 10:57 26.12.2019
1918 Rain 5 1015 80 8000 3.1 290 10:57 26.12.2019
1919 Rain 5 1015 80 8000 4.1 290 10:39 26.12.2019
1920 Rain 5 1015 80 8000 4.1 290 10:18 26.12.2019
1921 Rain 5 1014 86 10000 3.1 290 09:42 26.12.2019
1922 Rain 5 1014 86 10000 3.1 290 09:24 26.12.2019
1923 Rain 4 1014 80 10000 5.1 280 08:40 26.12.2019
1924 Rain 4 1014 80 10000 5.1 280 08:40 26.12.2019
1925 Rain 4 1014 80 10000 5.1 280 08:22 26.12.2019
1926 Rain 4 1013 80 10000 5.1 280 07:50 26.12.2019
1927 Rain 3 1013 80 10000 4.6 280 07:26 26.12.2019
1928 Clouds 4 1012 80 10000 4.6 280 06:44 26.12.2019
1929 Clouds 4 1012 80 10000 4.6 280 06:25 26.12.2019
1930 Clouds 4 1012 80 10000 2.6 300 05:43 26.12.2019
1931 Clouds 4 1012 80 10000 2.6 300 05:43 26.12.2019
1932 Clouds 4 1012 80 10000 3.6 300 04:38 26.12.2019
1933 Clouds 4 1012 80 10000 4.1 290 03:46 26.12.2019
1934 Clouds 4 1012 86 10000 4.6 280 02:49 26.12.2019
1935 Clouds 4 1012 86 10000 4.6 280 02:31 26.12.2019
1936 Rain 4 1011 86 10000 3.6 280 01:44 26.12.2019
1937 Rain 4 1011 86 10000 3.6 280 01:26 26.12.2019
1938 Clouds 4 1011 86 10000 3.6 280 00:47 26.12.2019
1939 Rain 4 1011 86 10000 2.6 290 00:23 26.12.2019
1940 Rain 4 1011 86 10000 3.1 290 23:58 25.12.2019
1941 Clouds 4 1011 80 10000 3.6 280 23:37 25.12.2019
1942 Clouds 3 1011 80 10000 3.6 290 23:19 25.12.2019
1943 Clouds 4 1011 80 10000 3.6 290 22:56 25.12.2019
1944 Clouds 4 1011 80 10000 4.1 280 22:37 25.12.2019
1945 Clouds 4 1011 80 10000 4.1 280 22:18 25.12.2019
1946 Clouds 4 1011 80 10000 4.1 280 22:18 25.12.2019
1947 Clouds 4 1011 80 10000 3.6 280 21:55 25.12.2019
1948 Clouds 4 1011 80 10000 3.6 280 21:55 25.12.2019
1949 Clouds 4 1011 80 10000 3.6 280 21:37 25.12.2019
1950 Clouds 4 1011 80 10000 3.6 280 21:18 25.12.2019
1951 Clouds 3 1011 86 10000 3.1 290 20:40 25.12.2019
1952 Clouds 3 1011 86 10000 3.1 290 20:21 25.12.2019
1953 Clouds 3 1011 86 10000 3.6 290 19:59 25.12.2019
1954 Clouds 3 1011 86 10000 4.1 280 19:40 25.12.2019
1955 Clouds 4 1011 86 10000 4.1 280 19:21 25.12.2019
1956 Clouds 4 1010 80 10000 6.2 280 18:40 25.12.2019
1957 Clouds 4 1010 80 10000 5.1 290 18:21 25.12.2019
1958 Clouds 4 1010 80 10000 5.1 290 18:21 25.12.2019
1959 Clouds 4 1010 80 10000 5.1 290 17:57 25.12.2019
1960 Clouds 4 1010 80 10000 6.2 280 17:39 25.12.2019
1961 Clouds 4 1010 80 10000 6.2 280 17:18 25.12.2019
1962 Clouds 4 1009 80 10000 6.2 280 16:39 25.12.2019
1963 Clouds 4 1009 80 10000 6.2 280 16:20 25.12.2019
1964 Clouds 4 1009 80 10000 7.2 280 15:59 25.12.2019
1965 Clouds 4 1009 89 10000 7.7 280 15:40 25.12.2019
1966 Clouds 5 1009 89 10000 7.7 280 15:21 25.12.2019
1967 Clouds 5 1009 89 10000 7.2 280 14:59 25.12.2019
1968 Clouds 5 1009 75 10000 7.2 280 14:40 25.12.2019
1969 Clouds 5 1009 75 10000 7.2 280 14:22 25.12.2019
1970 Clouds 5 1009 75 10000 5.7 290 13:57 25.12.2019
1971 Clouds 5 1009 75 10000 5.7 290 13:57 25.12.2019
1972 Clouds 5 1009 83 10000 6.2 290 13:39 25.12.2019
1973 Clouds 5 1009 84 10000 6.2 290 13:19 25.12.2019
1974 Clouds 5 1009 84 10000 6.7 280 12:43 25.12.2019
1975 Clouds 5 1009 84 10000 6.7 280 12:21 25.12.2019
1976 Clouds 5 1009 84 10000 6.2 290 11:57 25.12.2019
1977 Clouds 5 1009 84 10000 4.6 290 11:39 25.12.2019
1978 Clouds 4 1009 80 10000 4.6 290 11:18 25.12.2019
1979 Clouds 4 1009 80 10000 6.7 290 10:38 25.12.2019
1980 Clouds 4 1009 80 10000 6.7 290 10:20 25.12.2019
1981 Clouds 4 1010 80 10000 5.7 290 09:51 25.12.2019
1982 Rain 4 1010 80 10000 5.7 290 09:32 25.12.2019
1983 Rain 4 1009 80 10000 6.7 280 08:51 25.12.2019
1984 Rain 3 1009 80 10000 6.7 270 08:31 25.12.2019
1985 Rain 3 1009 95 10000 6.7 280 07:52 25.12.2019
1986 Rain 3 1009 95 8000 6.2 280 07:34 25.12.2019
1987 Rain 3 1009 95 10000 6.2 280 06:52 25.12.2019
1988 Clouds 4 1008 69 10000 5.7 290 06:23 25.12.2019
1989 Clouds 4 1008 69 10000 6.7 280 05:18 25.12.2019
1990 Clouds 4 1008 90 10000 6.2 290 04:39 25.12.2019
1991 Clouds 4 1008 90 10000 6.2 290 04:20 25.12.2019
1992 Clouds 4 1008 69 10000 6.2 280 03:42 25.12.2019
1993 Clouds 4 1008 69 10000 6.7 290 02:54 25.12.2019
1994 Clouds 5 1009 90 10000 5.7 290 02:27 25.12.2019
1995 Clouds 4 1009 80 10000 5.7 280 01:25 25.12.2019
1996 Clouds 4 1009 80 10000 6.2 290 00:54 25.12.2019
1997 Clouds 4 1009 80 10000 6.2 290 00:54 25.12.2019
1998 Clouds 4 1009 80 10000 5.1 290 00:32 25.12.2019
1999 Clouds 5 1009 75 10000 4.6 290 23:57 24.12.2019
2000 Clouds 4 1009 80 10000 4.6 290 23:38 24.12.2019
2001 Clouds 4 1009 80 10000 4.6 290 23:20 24.12.2019
2002 Clouds 4 1009 80 10000 6.2 280 22:41 24.12.2019
2003 Clouds 4 1009 80 10000 6.2 280 22:41 24.12.2019
2004 Clouds 4 1009 80 10000 6.2 280 22:21 24.12.2019
2005 Clouds 4 1009 80 10000 5.7 290 21:44 24.12.2019
2006 Clouds 4 1009 80 10000 5.7 290 21:23 24.12.2019
2007 Clouds 4 1009 80 10000 5.1 290 20:59 24.12.2019
2008 Clouds 4 1009 80 10000 4.6 290 20:40 24.12.2019
2009 Clouds 4 1009 80 10000 4.6 290 20:19 24.12.2019
2010 Clouds 4 1009 80 10000 5.1 280 19:44 24.12.2019
2011 Clouds 4 1009 80 10000 5.1 280 19:20 24.12.2019
2012 Clouds 4 1008 80 10000 7.7 280 18:44 24.12.2019
2013 Clouds 4 1008 80 10000 7.7 280 18:44 24.12.2019
2014 Clouds 4 1008 80 10000 7.7 280 18:25 24.12.2019
2015 Clouds 4 1008 80 10000 6.7 290 17:59 24.12.2019
2016 Clouds 4 1008 95 10000 7.2 290 17:38 24.12.2019
2017 Clouds 4 1008 96 10000 7.2 290 17:20 24.12.2019
2018 Clouds 4 1008 96 10000 8.2 290 16:55 24.12.2019
2019 Clouds 4 1007 96 10000 8.2 290 16:37 24.12.2019
2020 Clouds 4 1007 96 10000 9.3 290 16:19 24.12.2019
2021 Clouds 4 1007 96 10000 9.3 290 15:55 24.12.2019
2022 Clouds 4 1007 96 10000 8.2 290 15:36 24.12.2019
2023 Clouds 4 1007 96 10000 8.2 290 15:18 24.12.2019
2024 Clouds 4 1007 96 10000 8.2 280 14:55 24.12.2019
2025 Clouds 5 1006 96 10000 7.7 280 14:37 24.12.2019
2026 Clouds 5 1006 93 10000 7.7 280 14:19 24.12.2019
2027 Clouds 5 1006 75 10000 9.3 290 13:55 24.12.2019
2028 Clouds 5 1006 75 10000 9.8 290 13:37 24.12.2019
2029 Clouds 5 1006 75 10000 9.8 290 13:18 24.12.2019
2030 Clouds 5 1006 75 10000 9.3 290 12:55 24.12.2019
2031 Clouds 5 1005 80 10000 8.7 290 12:36 24.12.2019
2032 Clouds 5 1005 80 10000 8.7 290 12:18 24.12.2019
2033 Clouds 5 1005 75 10000 8.2 280 11:54 24.12.2019
2034 Clouds 5 1005 80 10000 8.7 290 11:36 24.12.2019
2035 Clouds 5 1005 80 10000 8.7 290 11:36 24.12.2019
2036 Clouds 5 1005 80 10000 8.7 290 11:18 24.12.2019
2037 Clouds 5 1005 80 10000 8.2 280 10:55 24.12.2019
2038 Clouds 5 1005 80 10000 8.2 280 10:36 24.12.2019
2039 Clouds 5 1005 80 10000 8.2 280 10:18 24.12.2019
2040 Clouds 5 1005 80 10000 8.2 280 09:54 24.12.2019
2041 Rain 4 1004 86 10000 7.7 280 09:36 24.12.2019
2042 Rain 4 1004 86 10000 7.7 280 09:18 24.12.2019
2043 Rain 4 1003 86 10000 7.7 280 08:42 24.12.2019
2044 Rain 4 1003 86 10000 7.7 280 08:19 24.12.2019
2045 Rain 3 1002 86 10000 7.2 280 07:45 24.12.2019
2046 Rain 3 1002 86 10000 7.2 280 07:23 24.12.2019
2047 Rain 3 1001 80 10000 7.7 280 06:41 24.12.2019
2048 Rain 3 1001 80 10000 7.7 280 06:22 24.12.2019
2049 Rain 3 1001 86 10000 7.7 280 05:56 24.12.2019
2050 Rain 3 1001 86 10000 7.7 280 05:56 24.12.2019
2051 Rain 3 1001 86 10000 7.7 280 05:20 24.12.2019
2052 Rain 4 1000 80 10000 7.2 280 04:22 24.12.2019
2053 Rain 4 999 80 10000 7.7 280 03:50 24.12.2019
2054 Rain 5 999 96 10000 7.7 290 02:37 24.12.2019
2055 Rain 5 999 93 10000 7.7 290 02:18 24.12.2019
2056 Rain 5 998 75 10000 6.2 290 01:42 24.12.2019
2057 Rain 5 998 75 10000 6.2 290 01:42 24.12.2019
2058 Clouds 5 998 75 10000 6.7 290 01:19 24.12.2019
2059 Clouds 5 998 75 10000 7.7 280 00:40 24.12.2019
2060 Clouds 5 998 75 10000 7.7 280 00:20 24.12.2019
2061 Clouds 5 998 70 10000 8.2 280 23:43 23.12.2019
2062 Clouds 6 998 70 10000 8.2 280 23:24 23.12.2019
2063 Clouds 5 998 70 10000 7.2 280 22:58 23.12.2019
2064 Clouds 5 997 70 10000 7.2 280 22:38 23.12.2019
2065 Clouds 5 997 70 10000 7.2 280 22:20 23.12.2019
2066 Clouds 5 997 70 10000 6.2 280 21:57 23.12.2019
2067 Clouds 5 997 70 10000 5.7 290 21:37 23.12.2019
2068 Clouds 6 997 70 10000 5.7 290 21:19 23.12.2019
2069 Clouds 6 997 65 10000 6.2 280 20:59 23.12.2019
2070 Rain 6 997 75 10000 5.1 290 20:41 23.12.2019
2071 Rain 6 997 75 10000 5.1 290 20:19 23.12.2019
2072 Clouds 6 997 70 10000 5.7 300 19:59 23.12.2019
2073 Clouds 6 997 65 10000 6.2 290 19:40 23.12.2019
2074 Clouds 6 997 65 10000 6.2 290 19:40 23.12.2019
2075 Clouds 6 997 65 10000 6.2 290 19:22 23.12.2019
2076 Clouds 6 997 65 10000 4.6 290 18:58 23.12.2019
2077 Clouds 5 997 75 10000 4.6 310 18:39 23.12.2019
2078 Clouds 5 997 75 10000 4.6 310 18:21 23.12.2019
2079 Clouds 6 997 65 10000 3.6 290 17:59 23.12.2019
2080 Clouds 6 996 65 10000 3.6 300 17:40 23.12.2019
2081 Clouds 6 996 65 10000 3.6 300 17:19 23.12.2019
2082 Clouds 5 996 70 10000 3.6 300 16:57 23.12.2019
2083 Clouds 5 996 75 10000 4.1 300 16:39 23.12.2019
2084 Clouds 6 996 75 10000 4.1 300 16:19 23.12.2019
2085 Clouds 6 996 75 10000 4.1 300 16:19 23.12.2019
2086 Clouds 6 996 75 10000 5.7 300 15:57 23.12.2019
2087 Clouds 6 996 75 10000 5.7 300 15:57 23.12.2019
2088 Clouds 6 995 75 10000 5.7 290 15:37 23.12.2019
2089 Clouds 6 995 75 10000 8.2 280 15:19 23.12.2019
2090 Clouds 6 995 75 10000 8.2 280 14:56 23.12.2019
2091 Clouds 6 995 75 10000 6.7 290 14:38 23.12.2019
2092 Clouds 6 995 75 10000 6.7 290 14:18 23.12.2019
2093 Clouds 6 995 75 10000 5.7 300 13:56 23.12.2019
2094 Clouds 6 994 75 10000 7.7 290 13:37 23.12.2019
2095 Drizzle 6 994 81 10000 8.7 280 13:19 23.12.2019
2096 Rain 7 994 81 10000 7.2 280 12:42 23.12.2019
2097 Rain 7 994 81 10000 7.2 280 12:21 23.12.2019
2098 Clouds 7 994 81 10000 8.7 290 11:59 23.12.2019
2099 Clouds 7 994 81 10000 8.7 290 11:59 23.12.2019
2100 Drizzle 9 993 81 10000 10.3 290 11:41 23.12.2019
2101 Drizzle 9 993 81 10000 10.3 290 11:22 23.12.2019
2102 Clouds 11 992 57 10000 6.7 260 10:55 23.12.2019
2103 Clouds 11 992 62 10000 2.1 0 10:37 23.12.2019
2104 Clouds 11 992 62 10000 2.1 0 10:37 23.12.2019
2105 Clouds 11 992 62 10000 2.1 0 10:18 23.12.2019
2106 Clouds 11 992 76 10000 2.1 200 09:54 23.12.2019
2107 Clouds 11 992 87 10000 3.6 170 09:36 23.12.2019
2108 Clouds 10 992 87 10000 1 0 09:18 23.12.2019
2109 Clouds 9 992 81 10000 3.1 40 08:41 23.12.2019
2110 Clouds 8 992 81 10000 3.1 40 08:22 23.12.2019
2111 Clouds 8 992 81 10000 2.6 40 07:56 23.12.2019
2112 Drizzle 7 992 81 10000 3.6 60 07:37 23.12.2019
2113 Drizzle 7 992 81 10000 3.6 60 07:18 23.12.2019
2114 Rain 6 991 87 10000 4.1 50 06:32 23.12.2019
2115 Clouds 6 992 81 10000 3.1 50 05:56 23.12.2019
2116 Clouds 5 991 87 10000 2.6 130 05:33 23.12.2019
2117 Clouds 6 991 87 10000 1 0 04:40 23.12.2019
2118 Clouds 5 991 87 10000 3.1 100 03:36 23.12.2019
2119 Clouds 7 991 75 10000 1.5 40 02:43 23.12.2019
2120 Clouds 7 991 75 10000 1.5 40 02:19 23.12.2019
2121 Clouds 8 992 81 10000 3.6 50 01:45 23.12.2019
2122 Clouds 7 992 87 10000 2.1 130 01:27 23.12.2019
2123 Clouds 7 992 87 10000 2.6 160 00:45 23.12.2019
2124 Clouds 8 992 70 10000 2.1 300 00:24 23.12.2019
2125 Clouds 8 992 70 10000 2.1 300 00:24 23.12.2019
2126 Clouds 8 992 87 10000 3.6 40 23:40 22.12.2019
2127 Rain 8 992 87 10000 3.1 330 23:22 22.12.2019
2128 Rain 8 992 87 10000 3.1 330 22:58 22.12.2019
2129 Rain 9 992 81 10000 1.5 30 22:40 22.12.2019
2130 Rain 9 992 81 10000 1.5 30 22:22 22.12.2019
2131 Rain 10 992 71 10000 5.1 100 21:59 22.12.2019
2132 Rain 10 992 76 10000 6.2 170 21:40 22.12.2019
2133 Rain 10 992 76 10000 6.2 170 21:21 22.12.2019
2134 Rain 10 992 76 10000 6.2 170 21:21 22.12.2019
2135 Rain 10 993 87 10000 4.1 180 20:58 22.12.2019
2136 Clouds 11 993 58 10000 2.6 120 20:39 22.12.2019
2137 Rain 10 994 87 8000 2.1 0 20:19 22.12.2019
2138 Rain 10 994 87 8000 2.1 0 19:57 22.12.2019
2139 Rain 10 994 87 8000 2.1 0 19:57 22.12.2019
2140 Rain 11 994 93 5000 1.5 320 19:38 22.12.2019
2141 Rain 9 994 93 5000 1.5 320 19:19 22.12.2019
2142 Rain 10 993 81 5000 2.1 340 18:42 22.12.2019
2143 Rain 10 993 81 5000 2.1 340 18:23 22.12.2019
2144 Rain 10 993 81 8000 2.1 80 17:56 22.12.2019
2145 Rain 11 993 76 5000 3.1 270 17:38 22.12.2019
2146 Rain 11 993 76 5000 3.1 270 17:19 22.12.2019
2147 Clouds 11 993 71 8000 1 0 16:57 22.12.2019
2148 Clouds 11 993 71 10000 1 0 16:38 22.12.2019
2149 Clouds 13 994 66 10000 2.6 150 16:20 22.12.2019
2150 Clouds 13 994 66 10000 2.6 150 15:56 22.12.2019
2151 Clouds 13 993 66 10000 3.6 110 15:37 22.12.2019
2152 Clouds 13 993 66 10000 3.6 110 15:19 22.12.2019
2153 Clouds 13 994 62 10000 5.7 110 14:55 22.12.2019
2154 Clouds 13 995 62 10000 4.1 110 14:36 22.12.2019
2155 Clouds 12 995 62 10000 4.1 110 14:18 22.12.2019
2156 Clouds 12 996 62 10000 6.7 100 13:55 22.12.2019
2157 Clouds 12 997 66 10000 2.6 0 13:36 22.12.2019
2158 Clouds 11 998 66 10000 6.7 100 13:18 22.12.2019
2159 Clouds 11 998 66 10000 6.7 100 12:55 22.12.2019
2160 Clouds 11 997 66 10000 9.8 90 12:37 22.12.2019
2161 Clouds 11 997 66 10000 9.8 90 12:18 22.12.2019
2162 Clouds 11 999 62 10000 8.7 100 11:39 22.12.2019
2163 Clouds 11 999 62 10000 8.7 100 11:21 22.12.2019
2164 Clouds 12 1000 58 10000 5.1 100 10:59 22.12.2019
2165 Clouds 11 1000 62 10000 3.1 100 10:40 22.12.2019
2166 Clouds 11 1000 66 10000 5.7 100 10:21 22.12.2019
2167 Clouds 11 1000 66 10000 5.7 100 09:59 22.12.2019
2168 Clouds 8 1000 71 10000 6.2 60 09:40 22.12.2019
2169 Clouds 7 1000 71 10000 6.2 60 09:21 22.12.2019
2170 Clouds 7 1001 71 10000 5.1 70 08:59 22.12.2019
2171 Clouds 9 1001 76 10000 4.6 70 08:37 22.12.2019
2172 Clouds 6 1001 70 10000 4.6 60 08:18 22.12.2019
2173 Clouds 5 1002 70 10000 6.2 50 07:38 22.12.2019
2174 Clouds 6 1002 70 10000 6.2 50 07:19 22.12.2019
2175 Clouds 7 1002 62 10000 4.6 110 06:40 22.12.2019
2176 Clouds 6 1001 62 10000 4.6 0 05:53 22.12.2019
2177 Clouds 6 1001 62 10000 6.2 0 05:21 22.12.2019
2178 Clouds 8 1002 51 10000 4.1 0 04:28 22.12.2019
2179 Clouds 8 1002 62 10000 2.6 0 03:45 22.12.2019
2180 Clouds 9 1003 58 10000 5.1 360 02:38 22.12.2019
2181 Clouds 9 1003 58 10000 5.1 360 02:38 22.12.2019
2182 Clouds 8 1002 62 10000 5.1 80 01:37 22.12.2019
2183 Clouds 8 1002 62 10000 5.1 80 01:18 22.12.2019
2184 Clouds 9 1002 62 10000 4.1 30 00:45 22.12.2019
2185 Clouds 8 1002 62 10000 4.1 30 00:21 22.12.2019
2186 Clouds 10 1004 50 10000 2.6 0 23:42 21.12.2019
2187 Clouds 10 1004 50 10000 2.6 0 23:24 21.12.2019
2188 Clouds 10 1004 58 10000 3.1 110 22:59 21.12.2019
2189 Clouds 10 1004 50 10000 3.6 10 22:40 21.12.2019
2190 Clouds 10 1004 50 10000 3.6 10 22:19 21.12.2019
2191 Clouds 10 1002 47 10000 14.4 220 21:56 21.12.2019
2192 Clouds 11 1002 44 10000 14.4 220 21:37 21.12.2019
2193 Clouds 11 1002 44 10000 14.4 220 21:19 21.12.2019
2194 Clouds 11 1004 47 10000 13.4 220 20:58 21.12.2019
2195 Clouds 10 1004 50 10000 11.3 240 20:39 21.12.2019
2196 Clouds 10 1004 50 10000 11.3 240 20:21 21.12.2019
2197 Clouds 10 1004 47 10000 12.3 230 19:57 21.12.2019
2198 Clouds 10 1005 54 10000 4.6 0 19:39 21.12.2019
2199 Clouds 9 1005 54 10000 4.6 0 19:19 21.12.2019
2200 Clouds 7 1005 70 10000 2.6 80 18:42 21.12.2019
2201 Clouds 6 1005 70 10000 2.6 80 18:24 21.12.2019
2202 Clouds 7 1006 66 10000 5.7 50 17:57 21.12.2019
2203 Clouds 8 1006 62 10000 3.6 10 17:39 21.12.2019
2204 Clouds 7 1006 62 10000 3.6 10 17:21 21.12.2019
2205 Clouds 8 1006 66 10000 4.6 90 16:57 21.12.2019
2206 Clouds 8 1006 66 10000 4.6 90 16:57 21.12.2019
2207 Clouds 8 1006 66 10000 4.1 30 16:39 21.12.2019
2208 Clouds 7 1006 66 10000 4.1 30 16:18 21.12.2019
2209 Clouds 7 1006 66 10000 4.1 50 15:56 21.12.2019
2210 Clouds 8 1006 71 10000 3.1 360 15:37 21.12.2019
2211 Clouds 8 1006 71 10000 3.1 360 15:19 21.12.2019
2212 Clouds 8 1007 71 10000 3.1 30 14:44 21.12.2019
2213 Clouds 8 1007 71 10000 3.1 30 14:25 21.12.2019
2214 Clouds 10 1008 76 10000 3.6 50 13:59 21.12.2019
2215 Clouds 10 1009 76 10000 1.5 60 13:40 21.12.2019
2216 Clouds 10 1009 76 10000 1.5 60 13:20 21.12.2019
2217 Clouds 10 1009 71 10000 2.1 0 13:20 21.12.2019
2218 Clouds 10 1009 71 10000 2.1 0 12:57 21.12.2019
2219 Clouds 8 1010 81 7000 2.6 140 12:39 21.12.2019
2220 Clouds 8 1010 81 7000 2.6 140 12:21 21.12.2019
2221 Clouds 8 1010 81 10000 2.1 0 11:57 21.12.2019
2222 Clouds 7 1011 87 10000 2.1 110 11:39 21.12.2019
2223 Clouds 5 1011 87 10000 2.1 110 11:20 21.12.2019
2224 Clouds 5 1012 87 7000 1 0 10:41 21.12.2019
2225 Clouds 5 1012 87 7000 1 0 10:23 21.12.2019
2226 Clouds 5 1012 87 7000 1 0 10:23 21.12.2019
2227 Clouds 5 1013 86 6000 1 0 09:58 21.12.2019
2228 Clouds 4 1013 93 6000 1.14 212 09:40 21.12.2019
2229 Clouds 4 1013 93 6000 1.14 212 09:20 21.12.2019
2230 Clouds 5 1013 86 8000 1.5 40 08:52 21.12.2019
2231 Clouds 4 1013 86 8000 2.1 210 08:27 21.12.2019
2232 Clouds 2 1013 86 10000 2.1 200 07:58 21.12.2019
2233 Clouds 2 1013 86 10000 1.5 150 07:40 21.12.2019
2234 Clouds 2 1013 86 10000 1.5 150 07:21 21.12.2019
2235 Clouds 1 1013 86 10000 2.6 120 06:41 21.12.2019
2236 Clouds 1 1013 86 10000 2.6 120 06:23 21.12.2019
2237 Clouds 1 1014 93 10000 2.6 140 05:37 21.12.2019
2238 Clouds 0 1014 93 8000 2.6 100 04:55 21.12.2019
2239 Clouds 2 1014 86 10000 0.5 0 03:56 21.12.2019
2240 Clouds 0 1014 86 8000 2.1 130 02:25 21.12.2019
2241 Clouds 1 1014 89 10000 1 0 01:48 21.12.2019
2242 Clear 1 1014 86 10000 2.1 0 01:25 21.12.2019
2243 Clouds 2 1015 80 10000 2.1 170 00:45 21.12.2019
2244 Clouds 2 1015 80 10000 2.1 170 00:26 21.12.2019
2245 Clouds 2 1015 80 10000 1.5 140 23:39 20.12.2019
2246 Clouds 2 1015 80 10000 1.5 140 23:21 20.12.2019
2247 Clouds 2 1015 86 8000 2.6 110 22:59 20.12.2019
2248 Clouds 2 1015 86 8000 2.6 110 22:59 20.12.2019
2249 Clouds 2 1016 86 8000 3.1 160 22:39 20.12.2019
2250 Clouds 2 1016 86 8000 2.1 140 22:18 20.12.2019
2251 Clouds 3 1015 87 8000 2.6 0 21:41 20.12.2019
2252 Clouds 3 1015 87 8000 2.6 0 21:21 20.12.2019
2253 Clouds 3 1016 86 8000 3.6 100 20:59 20.12.2019
2254 Clouds 3 1016 80 8000 3.1 110 20:38 20.12.2019
2255 Clouds 3 1016 80 8000 3.1 110 20:19 20.12.2019
2256 Rain 5 1016 81 8000 1.5 0 19:43 20.12.2019
2257 Rain 5 1016 81 8000 1.5 0 19:21 20.12.2019
2258 Clouds 5 1016 81 7000 2.6 90 18:58 20.12.2019
2259 Clouds 6 1016 75 8000 2.1 0 18:40 20.12.2019
2260 Clouds 5 1016 75 8000 2.1 0 18:21 20.12.2019
2261 Clouds 5 1016 75 8000 2.1 0 18:21 20.12.2019
2262 Clouds 5 1016 81 7000 1.5 0 17:57 20.12.2019
2263 Clouds 6 1016 81 7000 2.1 0 17:39 20.12.2019
2264 Clouds 6 1016 81 7000 2.1 0 17:20 20.12.2019
2265 Clouds 6 1016 80 7000 1.5 170 16:56 20.12.2019
2266 Clouds 7 1016 75 8000 1.5 310 16:37 20.12.2019
2267 Clouds 7 1016 75 8000 1.5 310 16:19 20.12.2019
2268 Clouds 8 1017 70 10000 1.5 330 15:54 20.12.2019
2269 Clouds 8 1017 70 10000 1.5 330 15:54 20.12.2019
2270 Clouds 9 1017 70 10000 1.5 90 15:36 20.12.2019
2271 Clouds 9 1017 70 10000 1.5 90 15:36 20.12.2019
2272 Clouds 9 1017 70 10000 1.5 90 15:18 20.12.2019
2273 Clouds 10 1017 70 10000 2.1 0 14:42 20.12.2019
2274 Clouds 11 1017 65 10000 1 0 14:23 20.12.2019
2275 Clouds 11 1018 65 10000 1 0 13:56 20.12.2019
2276 Clouds 11 1018 65 10000 1 0 13:37 20.12.2019
2277 Clouds 11 1018 65 10000 0.5 0 13:18 20.12.2019
2278 Clouds 11 1018 65 10000 0.5 0 13:18 20.12.2019
2279 Clouds 11 1019 70 10000 1 0 12:55 20.12.2019
2280 Clouds 10 1019 70 10000 1 0 12:36 20.12.2019
2281 Clouds 10 1019 70 10000 1 0 12:18 20.12.2019
2282 Clouds 9 1020 75 8000 1 0 11:56 20.12.2019
2283 Clouds 9 1020 75 8000 1 0 11:37 20.12.2019
2284 Clouds 8 1020 75 7000 0.5 0 11:18 20.12.2019
2285 Mist 7 1021 86 4500 1 0 10:54 20.12.2019
2286 Mist 5 1021 93 3500 1.02 219 10:36 20.12.2019
2287 Mist 4 1021 93 3500 1.02 219 10:18 20.12.2019
2288 Mist 1 1021 100 2000 1.5 110 09:41 20.12.2019
2289 Mist 2 1022 51 1600 2.1 110 09:21 20.12.2019
2290 Mist 2 1022 51 1600 2.1 110 09:21 20.12.2019
2291 Mist 0 1022 51 1200 1 0 08:44 20.12.2019
2292 Mist 0 1022 100 1000 2.6 120 08:26 20.12.2019
2293 Fog 0 1022 92 900 2.1 110 07:59 20.12.2019
2294 Fog 0 1022 92 900 2.1 110 07:41 20.12.2019
2295 Fog 0 1022 100 900 1 0 07:20 20.12.2019
2296 Fog 0 1022 58 800 1 0 06:52 20.12.2019
2297 Fog 0 1022 100 250 1 0 06:33 20.12.2019
2298 Fog -1 1022 92 500 1 0 05:56 20.12.2019
2299 Fog 0 1022 92 500 1 0 05:37 20.12.2019
2300 Fog 0 1022 92 150 1.5 110 04:33 20.12.2019
2301 Fog 0 1023 100 150 1.5 120 03:31 20.12.2019
2302 Fog -1 1023 100 150 1 0 02:44 20.12.2019
2303 Fog 0 1024 92 150 0.93 210 01:54 20.12.2019
2304 Fog 0 1024 100 150 0.93 210 01:33 20.12.2019
2305 Fog 0 1024 100 100 1 0 00:48 20.12.2019
2306 Fog 0 1024 57 150 0.5 0 00:29 20.12.2019
2307 Fog 1 1024 100 500 1 50 23:54 19.12.2019
2308 Fog 1 1025 100 750 1 240 23:36 19.12.2019
2309 Fog 1 1025 100 750 1 240 23:18 19.12.2019
2310 Mist 1 1025 59 1100 1 220 22:37 19.12.2019
2311 Fog 1 1025 59 600 1 0 22:19 19.12.2019
2312 Fog 2 1025 59 800 1.01 212 21:55 19.12.2019
2313 Mist 1 1025 100 1300 1.5 40 21:37 19.12.2019
2314 Mist 1 1025 100 1300 1.5 40 21:18 19.12.2019
2315 Mist 2 1025 93 1300 1.5 40 20:55 19.12.2019
2316 Mist 2 1025 93 2000 1.5 220 20:36 19.12.2019
2317 Mist 2 1025 93 2000 1.5 220 20:18 19.12.2019
2318 Mist 2 1025 93 2700 1 0 19:56 19.12.2019
2319 Mist 2 1026 93 2000 1 0 19:37 19.12.2019
2320 Mist 2 1026 93 2000 1 0 19:19 19.12.2019
2321 Mist 3 1026 93 3400 1.5 350 18:41 19.12.2019
2322 Mist 4 1025 93 4000 1.5 320 18:22 19.12.2019
2323 Mist 4 1025 86 5000 1 0 17:57 19.12.2019
2324 Mist 4 1025 86 5000 1 0 17:39 19.12.2019
2325 Mist 5 1025 80 5000 2.1 140 17:19 19.12.2019
2326 Mist 5 1025 86 5000 2.1 120 16:57 19.12.2019
2327 Mist 6 1026 81 5000 1.5 100 16:39 19.12.2019
2328 Mist 6 1026 81 5000 1.5 100 16:21 19.12.2019
2329 Clouds 8 1026 70 6000 1 0 15:59 19.12.2019
2330 Clouds 9 1026 70 6000 1 0 15:39 19.12.2019
2331 Clouds 9 1026 70 6000 1.5 100 15:20 19.12.2019
2332 Clouds 9 1026 66 7000 1 0 14:59 19.12.2019
2333 Clouds 10 1026 66 7000 1 0 14:40 19.12.2019
2334 Clouds 11 1026 70 6000 1 0 14:19 19.12.2019
2335 Mist 11 1026 70 5000 1 0 13:56 19.12.2019
2336 Mist 12 1026 70 5000 1 0 13:37 19.12.2019
2337 Mist 11 1027 65 4800 1 0 13:18 19.12.2019
2338 Mist 11 1027 70 5000 1.5 30 12:54 19.12.2019
2339 Mist 10 1028 75 5000 1 0 12:36 19.12.2019
2340 Mist 10 1028 75 5000 1 0 12:18 19.12.2019
2341 Mist 10 1028 75 5000 1 0 12:18 19.12.2019
2342 Mist 4 1028 86 4700 1.5 290 11:42 19.12.2019
2343 Mist 6 1029 100 2600 1.5 300 11:20 19.12.2019
2344 Mist 5 1029 100 1900 1 0 10:59 19.12.2019
2345 Mist 5 1029 100 1900 1 0 10:39 19.12.2019
2346 Fog 4 1029 34 650 0.13 59 10:20 19.12.2019
2347 Fog -1 1029 100 550 0.13 59 09:57 19.12.2019
2348 Fog -1 1029 100 550 0.13 59 09:38 19.12.2019
2349 Fog -2 1029 100 150 0.5 0 09:19 19.12.2019
2350 Fog -2 1029 92 200 0.13 59 08:55 19.12.2019
2351 Fog -2 1029 92 200 0.13 59 08:37 19.12.2019
2352 Fog -1 1029 100 100 1 0 08:18 19.12.2019
2353 Fog -2 1029 92 200 0.95 249 07:54 19.12.2019
2354 Fog -3 1029 92 150 0.95 249 07:36 19.12.2019
2355 Fog -3 1029 92 150 0.95 249 07:18 19.12.2019
2356 Fog -3 1028 92 200 0.5 0 06:42 19.12.2019
2357 Fog -3 1028 100 150 0.95 249 06:23 19.12.2019
2358 Fog -2 1028 92 200 1 0 05:42 19.12.2019
2359 Fog -3 1028 92 150 0.5 0 05:20 19.12.2019
2360 Fog -2 1028 92 150 1 110 03:54 19.12.2019
2361 Fog -1 1028 100 100 0.5 0 02:29 19.12.2019
2362 Mist 0 1028 92 1100 1.5 250 01:26 19.12.2019
2363 Mist 0 1028 100 3000 1.59 257 00:58 19.12.2019
2364 Mist 0 1028 100 3000 1.59 257 00:39 19.12.2019
2365 Mist 0 1028 92 1400 1.5 60 00:19 19.12.2019
2366 Mist 0 1028 92 1400 1.5 60 00:19 19.12.2019
2367 Fog 0 1028 100 800 0.5 0 23:44 18.12.2019
2368 Mist 0 1028 47 2000 1 0 23:19 18.12.2019
2369 Mist 1 1028 47 2600 1.5 140 22:57 18.12.2019
2370 Mist 1 1028 47 2600 1.5 140 22:38 18.12.2019
2371 Mist 1 1028 47 2000 1.5 0 22:20 18.12.2019
2372 Mist 1 1028 47 1500 1.5 130 21:58 18.12.2019
2373 Mist 1 1028 47 1500 1.5 130 21:39 18.12.2019
2374 Mist 1 1028 47 1500 1.5 130 21:39 18.12.2019
2375 Mist 1 1028 47 1300 1 0 21:20 18.12.2019
2376 Mist 1 1027 47 1100 1.5 70 20:56 18.12.2019
2377 Mist 1 1027 47 1100 1.5 70 20:38 18.12.2019
2378 Mist 2 1027 100 1700 1.46 252 20:19 18.12.2019
2379 Mist 2 1027 93 1500 1 0 19:56 18.12.2019
2380 Mist 3 1027 93 1500 1 0 19:37 18.12.2019
2381 Mist 2 1027 93 1800 1.46 252 19:18 18.12.2019
2382 Mist 3 1027 86 2100 1 0 18:45 18.12.2019
2383 Mist 2 1027 44 4400 1.46 252 18:25 18.12.2019
2384 Mist 3 1026 93 4000 0.5 0 17:58 18.12.2019
2385 Mist 4 1026 93 4000 0.5 0 17:40 18.12.2019
2386 Mist 5 1026 86 4500 1 0 17:20 18.12.2019
2387 Mist 6 1026 80 5000 1.4 254 16:58 18.12.2019
2388 Mist 6 1026 80 5000 1.4 254 16:40 18.12.2019
2389 Mist 6 1026 80 5000 1.4 254 16:40 18.12.2019
2390 Clouds 7 1026 75 6000 1.5 290 16:21 18.12.2019
2391 Clouds 9 1026 65 8000 1.4 254 15:56 18.12.2019
2392 Clouds 10 1026 61 10000 1.4 254 15:38 18.12.2019
2393 Clouds 10 1026 61 10000 1.4 254 15:20 18.12.2019
2394 Clouds 9 1025 66 7000 1 0 14:43 18.12.2019
2395 Clear 13 1025 66 7000 1 0 14:22 18.12.2019
2396 Clear 13 1026 66 7000 1 0 13:58 18.12.2019
2397 Clear 12 1026 70 7000 1.5 0 13:39 18.12.2019
2398 Clear 14 1026 70 7000 1.5 0 13:21 18.12.2019
2399 Clear 13 1026 70 6000 0.5 0 12:59 18.12.2019
2400 Mist 12 1027 75 5000 0.5 0 12:39 18.12.2019
2401 Mist 12 1027 75 5000 0.5 0 12:20 18.12.2019
2402 Mist 10 1027 100 5000 1 0 11:56 18.12.2019
2403 Mist 8 1027 100 3500 1 0 11:38 18.12.2019
2404 Mist 8 1027 100 3500 1 0 11:38 18.12.2019
2405 Mist 8 1027 100 3500 1 0 11:19 18.12.2019
2406 Fog 6 1028 36 500 0.5 0 10:57 18.12.2019
2407 Fog 6 1028 36 500 0.5 0 10:57 18.12.2019
2408 Fog 4 1028 100 600 1 0 10:38 18.12.2019
2409 Fog 2 1028 100 250 1 0 10:20 18.12.2019
2410 Fog -2 1028 100 250 1 0 09:52 18.12.2019
2411 Fog -3 1028 100 200 1.58 263 09:19 18.12.2019
2412 Fog -3 1028 92 200 1.58 263 08:41 18.12.2019
2413 Fog -3 1028 92 200 1.58 263 08:41 18.12.2019
2414 Fog -3 1028 92 200 1.58 263 08:23 18.12.2019
2415 Fog -1 1028 92 400 1 0 07:55 18.12.2019
2416 Fog -3 1027 100 300 1.5 320 07:36 18.12.2019
2417 Fog -3 1027 100 300 1.5 320 07:18 18.12.2019
2418 Fog -4 1027 100 450 1.5 110 06:49 18.12.2019
2419 Fog -3 1027 100 300 2.1 110 06:22 18.12.2019
2420 Fog -3 1027 92 200 1.83 256 05:22 18.12.2019
2421 Fog -3 1026 100 300 1 0 03:31 18.12.2019
2422 Fog -2 1026 100 250 0.5 0 02:38 18.12.2019
2423 Fog -2 1026 100 250 0.5 0 02:19 18.12.2019
2424 Fog -1 1026 92 350 0.5 0 01:42 18.12.2019
2425 Fog -1 1026 92 350 0.5 0 01:22 18.12.2019
2426 Fog -1 1026 92 350 0.5 0 01:22 18.12.2019
2427 Fog -1 1026 100 600 1 0 00:41 18.12.2019
2428 Fog -1 1026 100 600 1 0 00:23 18.12.2019
2429 Fog -1 1026 92 250 1 0 23:57 17.12.2019
2430 Fog 0 1026 100 550 1.5 110 23:38 17.12.2019
2431 Fog 0 1026 100 800 1 0 23:19 17.12.2019
2432 Fog 0 1026 100 800 1 0 22:56 17.12.2019
2433 Fog 0 1026 100 900 1 0 22:38 17.12.2019
2434 Fog 0 1026 100 900 1 0 22:18 17.12.2019
2435 Mist 0 1026 100 1400 1 170 21:55 17.12.2019
2436 Mist 0 1026 51 2500 1 150 21:37 17.12.2019
2437 Mist 0 1026 51 2500 1 150 21:19 17.12.2019
2438 Mist 0 1026 51 3300 1.5 170 20:56 17.12.2019
2439 Mist 0 1025 51 3800 1.5 130 20:37 17.12.2019
2440 Mist 1 1025 46 4400 2.1 130 20:18 17.12.2019
2441 Mist 2 1025 46 3400 2.6 100 19:54 17.12.2019
2442 Mist 2 1025 46 3400 2.6 100 19:36 17.12.2019
2443 Mist 2 1025 46 3400 2.6 100 19:18 17.12.2019
2444 Mist 3 1025 93 3100 1 0 18:41 17.12.2019
2445 Mist 3 1025 86 7000 1 0 18:21 17.12.2019
2446 Mist 4 1025 86 7000 1 0 17:58 17.12.2019
2447 Clear 4 1024 86 7000 1.5 270 17:40 17.12.2019
2448 Clear 5 1024 86 7000 1.5 270 17:19 17.12.2019
2449 Clear 6 1024 75 10000 1 20 16:56 17.12.2019
2450 Clear 7 1024 75 10000 1.43 248 16:37 17.12.2019
2451 Clear 7 1024 75 10000 1.43 248 16:19 17.12.2019
2452 Clear 9 1024 61 10000 1 90 15:55 17.12.2019
2453 Clear 10 1024 61 10000 1 90 15:37 17.12.2019
2454 Clear 11 1024 61 10000 1 90 15:18 17.12.2019
2455 Clear 12 1024 61 10000 1.5 90 14:55 17.12.2019
2456 Clear 11 1024 57 10000 1 0 14:36 17.12.2019
2457 Clear 14 1024 57 10000 1 0 14:18 17.12.2019
2458 Clear 14 1024 61 10000 1.5 300 13:55 17.12.2019
2459 Clear 13 1024 61 9000 1.08 259 13:37 17.12.2019
2460 Clear 12 1024 70 9000 0.5 0 13:18 17.12.2019
2461 Clear 11 1024 75 9000 1 0 12:40 17.12.2019
2462 Clear 11 1024 75 9000 1 0 12:19 17.12.2019
2463 Clear 10 1025 80 8000 1.5 0 11:59 17.12.2019
2464 Mist 8 1025 93 5000 1 0 11:37 17.12.2019
2465 Mist 8 1025 93 5000 1 0 11:37 17.12.2019
2466 Mist 8 1025 93 5000 1 0 11:19 17.12.2019
2467 Mist 6 1026 100 1100 0.5 0 10:59 17.12.2019
2468 Fog 4 1026 100 550 0.5 0 10:40 17.12.2019
2469 Fog 4 1026 100 550 0.5 0 10:21 17.12.2019
2470 Fog 2 1026 100 300 1.35 266 09:59 17.12.2019
2471 Fog -2 1026 92 200 1.35 266 09:40 17.12.2019
2472 Fog -3 1026 100 200 1 0 09:19 17.12.2019
2473 Fog -3 1026 100 200 1 0 08:55 17.12.2019
2474 Fog -4 1026 100 100 1.35 266 08:37 17.12.2019
2475 Fog -2 1026 100 100 1.65 254 08:19 17.12.2019
2476 Fog -3 1025 100 200 1.65 254 07:45 17.12.2019
2477 Fog -4 1025 100 200 1.65 254 07:24 17.12.2019
2478 Fog -4 1025 92 200 0.5 0 06:55 17.12.2019
2479 Fog -3 1025 92 350 1.5 340 06:32 17.12.2019
2480 Fog -3 1025 100 600 1 0 05:52 17.12.2019
2481 Fog -4 1025 100 500 0.5 340 05:34 17.12.2019
2482 Fog -3 1025 100 350 1 310 04:25 17.12.2019
2483 Mist -1 1025 92 4500 1.68 254 02:33 17.12.2019
2484 Mist -1 1025 92 4500 1.68 254 02:33 17.12.2019
2485 Mist -1 1025 100 3000 1.71 254 01:50 17.12.2019
2486 Mist -1 1025 100 2300 2.6 140 00:56 17.12.2019
2487 Mist -1 1025 92 1200 2.6 150 00:36 17.12.2019
2488 Fog 0 1025 92 250 2.1 130 00:18 17.12.2019
2489 Fog 0 1025 100 900 1.5 70 23:40 16.12.2019
2490 Fog 0 1025 100 900 1.5 70 23:19 16.12.2019
2491 Mist 0 1025 75 1500 1.78 245 22:55 16.12.2019
2492 Mist 0 1025 75 2000 1 260 22:37 16.12.2019
2493 Mist 0 1025 75 2000 1 260 22:19 16.12.2019
2494 Mist 0 1025 75 1800 1.5 270 21:54 16.12.2019
2495 Clear 1 1025 75 6000 1 0 21:36 16.12.2019
2496 Clear 1 1025 75 6000 1 0 21:36 16.12.2019
2497 Clear 1 1025 75 6000 1 0 21:36 16.12.2019
2498 Clear 1 1025 75 6000 1 0 21:18 16.12.2019
2499 Mist 1 1025 75 2600 1.5 150 20:56 16.12.2019
2500 Clouds 1 1024 75 7000 1 0 20:37 16.12.2019
2501 Clouds 1 1024 65 7000 1 0 20:18 16.12.2019
2502 Clouds 2 1025 65 7000 0.5 0 19:55 16.12.2019
2503 Clear 2 1025 93 8000 1 0 19:36 16.12.2019
2504 Clear 2 1025 93 8000 1 0 19:18 16.12.2019
2505 Clear 3 1024 93 8000 1 0 18:54 16.12.2019
2506 Clouds 3 1024 86 8000 1 0 18:36 16.12.2019
2507 Clouds 3 1024 86 8000 1 0 18:18 16.12.2019
2508 Mist 4 1024 80 5000 1 0 17:55 16.12.2019
2509 Clear 5 1024 80 10000 1.53 241 17:37 16.12.2019
2510 Clear 5 1024 81 10000 1.26 243 17:18 16.12.2019
2511 Clear 6 1024 81 10000 1.26 243 16:54 16.12.2019
2512 Clear 6 1024 75 10000 1 330 16:36 16.12.2019
2513 Clear 7 1024 75 10000 1 330 16:18 16.12.2019
2514 Clear 9 1023 61 10000 1.26 243 15:54 16.12.2019
2515 Clear 11 1024 57 10000 1 90 15:36 16.12.2019
2516 Clear 11 1024 57 10000 1 0 15:18 16.12.2019
2517 Clear 11 1024 57 10000 1 0 14:54 16.12.2019
2518 Clear 11 1024 57 10000 1 0 14:54 16.12.2019
2519 Clear 11 1024 57 10000 0.5 0 14:36 16.12.2019
2520 Clear 11 1024 57 10000 0.5 0 14:18 16.12.2019
2521 Clear 10 1024 61 10000 1 0 13:38 16.12.2019
2522 Clear 12 1024 61 10000 1 0 13:20 16.12.2019
2523 Clear 12 1025 61 10000 1.5 110 12:58 16.12.2019
2524 Clear 11 1025 65 10000 1 0 12:40 16.12.2019
2525 Clear 11 1025 65 10000 1 0 12:20 16.12.2019
2526 Clear 9 1025 70 8000 1.5 0 11:59 16.12.2019
2527 Clear 8 1026 86 7000 1.5 0 11:41 16.12.2019
2528 Clear 7 1026 86 7000 1.5 0 11:21 16.12.2019
2529 Clear 6 1026 93 7000 1 0 10:58 16.12.2019
2530 Mist 5 1027 93 4000 1.5 50 10:40 16.12.2019
2531 Mist 4 1027 93 4000 1.5 50 10:20 16.12.2019
2532 Fog 0 1027 53 600 1 0 09:46 16.12.2019
2533 Fog 0 1027 53 600 1 0 09:28 16.12.2019
2534 Fog -2 1026 100 350 1 300 08:58 16.12.2019
2535 Fog -3 1026 100 350 1 0 08:38 16.12.2019
2536 Fog -2 1026 100 350 1 0 08:18 16.12.2019
2537 Fog -3 1026 100 250 1 0 07:47 16.12.2019
2538 Fog -3 1026 100 250 1 0 07:28 16.12.2019
2539 Fog -3 1025 100 250 1 0 06:45 16.12.2019
2540 Fog -3 1025 100 250 1 0 06:26 16.12.2019
2541 Fog -3 1025 92 150 1.5 60 05:52 16.12.2019
2542 Fog -3 1025 92 200 1.84 242 05:33 16.12.2019
2543 Fog -3 1024 92 150 1 0 04:22 16.12.2019
2544 Fog -1 1024 92 3000 0.5 0 02:36 16.12.2019
2545 Mist -1 1024 100 1300 1.45 242 01:45 16.12.2019
2546 Mist 0 1023 100 2800 1 0 00:43 16.12.2019
2547 Mist 0 1023 100 2800 1 0 00:25 16.12.2019
2548 Mist 0 1023 100 4000 0.5 0 23:59 15.12.2019
2549 Mist 0 1023 100 4000 0.5 0 23:59 15.12.2019
2550 Mist 0 1023 63 3000 1 0 23:39 15.12.2019
2551 Mist 0 1023 70 3000 1 0 23:20 15.12.2019
2552 Mist 0 1023 70 4000 1.5 270 22:56 15.12.2019
2553 Mist 0 1023 70 4000 1.5 270 22:56 15.12.2019
2554 Mist 0 1023 70 4000 0.5 0 22:37 15.12.2019
2555 Mist 0 1023 70 5000 1.5 220 22:18 15.12.2019
2556 Mist 0 1023 70 5000 1.5 220 21:56 15.12.2019
2557 Mist 0 1023 70 5000 1.5 220 21:56 15.12.2019
2558 Mist 1 1023 70 5000 1.5 110 21:37 15.12.2019
2559 Mist 1 1023 70 5000 1.5 110 21:37 15.12.2019
2560 Mist 1 1023 70 5000 1.5 110 21:19 15.12.2019
2561 Clear 2 1022 93 6000 2.1 160 20:56 15.12.2019
2562 Clear 1 1023 86 6000 1 0 20:37 15.12.2019
2563 Clear 1 1023 86 6000 1 0 20:18 15.12.2019
2564 Clear 2 1022 75 6000 2.1 210 19:56 15.12.2019
2565 Clouds 3 1022 86 6000 1.5 190 19:38 15.12.2019
2566 Clouds 3 1022 86 6000 1.5 190 19:18 15.12.2019
2567 Clear 4 1022 80 7000 0.5 0 18:55 15.12.2019
2568 Clear 3 1022 86 7000 1 0 18:37 15.12.2019
2569 Clouds 4 1021 80 8000 2.6 150 18:18 15.12.2019
2570 Clear 4 1021 80 8000 2.6 150 17:56 15.12.2019
2571 Clear 5 1021 75 10000 3.1 200 17:36 15.12.2019
2572 Clouds 5 1020 75 10000 1.5 170 17:18 15.12.2019
2573 Clear 5 1020 75 10000 1.5 170 17:18 15.12.2019
2574 Clear 5 1020 75 10000 1.5 170 17:18 15.12.2019
2575 Clear 7 1020 61 10000 1.31 251 16:43 15.12.2019
2576 Clouds 8 1020 61 10000 1.3 243 16:23 15.12.2019
2577 Clear 9 1020 53 10000 0.5 0 15:58 15.12.2019
2578 Clear 9 1020 50 10000 1 0 15:39 15.12.2019
2579 Clear 11 1020 50 10000 1 0 15:20 15.12.2019
2580 Clear 12 1020 50 10000 0.5 0 14:57 15.12.2019
2581 Clouds 11 1019 53 10000 1.3 243 14:38 15.12.2019
2582 Clouds 11 1019 53 10000 0.37 192 14:19 15.12.2019
2583 Clouds 11 1019 53 10000 1 0 13:59 15.12.2019
2584 Clouds 10 1019 61 10000 0.5 0 13:39 15.12.2019
2585 Clouds 10 1019 61 10000 0.5 0 13:20 15.12.2019
2586 Clouds 12 1020 61 10000 1 0 12:57 15.12.2019
2587 Clouds 12 1020 61 10000 1 0 12:57 15.12.2019
2588 Clouds 12 1020 66 10000 1 0 12:39 15.12.2019
2589 Clouds 12 1020 66 10000 1 0 12:21 15.12.2019
2590 Clouds 11 1020 70 10000 0.5 0 11:59 15.12.2019
2591 Clouds 11 1020 75 10000 1 0 11:38 15.12.2019
2592 Clouds 11 1020 75 10000 1 0 11:38 15.12.2019
2593 Clouds 10 1020 75 10000 1 0 11:19 15.12.2019
2594 Clouds 9 1020 75 10000 1 0 10:56 15.12.2019
2595 Clouds 9 1020 81 10000 2.1 110 10:37 15.12.2019
2596 Clouds 8 1020 81 10000 2.1 110 10:19 15.12.2019
2597 Clouds 7 1020 93 8000 2.6 130 09:57 15.12.2019
2598 Mist 6 1019 93 5000 3.1 100 09:37 15.12.2019
2599 Mist 5 1019 93 5000 3.1 100 09:19 15.12.2019
2600 Clouds 3 1019 64 8000 1.5 130 08:42 15.12.2019
2601 Clouds 3 1019 90 8000 1.5 130 08:22 15.12.2019
2602 Clouds 2 1019 90 8000 1 0 07:57 15.12.2019
2603 Clouds 2 1018 90 8000 0.92 317 07:37 15.12.2019
2604 Clouds 2 1018 93 8000 1 0 06:57 15.12.2019
2605 Clouds 2 1017 90 7000 1 0 06:23 15.12.2019
2606 Clouds 3 1016 93 10000 2.6 310 05:39 15.12.2019
2607 Clouds 3 1016 93 10000 3.1 310 05:19 15.12.2019
2608 Clouds 4 1015 93 10000 3.1 310 03:56 15.12.2019
2609 Clouds 6 1013 81 10000 5.1 270 02:35 15.12.2019
2610 Clouds 7 1013 81 10000 5.1 290 01:55 15.12.2019
2611 Clouds 7 1012 75 10000 2.6 290 01:37 15.12.2019
2612 Clouds 7 1012 75 10000 2.6 290 01:18 15.12.2019
2613 Clouds 7 1012 87 8000 0.5 0 00:42 15.12.2019
2614 Clouds 7 1012 87 8000 0.5 0 00:23 15.12.2019
2615 Clouds 6 1011 93 8000 2.1 320 23:40 14.12.2019
2616 Clouds 6 1011 93 8000 2.1 320 23:21 14.12.2019
2617 Clouds 6 1011 93 8000 2.6 280 22:58 14.12.2019
2618 Mist 6 1010 93 4500 2.1 310 22:40 14.12.2019
2619 Mist 6 1010 93 4500 2.1 310 22:21 14.12.2019
2620 Mist 6 1009 93 4300 1.5 80 21:56 14.12.2019
2621 Mist 6 1009 93 4500 1.5 260 21:38 14.12.2019
2622 Mist 6 1009 93 4500 1.5 260 21:19 14.12.2019
2623 Mist 6 1008 93 4900 1.5 270 20:57 14.12.2019
2624 Mist 7 1008 87 5000 1.5 290 20:38 14.12.2019
2625 Mist 7 1008 87 5000 1.5 290 20:19 14.12.2019
2626 Clouds 7 1007 93 6000 2.6 270 19:55 14.12.2019
2627 Clouds 7 1006 93 6000 1.5 350 19:36 14.12.2019
2628 Clouds 7 1006 93 6000 1.5 350 19:18 14.12.2019
2629 Clouds 7 1006 93 8000 2.1 70 18:55 14.12.2019
2630 Clouds 7 1005 93 9000 3.6 140 18:36 14.12.2019
2631 Clouds 7 1005 93 9000 3.6 140 18:18 14.12.2019
2632 Clouds 7 1005 93 9000 3.6 140 18:18 14.12.2019
2633 Clouds 8 1004 87 10000 1.5 20 17:42 14.12.2019
2634 Clouds 8 1004 87 10000 1.5 20 17:22 14.12.2019
2635 Clouds 8 1003 87 10000 2.1 40 16:55 14.12.2019
2636 Clouds 8 1003 87 10000 2.1 70 16:37 14.12.2019
2637 Clouds 8 1003 87 10000 2.1 70 16:18 14.12.2019
2638 Clouds 8 1002 81 10000 2.6 60 15:41 14.12.2019
2639 Clouds 8 1002 81 10000 2.6 60 15:20 14.12.2019
2640 Clouds 8 1002 87 10000 2.6 80 14:57 14.12.2019
2641 Clouds 8 1001 76 10000 2.6 140 14:38 14.12.2019
2642 Clouds 8 1000 76 10000 4.6 160 14:19 14.12.2019
2643 Clouds 8 1000 76 10000 4.1 170 13:45 14.12.2019
2644 Clouds 8 1000 76 10000 4.1 170 13:20 14.12.2019
2645 Clouds 7 999 75 10000 3.6 160 12:58 14.12.2019
2646 Clouds 7 999 81 10000 3.1 140 12:40 14.12.2019
2647 Clouds 7 999 81 10000 3.1 140 12:21 14.12.2019
2648 Clouds 7 999 81 10000 4.1 150 11:58 14.12.2019
2649 Clouds 7 999 81 10000 6.2 140 11:39 14.12.2019
2650 Clouds 7 999 81 10000 6.2 140 11:19 14.12.2019
2651 Clouds 6 999 81 10000 6.2 140 10:57 14.12.2019
2652 Clouds 6 998 81 10000 5.7 130 10:39 14.12.2019
2653 Clouds 6 998 81 10000 5.7 130 10:20 14.12.2019
2654 Clouds 6 998 81 10000 5.1 120 09:55 14.12.2019
2655 Clouds 6 998 87 10000 3.1 120 09:37 14.12.2019
2656 Clouds 5 998 87 10000 3.1 120 09:18 14.12.2019
2657 Clouds 5 997 81 10000 4.6 120 08:42 14.12.2019
2658 Clouds 5 997 86 10000 6.2 100 08:19 14.12.2019
2659 Clouds 5 996 86 10000 5.7 90 07:43 14.12.2019
2660 Clouds 5 996 86 10000 6.2 110 07:23 14.12.2019
2661 Clouds 5 996 86 10000 6.2 110 06:55 14.12.2019
2662 Clouds 5 996 81 10000 6.2 110 06:36 14.12.2019
2663 Clouds 5 995 86 10000 5.7 100 05:56 14.12.2019
2664 Clouds 5 995 86 10000 5.7 100 05:56 14.12.2019
2665 Clouds 5 995 86 10000 5.1 110 04:35 14.12.2019
2666 Clouds 4 996 93 10000 3.6 150 02:25 14.12.2019
2667 Clouds 4 996 93 10000 2.1 160 01:46 14.12.2019
2668 Clouds 3 996 100 10000 3.6 130 01:28 14.12.2019
2669 Clouds 4 997 93 9000 3.1 120 00:44 14.12.2019
2670 Clouds 4 997 93 9000 3.1 120 00:24 14.12.2019
2671 Clouds 3 997 93 9000 2.6 70 23:43 13.12.2019
2672 Clouds 3 997 93 9000 2.6 70 23:22 13.12.2019
2673 Clouds 3 997 93 9000 1.5 120 22:59 13.12.2019
2674 Clouds 4 997 86 10000 2.6 90 22:40 13.12.2019
2675 Clouds 4 997 86 10000 2.6 90 22:19 13.12.2019
2676 Clouds 4 997 86 10000 3.1 110 21:55 13.12.2019
2677 Clouds 4 998 93 10000 5.1 100 21:36 13.12.2019
2678 Clouds 4 998 93 10000 5.1 100 21:18 13.12.2019
2679 Clouds 5 998 86 10000 5.1 90 20:40 13.12.2019
2680 Clouds 5 998 86 10000 5.1 90 20:21 13.12.2019
2681 Clouds 5 998 86 10000 4.1 70 19:57 13.12.2019
2682 Clouds 5 999 86 10000 4.1 70 19:39 13.12.2019
2683 Clouds 5 999 86 10000 4.1 70 19:20 13.12.2019
2684 Clouds 6 998 87 10000 6.2 100 18:56 13.12.2019
2685 Clouds 6 998 87 10000 6.2 100 18:38 13.12.2019
2686 Clouds 6 998 87 10000 5.1 80 18:18 13.12.2019
2687 Clouds 6 998 87 10000 5.1 80 18:18 13.12.2019
2688 Clouds 6 998 81 10000 5.7 100 17:41 13.12.2019
2689 Clouds 6 998 81 10000 5.1 110 17:19 13.12.2019
2690 Clouds 7 999 70 10000 4.6 100 16:58 13.12.2019
2691 Clouds 7 999 70 10000 4.6 100 16:39 13.12.2019
2692 Clouds 7 999 70 10000 4.6 100 16:39 13.12.2019
2693 Clouds 7 999 81 10000 2.6 70 16:20 13.12.2019
2694 Clouds 8 999 70 10000 2.1 50 15:43 13.12.2019
2695 Clouds 8 999 70 10000 3.6 90 15:22 13.12.2019
2696 Clouds 8 999 76 10000 4.1 100 14:58 13.12.2019
2697 Clouds 8 999 76 10000 4.1 100 14:39 13.12.2019
2698 Clouds 8 999 76 10000 6.2 100 14:20 13.12.2019
2699 Clouds 8 999 70 10000 5.7 100 13:45 13.12.2019
2700 Clouds 8 999 70 10000 5.7 100 13:27 13.12.2019
2701 Clouds 8 1000 70 10000 3.1 90 12:59 13.12.2019
2702 Clouds 8 1000 70 10000 3.1 90 12:41 13.12.2019
2703 Clouds 8 1000 70 10000 3.1 100 12:19 13.12.2019
2704 Clouds 8 1000 71 10000 1 0 11:45 13.12.2019
2705 Clouds 8 1001 70 10000 1.5 90 11:27 13.12.2019
2706 Clouds 9 1001 71 10000 2.1 0 10:58 13.12.2019
2707 Clouds 9 1001 71 10000 2.1 0 10:40 13.12.2019
2708 Clouds 8 1002 81 10000 2.1 100 10:21 13.12.2019
2709 Clouds 7 1002 81 10000 2.1 80 09:43 13.12.2019
2710 Clouds 7 1002 87 8000 3.1 90 09:22 13.12.2019
2711 Clouds 6 1002 93 7000 1.5 80 08:55 13.12.2019
2712 Clouds 6 1002 93 7000 1.5 80 08:37 13.12.2019
2713 Mist 5 1002 93 4700 0.5 0 08:19 13.12.2019
2714 Mist 5 1002 100 4000 2.1 40 07:43 13.12.2019
2715 Mist 5 1002 100 4500 1.5 80 07:19 13.12.2019
2716 Mist 5 1002 100 7000 0.5 0 06:46 13.12.2019
2717 Clouds 5 1002 100 8000 0.5 0 06:27 13.12.2019
2718 Clouds 5 1002 93 7000 1 0 05:41 13.12.2019
2719 Clouds 4 1002 100 7000 1.01 143 05:20 13.12.2019
2720 Clouds 5 1002 93 8000 2.6 60 04:29 13.12.2019
2721 Mist 3 1003 100 5000 1.5 150 02:57 13.12.2019
2722 Mist 5 1003 100 5000 1 0 02:30 13.12.2019
2723 Clouds 5 1003 100 6000 1 0 01:38 13.12.2019
2724 Clouds 6 1004 100 8000 3.1 80 00:51 13.12.2019
2725 Clouds 6 1004 93 8000 2.1 90 00:28 13.12.2019
2726 Clouds 6 1004 93 7000 2.1 110 23:44 12.12.2019
2727 Clouds 6 1005 100 7000 1.5 150 23:26 12.12.2019
2728 Clouds 6 1005 100 7000 1.5 140 22:57 12.12.2019
2729 Clouds 6 1005 100 7000 1.5 140 22:39 12.12.2019
2730 Clouds 6 1005 100 7000 1.5 140 22:39 12.12.2019
2731 Clouds 6 1005 100 6000 3.1 120 22:21 12.12.2019
2732 Clouds 6 1005 100 6000 3.1 120 22:21 12.12.2019
2733 Rain 6 1005 100 8000 3.6 110 21:56 12.12.2019
2734 Rain 6 1005 100 8000 3.6 110 21:37 12.12.2019
2735 Rain 6 1005 100 10000 5.1 120 21:19 12.12.2019
2736 Rain 6 1005 100 8000 4.6 120 20:59 12.12.2019
2737 Rain 6 1005 100 8000 4.6 120 20:40 12.12.2019
2738 Rain 6 1005 100 7000 5.1 100 20:21 12.12.2019
2739 Rain 7 1005 93 7000 5.1 110 19:56 12.12.2019
2740 Rain 7 1005 93 7000 5.1 110 19:37 12.12.2019
2741 Clouds 6 1006 100 10000 4.1 110 19:18 12.12.2019
2742 Clouds 7 1006 93 10000 2.6 130 18:56 12.12.2019
2743 Clouds 6 1006 93 8000 3.6 110 18:37 12.12.2019
2744 Clouds 7 1006 93 10000 2.6 130 18:37 12.12.2019
2745 Clouds 6 1006 93 8000 3.6 110 18:19 12.12.2019
2746 Clouds 6 1006 100 6000 4.1 100 17:56 12.12.2019
2747 Clouds 6 1006 100 6000 4.1 100 17:38 12.12.2019
2748 Clouds 6 1006 100 6000 4.1 100 17:38 12.12.2019
2749 Rain 6 1006 93 7000 3.6 110 17:19 12.12.2019
2750 Rain 6 1006 100 8000 2.1 120 16:54 12.12.2019
2751 Rain 6 1006 100 8000 2.1 90 16:36 12.12.2019
2752 Rain 6 1006 100 8000 2.1 90 16:18 12.12.2019
2753 Rain 7 1006 87 8000 2.6 140 15:42 12.12.2019
2754 Clouds 7 1006 87 8000 2.6 130 15:20 12.12.2019
2755 Clouds 7 1006 87 8000 2.6 130 15:20 12.12.2019
2756 Clouds 7 1006 87 10000 2.6 140 14:57 12.12.2019
2757 Clouds 7 1006 87 10000 2.6 140 14:57 12.12.2019
2758 Clouds 7 1006 87 10000 2.6 140 14:37 12.12.2019
2759 Rain 7 1006 87 8000 2.6 150 14:19 12.12.2019
2760 Rain 7 1006 87 7000 2.1 130 13:55 12.12.2019
2761 Rain 7 1006 87 8000 2.6 130 13:36 12.12.2019
2762 Rain 7 1006 87 8000 2.6 130 13:18 12.12.2019
2763 Clouds 7 1007 87 10000 2.6 100 12:42 12.12.2019
2764 Clouds 7 1007 87 10000 1.5 80 12:23 12.12.2019
2765 Clouds 6 1007 93 8000 1 90 11:59 12.12.2019
2766 Clouds 6 1007 93 8000 1 90 11:40 12.12.2019
2767 Clouds 6 1008 93 8000 1.5 90 11:22 12.12.2019
2768 Clouds 6 1008 93 8000 3.1 110 10:59 12.12.2019
2769 Clouds 6 1008 93 8000 3.1 110 10:40 12.12.2019
2770 Clouds 6 1008 93 8000 2.6 120 10:22 12.12.2019
2771 Clouds 6 1008 93 6000 3.1 110 09:56 12.12.2019
2772 Mist 6 1008 93 5000 2.1 120 09:38 12.12.2019
2773 Mist 6 1008 93 5000 2.1 120 09:20 12.12.2019
2774 Mist 6 1008 93 5000 2.6 120 08:47 12.12.2019
2775 Drizzle 5 1008 100 3500 2.1 130 08:28 12.12.2019
2776 Drizzle 5 1008 93 3700 2.1 130 07:55 12.12.2019
2777 Drizzle 5 1008 93 3700 2.1 130 07:36 12.12.2019
2778 Drizzle 5 1008 93 4000 3.1 110 07:18 12.12.2019
2779 Clouds 5 1008 93 6000 3.6 110 06:41 12.12.2019
2780 Clouds 5 1008 93 8000 3.1 120 06:21 12.12.2019
2781 Clouds 5 1008 93 8000 3.1 120 05:27 12.12.2019
2782 Clouds 5 1008 100 10000 3.6 130 04:46 12.12.2019
2783 Clouds 5 1009 93 7000 3.6 130 02:42 12.12.2019
2784 Clouds 5 1010 93 8000 2.6 140 02:24 12.12.2019
2785 Clouds 5 1010 93 7000 2.6 140 01:58 12.12.2019
2786 Mist 5 1010 93 5000 3.1 140 01:35 12.12.2019
2787 Mist 5 1010 93 5000 3.1 120 00:49 12.12.2019
2788 Mist 5 1011 93 5000 3.1 120 00:22 12.12.2019
2789 Clouds 5 1011 93 6000 1 0 23:58 11.12.2019
2790 Clouds 5 1011 93 7000 2.1 120 23:36 11.12.2019
2791 Clouds 5 1011 93 7000 2.1 120 23:18 11.12.2019
2792 Mist 2 1011 100 5000 3.1 140 22:55 11.12.2019
2793 Mist 5 1012 100 5000 2.6 130 22:36 11.12.2019
2794 Mist 3 1012 100 5000 2.6 130 22:18 11.12.2019
2795 Rain 3 1012 100 6000 1.5 100 21:39 11.12.2019
2796 Rain 3 1012 100 6000 1.5 100 21:39 11.12.2019
2797 Rain 3 1012 100 7000 2.1 80 21:20 11.12.2019
2798 Rain 3 1012 100 7000 2.1 80 21:20 11.12.2019
2799 Rain 4 1012 93 7000 2.6 120 20:58 11.12.2019
2800 Rain 5 1012 93 7000 2.6 120 20:40 11.12.2019
2801 Rain 5 1012 93 6000 2.1 150 20:20 11.12.2019
2802 Rain 5 1012 93 6000 2.1 140 19:59 11.12.2019
2803 Rain 5 1012 93 6000 2.1 140 19:40 11.12.2019
2804 Rain 5 1012 86 8000 2.1 120 19:21 11.12.2019
2805 Rain 4 1013 93 7000 2.1 100 18:58 11.12.2019
2806 Rain 4 1013 93 7000 2.1 100 18:39 11.12.2019
2807 Rain 4 1013 86 6000 2.6 100 18:18 11.12.2019
2808 Rain 4 1013 86 10000 1.5 60 17:55 11.12.2019
2809 Rain 4 1013 86 10000 0.5 0 17:37 11.12.2019
2810 Rain 4 1013 86 10000 0.5 0 17:18 11.12.2019
2811 Rain 5 1013 80 10000 1 0 16:55 11.12.2019
2812 Clouds 5 1013 80 10000 1.5 50 16:36 11.12.2019
2813 Clouds 5 1013 80 10000 1.5 50 16:18 11.12.2019
2814 Drizzle 5 1013 80 10000 1.5 70 15:54 11.12.2019
2815 Clouds 5 1013 75 10000 2.1 60 15:36 11.12.2019
2816 Clouds 5 1013 75 10000 2.1 60 15:18 11.12.2019
2817 Clouds 5 1013 75 10000 1 0 14:54 11.12.2019
2818 Clouds 5 1013 75 10000 1 0 14:36 11.12.2019
2819 Clouds 5 1013 75 10000 1 0 14:36 11.12.2019
2820 Clouds 6 1013 75 10000 1 0 14:18 11.12.2019
2821 Clouds 6 1013 75 10000 1 0 13:41 11.12.2019
2822 Clouds 6 1013 81 10000 1.5 80 13:21 11.12.2019
2823 Clouds 6 1014 75 10000 2.1 100 12:57 11.12.2019
2824 Clouds 5 1014 75 10000 2.1 100 12:38 11.12.2019
2825 Clouds 5 1014 75 10000 2.1 100 12:38 11.12.2019
2826 Clouds 5 1014 80 10000 1.5 70 12:20 11.12.2019
2827 Clouds 4 1014 80 10000 2.1 110 11:57 11.12.2019
2828 Clouds 4 1014 80 10000 2.1 110 11:38 11.12.2019
2829 Clouds 4 1015 80 10000 3.66 68 11:18 11.12.2019
2830 Clouds 4 1015 80 10000 3.66 68 11:18 11.12.2019
2831 Clouds 4 1015 80 10000 1 210 10:56 11.12.2019
2832 Clouds 3 1015 80 10000 1 210 10:38 11.12.2019
2833 Clouds 3 1015 86 10000 1.5 130 10:19 11.12.2019
2834 Clouds 2 1016 86 10000 2.1 100 09:41 11.12.2019
2835 Clouds 2 1016 93 10000 2.6 100 09:21 11.12.2019
2836 Clouds 1 1016 100 6000 2.1 80 08:58 11.12.2019
2837 Clouds 1 1016 100 6000 2.1 80 08:38 11.12.2019
2838 Mist 1 1015 100 4500 1.5 90 08:19 11.12.2019
2839 Mist 0 1015 94 5000 3.21 48 07:55 11.12.2019
2840 Mist 0 1015 94 3700 3.21 48 07:37 11.12.2019
2841 Mist 0 1015 94 3700 3.21 48 07:18 11.12.2019
2842 Mist 0 1015 94 3700 3.21 48 07:18 11.12.2019
2843 Mist 0 1015 94 5000 1 150 06:43 11.12.2019
2844 Mist 0 1015 94 4000 1 120 06:22 11.12.2019
2845 Mist 0 1015 94 4500 1.5 90 05:41 11.12.2019
2846 Mist 0 1015 96 4000 1 0 05:19 11.12.2019
2847 Mist 0 1015 96 3000 1.5 90 04:27 11.12.2019
2848 Mist 0 1015 96 2700 1.5 70 02:49 11.12.2019
2849 Mist 0 1016 97 3000 0.5 0 01:25 11.12.2019
2850 Mist 0 1016 97 2500 1.76 67 00:47 11.12.2019
2851 Mist 0 1016 97 2000 1.76 67 00:21 11.12.2019
2852 Mist 0 1016 97 1800 1.5 310 23:49 10.12.2019
2853 Fog 0 1016 100 750 1.76 67 23:30 10.12.2019
2854 Fog 0 1016 100 550 1 0 22:58 10.12.2019
2855 Fog 0 1016 100 550 1 0 22:40 10.12.2019
2856 Fog 0 1016 100 550 1 0 22:40 10.12.2019
2857 Fog 0 1015 100 500 0.5 0 22:22 10.12.2019
2858 Fog 0 1015 100 500 1 0 21:56 10.12.2019
2859 Fog 0 1015 100 500 1 0 21:38 10.12.2019
2860 Fog 0 1015 100 500 1 0 21:38 10.12.2019
2861 Fog 0 1015 100 550 0.5 0 21:19 10.12.2019
2862 Fog 0 1015 100 500 0.5 0 20:57 10.12.2019
2863 Fog 0 1015 100 500 0.5 0 20:37 10.12.2019
2864 Fog 0 1014 100 450 1 0 20:19 10.12.2019
2865 Fog 0 1014 100 550 1.5 130 19:55 10.12.2019
2866 Fog 1 1014 100 550 1.5 130 19:37 10.12.2019
2867 Fog 1 1014 100 450 1.5 110 19:18 10.12.2019
2868 Fog 1 1014 100 400 2.1 90 18:40 10.12.2019
2869 Fog 1 1013 91 350 1.5 130 18:20 10.12.2019
2870 Fog 2 1013 91 350 1.5 120 17:58 10.12.2019
2871 Fog 2 1013 91 350 1.5 120 17:39 10.12.2019
2872 Fog 2 1013 85 350 1.5 100 17:20 10.12.2019
2873 Fog 3 1013 85 350 1.5 0 16:43 10.12.2019
2874 Fog 2 1012 85 350 1.5 140 16:21 10.12.2019
2875 Fog 2 1012 85 350 1.5 140 16:21 10.12.2019
2876 Fog 3 1012 85 350 2.1 130 15:59 10.12.2019
2877 Fog 3 1012 85 350 2.1 130 15:37 10.12.2019
2878 Fog 4 1012 85 650 1.5 130 15:18 10.12.2019
2879 Mist 4 1012 85 1500 1.5 130 14:55 10.12.2019
2880 Mist 0 1012 85 1700 1 0 14:37 10.12.2019
2881 Mist 5 1012 61 1700 1 0 14:19 10.12.2019
2882 Mist 5 1012 61 1100 1.33 60 13:56 10.12.2019
2883 Mist 5 1012 61 1100 1.33 60 13:56 10.12.2019
2884 Mist 5 1012 61 1400 1.33 60 13:38 10.12.2019
2885 Mist 5 1012 62 1400 1.54 74 13:18 10.12.2019
2886 Mist 5 1012 62 1300 1.5 290 12:41 10.12.2019
2887 Mist 4 1012 62 1500 1.5 350 12:22 10.12.2019
2888 Fog 2 1012 100 650 1 0 11:44 10.12.2019
2889 Fog -1 1012 100 500 1.5 280 11:25 10.12.2019
2890 Fog 1 1013 92 350 0.5 0 10:57 10.12.2019
2891 Fog 0 1013 92 350 0.5 0 10:38 10.12.2019
2892 Fog 0 1013 92 350 0.5 0 10:38 10.12.2019
2893 Fog 0 1013 92 300 1 0 10:20 10.12.2019
2894 Fog -1 1013 100 250 0.71 112 09:56 10.12.2019
2895 Fog -1 1013 100 250 0.71 112 09:56 10.12.2019
2896 Fog -1 1013 100 250 0.71 112 09:56 10.12.2019
2897 Fog 2 1013 100 250 0.71 112 09:38 10.12.2019
2898 Fog 2 1012 92 300 1 0 09:38 10.12.2019
2899 Fog 2 1013 100 250 0.71 112 09:38 10.12.2019
2900 Fog 2 1012 92 300 1 0 09:19 10.12.2019
2901 Fog 1 1012 92 300 1 0 08:55 10.12.2019
2902 Fog 1 1012 100 350 1.5 330 08:37 10.12.2019
2903 Fog -1 1012 100 350 1.5 330 08:18 10.12.2019
2904 Fog -1 1012 100 400 0.59 206 07:44 10.12.2019
2905 Fog -1 1012 100 400 0.59 206 07:44 10.12.2019
2906 Fog -1 1012 100 400 0.59 206 07:44 10.12.2019
2907 Fog -1 1012 100 500 0.5 0 07:25 10.12.2019
2908 Fog -2 1012 100 600 1 0 06:47 10.12.2019
2909 Fog -2 1012 92 550 1.5 0 06:21 10.12.2019
2910 Fog -2 1011 100 500 1 0 05:55 10.12.2019
2911 Fog -2 1012 100 450 1.06 229 04:55 10.12.2019
2912 Fog -2 1012 100 400 1.06 229 03:38 10.12.2019
2913 Fog -1 1012 92 350 1 0 02:46 10.12.2019
2914 Fog -1 1012 100 400 1 0 01:45 10.12.2019
2915 Fog -1 1012 100 450 1.18 216 01:21 10.12.2019
2916 Fog -1 1012 100 400 1.17 226 00:42 10.12.2019
2917 Fog -1 1012 100 350 1.17 226 00:21 10.12.2019
2918 Fog -1 1012 100 400 1.17 226 23:42 09.12.2019
2919 Fog -1 1012 100 350 1.17 226 23:23 09.12.2019
2920 Fog -1 1012 100 350 0.5 0 22:58 09.12.2019
2921 Fog -1 1012 100 350 0.5 0 22:40 09.12.2019
2922 Fog -1 1013 100 350 0.5 0 22:20 09.12.2019
2923 Fog -1 1012 100 400 1 0 21:57 09.12.2019
2924 Fog -1 1012 100 400 1 0 21:38 09.12.2019
2925 Fog 0 1012 92 450 1 0 21:19 09.12.2019
2926 Fog 0 1012 92 400 1 0 20:56 09.12.2019
2927 Fog 0 1012 92 400 1 0 20:38 09.12.2019
2928 Fog 0 1012 100 400 1 0 20:20 09.12.2019
2929 Fog 0 1012 100 400 1 0 19:55 09.12.2019
2930 Fog 0 1012 100 350 1.5 110 19:37 09.12.2019
2931 Fog 0 1012 100 350 1.5 110 19:19 09.12.2019
2932 Fog 0 1012 100 350 0.5 0 18:56 09.12.2019
2933 Fog 0 1012 100 350 0.5 0 18:37 09.12.2019
2934 Fog 0 1012 100 300 0.5 0 18:19 09.12.2019
2935 Fog 0 1012 100 300 1 0 17:57 09.12.2019
2936 Fog 1 1012 100 300 1 0 17:38 09.12.2019
2937 Fog 1 1012 100 300 0.56 218 17:20 09.12.2019
2938 Fog 1 1012 75 300 1 0 16:56 09.12.2019
2939 Fog 2 1012 75 300 1 0 16:37 09.12.2019
2940 Fog 2 1012 75 300 1 0 16:18 09.12.2019
2941 Fog 0 1012 75 250 1 0 15:55 09.12.2019
2942 Fog 0 1012 75 250 1 0 15:37 09.12.2019
2943 Fog 0 1013 75 250 1 0 15:18 09.12.2019
2944 Fog 0 1013 75 300 1 0 14:42 09.12.2019
2945 Fog 0 1013 51 350 1 0 14:19 09.12.2019
2946 Fog 0 1013 51 300 1.5 80 13:58 09.12.2019
2947 Fog 0 1013 51 300 1.5 80 13:58 09.12.2019
2948 Fog 0 1013 51 300 1.5 80 13:38 09.12.2019
2949 Fog -1 1014 100 250 1 0 13:19 09.12.2019
2950 Fog 5 1014 100 250 1.5 130 12:56 09.12.2019
2951 Fog 6 1014 100 250 1.5 130 12:38 09.12.2019
2952 Fog 5 1015 100 250 1 0 12:19 09.12.2019
2953 Fog 4 1015 100 250 0.5 0 11:56 09.12.2019
2954 Fog 3 1016 100 250 1 0 11:37 09.12.2019
2955 Fog 3 1016 100 250 1 0 11:18 09.12.2019
2956 Fog 3 1016 92 250 1 0 10:40 09.12.2019
2957 Fog 2 1016 100 250 1 0 10:20 09.12.2019
2958 Fog 1 1017 100 200 0.67 241 09:58 09.12.2019
2959 Fog 1 1017 100 200 0.67 241 09:40 09.12.2019
2960 Fog 2 1017 92 200 0.67 241 09:21 09.12.2019
2961 Fog 1 1017 92 300 0.67 241 08:44 09.12.2019
2962 Fog -1 1017 100 250 1.5 250 08:25 09.12.2019
2963 Fog -2 1017 100 200 1 0 07:56 09.12.2019
2964 Fog -2 1017 100 200 1 0 07:38 09.12.2019
2965 Fog -2 1017 100 250 1.5 310 07:20 09.12.2019
2966 Fog -2 1017 100 350 0.5 0 06:43 09.12.2019
2967 Fog -2 1016 100 300 1 0 06:24 09.12.2019
2968 Fog -2 1017 92 300 1.21 223 05:26 09.12.2019
2969 Fog -2 1017 100 300 0.5 0 04:31 09.12.2019
2970 Fog -2 1017 100 150 1 0 03:19 09.12.2019
2971 Fog -2 1017 100 150 1 0 03:19 09.12.2019
2972 Fog -2 1017 100 100 1 0 02:18 09.12.2019
2973 Fog -1 1018 100 300 1 0 01:40 09.12.2019
2974 Fog -1 1018 100 250 1 260 00:45 09.12.2019
2975 Fog -1 1018 92 250 1.4 244 00:24 09.12.2019
2976 Fog -2 1019 100 200 1.4 244 23:39 08.12.2019
2977 Fog -2 1019 100 200 1.27 240 23:21 08.12.2019
2978 Fog -2 1019 100 250 2.1 30 22:56 08.12.2019
2979 Fog -1 1019 100 250 1 0 22:38 08.12.2019
2980 Fog -1 1019 100 250 1 0 22:18 08.12.2019
2981 Fog -1 1019 100 200 1.27 240 21:57 08.12.2019
2982 Fog -1 1019 100 200 1.27 240 21:38 08.12.2019
2983 Fog 0 1019 79 300 1.5 20 21:19 08.12.2019
2984 Mist 0 1019 79 1500 0.5 0 20:56 08.12.2019
2985 Mist 0 1019 79 1500 0.5 0 20:38 08.12.2019
2986 Mist 0 1019 100 3000 1.5 170 20:19 08.12.2019
2987 Fog 0 1019 100 2500 2.1 160 19:56 08.12.2019
2988 Fog 0 1019 100 2500 2.1 160 19:38 08.12.2019
2989 Fog 0 1019 100 250 1.5 190 19:20 08.12.2019
2990 Fog 1 1020 100 350 2.1 140 18:55 08.12.2019
2991 Fog 1 1020 100 350 2.1 140 18:36 08.12.2019
2992 Fog 1 1020 100 350 2.1 140 18:36 08.12.2019
2993 Fog 1 1019 100 250 1.5 140 18:18 08.12.2019
2994 Fog 1 1019 100 650 2.1 110 17:55 08.12.2019
2995 Mist 2 1019 100 1600 3.1 110 17:37 08.12.2019
2996 Mist 2 1019 100 1600 3.1 110 17:19 08.12.2019
2997 Mist 2 1019 100 3200 2.6 130 16:55 08.12.2019
2998 Mist 2 1019 100 3200 2.6 130 16:37 08.12.2019
2999 Mist 3 1019 93 2700 2.6 110 16:18 08.12.2019
3000 Mist 2 1019 87 2500 2.1 120 15:38 08.12.2019
3001 Mist 4 1019 93 3000 2.6 120 15:19 08.12.2019
3002 Mist 4 1019 93 3000 2.6 120 15:19 08.12.2019
3003 Mist 2 1019 93 3000 3.6 140 14:58 08.12.2019
3004 Mist 2 1019 93 3000 3.6 140 14:39 08.12.2019
3005 Mist 2 1019 93 3000 3.6 140 14:39 08.12.2019
3006 Mist 5 1019 93 2600 4.1 110 14:20 08.12.2019
3007 Mist 3 1019 81 4500 3.1 90 13:42 08.12.2019
3008 Mist 3 1019 81 4500 3.1 90 13:42 08.12.2019
3009 Mist 3 1019 81 4500 1.5 100 13:23 08.12.2019
3010 Mist 6 1019 81 5000 1.5 300 12:59 08.12.2019
3011 Mist 3 1019 81 5000 1.5 300 12:41 08.12.2019
3012 Mist 2 1020 87 2300 2.1 50 12:23 08.12.2019
3013 Mist 3 1020 87 2300 2.6 10 11:59 08.12.2019
3014 Mist 3 1020 87 2300 2.6 10 11:38 08.12.2019
3015 Mist 3 1020 93 1800 1.5 0 11:19 08.12.2019
3016 Fog 2 1021 100 400 1.5 220 10:57 08.12.2019
3017 Fog 5 1021 100 400 1.5 220 10:38 08.12.2019
3018 Fog 5 1021 100 400 1.5 220 10:38 08.12.2019
3019 Fog 1 1021 93 300 1.5 310 10:19 08.12.2019
3020 Fog 4 1021 93 500 1.5 40 09:55 08.12.2019
3021 Fog 4 1021 93 500 1.5 40 09:37 08.12.2019
3022 Mist 4 1021 93 1700 1.5 50 09:18 08.12.2019
3023 Mist 3 1021 93 1500 2.21 284 08:43 08.12.2019
3024 Mist 3 1021 93 1500 2.21 284 08:43 08.12.2019
3025 Mist 0 1021 79 1100 1 0 08:23 08.12.2019
3026 Mist 2 1020 95 1200 1 60 07:57 08.12.2019
3027 Mist 2 1020 95 1200 1 60 07:39 08.12.2019
3028 Mist 1 1020 95 1600 0.5 0 07:18 08.12.2019
3029 Mist 1 1020 95 2700 1 0 06:41 08.12.2019
3030 Mist 1 1020 95 2000 1.5 120 06:21 08.12.2019
3031 Mist 1 1019 95 2000 0.5 180 05:26 08.12.2019
3032 Mist 1 1019 96 2000 1.93 269 04:54 08.12.2019
3033 Mist 2 1019 96 1500 1.93 269 03:40 08.12.2019
3034 Mist 1 1019 96 2000 0.5 0 02:46 08.12.2019
3035 Mist 1 1019 96 1800 1.93 269 02:27 08.12.2019
3036 Mist 1 1019 96 1400 1 0 01:41 08.12.2019
3037 Mist 1 1019 94 2000 1 300 00:56 08.12.2019
3038 Mist 1 1019 94 2000 1 300 00:56 08.12.2019
3039 Mist 1 1019 94 1500 1.5 300 00:36 08.12.2019
3040 Mist 1 1019 94 1500 1.5 300 00:18 08.12.2019
3041 Mist 1 1019 94 2000 1 0 23:39 07.12.2019
3042 Mist 2 1019 95 2000 0.5 0 23:20 07.12.2019
3043 Mist 2 1019 95 2000 0.5 0 23:20 07.12.2019
3044 Mist 2 1019 95 3000 1.64 262 22:56 07.12.2019
3045 Mist 2 1019 95 3000 1.64 262 22:37 07.12.2019
3046 Mist 2 1019 95 3000 1 0 22:19 07.12.2019
3047 Mist 2 1019 95 4000 1.5 150 21:55 07.12.2019
3048 Mist 2 1019 95 4000 1.5 150 21:37 07.12.2019
3049 Mist 2 1019 95 3000 1.5 60 21:19 07.12.2019
3050 Mist 2 1019 95 3000 1.5 60 21:19 07.12.2019
3051 Mist 2 1019 95 2600 1.64 262 20:40 07.12.2019
3052 Mist 2 1019 95 4000 1.27 262 20:20 07.12.2019
3053 Mist 2 1019 95 4500 1 0 19:58 07.12.2019
3054 Mist 2 1019 95 4500 1 0 19:39 07.12.2019
3055 Rain 2 1019 95 3500 1 0 19:21 07.12.2019
3056 Mist 2 1019 95 3500 1.27 262 18:59 07.12.2019
3057 Mist 2 1019 95 3500 1.27 262 18:40 07.12.2019
3058 Mist 2 1018 95 3500 1 0 18:18 07.12.2019
3059 Mist 2 1018 95 3500 1 0 17:56 07.12.2019
3060 Mist 2 1018 95 3500 1 0 17:37 07.12.2019
3061 Rain 2 1018 96 5000 1.53 277 17:19 07.12.2019
3062 Mist 2 1018 96 5000 1.53 277 16:56 07.12.2019
3063 Mist 2 1018 96 5000 1.53 277 16:36 07.12.2019
3064 Mist 2 1018 96 3000 1 0 16:18 07.12.2019
3065 Mist 2 1018 96 3000 1 0 15:41 07.12.2019
3066 Mist 2 1018 96 3000 1.53 277 15:23 07.12.2019
3067 Mist 3 1017 96 5000 0.5 0 14:56 07.12.2019
3068 Mist 3 1017 96 5000 0.5 0 14:38 07.12.2019
3069 Mist 3 1017 89 5000 1 0 14:18 07.12.2019
3070 Mist 3 1017 89 5000 1 0 13:40 07.12.2019
3071 Mist 3 1017 90 5000 1 0 13:20 07.12.2019
3072 Mist 3 1018 90 3000 0.5 0 12:55 07.12.2019
3073 Mist 4 1018 90 3000 0.5 0 12:37 07.12.2019
3074 Mist 4 1018 90 3000 1.07 275 12:19 07.12.2019
3075 Mist 3 1018 100 3000 0.5 0 11:42 07.12.2019
3076 Mist 2 1019 100 3500 0.5 0 11:24 07.12.2019
3077 Mist 2 1019 100 2800 1.18 266 10:59 07.12.2019
3078 Mist 2 1019 100 2800 1.18 266 10:37 07.12.2019
3079 Mist 2 1019 100 5000 1.18 266 10:19 07.12.2019
3080 Mist 1 1019 100 5000 1.18 266 09:40 07.12.2019
3081 Mist 1 1020 100 5000 1.18 266 09:21 07.12.2019
3082 Clouds 0 1020 100 6000 1.18 266 08:47 07.12.2019
3083 Mist 0 1020 100 5000 1.34 275 08:25 07.12.2019
3084 Mist 0 1020 92 5000 1.34 275 07:54 07.12.2019
3085 Mist 0 1020 92 5000 0.5 0 07:30 07.12.2019
3086 Clouds 0 1020 92 8000 1.34 275 06:55 07.12.2019
3087 Mist 0 1020 100 5000 1.34 275 06:28 07.12.2019
3088 Clouds 0 1020 100 5000 1 120 05:50 07.12.2019
3089 Rain 0 1020 92 5000 1.5 110 04:49 07.12.2019
3090 Snow -1 1021 100 2000 1.55 269 03:52 07.12.2019
3091 Fog 0 1021 92 800 1 110 02:47 07.12.2019
3092 Fog -1 1022 92 900 1 120 02:18 07.12.2019
3093 Fog -1 1022 92 900 0.5 0 01:30 07.12.2019
3094 Fog -1 1022 92 900 1 0 00:42 07.12.2019
3095 Fog -1 1023 92 650 1.38 256 00:18 07.12.2019
3096 Fog -1 1023 100 550 1.38 256 23:44 06.12.2019
3097 Fog -1 1024 100 550 1 0 23:23 06.12.2019
3098 Fog 0 1024 92 550 1 40 22:57 06.12.2019
3099 Fog 1 1024 92 500 1 0 22:36 06.12.2019
3100 Fog 1 1024 92 500 1 0 22:36 06.12.2019
3101 Fog -4 1024 92 500 1 0 22:18 06.12.2019
3102 Fog 1 1024 92 450 1 0 21:41 06.12.2019
3103 Fog 0 1024 92 450 1 90 21:21 06.12.2019
3104 Fog 0 1024 92 500 1.33 257 20:59 06.12.2019
3105 Fog 1 1024 92 500 1.33 257 20:41 06.12.2019
3106 Fog -4 1024 92 500 0.5 0 20:20 06.12.2019
3107 Fog 0 1024 92 550 1.33 256 19:43 06.12.2019
3108 Fog 0 1024 92 700 1 80 19:24 06.12.2019
3109 Fog -2 1025 92 550 1 0 18:59 06.12.2019
3110 Fog -4 1025 92 550 1 0 18:40 06.12.2019
3111 Fog 0 1025 92 600 0.5 0 18:21 06.12.2019
3112 Fog -2 1025 92 700 1.33 256 17:58 06.12.2019
3113 Fog -2 1025 92 700 1.33 256 17:40 06.12.2019
3114 Fog -1 1025 92 800 0.5 0 17:22 06.12.2019
3115 Fog -2 1025 92 800 1.29 253 16:58 06.12.2019
3116 Fog 1 1025 100 800 1 0 16:38 06.12.2019
3117 Fog 1 1025 100 800 1 0 16:19 06.12.2019
3118 Fog 1 1025 100 600 1 0 15:41 06.12.2019
3119 Mist 2 1025 100 1400 1 0 15:22 06.12.2019
3120 Mist 1 1025 100 1400 0.5 0 14:58 06.12.2019
3121 Mist 2 1025 100 1400 0.5 0 14:40 06.12.2019
3122 Mist 2 1025 100 1400 0.9 289 14:20 06.12.2019
3123 Mist -4 1025 100 1500 1 0 13:46 06.12.2019
3124 Mist -4 1026 100 1500 1 0 13:26 06.12.2019
3125 Mist 2 1026 100 1100 1 0 12:57 06.12.2019
3126 Mist 2 1026 100 1100 1 0 12:39 06.12.2019
3127 Mist -4 1027 92 1100 0.7 288 12:20 06.12.2019
3128 Mist -4 1027 92 1100 1 0 11:42 06.12.2019
3129 Mist 1 1027 92 1100 1 250 11:23 06.12.2019
3130 Fog 1 1028 100 700 0.97 280 10:55 06.12.2019
3131 Fog 1 1028 100 700 0.97 280 10:37 06.12.2019
3132 Fog 1 1028 100 650 1 0 10:19 06.12.2019
3133 Fog 1 1028 100 500 0.97 280 09:55 06.12.2019
3134 Fog -5 1028 100 500 0.97 280 09:55 06.12.2019
3135 Fog -5 1028 92 400 0.97 280 09:36 06.12.2019
3136 Fog -5 1028 92 400 0.97 280 09:18 06.12.2019
3137 Fog -5 1028 92 350 1 0 08:40 06.12.2019
3138 Fog 0 1028 92 350 0.5 0 08:22 06.12.2019
3139 Fog 0 1028 92 350 1 0 07:38 06.12.2019
3140 Fog 0 1028 92 350 1 40 07:20 06.12.2019
3141 Fog -1 1028 92 350 1 40 07:20 06.12.2019
3142 Fog -1 1028 92 450 1 0 06:48 06.12.2019
3143 Fog -2 1028 92 450 1 40 06:24 06.12.2019
3144 Fog -1 1028 92 400 1 0 05:47 06.12.2019
3145 Fog -1 1028 100 300 0.5 0 02:44 06.12.2019
3146 Fog -1 1029 92 250 0.5 0 01:43 06.12.2019
3147 Fog -2 1029 92 400 1 110 00:50 06.12.2019
3148 Fog -3 1029 92 300 1 0 00:23 06.12.2019
3149 Fog -1 1029 92 300 0.5 0 23:51 05.12.2019
3150 Fog -1 1029 92 300 0.5 0 23:51 05.12.2019
3151 Fog -3 1029 100 250 1 80 23:20 05.12.2019
3152 Fog -1 1029 92 200 0.5 0 22:58 05.12.2019
3153 Fog -1 1029 92 200 0.5 0 22:39 05.12.2019
3154 Fog -1 1029 92 250 0.5 0 22:19 05.12.2019
3155 Fog -1 1029 92 200 1 0 21:56 05.12.2019
3156 Fog -1 1029 92 200 1 0 21:37 05.12.2019
3157 Fog -1 1029 100 200 1.39 233 21:19 05.12.2019
3158 Fog -2 1029 100 150 1.39 233 20:55 05.12.2019
3159 Fog -1 1029 92 150 0.5 0 20:36 05.12.2019
3160 Fog -1 1029 92 150 0.5 0 20:18 05.12.2019
3161 Fog -1 1029 92 150 0.5 0 20:18 05.12.2019
3162 Fog -7 1029 92 450 1.18 204 19:40 05.12.2019
3163 Fog -7 1029 92 450 1.18 204 19:21 05.12.2019
3164 Fog -4 1029 92 300 1 0 18:58 05.12.2019
3165 Fog -4 1029 92 450 2.1 120 18:38 05.12.2019
3166 Fog -4 1029 92 450 2.1 120 18:38 05.12.2019
3167 Fog -3 1029 92 450 2.1 120 18:20 05.12.2019
3168 Fog -3 1029 92 450 2.1 120 17:40 05.12.2019
3169 Fog -5 1029 92 450 2.1 120 17:20 05.12.2019
3170 Fog -5 1029 100 400 1.5 140 16:58 05.12.2019
3171 Mist -3 1029 92 4300 1.5 90 16:39 05.12.2019
3172 Mist -3 1029 92 4300 1.5 90 16:39 05.12.2019
3173 Mist -2 1029 92 4300 1.5 90 16:21 05.12.2019
3174 Mist -1 1029 92 4500 1 10 15:58 05.12.2019
3175 Mist -1 1029 92 4200 1 30 15:38 05.12.2019
3176 Mist 0 1029 92 4200 1 30 15:20 05.12.2019
3177 Mist -2 1029 92 4000 1 0 14:56 05.12.2019
3178 Mist -2 1029 92 4000 1 0 14:56 05.12.2019
3179 Mist -2 1029 92 3000 1 0 14:37 05.12.2019
3180 Mist -2 1029 92 3000 1 0 14:19 05.12.2019
3181 Mist -2 1029 92 3000 1 0 14:19 05.12.2019
3182 Mist -2 1029 92 2600 1 0 13:56 05.12.2019
3183 Mist -2 1029 92 1800 1 0 13:38 05.12.2019
3184 Mist -2 1029 92 1800 1 0 13:19 05.12.2019
3185 Mist -3 1029 100 1800 1 0 12:56 05.12.2019
3186 Mist -4 1030 100 1100 1.5 320 12:38 05.12.2019
3187 Mist -4 1030 100 1100 1.5 320 12:19 05.12.2019
3188 Fog -5 1030 100 300 1 0 11:39 05.12.2019
3189 Fog -5 1030 100 300 1 0 11:20 05.12.2019
3190 Fog -5 1031 92 250 1 0 10:57 05.12.2019
3191 Fog -5 1031 92 250 0.5 0 10:39 05.12.2019
3192 Fog -5 1031 92 250 0.5 0 10:18 05.12.2019
3193 Fog -6 1031 92 250 0.91 152 09:54 05.12.2019
3194 Fog -6 1031 92 200 1 0 09:36 05.12.2019
3195 Fog -6 1031 92 200 1 0 09:18 05.12.2019
3196 Fog -7 1031 100 250 0.91 152 08:39 05.12.2019
3197 Fog -5 1031 92 200 1.05 175 08:20 05.12.2019
3198 Fog -7 1031 92 200 1.05 175 07:56 05.12.2019
3199 Fog -7 1030 92 250 1 0 07:36 05.12.2019
3200 Fog -7 1030 92 250 1 0 07:18 05.12.2019
3201 Fog -7 1030 92 450 1.5 290 06:41 05.12.2019
3202 Fog -8 1030 92 350 1.5 260 06:20 05.12.2019
3203 Fog -8 1030 92 350 1.5 260 05:47 05.12.2019
3204 Fog -7 1030 92 350 1 0 05:23 05.12.2019
3205 Mist -7 1030 92 4500 2.6 360 04:20 05.12.2019
3206 Clouds -5 1030 92 10000 0.5 0 02:44 05.12.2019
3207 Clouds -5 1030 92 10000 0.5 0 02:24 05.12.2019
3208 Clouds -5 1030 92 10000 0.5 0 01:53 05.12.2019
3209 Clouds -6 1030 92 8000 1 130 01:27 05.12.2019
3210 Clouds -5 1030 92 8000 2.1 160 00:52 05.12.2019
3211 Clouds -6 1030 92 8000 1.5 150 00:32 05.12.2019
3212 Clouds -4 1030 92 8000 2.6 100 23:57 04.12.2019
3213 Clouds -4 1030 92 8000 2.6 90 23:39 04.12.2019
3214 Clouds -4 1030 92 8000 2.6 90 23:21 04.12.2019
3215 Clouds -5 1030 92 7000 1.5 110 22:55 04.12.2019
3216 Clouds -3 1030 92 10000 1.5 160 22:36 04.12.2019
3217 Clouds -3 1030 86 10000 2.1 150 22:18 04.12.2019
3218 Clouds -3 1030 86 10000 2.1 150 21:54 04.12.2019
3219 Clouds -3 1030 86 10000 2.6 170 21:36 04.12.2019
3220 Clouds -3 1030 86 10000 2.6 170 21:18 04.12.2019
3221 Clouds -2 1030 86 10000 3.1 160 20:55 04.12.2019
3222 Clouds -2 1029 92 10000 2.6 150 20:37 04.12.2019
3223 Clouds -2 1029 92 10000 2.6 150 20:19 04.12.2019
3224 Clouds -2 1029 97 10000 3.1 150 19:39 04.12.2019
3225 Clouds -1 1029 97 10000 3.1 130 19:21 04.12.2019
3226 Clouds -1 1029 97 10000 3.1 130 18:58 04.12.2019
3227 Clouds 0 1029 97 10000 3.6 100 18:40 04.12.2019
3228 Clouds 0 1028 80 10000 3.6 80 18:21 04.12.2019
3229 Clouds 0 1028 80 10000 3.6 80 17:55 04.12.2019
3230 Clouds 0 1028 80 10000 4.1 90 17:36 04.12.2019
3231 Clouds 0 1028 80 10000 4.1 90 17:18 04.12.2019
3232 Clouds 0 1028 80 10000 4.1 90 16:40 04.12.2019
3233 Clouds 1 1028 80 10000 4.1 90 16:20 04.12.2019
3234 Clouds 1 1028 80 10000 4.1 90 16:20 04.12.2019
3235 Clouds 1 1028 80 10000 4.1 90 15:56 04.12.2019
3236 Clouds 1 1028 80 10000 4.1 90 15:38 04.12.2019
3237 Clouds 1 1028 80 10000 4.1 90 15:19 04.12.2019
3238 Clouds 1 1027 80 10000 3.6 90 14:54 04.12.2019
3239 Clouds 1 1027 80 10000 3.6 90 14:36 04.12.2019
3240 Clouds 1 1027 80 10000 3.6 90 14:18 04.12.2019
3241 Clouds 1 1027 80 10000 4.1 80 13:38 04.12.2019
3242 Clouds 1 1027 80 10000 4.1 80 13:20 04.12.2019
3243 Clouds 0 1027 83 8000 4.1 100 13:20 04.12.2019
3244 Clouds 0 1027 83 7000 3.6 100 12:45 04.12.2019
3245 Clouds 0 1027 83 7000 3.6 100 12:25 04.12.2019
3246 Mist 0 1027 83 5000 2.1 130 11:59 04.12.2019
3247 Mist 0 1028 83 3500 1.5 120 11:41 04.12.2019
3248 Mist 1 1028 82 3500 1.5 120 11:22 04.12.2019
3249 Mist 0 1028 92 4000 2.1 120 10:44 04.12.2019
3250 Mist 0 1028 92 4000 2.1 120 10:24 04.12.2019
3251 Mist 0 1028 92 4000 1.5 120 09:57 04.12.2019
3252 Mist -1 1028 92 4000 1.5 100 09:39 04.12.2019
3253 Snow -1 1027 92 2700 1 90 09:20 04.12.2019
3254 Snow -2 1027 100 2600 1.5 110 08:42 04.12.2019
3255 Snow -1 1027 100 2600 1.5 110 08:23 04.12.2019
3256 Mist -1 1026 100 4000 0.5 80 07:51 04.12.2019
3257 Mist -1 1026 100 4000 0.5 80 07:31 04.12.2019
3258 Mist -1 1026 92 5000 0.5 0 06:51 04.12.2019
3259 Snow -1 1026 92 7000 1 290 06:31 04.12.2019
3260 Clouds -1 1025 86 9000 1.2 12 05:43 04.12.2019
3261 Clouds -1 1025 86 9000 1.2 12 05:43 04.12.2019
3262 Clouds -1 1025 86 9000 2.1 270 04:31 04.12.2019
3263 Clouds -1 1025 86 9000 2.6 280 03:25 04.12.2019
3264 Clouds -1 1025 86 9000 3.6 270 01:21 04.12.2019
3265 Clouds -1 1025 92 8000 3.1 290 00:40 04.12.2019
3266 Clouds -1 1025 92 8000 3.1 290 00:40 04.12.2019
3267 Clouds -1 1025 92 8000 3.1 290 00:19 04.12.2019
3268 Clouds -1 1025 92 7000 3.1 280 23:41 03.12.2019
3269 Clouds -1 1025 92 7000 3.1 280 23:20 03.12.2019
3270 Snow -1 1025 92 8000 3.1 280 22:56 03.12.2019
3271 Snow -1 1024 92 7000 2.6 290 22:36 03.12.2019
3272 Snow -1 1024 92 6000 3.6 270 22:18 03.12.2019
3273 Snow -1 1024 92 6000 3.6 270 21:54 03.12.2019
3274 Snow -1 1024 92 4500 5.1 270 21:36 03.12.2019
3275 Snow -1 1024 92 4500 5.1 270 21:18 03.12.2019
3276 Snow -1 1024 100 2700 4.1 280 20:41 03.12.2019
3277 Snow 0 1024 100 2700 4.1 280 20:19 03.12.2019
3278 Snow 0 1024 100 3000 4.6 280 19:56 03.12.2019
3279 Snow 0 1024 100 3700 5.1 280 19:37 03.12.2019
3280 Snow 0 1023 100 4000 4.6 280 19:19 03.12.2019
3281 Snow 0 1023 100 4000 4.6 280 18:57 03.12.2019
3282 Snow 0 1023 100 4000 4.6 280 18:57 03.12.2019
3283 Snow 0 1023 100 6000 5.1 280 18:39 03.12.2019
3284 Snow 0 1023 100 6000 5.1 280 18:21 03.12.2019
3285 Snow 0 1023 100 6000 4.6 280 18:21 03.12.2019
3286 Snow 0 1023 100 6000 5.1 280 18:21 03.12.2019
3287 Snow 0 1023 100 6000 4.6 280 17:57 03.12.2019
3288 Snow 0 1023 100 2500 4.6 280 17:38 03.12.2019
3289 Snow 0 1023 100 2500 4.6 280 17:38 03.12.2019
3290 Snow 0 1023 100 2500 4.6 280 17:18 03.12.2019
3291 Snow -2 1022 100 2600 5.1 280 16:57 03.12.2019
3292 Snow -1 1022 100 1900 5.7 280 16:38 03.12.2019
3293 Snow -1 1022 100 1900 5.7 280 16:20 03.12.2019
3294 -273 0 0 0 0 0 15:55 03.12.2019
3295 Snow -1 1022 100 1400 4.6 280 15:54 03.12.2019
3296 Snow -1 1022 97 1600 5.1 280 15:36 03.12.2019
3297 Snow -1 1022 97 1500 5.7 270 15:18 03.12.2019
3298 Snow -1 1022 97 1100 4.6 280 14:41 03.12.2019
3299 Snow 0 1022 94 1100 4.6 280 14:20 03.12.2019
3300 Snow 1 1022 94 1000 5.7 280 13:54 03.12.2019
3301 Snow 1 1022 94 1100 5.7 280 13:36 03.12.2019
3302 Snow 1 1022 97 1100 5.7 280 13:18 03.12.2019
3303 Snow 1 1022 97 1300 5.1 280 12:38 03.12.2019
3304 Snow -1 1022 97 1300 5.1 280 12:18 03.12.2019
3305 Snow 0 1022 97 2000 5.1 280 11:58 03.12.2019
3306 Snow 0 1022 97 1300 6.7 270 11:38 03.12.2019
3307 Snow 1 1022 94 1300 6.7 270 11:20 03.12.2019
3308 Snow 1 1022 94 1300 6.7 270 11:20 03.12.2019
3309 Snow 1 1022 94 1200 6.7 280 10:56 03.12.2019
3310 Snow 2 1022 86 2000 7.7 280 10:38 03.12.2019
3311 -273 0 0 0 0 0 10:19 03.12.2019
3312 Snow 1 1021 80 8000 6.7 280 09:45 03.12.2019
3313 -273 0 0 0 0 0 09:25 03.12.2019
3314 Drizzle 1 1021 80 10000 7.7 280 08:57 03.12.2019
3315 Drizzle 1 1021 80 10000 7.7 280 08:57 03.12.2019
3316 Clouds 1 1021 80 10000 7.2 280 08:38 03.12.2019
3317 Clouds 2 1021 80 10000 7.2 280 08:20 03.12.2019
3318 Clouds 2 1021 80 10000 6.7 280 07:51 03.12.2019
3319 Clouds 1 1020 80 10000 7.2 280 07:28 03.12.2019
3320 Clouds 2 1020 90 10000 6.7 280 06:42 03.12.2019
3321 Clouds 1 1020 90 10000 6.7 280 06:20 03.12.2019
3322 Clouds 2 1019 80 10000 5.1 280 04:59 03.12.2019
3323 Mist 2 1019 79 5000 1.52 296 03:42 03.12.2019
3324 Mist 2 1019 79 5000 1.52 296 03:21 03.12.2019
3325 Mist 1 1019 86 5000 0.5 0 02:52 03.12.2019
3326 Mist 1 1019 79 5000 1.52 296 02:32 03.12.2019
3327 Mist 1 1019 71 4500 1 0 01:57 03.12.2019
3328 Mist 1 1019 71 4000 0.5 0 01:38 03.12.2019
3329 Mist 1 1019 80 4000 1.5 330 01:18 03.12.2019
3330 Mist 1 1019 70 5000 1.5 230 00:40 03.12.2019
3331 Mist 1 1019 70 5000 1.5 230 00:21 03.12.2019
3332 Mist 1 1019 70 5000 1 0 23:43 02.12.2019
3333 Mist 1 1019 75 5000 1 0 23:21 02.12.2019
3334 Clouds 1 1019 75 6000 1.5 30 22:55 02.12.2019
3335 Clouds 1 1018 75 6000 0.5 0 22:37 02.12.2019
3336 Clouds 1 1019 75 6000 1.5 160 22:19 02.12.2019
3337 Mist 2 1019 75 5000 1 0 21:39 02.12.2019
3338 Mist 0 1019 75 5000 1 0 21:39 02.12.2019
3339 Mist 0 1019 75 5000 2.6 100 21:20 02.12.2019
3340 Mist 0 1019 75 5000 2.6 100 20:57 02.12.2019
3341 Mist 2 1019 75 5000 1.5 90 20:38 02.12.2019
3342 Clouds 0 1019 80 6000 1.5 180 20:20 02.12.2019
3343 Clouds 1 1019 80 6000 1.5 180 19:56 02.12.2019
3344 Clouds 1 1019 80 6000 1.5 180 19:56 02.12.2019
3345 Clouds 1 1019 80 6000 1.5 170 19:38 02.12.2019
3346 Clouds 1 1019 80 6000 1.5 170 19:38 02.12.2019
3347 Clouds 1 1019 80 6000 1.5 170 19:19 02.12.2019
3348 Clouds 1 1019 74 6000 1.5 190 18:46 02.12.2019
3349 Clouds 1 1019 74 8000 1.5 90 18:21 02.12.2019
3350 Clouds 1 1019 80 8000 0.5 0 17:59 02.12.2019
3351 Clouds 1 1019 74 8000 1 0 17:40 02.12.2019
3352 Clouds 2 1019 74 8000 1 0 17:20 02.12.2019
3353 Clouds 2 1019 64 10000 1.5 190 16:55 02.12.2019
3354 Clouds 3 1019 60 10000 2.1 190 16:36 02.12.2019
3355 Clouds 3 1019 60 10000 2.1 190 16:18 02.12.2019
3356 Clouds 4 1019 64 10000 1.5 190 15:55 02.12.2019
3357 Clouds 5 1019 56 10000 1.5 110 15:37 02.12.2019
3358 Clouds 5 1020 56 10000 2.1 100 15:18 02.12.2019
3359 Clouds 5 1020 56 10000 1.5 90 14:39 02.12.2019
3360 Clouds 6 1020 56 10000 1.5 90 14:20 02.12.2019
3361 Clouds 4 1020 56 10000 1.5 30 13:58 02.12.2019
3362 Clouds 6 1020 60 10000 1.5 140 13:39 02.12.2019
3363 Clouds 5 1020 60 10000 1.5 140 13:20 02.12.2019
3364 Clouds 5 1021 64 10000 1 0 12:57 02.12.2019
3365 Clouds 5 1021 64 10000 1.5 260 12:38 02.12.2019
3366 Clouds 4 1021 64 10000 1.5 260 12:20 02.12.2019
3367 Clouds 5 1021 69 10000 0.5 0 11:56 02.12.2019
3368 Clouds 4 1022 74 10000 1 0 11:37 02.12.2019
3369 Clouds 2 1022 74 10000 1 0 11:18 02.12.2019
3370 Clouds 2 1023 69 10000 0.5 0 10:55 02.12.2019
3371 Clouds 1 1023 39 10000 1.5 100 10:36 02.12.2019
3372 Clouds 1 1023 39 10000 1.5 100 10:18 02.12.2019
3373 Clouds 1 1024 86 8000 1 270 09:40 02.12.2019
3374 Clouds 1 1024 86 8000 1 270 09:19 02.12.2019
3375 Mist 0 1025 86 5000 2.1 310 08:56 02.12.2019
3376 Mist -1 1025 85 3000 2.1 320 08:38 02.12.2019
3377 Mist -4 1024 85 5000 1.71 186 08:20 02.12.2019
3378 Mist -4 1024 92 5000 1 0 07:42 02.12.2019
3379 Mist -5 1024 92 5000 1 0 07:21 02.12.2019
3380 Clear -6 1025 92 7000 1.5 330 06:52 02.12.2019
3381 Clear -6 1025 92 8000 1.71 186 06:34 02.12.2019
3382 Clear -6 1025 92 10000 1.71 186 05:24 02.12.2019
3383 Clear -4 1025 85 8000 1.5 310 04:20 02.12.2019
3384 Clear -4 1026 92 8000 1.5 290 02:51 02.12.2019
3385 Clear -6 1026 92 8000 1 0 02:23 02.12.2019
3386 Clear -3 1026 85 9000 1 0 01:24 02.12.2019
3387 Clear -4 1026 79 10000 1.46 167 00:45 02.12.2019
3388 Clear -3 1026 79 10000 1.46 167 00:23 02.12.2019
3389 Clear -4 1026 85 10000 1 210 23:45 01.12.2019
3390 Clear -4 1026 85 10000 1 210 23:23 01.12.2019
3391 Clear -3 1026 85 10000 0.5 0 22:58 01.12.2019
3392 Clear -3 1026 79 10000 2.1 140 22:39 01.12.2019
3393 Clear -4 1026 79 10000 2.1 140 22:20 01.12.2019
3394 Clear -4 1026 79 10000 2.1 150 21:58 01.12.2019
3395 Clear -4 1026 79 10000 2.6 160 21:40 01.12.2019
3396 Clear -3 1026 79 10000 2.1 140 21:22 01.12.2019
3397 Clear -4 1026 79 10000 2.1 140 20:59 01.12.2019
3398 Clear -4 1026 79 10000 3.1 110 20:41 01.12.2019
3399 Clear -3 1026 79 10000 3.1 110 20:22 01.12.2019
3400 Clouds -3 1026 79 10000 3.1 120 19:59 01.12.2019
3401 Clouds -3 1026 79 10000 2.1 130 19:40 01.12.2019
3402 Clouds -3 1026 79 9000 2.6 120 19:21 01.12.2019
3403 Clouds -3 1026 79 9000 2.6 120 19:21 01.12.2019
3404 Clouds -3 1026 79 9000 2.6 120 18:57 01.12.2019
3405 Clouds -3 1026 79 9000 2.6 120 18:57 01.12.2019
3406 Clouds -2 1025 74 8000 2.1 120 18:38 01.12.2019
3407 Clouds -2 1025 74 8000 2.1 120 18:19 01.12.2019
3408 Clouds -2 1025 60 10000 2.6 170 17:59 01.12.2019
3409 Clouds -2 1025 60 10000 2.1 160 17:40 01.12.2019
3410 Clear -2 1025 55 10000 2.1 160 17:22 01.12.2019
3411 Clear -2 1025 55 10000 0.99 44 16:55 01.12.2019
3412 Clear -2 1025 55 10000 0.99 44 16:37 01.12.2019
3413 Clear -1 1025 55 10000 0.99 44 16:19 01.12.2019
3414 Clear -1 1025 47 10000 1 30 15:46 01.12.2019
3415 Clear 1 1025 44 10000 1.5 10 15:27 01.12.2019
3416 Clear 1 1025 44 10000 1.5 10 15:27 01.12.2019
3417 Clear 1 1025 41 10000 3.1 300 14:41 01.12.2019
3418 Clear 1 1025 41 10000 3.1 300 14:41 01.12.2019
3419 Clear 1 1025 41 10000 3.1 300 14:41 01.12.2019
3420 Clear 1 1025 41 10000 3.1 300 14:41 01.12.2019
3421 Clear 5 1025 41 10000 3.1 300 14:19 01.12.2019
3422 Clear 5 1025 47 10000 3.6 300 13:56 01.12.2019
3423 Clear 4 1025 47 10000 3.6 280 13:37 01.12.2019
3424 Clear 5 1025 47 10000 3.6 280 13:19 01.12.2019
3425 Clear 2 1025 51 10000 3.6 300 13:19 01.12.2019
3426 Clear 4 1025 47 10000 4.6 310 12:41 01.12.2019
3427 Clear 4 1025 51 10000 5.7 290 11:55 01.12.2019
3428 Clear 3 1025 55 10000 5.1 280 11:37 01.12.2019
3429 Clear 3 1025 55 10000 5.1 280 11:37 01.12.2019
3430 Clear 0 1025 55 10000 5.1 280 11:18 01.12.2019
3431 Clear 2 1026 55 10000 5.1 300 10:43 01.12.2019
3432 Clear 2 1026 55 10000 5.1 300 10:20 01.12.2019
3433 Clear 1 1026 39 10000 7.7 280 09:42 01.12.2019
3434 Clear 1 1026 39 10000 7.7 280 09:23 01.12.2019
3435 Clear 1 1025 39 10000 6.2 290 08:57 01.12.2019
3436 Clouds 0 1025 68 10000 5.7 280 08:37 01.12.2019
3437 Clouds -2 1025 68 10000 5.7 280 08:19 01.12.2019
3438 Clouds -2 1025 68 10000 5.7 280 08:19 01.12.2019
3439 Clear -2 1024 63 10000 4.6 290 07:48 01.12.2019
3440 Clear -3 1024 63 10000 4.6 290 07:28 01.12.2019
3441 Clear -4 1024 63 10000 3.6 290 06:52 01.12.2019
3442 Clear -3 1023 63 10000 4.1 290 05:58 01.12.2019
3443 Clear -3 1023 63 10000 5.7 290 05:34 01.12.2019
3444 Clear -3 1023 70 10000 6.2 290 04:29 01.12.2019
3445 Clear -2 1022 59 10000 6.7 290 02:46 01.12.2019
3446 Clear -2 1022 59 10000 6.7 290 02:27 01.12.2019
3447 Clear -2 1022 64 10000 7.2 280 01:54 01.12.2019
3448 Clear -2 1022 64 10000 7.2 280 01:54 01.12.2019
3449 Clear -2 1022 64 10000 6.7 270 01:31 01.12.2019
3450 Clear -2 1022 64 10000 6.7 270 01:31 01.12.2019
3451 Clear -2 1022 64 10000 7.7 280 00:47 01.12.2019
3452 Clear -2 1022 64 10000 7.7 280 00:26 01.12.2019
3453 Clear -2 1021 64 10000 7.2 280 23:56 30.11.2019
3454 Clear -2 1021 59 10000 7.7 280 23:37 30.11.2019
3455 Clear 1 1021 59 10000 7.7 280 23:18 30.11.2019
3456 Clear 1 1021 59 10000 7.2 270 22:41 30.11.2019
3457 Clear 1 1021 59 10000 7.2 270 22:23 30.11.2019
3458 Clear -1 1021 64 10000 5.7 270 21:48 30.11.2019
3459 Clear -1 1020 64 10000 5.1 280 21:28 30.11.2019
3460 Clear -1 1020 64 10000 6.7 280 20:58 30.11.2019
3461 Clear -1 1019 64 10000 8.2 280 20:40 30.11.2019
3462 Clouds 2 1019 64 10000 8.2 280 20:20 30.11.2019
3463 Clouds 3 1019 64 10000 7.7 280 19:57 30.11.2019
3464 Clouds 3 1019 64 10000 7.2 280 19:39 30.11.2019
3465 Clouds 3 1019 64 10000 7.2 280 19:39 30.11.2019
3466 Clouds 3 1019 64 10000 7.2 280 19:20 30.11.2019
3467 Clouds 0 1019 64 10000 6.2 280 18:59 30.11.2019
3468 Clouds 0 1019 64 10000 6.2 290 18:39 30.11.2019
3469 Clouds 0 1018 69 10000 7.7 280 18:20 30.11.2019
3470 Clouds 0 1018 69 10000 7.7 280 17:58 30.11.2019
3471 Clouds 1 1018 64 10000 7.7 280 17:39 30.11.2019
3472 Clouds 1 1018 64 10000 6.2 280 17:21 30.11.2019
3473 Clouds 1 1018 64 10000 6.2 280 16:58 30.11.2019
3474 Clouds 1 1017 64 10000 6.7 280 16:40 30.11.2019
3475 Clouds 1 1017 64 10000 6.7 280 16:20 30.11.2019
3476 Clouds 2 1017 65 10000 10.3 290 15:42 30.11.2019
3477 Clouds 3 1016 79 10000 9.3 290 15:20 30.11.2019
3478 Clouds 3 1016 79 10000 9.3 290 14:58 30.11.2019
3479 Clouds 3 1016 75 10000 9.8 300 14:38 30.11.2019
3480 Clouds 3 1016 75 10000 9.8 300 14:19 30.11.2019
3481 Clouds 4 1015 75 10000 9.3 300 13:58 30.11.2019
3482 Clouds 4 1014 75 10000 9.8 290 13:38 30.11.2019
3483 Clouds 5 1014 75 10000 9.8 290 13:19 30.11.2019
3484 Clouds 5 1014 75 10000 8.7 290 12:47 30.11.2019
3485 Clouds 5 1014 75 10000 7.2 290 12:29 30.11.2019
3486 Clouds 5 1013 81 10000 7.2 290 11:58 30.11.2019
3487 Clouds 5 1013 81 8000 6.2 290 11:39 30.11.2019
3488 Clouds 5 1013 81 8000 6.2 290 11:18 30.11.2019
3489 Rain 6 1012 93 3300 1 0 10:45 30.11.2019
3490 Rain 7 1012 100 4000 2.1 220 10:21 30.11.2019
3491 Mist 7 1012 93 5000 1 0 09:50 30.11.2019
3492 Mist 7 1012 93 5000 1 0 09:30 30.11.2019
3493 Mist 6 1011 93 5000 2.6 50 08:57 30.11.2019
3494 Clouds 5 1011 93 6000 1.5 70 08:38 30.11.2019
3495 Clouds 5 1011 93 6000 1.5 70 08:18 30.11.2019
3496 Rain 4 1012 93 8000 1 0 07:42 30.11.2019
3497 Rain 4 1012 93 8000 1 0 07:23 30.11.2019
3498 Rain 4 1012 93 8000 1 0 07:23 30.11.2019
3499 Rain 5 1011 87 8000 3.6 290 06:45 30.11.2019
3500 Rain 4 1011 87 8000 3.6 290 06:27 30.11.2019
3501 Clouds 3 1011 93 10000 2.1 10 04:59 30.11.2019
3502 Clouds 3 1012 86 10000 1.5 220 03:38 30.11.2019
3503 Clouds 3 1012 93 10000 2.6 120 02:25 30.11.2019
3504 Clear 3 1011 100 10000 2.6 100 01:50 30.11.2019
3505 Clear 3 1012 100 10000 2.1 80 01:24 30.11.2019
3506 Clear 3 1012 93 10000 2.1 140 00:39 30.11.2019
3507 Clear 3 1012 93 10000 2.1 140 00:21 30.11.2019
3508 Clear 4 1012 93 10000 1.5 0 23:44 29.11.2019
3509 Clear 4 1012 93 10000 1.5 0 23:23 29.11.2019
3510 Clear 4 1012 93 10000 2.1 150 23:23 29.11.2019
3511 Clear 5 1012 93 10000 2.1 150 22:48 29.11.2019
3512 Clear 5 1012 86 10000 2.1 270 22:27 29.11.2019
3513 Clear 4 1012 93 10000 0.5 0 21:56 29.11.2019
3514 Clear 5 1012 87 10000 1.5 280 21:38 29.11.2019
3515 Clear 5 1012 87 10000 1.5 280 21:19 29.11.2019
3516 Clear 6 1012 87 10000 0.5 0 20:54 29.11.2019
3517 Clear 6 1011 87 10000 1 0 20:36 29.11.2019
3518 Clear 6 1011 87 10000 1 0 20:18 29.11.2019
3519 Clouds 7 1011 76 10000 2.6 340 19:41 29.11.2019
3520 Clouds 7 1011 76 10000 2.6 340 19:22 29.11.2019
3521 Clouds 7 1011 71 10000 3.1 320 18:59 29.11.2019
3522 Clouds 7 1011 81 10000 1 0 18:41 29.11.2019
3523 Clouds 7 1010 76 10000 0.5 0 18:22 29.11.2019
3524 Clouds 6 1010 76 10000 0.5 0 17:54 29.11.2019
3525 Clouds 8 1010 81 10000 1.5 360 17:36 29.11.2019
3526 Clouds 7 1010 81 10000 1.5 360 17:18 29.11.2019
3527 Clouds 8 1009 81 10000 2.1 110 16:42 29.11.2019
3528 Clouds 8 1009 81 10000 2.1 110 16:21 29.11.2019
3529 Rain 9 1009 71 10000 3.6 310 15:43 29.11.2019
3530 Rain 9 1009 71 10000 3.6 310 15:25 29.11.2019
3531 Rain 7 1009 71 10000 3.6 310 14:59 29.11.2019
3532 Rain 7 1009 62 10000 2.1 320 14:40 29.11.2019
3533 Rain 7 1009 62 10000 2.1 320 14:21 29.11.2019
3534 Clouds 10 1008 66 10000 3.6 340 13:55 29.11.2019
3535 Clouds 7 1009 62 10000 4.1 310 13:37 29.11.2019
3536 Clouds 7 1009 62 10000 7.2 280 13:19 29.11.2019
3537 Clouds 10 1009 58 10000 5.1 280 12:41 29.11.2019
3538 Clouds 10 1009 58 10000 5.1 280 12:41 29.11.2019
3539 Clouds 10 1009 58 10000 5.1 280 12:23 29.11.2019
3540 Clouds 14 1009 71 10000 2.6 330 11:55 29.11.2019
3541 Clouds 14 1009 71 10000 2.6 330 11:55 29.11.2019
3542 Clouds 13 1009 76 10000 3.6 300 11:36 29.11.2019
3543 Clouds 13 1009 76 10000 3.6 300 11:18 29.11.2019
3544 Clouds 13 1009 71 10000 3.6 320 10:56 29.11.2019
3545 Clouds 13 1009 71 10000 4.1 300 10:38 29.11.2019
3546 Clouds 11 1009 76 10000 5.1 300 10:19 29.11.2019
3547 Clouds 8 1009 76 10000 5.1 300 09:56 29.11.2019
3548 Clouds 11 1009 81 10000 4.6 320 09:37 29.11.2019
3549 Clouds 7 1009 81 10000 4.6 320 09:19 29.11.2019
3550 Clouds 10 1008 87 10000 4.1 320 08:40 29.11.2019
3551 Clouds 7 1008 87 10000 4.1 320 08:22 29.11.2019
3552 Clouds 6 1008 87 10000 4.6 300 07:58 29.11.2019
3553 Clouds 6 1008 87 10000 4.6 300 07:58 29.11.2019
3554 Clouds 6 1008 93 10000 4.1 300 07:40 29.11.2019
3555 Clouds 6 1008 93 10000 4.1 300 07:21 29.11.2019
3556 Rain 6 1007 93 10000 2.6 290 06:43 29.11.2019
3557 Rain 6 1007 93 8000 3.6 290 05:48 29.11.2019
3558 Rain 6 1006 93 10000 3.1 290 05:25 29.11.2019
3559 Rain 6 1006 93 6000 1.5 250 04:32 29.11.2019
3560 Rain 7 1005 87 10000 2.1 30 03:22 29.11.2019
3561 Rain 7 1005 81 10000 2.1 50 02:30 29.11.2019
3562 Rain 6 1005 76 10000 3.1 70 01:52 29.11.2019
3563 Clouds 7 1005 81 10000 4.1 50 01:26 29.11.2019
3564 Clouds 7 1005 81 10000 3.6 80 00:43 29.11.2019
3565 Clouds 6 1005 81 10000 3.6 80 00:21 29.11.2019
3566 Clouds 5 1006 87 10000 1.5 0 23:56 28.11.2019
3567 Clouds 6 1006 81 10000 1.5 50 23:36 28.11.2019
3568 Clouds 6 1006 81 10000 1.5 50 23:36 28.11.2019
3569 Clouds 6 1006 81 10000 1.5 50 23:18 28.11.2019
3570 Clouds 6 1007 81 10000 1.5 0 22:38 28.11.2019
3571 Clouds 7 1007 81 10000 1.5 0 22:20 28.11.2019
3572 Clouds 8 1007 71 10000 1.5 0 21:59 28.11.2019
3573 Clouds 6 1007 81 10000 2.1 110 21:40 28.11.2019
3574 Clouds 6 1007 76 10000 2.1 110 21:20 28.11.2019
3575 Clouds 6 1007 76 10000 2.1 110 20:57 28.11.2019
3576 Clouds 6 1007 81 10000 3.6 100 20:38 28.11.2019
3577 Clouds 6 1007 81 10000 3.6 100 20:18 28.11.2019
3578 Clouds 6 1007 81 10000 1.5 70 19:55 28.11.2019
3579 Clouds 6 1007 76 10000 2.6 100 19:36 28.11.2019
3580 Clouds 7 1007 76 10000 2.6 100 19:18 28.11.2019
3581 Clouds 6 1008 87 8000 1.5 80 18:55 28.11.2019
3582 Clouds 7 1008 81 6000 2.1 0 18:37 28.11.2019
3583 Clouds 6 1008 81 8000 1.5 10 18:18 28.11.2019
3584 Clouds 5 1008 87 10000 1 0 17:42 28.11.2019
3585 Clouds 6 1008 87 10000 1 0 17:23 28.11.2019
3586 Clouds 6 1008 87 10000 1 0 17:23 28.11.2019
3587 Clouds 7 1009 81 10000 0.5 0 16:58 28.11.2019
3588 Clouds 7 1009 76 10000 1.5 320 16:38 28.11.2019
3589 Clouds 7 1009 76 10000 1.5 200 16:19 28.11.2019
3590 Clouds 6 1009 76 10000 1.5 200 15:55 28.11.2019
3591 Clouds 6 1009 76 10000 1.5 200 15:55 28.11.2019
3592 Clouds 6 1009 76 10000 2.1 170 15:36 28.11.2019
3593 Clouds 6 1009 76 10000 1.5 280 15:18 28.11.2019
3594 Clouds 6 1009 76 10000 0.5 0 14:41 28.11.2019
3595 Clouds 6 1009 76 10000 0.5 0 14:41 28.11.2019
3596 Clouds 11 1009 76 10000 1 0 14:22 28.11.2019
3597 Clouds 11 1009 76 10000 1 0 13:59 28.11.2019
3598 Clouds 11 1010 71 10000 0.5 0 13:40 28.11.2019
3599 Clouds 11 1010 71 10000 0.5 0 13:21 28.11.2019
3600 Clouds 10 1010 76 10000 2.1 290 12:48 28.11.2019
3601 Clouds 11 1010 76 10000 2.1 270 12:29 28.11.2019
3602 Clouds 10 1011 76 10000 1 0 11:59 28.11.2019
3603 Clouds 9 1011 81 10000 1.5 170 11:40 28.11.2019
3604 Clouds 9 1011 81 10000 1.5 170 11:21 28.11.2019
3605 Clouds 9 1011 81 8000 1.5 150 10:57 28.11.2019
3606 Clouds 9 1012 81 8000 1.5 180 10:38 28.11.2019
3607 Clouds 9 1012 81 8000 1.5 180 10:18 28.11.2019
3608 Mist 7 1012 93 3500 1 0 09:41 28.11.2019
3609 Mist 7 1012 93 3500 1 0 09:41 28.11.2019
3610 Mist 7 1012 93 3500 1 0 09:22 28.11.2019
3611 Mist 7 1012 100 2300 1 0 08:57 28.11.2019
3612 Mist 5 1012 93 2000 0.5 0 08:38 28.11.2019
3613 Mist 5 1012 93 2000 0.5 0 08:19 28.11.2019
3614 Fog 5 1012 100 500 1.5 320 07:42 28.11.2019
3615 Fog 5 1012 100 500 1.5 320 07:23 28.11.2019
3616 Fog 5 1012 100 350 1.5 230 06:50 28.11.2019
3617 Fog 5 1012 100 2500 1.33 230 06:50 28.11.2019
3618 Mist 4 1011 100 1900 1.5 40 06:29 28.11.2019
3619 Mist 4 1011 100 1900 1.5 40 05:51 28.11.2019
3620 Mist 4 1012 100 2400 1 0 05:18 28.11.2019
3621 Fog 4 1012 100 800 1.5 150 02:37 28.11.2019
3622 Fog 4 1012 93 800 2.1 120 01:47 28.11.2019
3623 Fog 4 1012 100 500 1 0 00:47 28.11.2019
3624 Fog 4 1013 100 500 1.5 310 00:22 28.11.2019
3625 Fog 4 1013 100 500 1.5 290 23:55 27.11.2019
3626 Fog 4 1012 100 550 0.5 230 23:36 27.11.2019
3627 Fog 4 1012 100 550 0.5 230 23:18 27.11.2019
3628 Fog 4 1013 93 750 1.45 225 22:39 27.11.2019
3629 Fog 4 1013 93 750 1.45 225 22:20 27.11.2019
3630 Mist 4 1013 93 1600 0.5 0 21:56 27.11.2019
3631 Mist 4 1013 93 1200 2.6 140 21:37 27.11.2019
3632 Mist 4 1013 93 1300 0.5 0 21:19 27.11.2019
3633 Mist 4 1013 93 1300 0.5 0 20:58 27.11.2019
3634 Mist 4 1013 100 1800 1.45 225 20:58 27.11.2019
3635 Mist 4 1013 100 1800 1.45 225 20:39 27.11.2019
3636 Mist 4 1013 100 1800 1.32 204 20:21 27.11.2019
3637 Mist 4 1012 100 2000 1 0 19:57 27.11.2019
3638 Mist 4 1012 100 1200 1.5 140 19:39 27.11.2019
3639 Mist 4 1012 100 1200 1.5 140 19:19 27.11.2019
3640 Mist 5 1012 100 1200 1.5 140 19:19 27.11.2019
3641 Mist 4 1012 100 4000 1 60 18:58 27.11.2019
3642 Mist 4 1012 100 2500 1 0 18:37 27.11.2019
3643 Mist 4 1012 100 2500 1 0 18:19 27.11.2019
3644 Mist 4 1012 100 4000 1.32 204 17:56 27.11.2019
3645 Mist 4 1012 93 4500 1 0 17:38 27.11.2019
3646 Mist 4 1012 93 4500 1 0 17:20 27.11.2019
3647 Mist 4 1012 93 4500 1 0 16:56 27.11.2019
3648 Mist 4 1012 100 3500 1 0 16:37 27.11.2019
3649 Mist 4 1012 93 3500 0.5 0 16:18 27.11.2019
3650 Mist 4 1012 100 3500 1 0 16:18 27.11.2019
3651 Mist 4 1012 93 3500 0.5 0 15:56 27.11.2019
3652 Mist 4 1012 93 3500 0.5 0 15:55 27.11.2019
3653 Mist 3 1012 93 3500 2.1 120 15:37 27.11.2019
3654 Mist 5 1012 93 3500 2.1 120 15:19 27.11.2019
3655 Mist 3 1012 93 3500 1.5 120 14:55 27.11.2019
3656 Mist 4 1012 93 3500 0.5 0 14:36 27.11.2019
3657 -273 0 0 0 0 0 14:18 27.11.2019
3658 Mist 10 1012 93 3500 1 0 13:55 27.11.2019
3659 Mist 8 1012 87 3500 1 0 13:36 27.11.2019
3660 Mist 10 1012 87 3500 1.5 110 13:18 27.11.2019
3661 Mist 8 1013 93 3000 1.5 160 12:41 27.11.2019
3662 Mist 7 1013 93 2700 1.5 220 12:21 27.11.2019
3663 Mist 6 1013 93 2700 0.5 0 11:55 27.11.2019
3664 Mist 6 1013 93 2700 0.5 0 11:36 27.11.2019
3665 Mist 6 1014 93 2700 1 0 11:18 27.11.2019
3666 Mist 6 1014 93 3000 1 0 10:42 27.11.2019
3667 Mist 6 1014 93 3000 1 0 10:42 27.11.2019
3668 Mist 5 1014 93 3000 1 0 10:24 27.11.2019
3669 Mist 4 1013 100 3000 1 0 09:49 27.11.2019
3670 Mist 4 1013 100 3000 1 0 09:26 27.11.2019
3671 Mist 4 1013 100 1500 1.05 245 08:59 27.11.2019
3672 Fog 4 1013 100 800 1.05 245 08:41 27.11.2019
3673 Fog 2 1013 100 800 1 235 08:22 27.11.2019
3674 Mist 2 1013 100 2000 1 0 07:47 27.11.2019
3675 Mist 2 1013 100 2000 1 0 07:28 27.11.2019
3676 Fog 1 1013 100 3000 1 235 06:53 27.11.2019
3677 Mist 2 1013 93 4000 1 0 06:35 27.11.2019
3678 Fog 1 1013 100 400 1.5 210 05:46 27.11.2019
3679 Fog 1 1012 100 350 1 90 05:20 27.11.2019
3680 Fog 1 1012 93 500 1 0 04:47 27.11.2019
3681 Fog 1 1012 93 500 1 0 04:29 27.11.2019
3682 Fog 1 1012 100 350 0.5 140 03:39 27.11.2019
3683 Fog 1 1012 100 350 0.5 140 03:19 27.11.2019
3684 Fog 1 1013 100 400 0.5 0 02:20 27.11.2019
3685 Mist 1 1012 100 7000 1 0 00:47 27.11.2019
3686 Mist 1 1012 100 7000 1 0 00:29 27.11.2019
3687 Clouds 2 1013 93 7000 0.5 0 23:54 26.11.2019
3688 Clouds 2 1013 93 7000 0.5 0 23:54 26.11.2019
3689 Clouds 2 1013 93 8000 1.5 250 23:36 26.11.2019
3690 Clouds 2 1013 100 7000 1.5 240 23:18 26.11.2019
3691 Clouds 2 1013 100 7000 1.5 240 23:18 26.11.2019
3692 Clouds 2 1013 93 7000 1.5 270 22:39 26.11.2019
3693 Clouds 2 1013 93 7000 1.5 270 22:19 26.11.2019
3694 Clouds 2 1013 93 7000 0.5 0 22:19 26.11.2019
3695 Clouds 2 1013 93 7000 0.5 0 21:59 26.11.2019
3696 Clouds 2 1013 93 6000 1.5 280 21:38 26.11.2019
3697 Clouds 2 1013 93 6000 1.5 280 21:38 26.11.2019
3698 Clouds 2 1013 93 6000 1.5 280 21:19 26.11.2019
3699 Clouds 2 1012 93 8000 1 0 20:57 26.11.2019
3700 Clouds 2 1012 93 8000 1 0 20:57 26.11.2019
3701 Clouds 3 1012 93 10000 0.76 30 20:37 26.11.2019
3702 Clouds 3 1012 93 10000 1 20 20:19 26.11.2019
3703 Clouds 3 1012 93 10000 1 20 19:55 26.11.2019
3704 Clouds 3 1012 87 10000 1.5 280 19:37 26.11.2019
3705 Clouds 3 1012 87 10000 1.5 280 19:18 26.11.2019
3706 Clouds 3 1012 87 10000 0.91 32 18:56 26.11.2019
3707 Clouds 4 1012 81 10000 1 10 18:38 26.11.2019
3708 Clouds 4 1012 81 10000 1 0 18:20 26.11.2019
3709 Clouds 4 1012 81 10000 1 0 17:55 26.11.2019
3710 Clouds 4 1012 81 10000 1.5 10 17:37 26.11.2019
3711 Clouds 4 1011 81 10000 1.5 10 17:19 26.11.2019
3712 Clouds 4 1011 81 10000 1.5 10 16:55 26.11.2019
3713 Clouds 4 1011 81 10000 1.27 30 16:37 26.11.2019
3714 Clouds 4 1011 81 10000 1.27 30 16:18 26.11.2019
3715 Clouds 4 1011 81 10000 1 0 15:57 26.11.2019
3716 Clouds 4 1010 81 10000 1 0 15:37 26.11.2019
3717 Clouds 4 1010 81 10000 1 0 15:37 26.11.2019
3718 Clouds 5 1011 76 10000 1 0 15:18 26.11.2019
3719 Clouds 5 1010 81 10000 1 0 14:45 26.11.2019
3720 Clouds 6 1010 81 10000 1 0 14:24 26.11.2019
3721 Clouds 6 1010 76 10000 1 0 13:43 26.11.2019
3722 Clouds 6 1010 76 10000 1.5 190 13:24 26.11.2019
3723 Clouds 6 1010 76 10000 1.5 190 12:57 26.11.2019
3724 Clouds 6 1011 76 10000 1.5 210 12:36 26.11.2019
3725 Clouds 9 1011 75 10000 0.5 0 12:18 26.11.2019
3726 Rain 8 1011 75 10000 1 0 11:55 26.11.2019
3727 Rain 8 1011 75 10000 1 0 11:36 26.11.2019
3728 Rain 8 1011 81 10000 1 0 11:18 26.11.2019
3729 Rain 8 1011 81 10000 1 0 10:55 26.11.2019
3730 Rain 8 1011 87 10000 1 0 10:37 26.11.2019
3731 Rain 8 1011 87 10000 1 0 10:18 26.11.2019
3732 Rain 5 1011 87 10000 1.5 240 09:42 26.11.2019
3733 Rain 5 1011 87 10000 1.5 240 09:23 26.11.2019
3734 Rain 5 1010 87 10000 1 0 08:47 26.11.2019
3735 Rain 5 1010 87 10000 2.1 270 08:28 26.11.2019
3736 Rain 5 1010 87 10000 2.1 230 07:57 26.11.2019
3737 Rain 5 1010 87 10000 2.6 260 07:38 26.11.2019
3738 Clouds 4 1009 87 10000 2.1 280 07:19 26.11.2019
3739 Clouds 4 1009 87 10000 1.5 280 06:46 26.11.2019
3740 Clouds 3 1009 93 10000 0.5 0 05:58 26.11.2019
3741 Clouds 4 1009 93 10000 2.1 70 05:19 26.11.2019
3742 Rain 4 1009 93 10000 1.5 190 03:21 26.11.2019
3743 Rain 4 1009 93 10000 1.5 190 03:21 26.11.2019
3744 Rain 4 1009 93 10000 2.1 160 01:36 26.11.2019
3745 Rain 4 1009 93 10000 2.1 160 01:18 26.11.2019
3746 Rain 4 1009 93 8000 1.5 150 00:40 26.11.2019
3747 Rain 4 1009 93 10000 2.1 160 23:56 25.11.2019
3748 Rain 4 1009 93 6000 1.5 130 23:37 25.11.2019
3749 Rain 6 1009 93 10000 2.1 130 23:18 25.11.2019
3750 Rain 6 1009 93 7000 2.6 140 22:39 25.11.2019
3751 Rain 6 1009 93 7000 2.6 140 22:19 25.11.2019
3752 Rain 6 1009 87 7000 2.1 140 21:59 25.11.2019
3753 Rain 6 1009 93 7000 2.1 110 21:40 25.11.2019
3754 Rain 6 1009 93 7000 2.1 110 21:22 25.11.2019
3755 Rain 6 1009 93 10000 3.6 140 20:58 25.11.2019
3756 Rain 6 1009 93 7000 4.6 130 20:40 25.11.2019
3757 Rain 6 1009 93 7000 4.6 130 20:40 25.11.2019
3758 Rain 4 1009 93 7000 4.6 130 20:20 25.11.2019
3759 Rain 7 1009 87 10000 4.1 140 19:56 25.11.2019
3760 Clouds 5 1009 76 10000 4.6 150 19:38 25.11.2019
3761 Clouds 5 1009 76 10000 4.6 150 19:19 25.11.2019
3762 Clouds 5 1009 76 10000 4.1 150 18:57 25.11.2019
3763 Clouds 5 1009 76 10000 4.1 150 18:39 25.11.2019
3764 Clouds 5 1009 76 10000 3.1 130 18:21 25.11.2019
3765 Clouds 5 1009 76 10000 3.1 130 17:58 25.11.2019
3766 Clouds 5 1009 76 10000 3.6 100 17:39 25.11.2019
3767 Clouds 4 1009 76 10000 4.6 90 17:20 25.11.2019
3768 Clouds 3 1009 76 10000 4.6 90 16:57 25.11.2019
3769 Clouds 5 1009 81 10000 4.6 110 16:39 25.11.2019
3770 Clouds 7 1009 81 10000 4.6 110 16:21 25.11.2019
3771 Clouds 7 1010 87 10000 3.6 120 15:55 25.11.2019
3772 Clouds 5 1010 87 9000 4.1 130 15:37 25.11.2019
3773 Clouds 5 1010 81 10000 4.1 130 15:18 25.11.2019
3774 Clouds 5 1010 81 10000 5.7 130 14:42 25.11.2019
3775 Clouds 7 1010 81 10000 5.7 130 14:23 25.11.2019
3776 Clouds 7 1010 81 10000 5.7 130 13:56 25.11.2019
3777 Clouds 7 1010 81 10000 6.2 120 13:36 25.11.2019
3778 Clouds 7 1011 81 10000 6.7 120 13:18 25.11.2019
3779 Clouds 7 1011 81 10000 6.7 120 13:18 25.11.2019
3780 Clouds 7 1011 81 10000 6.7 120 12:55 25.11.2019
3781 Clouds 9 1011 87 10000 6.2 130 12:36 25.11.2019
3782 Clouds 7 1011 87 10000 6.7 130 12:18 25.11.2019
3783 Clouds 7 1012 81 10000 6.2 130 11:40 25.11.2019
3784 Clouds 7 1012 81 10000 6.2 130 11:40 25.11.2019
3785 Clouds 6 1012 81 10000 6.2 130 11:21 25.11.2019
3786 Clouds 6 1012 81 10000 5.1 130 10:57 25.11.2019
3787 Clouds 6 1012 81 10000 6.2 120 10:38 25.11.2019
3788 Clouds 6 1012 81 10000 6.2 120 10:18 25.11.2019
3789 Clouds 9 1013 81 10000 6.7 120 09:42 25.11.2019
3790 Clouds 6 1013 81 10000 6.7 120 09:23 25.11.2019
3791 Clouds 9 1013 81 10000 6.7 120 08:42 25.11.2019
3792 Clouds 4 1013 81 10000 6.7 120 08:23 25.11.2019
3793 Clouds 4 1013 87 10000 6.2 130 07:47 25.11.2019
3794 Clouds 4 1013 87 10000 6.2 130 07:29 25.11.2019
3795 Clouds 4 1013 87 10000 5.7 130 06:59 25.11.2019
3796 Clouds 4 1013 87 10000 5.1 120 06:24 25.11.2019
3797 Clouds 4 1013 87 10000 4.6 130 05:51 25.11.2019
3798 Clouds 4 1013 87 10000 3.6 120 05:31 25.11.2019
3799 Clouds 4 1013 87 10000 3.6 110 04:48 25.11.2019
3800 Clouds 5 1015 87 10000 3.6 130 02:36 25.11.2019
3801 Clouds 4 1015 93 6000 4.6 130 01:43 25.11.2019
3802 Clouds 5 1015 93 6000 4.6 130 01:24 25.11.2019
3803 Clouds 5 1015 93 10000 5.1 120 00:42 25.11.2019
3804 Clouds 5 1016 93 10000 5.1 120 00:18 25.11.2019
3805 Clouds 5 1016 87 10000 5.1 120 23:44 24.11.2019
3806 Clouds 5 1016 87 10000 5.1 120 23:20 24.11.2019
3807 Clouds 5 1016 87 10000 6.2 130 22:57 24.11.2019
3808 Clouds 5 1016 81 10000 6.2 120 22:38 24.11.2019
3809 Clouds 5 1016 81 10000 6.2 120 22:19 24.11.2019
3810 Clouds 5 1016 81 10000 7.2 130 21:56 24.11.2019
3811 Clouds 4 1017 81 10000 7.7 140 21:37 24.11.2019
3812 Clouds 4 1017 81 10000 7.7 140 21:19 24.11.2019
3813 Clouds 4 1017 81 10000 5.7 130 20:56 24.11.2019
3814 Clouds 5 1017 81 10000 4.6 130 20:37 24.11.2019
3815 Clouds 5 1017 81 10000 4.6 130 20:37 24.11.2019
3816 Clouds 4 1017 81 10000 4.6 130 20:18 24.11.2019
3817 Clouds 4 1017 81 10000 4.6 130 19:55 24.11.2019
3818 Clouds 4 1017 81 10000 4.6 130 19:55 24.11.2019
3819 Clouds 5 1017 81 10000 4.1 140 19:37 24.11.2019
3820 Clouds 5 1017 81 10000 4.1 140 19:19 24.11.2019
3821 Clouds 5 1017 81 10000 4.1 140 19:19 24.11.2019
3822 Clouds 5 1017 81 10000 5.7 140 18:56 24.11.2019
3823 Clouds 4 1017 81 10000 5.1 130 18:36 24.11.2019
3824 Clouds 5 1017 81 10000 6.2 120 18:18 24.11.2019
3825 Clouds 5 1017 81 10000 6.2 120 18:18 24.11.2019
3826 Clouds 5 1017 81 10000 6.2 120 18:18 24.11.2019
3827 Clouds 5 1017 81 10000 6.2 120 17:55 24.11.2019
3828 Clouds 5 1018 81 10000 5.1 130 17:36 24.11.2019
3829 Clouds 5 1017 81 10000 4.6 130 17:18 24.11.2019
3830 Clouds 5 1017 76 10000 5.1 130 16:42 24.11.2019
3831 Clouds 5 1017 76 10000 5.1 130 16:23 24.11.2019
3832 Clouds 5 1018 76 10000 7.2 120 15:59 24.11.2019
3833 Clouds 5 1018 76 10000 7.2 120 15:41 24.11.2019
3834 Clouds 5 1018 76 10000 7.2 120 15:22 24.11.2019
3835 Clouds 5 1018 71 10000 7.2 110 14:55 24.11.2019
3836 Clouds 5 1018 71 10000 7.2 120 14:37 24.11.2019
3837 Clouds 7 1018 71 10000 7.2 120 14:18 24.11.2019
3838 Clouds 7 1018 71 10000 6.2 120 13:39 24.11.2019
3839 Clouds 7 1018 71 10000 6.2 120 13:20 24.11.2019
3840 Clouds 7 1019 66 10000 6.2 130 12:57 24.11.2019
3841 Clouds 7 1019 66 10000 6.2 130 12:39 24.11.2019
3842 Clouds 7 1019 71 10000 6.2 140 12:18 24.11.2019
3843 Clouds 7 1019 71 10000 6.2 140 11:55 24.11.2019
3844 Clouds 7 1019 66 10000 7.7 110 11:36 24.11.2019
3845 Clouds 7 1019 66 10000 5.7 120 11:18 24.11.2019
3846 Clouds 7 1020 70 10000 6.7 120 10:44 24.11.2019
3847 Clouds 6 1020 70 10000 6.7 120 10:26 24.11.2019
3848 Clouds 6 1020 70 10000 6.7 120 09:40 24.11.2019
3849 Clouds 6 1020 81 10000 3.1 120 09:20 24.11.2019
3850 Clouds 6 1020 81 10000 3.1 120 08:59 24.11.2019
3851 Clouds 6 1020 87 10000 3.6 100 08:40 24.11.2019
3852 Clouds 4 1020 87 10000 3.6 100 08:21 24.11.2019
3853 Clouds 4 1020 81 10000 3.6 110 07:52 24.11.2019
3854 Clouds 3 1020 93 10000 2.1 120 07:33 24.11.2019
3855 Clouds 3 1020 87 10000 3.1 110 06:55 24.11.2019
3856 Clouds 3 1019 87 10000 3.1 160 05:47 24.11.2019
3857 Clouds 4 1019 87 10000 4.1 130 04:45 24.11.2019
3858 Clouds 3 1020 87 10000 3.1 110 02:49 24.11.2019
3859 Clouds 3 1020 87 10000 2.1 100 01:56 24.11.2019
3860 Clouds 3 1020 87 10000 3.1 100 01:35 24.11.2019
3861 Clouds 3 1020 93 10000 2.6 110 00:57 24.11.2019
3862 Clouds 3 1020 87 10000 2.1 110 00:38 24.11.2019
3863 Clouds 3 1020 87 10000 3.1 120 00:19 24.11.2019
3864 Clouds 3 1020 87 10000 3.6 110 23:43 23.11.2019
3865 Clouds 3 1020 87 10000 3.6 110 23:21 23.11.2019
3866 Clouds 4 1020 87 10000 2.1 120 22:57 23.11.2019
3867 Clouds 4 1020 87 10000 2.1 120 22:57 23.11.2019
3868 Clouds 4 1020 87 10000 3.1 120 22:37 23.11.2019
3869 Clouds 4 1020 87 10000 3.1 120 22:19 23.11.2019
3870 Clouds 3 1020 87 10000 3.1 120 21:56 23.11.2019
3871 Clouds 4 1020 87 10000 3.1 130 21:37 23.11.2019
3872 Clouds 3 1020 93 10000 3.6 120 21:19 23.11.2019
3873 Clouds 3 1020 93 10000 3.6 120 20:38 23.11.2019
3874 Clouds 3 1020 93 10000 3.6 120 20:38 23.11.2019
3875 Clouds 3 1020 93 10000 3.6 120 20:20 23.11.2019
3876 Clouds 3 1020 87 10000 3.1 120 19:57 23.11.2019
3877 Clouds 3 1020 87 10000 3.1 120 19:57 23.11.2019
3878 Clouds 3 1020 87 10000 3.1 120 19:57 23.11.2019
3879 Clouds 3 1020 87 10000 3.1 120 19:57 23.11.2019
3880 Clouds 3 1020 87 10000 3.6 110 19:39 23.11.2019
3881 Clouds 3 1020 87 10000 3.6 110 19:19 23.11.2019
3882 Clouds 3 1020 87 10000 3.6 110 19:19 23.11.2019
3883 Clouds 3 1020 87 10000 4.1 130 18:58 23.11.2019
3884 Clouds 4 1020 81 10000 4.6 130 18:39 23.11.2019
3885 Clouds 4 1020 81 10000 4.6 120 18:19 23.11.2019
3886 Clouds 4 1020 81 10000 4.1 120 17:44 23.11.2019
3887 Clouds 3 1020 81 10000 4.1 120 17:22 23.11.2019
3888 Clouds 4 1019 81 10000 5.7 120 16:57 23.11.2019
3889 Clouds 4 1019 81 10000 6.2 120 16:38 23.11.2019
3890 Clouds 4 1019 81 10000 6.2 120 16:20 23.11.2019
3891 Clouds 4 1019 81 10000 5.1 110 15:58 23.11.2019
3892 Clouds 4 1019 76 10000 3.1 130 15:39 23.11.2019
3893 Clouds 4 1019 76 10000 3.1 130 15:19 23.11.2019
3894 Clouds 4 1019 76 10000 2.6 170 14:57 23.11.2019
3895 Clouds 4 1019 76 10000 2.6 170 14:57 23.11.2019
3896 Clouds 4 1019 76 10000 3.1 180 14:38 23.11.2019
3897 Clouds 6 1019 76 10000 3.1 180 14:20 23.11.2019
3898 Clouds 6 1019 76 10000 4.6 130 13:44 23.11.2019
3899 Clouds 6 1019 76 10000 4.6 130 13:22 23.11.2019
3900 Clouds 6 1020 76 10000 5.1 120 12:58 23.11.2019
3901 Clouds 7 1020 76 10000 5.1 110 12:40 23.11.2019
3902 Clouds 6 1020 76 10000 5.1 110 12:22 23.11.2019
3903 Clouds 6 1020 75 10000 5.7 120 11:43 23.11.2019
3904 Clouds 6 1020 75 10000 5.7 120 11:21 23.11.2019
3905 Clouds 6 1021 81 10000 6.2 120 10:45 23.11.2019
3906 Clouds 6 1021 81 10000 6.2 120 10:22 23.11.2019
3907 Clouds 5 1021 87 10000 6.2 100 09:43 23.11.2019
3908 Clouds 5 1021 87 10000 6.2 100 09:21 23.11.2019
3909 Clouds 5 1021 93 10000 5.1 100 08:55 23.11.2019
3910 Clouds 5 1020 93 10000 5.7 100 08:36 23.11.2019
3911 Clouds 3 1020 87 10000 5.7 100 08:18 23.11.2019
3912 Clouds 2 1020 93 10000 5.7 100 07:39 23.11.2019
3913 Clouds 2 1020 93 10000 5.1 90 06:48 23.11.2019
3914 Clouds 2 1020 93 10000 5.7 100 06:21 23.11.2019
3915 Clouds 2 1020 93 10000 5.7 100 05:53 23.11.2019
3916 Clouds 2 1020 93 10000 5.1 90 05:30 23.11.2019
3917 Clouds 3 1020 87 10000 5.1 100 04:50 23.11.2019
3918 Clouds 2 1020 87 10000 5.1 100 04:28 23.11.2019
3919 Clouds 3 1020 87 10000 4.6 90 02:53 23.11.2019
3920 Clouds 3 1020 93 10000 5.1 90 02:22 23.11.2019
3921 Clouds 2 1020 93 10000 5.1 90 01:38 23.11.2019
3922 Clouds 3 1020 87 10000 5.1 100 00:43 23.11.2019
3923 Clouds 3 1020 87 10000 4.6 100 00:18 23.11.2019
3924 Clouds 2 1020 93 10000 4.6 100 23:42 22.11.2019
3925 Clouds 2 1020 93 10000 4.6 100 23:21 22.11.2019
3926 Clouds 3 1020 87 10000 4.6 120 22:58 22.11.2019
3927 Clouds 3 1020 87 10000 4.1 130 22:38 22.11.2019
3928 Clouds 3 1020 87 10000 4.1 130 22:38 22.11.2019
3929 Clouds 3 1020 87 10000 4.1 130 22:38 22.11.2019
3930 Clouds 2 1020 87 10000 4.1 130 22:20 22.11.2019
3931 Clouds 2 1020 87 10000 4.1 110 21:58 22.11.2019
3932 Clouds 2 1020 93 10000 2.1 130 21:39 22.11.2019
3933 Clouds 2 1020 93 10000 3.6 130 21:20 22.11.2019
3934 Clouds 2 1020 93 10000 4.1 130 20:43 22.11.2019
3935 Clouds 2 1020 93 10000 4.1 130 20:22 22.11.2019
3936 Clouds 2 1020 93 10000 4.1 130 19:57 22.11.2019
3937 Clouds 2 1020 93 10000 4.6 140 19:37 22.11.2019
3938 Clouds 2 1020 93 10000 4.6 140 19:19 22.11.2019
3939 Rain 3 1019 93 10000 3.1 150 18:39 22.11.2019
3940 Rain 3 1019 93 10000 3.1 150 18:21 22.11.2019
3941 Rain 3 1019 93 7000 3.1 140 17:57 22.11.2019
3942 Rain 3 1019 93 8000 3.1 170 17:39 22.11.2019
3943 Rain 3 1019 93 8000 3.1 170 17:20 22.11.2019
3944 Rain 3 1018 93 10000 3.6 140 16:42 22.11.2019
3945 Rain 3 1018 93 10000 3.6 140 16:23 22.11.2019
3946 Rain 3 1018 87 10000 4.6 130 15:44 22.11.2019
3947 Rain 3 1018 87 10000 4.6 130 15:24 22.11.2019
3948 Rain 4 1018 93 7000 4.6 120 14:56 22.11.2019
3949 Rain 4 1018 87 7000 5.1 110 14:38 22.11.2019
3950 Rain 5 1018 87 7000 5.1 110 14:19 22.11.2019
3951 Rain 4 1018 93 7000 3.6 120 13:57 22.11.2019
3952 Rain 4 1018 93 7000 3.6 120 13:57 22.11.2019
3953 Rain 4 1018 93 7000 3.1 130 13:37 22.11.2019
3954 Rain 4 1018 93 7000 3.1 130 13:18 22.11.2019
3955 -273 0 0 0 0 0 12:55 22.11.2019
3956 Rain 4 1018 93 7000 3.1 130 12:55 22.11.2019
3957 Rain 4 1018 93 7000 3.6 130 12:36 22.11.2019
3958 Rain 4 1018 93 7000 3.6 130 12:18 22.11.2019
3959 Rain 4 1018 93 7000 3.6 120 11:40 22.11.2019
3960 Rain 4 1018 93 7000 3.6 120 11:22 22.11.2019
3961 Rain 4 1018 93 7000 3.6 100 10:59 22.11.2019
3962 Rain 4 1018 93 7000 3.1 90 10:40 22.11.2019
3963 Rain 4 1018 93 7000 3.1 90 10:40 22.11.2019
3964 Rain 4 1018 93 7000 2.6 90 10:22 22.11.2019
3965 Rain 4 1018 93 7000 2.6 90 09:56 22.11.2019
3966 Rain 4 1018 93 7000 3.6 120 09:37 22.11.2019
3967 Rain 4 1018 93 7000 3.6 120 09:19 22.11.2019
3968 Rain 4 1017 93 6000 2.6 120 08:46 22.11.2019
3969 Rain 5 1017 93 6000 2.6 120 08:27 22.11.2019
3970 Rain 5 1017 93 6000 2.6 120 08:27 22.11.2019
3971 Rain 5 1017 87 7000 1.5 30 07:46 22.11.2019
3972 Rain 5 1017 87 7000 1.5 30 07:23 22.11.2019
3973 Rain 5 1016 93 7000 1.5 20 06:57 22.11.2019
3974 Rain 5 1016 93 7000 1.5 330 06:37 22.11.2019
3975 Rain 5 1016 93 10000 1.5 90 05:49 22.11.2019
3976 Rain 6 1016 93 8000 3.1 110 04:50 22.11.2019
3977 Clouds 7 1016 93 10000 4.1 100 02:53 22.11.2019
3978 Clouds 7 1016 93 10000 3.1 110 02:31 22.11.2019
3979 Clouds 7 1016 93 10000 4.6 110 01:45 22.11.2019
3980 Clouds 8 1016 93 10000 4.6 110 01:20 22.11.2019
3981 Clouds 6 1016 93 10000 3.6 110 00:51 22.11.2019
3982 Clouds 8 1016 93 10000 3.6 100 00:24 22.11.2019
3983 Rain 8 1017 93 8000 3.6 100 23:49 21.11.2019
3984 Rain 5 1017 93 10000 2.6 110 23:31 21.11.2019
3985 Clouds 8 1017 93 10000 2.6 100 22:59 21.11.2019
3986 Clouds 8 1016 93 10000 3.1 110 22:39 21.11.2019
3987 Clouds 7 1016 93 10000 3.1 110 22:21 21.11.2019
3988 Clouds 8 1016 93 10000 4.6 90 21:57 21.11.2019
3989 Clouds 7 1016 93 10000 5.1 90 21:37 21.11.2019
3990 Clouds 6 1016 93 10000 5.1 90 21:19 21.11.2019
3991 Clouds 6 1016 93 10000 4.6 110 20:58 21.11.2019
3992 Clouds 5 1016 93 10000 4.6 110 20:38 21.11.2019
3993 Clouds 7 1016 93 10000 4.6 110 20:19 21.11.2019
3994 Clouds 7 1016 93 10000 5.1 110 19:59 21.11.2019
3995 Clouds 7 1016 93 10000 5.1 110 19:59 21.11.2019
3996 Clouds 7 1016 93 10000 5.1 110 19:59 21.11.2019
3997 Clouds 7 1016 93 10000 5.1 110 19:40 21.11.2019
3998 Clouds 7 1016 93 10000 5.1 110 19:21 21.11.2019
3999 Clouds 6 1016 93 10000 5.1 110 18:57 21.11.2019
4000 Clouds 6 1016 93 10000 5.7 100 18:37 21.11.2019
4001 Drizzle 6 1017 93 6000 4.6 110 18:19 21.11.2019
4002 Drizzle 6 1017 93 6000 4.6 110 17:57 21.11.2019
4003 Rain 6 1017 93 7000 4.1 110 17:38 21.11.2019
4004 Rain 7 1017 93 7000 4.1 110 17:19 21.11.2019
4005 Clouds 8 1017 87 6000 4.1 120 16:41 21.11.2019
4006 Clouds 8 1017 87 6000 4.1 120 16:21 21.11.2019
4007 Clouds 8 1016 93 6000 4.6 150 15:57 21.11.2019
4008 Mist 8 1016 93 4400 5.1 130 15:38 21.11.2019
4009 Mist 6 1016 93 4400 5.1 130 15:19 21.11.2019
4010 Mist 7 1016 93 4300 5.1 110 14:55 21.11.2019
4011 Clouds 6 1016 87 7000 5.1 110 14:36 21.11.2019
4012 Clouds 7 1016 87 7000 5.1 110 14:18 21.11.2019
4013 Clouds 7 1016 87 8000 6.7 130 13:39 21.11.2019
4014 Clouds 7 1016 87 8000 6.7 130 13:20 21.11.2019
4015 Clouds 7 1016 93 8000 5.7 120 12:56 21.11.2019
4016 Clouds 7 1016 87 8000 5.1 120 12:37 21.11.2019
4017 Clouds 7 1016 87 8000 5.1 120 12:19 21.11.2019
4018 Clouds 9 1017 93 8000 3.6 110 11:41 21.11.2019
4019 Clouds 9 1017 93 8000 3.6 110 11:41 21.11.2019
4020 Clouds 8 1017 93 8000 3.6 110 11:21 21.11.2019
4021 Mist 8 1017 100 3000 2.1 110 10:59 21.11.2019
4022 Mist 8 1018 93 2800 1.5 100 10:41 21.11.2019
4023 Mist 7 1018 100 2500 0.5 0 10:20 21.11.2019
4024 Mist 9 1018 100 2500 0.5 0 09:56 21.11.2019
4025 Mist 8 1018 100 2400 1 0 09:37 21.11.2019
4026 Mist 8 1018 100 2400 1 0 09:19 21.11.2019
4027 Rain 7 1018 100 2600 1 30 08:41 21.11.2019
4028 Rain 6 1018 100 1500 2.1 260 08:20 21.11.2019
4029 Fog 5 1018 100 800 1.5 260 07:42 21.11.2019
4030 Fog 5 1018 100 800 1.5 260 07:18 21.11.2019
4031 Fog 5 1018 93 350 1.5 350 06:57 21.11.2019
4032 Fog 5 1018 100 300 1 0 06:33 21.11.2019
4033 Fog 5 1017 100 500 1 0 05:36 21.11.2019
4034 Mist 5 1017 93 3000 1 0 03:32 21.11.2019
4035 Mist 5 1018 100 2500 2.6 120 02:41 21.11.2019
4036 Fog 5 1018 100 400 0.5 0 01:55 21.11.2019
4037 Mist 5 1018 93 4000 1 0 01:36 21.11.2019
4038 Mist 5 1018 93 5000 3.1 110 00:54 21.11.2019
4039 Mist 5 1018 100 4500 3.1 100 00:21 21.11.2019
4040 Mist 5 1018 100 5000 2.1 130 23:57 20.11.2019
4041 Mist 5 1018 93 5000 3.6 120 23:39 20.11.2019
4042 Mist 6 1018 93 5000 3.6 120 23:20 20.11.2019
4043 Clouds 8 1018 93 6000 2.6 80 22:55 20.11.2019
4044 Clouds 8 1018 100 6000 3.6 100 22:37 20.11.2019
4045 Clouds 8 1018 100 6000 3.6 100 22:37 20.11.2019
4046 Clouds 6 1018 100 6000 3.6 100 22:18 20.11.2019
4047 Clouds 6 1018 93 6000 2.1 90 21:55 20.11.2019
4048 Clouds 7 1018 87 8000 2.6 80 21:36 20.11.2019
4049 Clouds 7 1018 87 10000 2.6 120 21:18 20.11.2019
4050 Clouds 6 1018 87 10000 2.6 120 20:54 20.11.2019
4051 Clouds 6 1018 93 8000 3.6 90 20:36 20.11.2019
4052 Clouds 6 1018 93 8000 3.6 90 20:18 20.11.2019
4053 Clouds 6 1018 93 8000 3.6 90 20:18 20.11.2019
4054 Clouds 8 1018 87 8000 4.1 100 19:54 20.11.2019
4055 Clouds 8 1017 87 7000 3.1 90 19:36 20.11.2019
4056 Clouds 8 1017 87 7000 3.1 90 19:18 20.11.2019
4057 Clouds 8 1017 93 7000 3.6 110 18:40 20.11.2019
4058 Clouds 8 1017 93 7000 3.6 110 18:22 20.11.2019
4059 Rain 8 1017 93 6000 2.6 120 17:59 20.11.2019
4060 Rain 8 1017 87 6000 1.5 120 17:39 20.11.2019
4061 Rain 8 1017 87 6000 1.5 120 17:21 20.11.2019
4062 Rain 8 1017 87 6000 1.5 190 16:57 20.11.2019
4063 Mist 8 1017 93 4500 5.1 100 16:39 20.11.2019
4064 Mist 6 1017 93 4500 5.1 100 16:20 20.11.2019
4065 Rain 6 1017 93 4500 4.6 100 15:57 20.11.2019
4066 Rain 6 1017 93 4000 5.1 100 15:38 20.11.2019
4067 Rain 6 1017 93 4000 5.1 100 15:19 20.11.2019
4068 Rain 6 1017 93 3500 3.6 110 14:41 20.11.2019
4069 Rain 8 1017 93 3500 3.6 110 14:22 20.11.2019
4070 Rain 8 1017 93 3500 4.6 130 13:59 20.11.2019
4071 Drizzle 9 1017 81 6000 4.6 120 13:40 20.11.2019
4072 Drizzle 8 1017 81 6000 4.6 120 13:21 20.11.2019
4073 Clouds 8 1017 81 8000 4.6 110 12:59 20.11.2019
4074 Clouds 9 1017 81 8000 6.2 150 12:38 20.11.2019
4075 Clouds 9 1017 81 8000 6.2 150 12:38 20.11.2019
4076 Clouds 9 1017 81 8000 6.2 150 12:19 20.11.2019
4077 Clouds 9 1018 81 8000 4.6 130 11:46 20.11.2019
4078 Clouds 11 1018 81 8000 4.6 130 11:23 20.11.2019
4079 Clouds 11 1018 81 8000 5.1 130 10:58 20.11.2019
4080 Clouds 11 1019 81 8000 5.7 140 10:39 20.11.2019
4081 Clouds 11 1019 81 8000 5.7 140 10:20 20.11.2019
4082 Clouds 11 1018 81 8000 7.7 130 09:56 20.11.2019
4083 Clouds 11 1018 81 9000 8.2 130 09:37 20.11.2019
4084 Clouds 11 1018 81 9000 8.2 130 09:37 20.11.2019
4085 Clouds 11 1018 81 9000 8.2 130 09:19 20.11.2019
4086 Clouds 7 1018 81 10000 6.7 120 08:42 20.11.2019
4087 Clouds 7 1018 81 10000 6.7 120 08:24 20.11.2019
4088 Clouds 7 1018 87 10000 5.7 100 07:50 20.11.2019
4089 Clouds 7 1019 87 10000 9.3 120 07:30 20.11.2019
4090 Clouds 8 1019 81 10000 8.2 110 06:56 20.11.2019
4091 Clouds 7 1019 87 10000 5.1 100 06:37 20.11.2019
4092 Clouds 7 1019 87 10000 5.1 100 06:18 20.11.2019
4093 Clouds 8 1020 87 10000 3.6 90 04:40 20.11.2019
4094 Clouds 7 1021 87 10000 7.2 100 02:23 20.11.2019
4095 Clouds 7 1021 87 10000 6.2 110 01:35 20.11.2019
4096 Clouds 7 1022 87 10000 6.7 120 00:46 20.11.2019
4097 Clouds 7 1022 87 10000 6.7 120 00:18 20.11.2019
4098 Clouds 7 1022 87 10000 6.7 100 23:40 19.11.2019
4099 Clouds 7 1022 87 10000 6.7 100 23:22 19.11.2019
4100 Clouds 7 1022 87 10000 5.1 100 22:54 19.11.2019
4101 Clouds 7 1022 87 10000 6.2 110 22:36 19.11.2019
4102 Clouds 7 1022 87 10000 6.2 110 22:18 19.11.2019
4103 Clouds 7 1023 87 10000 7.2 110 21:54 19.11.2019
4104 Clouds 7 1023 87 10000 6.7 110 21:36 19.11.2019
4105 Clouds 7 1023 87 10000 6.7 110 21:36 19.11.2019
4106 Clouds 7 1023 87 10000 6.7 110 21:36 19.11.2019
4107 Clouds 7 1023 87 10000 6.7 110 21:18 19.11.2019
4108 Clouds 7 1023 87 10000 6.7 110 20:54 19.11.2019
4109 Clouds 7 1023 87 10000 6.7 100 20:36 19.11.2019
4110 Clouds 7 1023 87 10000 6.7 100 20:18 19.11.2019
4111 Clouds 7 1023 87 10000 6.7 100 20:18 19.11.2019
4112 Clouds 7 1023 87 10000 6.7 110 19:41 19.11.2019
4113 Clouds 6 1023 87 10000 6.7 110 19:20 19.11.2019
4114 Clouds 7 1023 81 10000 5.1 100 18:57 19.11.2019
4115 Clouds 7 1023 87 10000 3.1 130 18:39 19.11.2019
4116 Clouds 6 1023 87 10000 3.1 130 18:18 19.11.2019
4117 Clouds 7 1023 87 10000 3.6 110 17:56 19.11.2019
4118 Clouds 7 1023 87 10000 3.6 110 17:56 19.11.2019
4119 Clouds 7 1023 76 10000 4.1 130 17:37 19.11.2019
4120 Clouds 7 1023 76 10000 4.1 130 17:19 19.11.2019
4121 Clouds 7 1023 71 10000 3.6 110 16:56 19.11.2019
4122 Clouds 8 1022 66 10000 4.1 120 16:37 19.11.2019
4123 Clouds 8 1022 66 10000 4.1 110 16:18 19.11.2019
4124 Clouds 7 1023 58 10000 2.6 120 15:42 19.11.2019
4125 Clouds 9 1023 58 10000 2.6 120 15:23 19.11.2019
4126 Clouds 9 1023 54 10000 3.1 120 14:57 19.11.2019
4127 Clouds 8 1023 54 10000 3.1 100 14:39 19.11.2019
4128 Clouds 12 1023 54 10000 3.1 100 14:20 19.11.2019
4129 Clouds 10 1023 58 10000 2.6 130 13:41 19.11.2019
4130 Clouds 10 1023 67 10000 3.1 120 13:20 19.11.2019
4131 Clouds 14 1024 66 10000 2.6 120 12:42 19.11.2019
4132 Clouds 14 1024 66 10000 2.6 120 12:23 19.11.2019
4133 Clouds 14 1024 71 10000 3.1 120 11:59 19.11.2019
4134 Clouds 13 1025 76 10000 2.6 120 11:39 19.11.2019
4135 Clouds 11 1025 76 10000 2.6 120 11:20 19.11.2019
4136 Clouds 10 1025 76 10000 1.5 80 10:58 19.11.2019
4137 Clouds 9 1025 87 10000 1.5 40 10:40 19.11.2019
4138 Clouds 9 1025 87 10000 1.5 40 10:20 19.11.2019
4139 Clouds 9 1025 93 8000 1.42 126 09:42 19.11.2019
4140 Clouds 8 1025 93 8000 1.42 126 09:20 19.11.2019
4141 Clouds 8 1025 100 8000 1.42 126 08:56 19.11.2019
4142 Clouds 7 1025 100 6000 1.42 126 08:37 19.11.2019
4143 Clouds 7 1025 100 6000 1.42 126 08:37 19.11.2019
4144 Clouds 7 1025 100 6000 0.99 168 08:19 19.11.2019
4145 Mist 6 1025 100 2500 0.5 0 07:42 19.11.2019
4146 Mist 5 1025 100 2500 0.5 0 07:22 19.11.2019
4147 Mist 5 1025 100 2500 1 0 06:52 19.11.2019
4148 Mist 5 1025 100 1800 0.5 0 06:33 19.11.2019
4149 Fog 3 1024 93 800 1 280 05:44 19.11.2019
4150 Fog 3 1024 100 450 0.87 179 04:26 19.11.2019
4151 Fog 3 1024 100 350 0.5 70 03:35 19.11.2019
4152 Fog 3 1024 100 450 0.5 90 02:57 19.11.2019
4153 Fog 4 1024 100 350 1 0 02:33 19.11.2019
4154 Fog 3 1024 100 250 1 0 01:43 19.11.2019
4155 Fog 5 1023 100 800 1.5 160 00:22 19.11.2019
4156 Fog 5 1023 100 800 1.5 160 23:57 18.11.2019
4157 Fog 5 1023 100 800 1 0 23:37 18.11.2019
4158 Fog 5 1023 100 800 1 0 23:18 18.11.2019
4159 Fog 5 1023 100 800 2.1 140 22:45 18.11.2019
4160 Fog 5 1023 100 800 2.1 140 22:23 18.11.2019
4161 Fog 5 1023 100 800 1 0 21:56 18.11.2019
4162 Fog 5 1022 93 800 2.1 230 21:38 18.11.2019
4163 Fog 5 1022 93 800 2.1 230 21:20 18.11.2019
4164 Fog 5 1022 93 3000 0.5 200 20:57 18.11.2019
4165 Mist 5 1022 93 4500 2.1 110 20:38 18.11.2019
4166 Mist 5 1022 93 4500 2.1 110 20:18 18.11.2019
4167 Mist 6 1022 93 5000 2.6 130 19:55 18.11.2019
4168 Clouds 6 1022 93 6000 3.1 140 19:37 18.11.2019
4169 Clouds 6 1021 93 8000 3.1 130 19:18 18.11.2019
4170 Clouds 6 1021 93 8000 3.1 130 18:55 18.11.2019
4171 Clouds 6 1021 93 8000 2.1 110 18:36 18.11.2019
4172 Clouds 6 1021 93 8000 2.1 110 18:18 18.11.2019
4173 Clouds 6 1020 93 8000 4.6 100 17:39 18.11.2019
4174 Rain 6 1020 93 8000 4.6 100 17:20 18.11.2019
4175 Clouds 7 1020 87 10000 5.7 100 16:55 18.11.2019
4176 Clouds 7 1020 87 10000 4.6 90 16:36 18.11.2019
4177 Clouds 7 1020 87 10000 4.6 90 16:18 18.11.2019
4178 Clouds 7 1020 87 10000 6.2 100 15:55 18.11.2019
4179 Clouds 8 1020 82 10000 6.2 100 15:36 18.11.2019
4180 Clouds 10 1019 87 10000 5.7 90 15:18 18.11.2019
4181 Clouds 10 1020 82 10000 6.2 100 15:18 18.11.2019
4182 Clouds 10 1019 82 10000 5.7 100 14:41 18.11.2019
4183 Clouds 10 1019 82 10000 5.7 100 14:23 18.11.2019
4184 Clouds 10 1019 82 10000 5.7 110 13:48 18.11.2019
4185 Clouds 10 1019 82 10000 5.7 110 13:48 18.11.2019
4186 Clouds 10 1019 82 10000 5.7 110 13:28 18.11.2019
4187 Clouds 10 1019 87 10000 6.7 100 12:58 18.11.2019
4188 Clouds 9 1019 87 8000 4.1 100 12:37 18.11.2019
4189 Clouds 8 1019 87 8000 4.1 100 12:18 18.11.2019
4190 Clouds 8 1019 87 8000 6.2 110 11:44 18.11.2019
4191 Clouds 8 1019 87 8000 6.2 110 11:25 18.11.2019
4192 Clouds 12 1019 87 8000 6.2 110 10:55 18.11.2019
4193 Rain 11 1019 87 8000 7.2 120 10:37 18.11.2019
4194 Rain 9 1019 87 8000 7.2 120 10:18 18.11.2019
4195 Drizzle 11 1018 87 8000 7.7 110 09:54 18.11.2019
4196 Drizzle 11 1018 87 8000 7.7 110 09:54 18.11.2019
4197 Drizzle 11 1018 87 8000 5.7 110 09:36 18.11.2019
4198 Drizzle 9 1018 87 8000 5.7 110 09:18 18.11.2019
4199 Drizzle 9 1018 87 8000 5.7 110 09:18 18.11.2019
4200 Clouds 9 1018 87 8000 3.1 70 08:42 18.11.2019
4201 Clouds 8 1018 87 8000 3.1 70 08:20 18.11.2019
4202 Clouds 8 1018 87 8000 3.1 100 07:47 18.11.2019
4203 Clouds 8 1018 81 10000 4.1 120 07:27 18.11.2019
4204 Clouds 10 1017 87 8000 6.2 100 06:52 18.11.2019
4205 Clouds 10 1017 87 10000 5.1 110 06:32 18.11.2019
4206 Clouds 8 1017 87 10000 4.6 110 05:47 18.11.2019
4207 Clouds 7 1017 87 10000 5.1 110 04:39 18.11.2019
4208 Clouds 8 1018 87 10000 2.6 100 01:49 18.11.2019
4209 Clouds 8 1018 87 10000 2.6 100 01:31 18.11.2019
4210 Clouds 8 1018 81 10000 4.1 110 00:22 18.11.2019
4211 Clouds 7 1018 87 10000 2.1 80 23:43 17.11.2019
4212 Clouds 8 1018 87 10000 2.1 80 23:24 17.11.2019
4213 Clouds 8 1018 87 10000 1.5 90 22:58 17.11.2019
4214 Clouds 8 1018 87 10000 5.7 120 22:39 17.11.2019
4215 Clouds 8 1018 87 10000 5.7 120 22:21 17.11.2019
4216 Clouds 8 1018 87 10000 3.1 120 21:57 17.11.2019
4217 Clouds 8 1018 87 10000 3.1 120 21:57 17.11.2019
4218 Clouds 8 1019 87 10000 4.1 120 21:39 17.11.2019
4219 Clouds 8 1019 87 10000 4.1 120 21:39 17.11.2019
4220 Clouds 8 1019 87 10000 4.1 120 21:18 17.11.2019
4221 Clouds 8 1019 81 10000 2.99 126 20:55 17.11.2019
4222 Clouds 8 1019 81 10000 1 150 20:37 17.11.2019
4223 Clouds 7 1019 81 10000 2.6 140 20:18 17.11.2019
4224 Clouds 8 1019 81 10000 2.6 140 19:55 17.11.2019
4225 Clouds 8 1020 81 10000 4.6 120 19:37 17.11.2019
4226 Clouds 8 1020 81 10000 4.6 120 19:37 17.11.2019
4227 Clouds 8 1020 81 10000 4.6 120 19:37 17.11.2019
4228 Clouds 8 1020 81 10000 4.6 120 19:19 17.11.2019
4229 Clouds 8 1020 81 10000 4.1 130 18:54 17.11.2019
4230 Clouds 8 1020 81 10000 3.1 150 18:36 17.11.2019
4231 Clouds 8 1020 81 10000 3.1 150 18:18 17.11.2019
4232 Clouds 8 1020 81 10000 3.6 140 17:56 17.11.2019
4233 Clouds 8 1019 81 10000 3.6 130 17:38 17.11.2019
4234 Clouds 8 1019 81 10000 3.6 130 17:18 17.11.2019
4235 Clouds 9 1019 81 10000 4.1 130 16:55 17.11.2019
4236 Clouds 9 1019 81 8000 3.1 140 16:37 17.11.2019
4237 Clouds 9 1019 81 8000 3.1 140 16:19 17.11.2019
4238 Clouds 9 1019 87 7000 4.6 120 15:41 17.11.2019
4239 Clouds 9 1019 87 7000 4.6 120 15:19 17.11.2019
4240 Clouds 9 1019 87 7000 5.7 120 14:57 17.11.2019
4241 Clouds 10 1019 81 8000 5.1 130 14:39 17.11.2019
4242 Clouds 10 1019 81 8000 5.1 130 14:21 17.11.2019
4243 Clouds 10 1020 81 8000 5.1 130 13:59 17.11.2019
4244 Clouds 10 1020 87 8000 5.7 130 13:40 17.11.2019
4245 Clouds 9 1020 87 8000 5.7 130 13:20 17.11.2019
4246 Clouds 9 1020 81 8000 4.6 120 12:45 17.11.2019
4247 Clouds 10 1020 81 8000 4.6 120 12:24 17.11.2019
4248 Clouds 10 1021 81 10000 4.6 130 11:59 17.11.2019
4249 Clouds 10 1021 81 10000 5.1 130 11:40 17.11.2019
4250 Clouds 10 1021 81 10000 5.1 130 11:21 17.11.2019
4251 Clouds 10 1021 81 10000 6.7 120 10:58 17.11.2019
4252 Clouds 10 1021 81 10000 7.2 130 10:40 17.11.2019
4253 Clouds 10 1021 81 10000 7.2 130 10:21 17.11.2019
4254 Clouds 10 1021 81 9000 6.7 120 09:42 17.11.2019
4255 -273 0 0 0 0 0 09:23 17.11.2019
4256 Clouds 9 1021 81 8000 3.1 140 08:44 17.11.2019
4257 Clouds 9 1021 81 8000 3.1 140 08:25 17.11.2019
4258 Clouds 9 1021 81 8000 3.6 140 07:57 17.11.2019
4259 Clouds 9 1021 87 8000 2.6 110 07:39 17.11.2019
4260 Clouds 9 1021 87 8000 2.6 110 07:19 17.11.2019
4261 Clouds 8 1021 81 8000 2.6 120 06:50 17.11.2019
4262 Clouds 9 1021 81 10000 2.1 120 06:27 17.11.2019
4263 Clouds 8 1021 87 8000 2.6 170 04:50 17.11.2019
4264 Clouds 8 1021 93 8000 1 0 03:58 17.11.2019
4265 Clouds 8 1021 93 8000 1 0 03:58 17.11.2019
4266 Clouds 8 1021 93 7000 0.5 0 03:33 17.11.2019
4267 Clouds 8 1021 100 8000 0.5 0 02:41 17.11.2019
4268 Clouds 8 1022 87 7000 1.85 128 01:49 17.11.2019
4269 Clouds 8 1022 87 9000 1 0 00:57 17.11.2019
4270 Clouds 8 1022 93 10000 3.6 120 00:23 17.11.2019
4271 Clouds 8 1022 87 10000 4.1 120 23:54 16.11.2019
4272 Clouds 8 1022 87 10000 2.1 100 23:36 16.11.2019
4273 Clouds 8 1022 87 10000 2.1 100 23:18 16.11.2019
4274 Clouds 8 1022 87 10000 3.1 110 22:41 16.11.2019
4275 Clouds 8 1022 87 10000 3.1 110 22:20 16.11.2019
4276 Clouds 8 1022 93 10000 4.1 130 21:57 16.11.2019
4277 Clouds 8 1022 87 10000 2.1 120 21:38 16.11.2019
4278 Clouds 8 1022 87 10000 2.1 120 21:20 16.11.2019
4279 Clouds 9 1022 87 9000 3.1 140 20:56 16.11.2019
4280 Clouds 9 1022 93 10000 2.6 110 20:38 16.11.2019
4281 Clouds 8 1021 93 10000 2.6 120 20:18 16.11.2019
4282 Clouds 9 1021 87 8000 2.1 110 19:40 16.11.2019
4283 Clouds 9 1021 87 8000 2.1 110 19:22 16.11.2019
4284 Mist 9 1022 93 5000 2.1 120 18:47 16.11.2019
4285 Mist 9 1022 93 5000 2.1 120 18:29 16.11.2019
4286 Clouds 9 1021 87 6000 1.5 120 17:58 16.11.2019
4287 Clouds 8 1021 87 10000 1.43 146 17:39 16.11.2019
4288 Clouds 8 1021 87 10000 1.51 128 17:20 16.11.2019
4289 Clouds 9 1021 87 10000 1.51 128 16:56 16.11.2019
4290 Clouds 9 1021 76 10000 1.51 128 16:37 16.11.2019
4291 Clouds 10 1021 76 10000 1.51 128 16:18 16.11.2019
4292 Clouds 9 1021 71 10000 1 170 15:41 16.11.2019
4293 Clouds 10 1021 71 10000 1 170 15:21 16.11.2019
4294 Clouds 10 1021 67 10000 0.5 0 14:58 16.11.2019
4295 Clouds 10 1022 67 10000 1.5 220 14:39 16.11.2019
4296 Clouds 13 1022 67 10000 1.5 220 14:21 16.11.2019
4297 Clouds 12 1022 67 10000 1 0 13:56 16.11.2019
4298 Clouds 11 1022 71 10000 1 0 13:38 16.11.2019
4299 Clouds 12 1022 71 10000 1 0 13:18 16.11.2019
4300 Clouds 13 1022 71 10000 2.6 120 12:54 16.11.2019
4301 Clouds 13 1023 71 10000 1.5 120 12:36 16.11.2019
4302 Clouds 15 1023 71 10000 1.5 120 12:18 16.11.2019
4303 Clouds 12 1023 87 7000 1.5 30 11:42 16.11.2019
4304 Clouds 10 1023 87 7000 1.5 30 11:23 16.11.2019
4305 Mist 10 1024 100 5000 1 0 10:55 16.11.2019
4306 Mist 9 1024 100 4500 0.5 0 10:37 16.11.2019
4307 Mist 9 1024 100 4500 0.5 0 10:18 16.11.2019
4308 Fog 9 1024 100 250 1 0 09:40 16.11.2019
4309 Fog 8 1024 100 250 1 0 09:20 16.11.2019
4310 Fog 8 1024 100 600 1.04 144 08:56 16.11.2019
4311 Fog 7 1024 100 350 1.5 160 08:36 16.11.2019
4312 Fog 7 1024 100 350 1.5 160 08:18 16.11.2019
4313 Fog 6 1024 100 250 0.73 184 07:40 16.11.2019
4314 Fog 6 1024 100 250 0.73 184 07:18 16.11.2019
4315 Fog 6 1023 93 450 1 0 06:43 16.11.2019
4316 Fog 6 1023 93 450 1 0 06:20 16.11.2019
4317 Fog 5 1022 100 400 0.85 187 04:45 16.11.2019
4318 Fog 6 1022 100 300 0.5 0 03:26 16.11.2019
4319 Fog 6 1022 100 400 0.85 187 02:36 16.11.2019
4320 Fog 6 1022 100 400 0.85 187 02:36 16.11.2019
4321 Fog 7 1021 93 350 0.5 0 01:41 16.11.2019
4322 Fog 7 1021 93 350 0.5 0 01:41 16.11.2019
4323 Fog 7 1021 93 400 1.5 270 00:56 16.11.2019
4324 Fog 6 1021 100 350 1.5 270 00:31 16.11.2019
4325 Fog 6 1021 100 250 0.5 0 23:58 15.11.2019
4326 Fog 7 1021 93 250 1.08 187 23:38 15.11.2019
4327 Fog 7 1021 93 250 1.22 172 23:20 15.11.2019
4328 Fog 6 1021 93 250 1 0 22:40 15.11.2019
4329 Fog 6 1021 93 250 1 0 22:20 15.11.2019
4330 Fog 6 1020 100 250 1.22 172 21:58 15.11.2019
4331 Fog 6 1020 100 300 1.22 172 21:40 15.11.2019
4332 Fog 6 1020 100 300 1.22 172 21:20 15.11.2019
4333 Fog 6 1020 100 250 1 0 20:56 15.11.2019
4334 Fog 6 1020 100 250 1.5 290 20:38 15.11.2019
4335 Fog 6 1020 100 250 1.5 290 20:20 15.11.2019
4336 Fog 6 1020 100 200 1.5 360 19:57 15.11.2019
4337 Mist 6 1020 93 1500 1 300 19:38 15.11.2019
4338 Mist 6 1020 93 1500 1 300 19:19 15.11.2019
4339 Mist 6 1019 93 4000 1.31 164 18:43 15.11.2019
4340 Mist 6 1019 93 4000 1.31 164 18:25 15.11.2019
4341 Clouds 7 1019 100 6000 0.5 70 17:59 15.11.2019
4342 Clouds 7 1018 93 7000 1 0 17:40 15.11.2019
4343 Clouds 7 1018 93 7000 1 0 17:22 15.11.2019
4344 Clouds 7 1018 87 7000 1.5 100 16:56 15.11.2019
4345 Clouds 7 1018 93 7000 2.1 110 16:37 15.11.2019
4346 Clouds 9 1018 87 8000 0.5 0 16:18 15.11.2019
4347 Clouds 6 1018 81 9000 1.5 40 15:38 15.11.2019
4348 Clouds 6 1018 81 9000 1.5 40 15:38 15.11.2019
4349 Clouds 8 1018 81 9000 1.5 40 15:19 15.11.2019
4350 Clouds 7 1018 81 9000 0.5 0 14:56 15.11.2019
4351 Clouds 6 1017 87 8000 2.1 90 14:38 15.11.2019
4352 Clouds 8 1017 87 8000 2.1 90 14:19 15.11.2019
4353 Clouds 8 1017 93 6000 2.1 0 13:57 15.11.2019
4354 Clouds 11 1018 93 6000 1 0 13:38 15.11.2019
4355 Clouds 11 1018 93 6000 1 0 13:20 15.11.2019
4356 Clouds 13 1018 87 6000 1 0 12:57 15.11.2019
4357 Clouds 13 1018 87 6000 0.54 148 12:38 15.11.2019
4358 Clouds 12 1018 87 6000 0.54 148 12:19 15.11.2019
4359 Clouds 11 1018 93 6000 1.5 40 11:55 15.11.2019
4360 Clouds 11 1018 93 6000 1.5 40 11:55 15.11.2019
4361 Clouds 10 1018 93 6000 0.54 148 11:37 15.11.2019
4362 Clouds 9 1018 93 6000 0.57 229 11:19 15.11.2019
4363 Clouds 8 1018 93 6000 1.5 10 10:39 15.11.2019
4364 Clouds 8 1018 93 6000 1.5 10 10:39 15.11.2019
4365 Clouds 8 1018 93 6000 1.5 10 10:21 15.11.2019
4366 Clouds 8 1018 93 6000 1 0 09:56 15.11.2019
4367 -273 0 0 0 0 0 09:56 15.11.2019
4368 Clouds 7 1018 93 6000 2.6 80 09:38 15.11.2019
4369 Clouds 7 1018 93 6000 2.6 80 09:18 15.11.2019
4370 Mist 7 1017 100 4200 0.5 0 08:42 15.11.2019
4371 Mist 5 1017 100 4200 0.5 0 08:21 15.11.2019
4372 Clouds 5 1017 93 7000 0.5 0 07:45 15.11.2019
4373 Clouds 5 1017 93 7000 0.5 0 07:26 15.11.2019
4374 Clouds 5 1016 93 6000 2.1 120 06:36 15.11.2019
4375 Mist 5 1015 100 5000 2.6 90 05:57 15.11.2019
4376 Clouds 5 1015 100 6000 2.1 90 05:38 15.11.2019
4377 Mist 4 1015 100 5000 1.5 110 04:55 15.11.2019
4378 Clouds 5 1014 100 10000 1.19 254 03:44 15.11.2019
4379 Clouds 5 1014 100 6000 0.5 0 02:37 15.11.2019
4380 Clouds 5 1014 100 6000 2.1 340 01:57 15.11.2019
4381 Clouds 5 1014 100 6000 2.1 340 01:57 15.11.2019
4382 Mist 4 1013 100 3500 1.5 360 01:32 15.11.2019
4383 Mist 4 1013 100 3500 1.5 360 01:32 15.11.2019
4384 Fog 5 1013 100 900 1.65 261 00:41 15.11.2019
4385 Fog 5 1013 100 900 1.65 261 00:41 15.11.2019
4386 Fog 5 1013 100 900 1.65 261 00:23 15.11.2019
4387 Mist 5 1013 100 2500 2.1 200 23:46 14.11.2019
4388 Mist 5 1013 100 2500 2.1 200 23:26 14.11.2019
4389 Mist 5 1012 93 3500 1.5 270 22:42 14.11.2019
4390 Mist 5 1012 93 3500 1.5 270 22:23 14.11.2019
4391 Mist 5 1012 100 1800 1 0 21:59 14.11.2019
4392 Fog 5 1012 100 300 1.67 260 21:40 14.11.2019
4393 Fog 5 1012 100 300 1.67 260 21:22 14.11.2019
4394 Fog 5 1012 100 400 1 0 20:55 14.11.2019
4395 Fog 5 1012 100 250 2.1 160 20:37 14.11.2019
4396 Fog 5 1012 100 250 2.1 160 20:19 14.11.2019
4397 Fog 6 1011 100 2500 1.5 50 19:55 14.11.2019
4398 Fog 6 1011 93 3000 0.5 60 19:36 14.11.2019
4399 Mist 8 1011 100 2400 1.5 180 19:18 14.11.2019
4400 Drizzle 9 1011 93 2500 1.5 150 18:42 14.11.2019
4401 Drizzle 9 1011 93 2500 1.5 150 18:23 14.11.2019
4402 Rain 9 1011 100 4000 1 0 17:57 14.11.2019
4403 Rain 9 1011 93 3600 0.5 0 17:38 14.11.2019
4404 Mist 9 1011 100 5000 1 352 17:20 14.11.2019
4405 Mist 9 1011 100 5000 1 352 16:58 14.11.2019
4406 Mist 9 1011 100 3100 1 352 16:37 14.11.2019
4407 Mist 9 1011 100 3100 1 352 16:37 14.11.2019
4408 Mist 9 1011 100 3100 1 352 16:19 14.11.2019
4409 Rain 9 1011 100 3000 1.5 270 15:58 14.11.2019
4410 Rain 9 1011 100 2000 1.5 300 15:38 14.11.2019
4411 Rain 9 1011 100 2000 1.5 300 15:20 14.11.2019
4412 Rain 10 1011 93 1600 1.5 300 14:46 14.11.2019
4413 Rain 9 1011 93 1600 1.5 300 14:23 14.11.2019
4414 Rain 9 1011 93 2000 1.5 300 13:58 14.11.2019
4415 Rain 9 1011 93 2500 1 0 13:39 14.11.2019
4416 Rain 9 1011 93 2500 1 0 13:20 14.11.2019
4417 Rain 9 1011 93 2500 1 0 12:56 14.11.2019
4418 Rain 9 1011 93 3000 0.67 128 12:37 14.11.2019
4419 Rain 9 1011 93 3000 1 0 12:19 14.11.2019
4420 Rain 9 1011 93 3000 1 0 11:54 14.11.2019
4421 Rain 9 1011 93 2500 1.5 330 11:36 14.11.2019
4422 Rain 9 1011 93 2500 1.5 330 11:18 14.11.2019
4423 Rain 8 1012 100 2000 2.6 350 10:41 14.11.2019
4424 Rain 10 1012 100 2000 2.6 350 10:20 14.11.2019
4425 Rain 10 1012 93 2000 2.1 320 09:57 14.11.2019
4426 Rain 10 1012 100 2500 1.5 310 09:39 14.11.2019
4427 Rain 8 1012 100 3000 1.5 180 09:21 14.11.2019
4428 Rain 8 1012 100 3000 1.5 180 08:48 14.11.2019
4429 Rain 8 1012 100 3000 1.5 180 08:26 14.11.2019
4430 Rain 8 1011 93 2000 1 0 07:57 14.11.2019
4431 Rain 8 1012 93 2000 1 0 07:38 14.11.2019
4432 Rain 8 1012 93 2000 1 0 07:19 14.11.2019
4433 Rain 8 1012 93 6000 0.5 330 06:43 14.11.2019
4434 Rain 8 1012 93 6000 0.5 330 06:19 14.11.2019
4435 Mist 7 1011 100 5000 2.6 50 04:42 14.11.2019
4436 Mist 7 1011 100 5000 2.6 50 04:23 14.11.2019
4437 Mist 6 1011 100 3000 1 100 02:47 14.11.2019
4438 Fog 7 1011 93 4000 1 0 02:25 14.11.2019
4439 Mist 6 1012 100 4000 1 110 01:33 14.11.2019
4440 Mist 6 1012 93 4000 1.5 150 00:53 14.11.2019
4441 Mist 6 1012 93 4000 1.5 150 00:30 14.11.2019
4442 Mist 7 1012 93 5000 0.79 239 23:42 13.11.2019
4443 Mist 7 1012 93 5000 1.44 230 23:23 13.11.2019
4444 Mist 7 1012 93 5000 1 0 22:57 13.11.2019
4445 Clouds 7 1011 93 7000 2.6 90 22:39 13.11.2019
4446 Clouds 6 1011 93 7000 2.6 90 22:21 13.11.2019
4447 Mist 6 1012 93 5000 1 0 21:56 13.11.2019
4448 Clouds 6 1011 87 7000 2.6 180 21:38 13.11.2019
4449 Clouds 7 1011 87 7000 2.6 180 21:19 13.11.2019
4450 Clouds 7 1011 93 7000 0.5 0 20:57 13.11.2019
4451 Clouds 7 1011 87 8000 0.5 0 20:37 13.11.2019
4452 Clouds 7 1011 87 8000 0.5 0 20:37 13.11.2019
4453 Clouds 7 1011 87 8000 0.5 0 20:37 13.11.2019
4454 Clouds 7 1011 87 8000 0.5 0 20:19 13.11.2019
4455 Clouds 7 1011 93 7000 1.5 160 19:56 13.11.2019
4456 Clouds 7 1011 93 9000 2.1 90 19:37 13.11.2019
4457 Clouds 8 1011 93 9000 2.1 90 19:18 13.11.2019
4458 Clouds 8 1011 81 10000 1.5 60 18:54 13.11.2019
4459 Clouds 8 1011 81 10000 1.5 60 18:54 13.11.2019
4460 Clouds 9 1010 81 10000 0.5 0 18:36 13.11.2019
4461 Clouds 9 1010 81 10000 0.5 0 18:18 13.11.2019
4462 Clouds 9 1010 81 10000 0.5 0 18:18 13.11.2019
4463 Clouds 8 1010 81 10000 2.6 80 17:40 13.11.2019
4464 Clouds 8 1010 81 10000 2.6 80 17:22 13.11.2019
4465 Clouds 9 1010 76 10000 3.6 90 16:59 13.11.2019
4466 Clouds 9 1009 71 10000 5.1 90 16:40 13.11.2019
4467 Clouds 9 1009 71 10000 5.1 90 16:40 13.11.2019
4468 Clouds 9 1009 71 10000 5.1 90 16:40 13.11.2019
4469 Clouds 9 1009 71 10000 5.1 90 16:40 13.11.2019
4470 Clouds 11 1009 71 10000 5.1 90 16:21 13.11.2019
4471 Clouds 11 1009 72 10000 6.7 100 15:58 13.11.2019
4472 Clouds 11 1009 72 10000 7.2 110 15:40 13.11.2019
4473 Clouds 11 1009 72 10000 7.2 110 15:22 13.11.2019
4474 Clouds 11 1009 72 10000 7.2 110 14:57 13.11.2019
4475 Clouds 11 1009 72 10000 7.2 110 14:37 13.11.2019
4476 Clouds 12 1009 72 10000 7.2 110 14:19 13.11.2019
4477 Clouds 11 1009 67 10000 1 0 13:37 13.11.2019
4478 Clouds 12 1010 67 10000 4.1 140 13:19 13.11.2019
4479 Clouds 12 1010 67 10000 4.1 140 12:58 13.11.2019
4480 Clouds 12 1010 67 10000 4.6 150 12:38 13.11.2019
4481 Clouds 11 1010 67 10000 4.6 150 12:19 13.11.2019
4482 Clouds 10 1010 76 10000 3.1 110 11:41 13.11.2019
4483 Clouds 10 1010 76 10000 3.1 110 11:21 13.11.2019
4484 Clouds 11 1010 76 10000 3.6 110 10:59 13.11.2019
4485 Clouds 11 1010 82 10000 3.1 60 10:41 13.11.2019
4486 Clouds 10 1010 82 10000 3.1 60 10:21 13.11.2019
4487 Clouds 10 1010 82 10000 3.6 80 09:59 13.11.2019
4488 Clouds 10 1010 82 10000 4.1 120 09:39 13.11.2019
4489 Clouds 10 1010 82 10000 4.1 120 09:20 13.11.2019
4490 Clouds 10 1010 82 10000 4.1 120 09:20 13.11.2019
4491 Clouds 10 1010 76 10000 4.6 100 08:40 13.11.2019
4492 Clouds 10 1010 76 10000 4.6 100 08:21 13.11.2019
4493 Clouds 10 1010 81 10000 5.1 120 07:43 13.11.2019
4494 Clouds 10 1010 81 10000 5.1 120 07:22 13.11.2019
4495 Clouds 10 1009 81 10000 6.2 110 06:47 13.11.2019
4496 Clouds 9 1009 81 10000 6.2 110 06:20 13.11.2019
4497 Clouds 9 1009 81 10000 6.2 110 06:20 13.11.2019
4498 Clouds 9 1009 81 10000 6.2 110 06:19 13.11.2019
4499 Clouds 9 1009 81 10000 6.2 110 06:19 13.11.2019
4500 Clouds 9 1009 81 10000 5.1 130 05:57 13.11.2019
4501 Clouds 9 1008 76 10000 10.3 120 05:38 13.11.2019
4502 Clouds 9 1009 82 10000 7.7 130 04:44 13.11.2019
4503 Clouds 10 1009 82 10000 8.2 110 03:23 13.11.2019
4504 Clouds 9 1010 82 10000 4.6 120 01:46 13.11.2019
4505 Clouds 9 1011 82 10000 6.7 140 01:18 13.11.2019
4506 Clouds 9 1011 76 10000 5.1 130 00:37 13.11.2019
4507 Clouds 10 1012 76 10000 6.2 130 23:42 12.11.2019
4508 Clouds 10 1012 76 10000 6.2 130 23:22 12.11.2019
4509 Clouds 10 1012 82 10000 9.3 140 22:58 12.11.2019
4510 Clouds 10 1012 76 10000 7.2 130 22:40 12.11.2019
4511 Clouds 10 1012 82 10000 5.7 140 22:18 12.11.2019
4512 Clouds 10 1013 82 10000 3.6 140 21:44 12.11.2019
4513 Clouds 10 1013 82 10000 3.6 140 21:25 12.11.2019
4514 Clouds 10 1013 82 8000 5.1 110 20:58 12.11.2019
4515 Clouds 10 1013 82 10000 5.7 130 20:38 12.11.2019
4516 Clouds 10 1013 82 10000 5.7 130 20:19 12.11.2019
4517 Clouds 11 1013 77 10000 8.7 120 19:58 12.11.2019
4518 Clouds 11 1013 77 10000 7.2 120 19:39 12.11.2019
4519 Clouds 11 1013 77 10000 7.2 120 19:19 12.11.2019
4520 Clouds 11 1013 77 10000 8.2 120 18:59 12.11.2019
4521 Clouds 11 1013 82 9000 5.1 90 18:40 12.11.2019
4522 Clouds 11 1013 82 9000 5.1 90 18:40 12.11.2019
4523 Clouds 11 1013 82 9000 5.1 90 18:22 12.11.2019
4524 Clouds 11 1013 82 9000 5.1 90 18:22 12.11.2019
4525 Clouds 11 1013 82 10000 5.7 100 17:57 12.11.2019
4526 Clouds 11 1013 76 10000 4.6 90 17:39 12.11.2019
4527 Clouds 11 1013 76 10000 4.6 90 17:21 12.11.2019
4528 Clouds 11 1013 76 10000 4.6 90 17:21 12.11.2019
4529 Clouds 11 1013 76 10000 3.6 100 16:57 12.11.2019
4530 Clouds 11 1014 72 10000 4.1 140 16:39 12.11.2019
4531 Clouds 12 1014 72 10000 4.1 140 16:20 12.11.2019
4532 Clouds 11 1014 67 10000 6.7 130 15:41 12.11.2019
4533 Clouds 11 1014 67 10000 6.7 130 15:21 12.11.2019
4534 Clouds 11 1014 67 10000 7.2 140 14:56 12.11.2019
4535 Clouds 11 1014 67 10000 7.2 140 14:56 12.11.2019
4536 Clouds 12 1014 63 10000 6.7 110 14:37 12.11.2019
4537 Clouds 14 1014 67 10000 8.7 110 14:18 12.11.2019
4538 Clouds 14 1014 67 10000 8.7 110 13:56 12.11.2019
4539 Clouds 15 1015 63 10000 8.2 140 13:36 12.11.2019
4540 Clouds 15 1015 63 10000 8.2 140 13:18 12.11.2019
4541 Clouds 14 1015 67 10000 8.7 110 12:42 12.11.2019
4542 Clouds 14 1015 67 10000 8.7 110 12:42 12.11.2019
4543 Clouds 14 1015 72 10000 10.8 120 12:19 12.11.2019
4544 Clouds 13 1015 72 10000 10.8 120 11:58 12.11.2019
4545 Clouds 13 1016 77 10000 8.7 140 11:39 12.11.2019
4546 Clouds 14 1016 72 10000 6.7 130 11:21 12.11.2019
4547 Clouds 13 1016 72 10000 6.7 130 10:56 12.11.2019
4548 Clouds 13 1016 77 10000 7.2 130 10:37 12.11.2019
4549 Clouds 13 1016 77 10000 7.2 130 10:19 12.11.2019
4550 Clouds 12 1017 82 8000 6.7 110 09:40 12.11.2019
4551 Clouds 12 1017 82 8000 6.7 110 09:21 12.11.2019
4552 Clouds 11 1017 87 8000 7.7 120 08:52 12.11.2019
4553 Clouds 11 1017 82 8000 4.1 110 08:30 12.11.2019
4554 Clouds 9 1017 87 6000 1 140 07:45 12.11.2019
4555 Clouds 9 1017 87 6000 1 140 07:26 12.11.2019
4556 Clouds 8 1017 87 6000 1 0 06:58 12.11.2019
4557 Clouds 8 1016 87 6000 1.5 130 06:39 12.11.2019
4558 Clouds 8 1016 87 6000 1.5 130 06:21 12.11.2019
4559 Clouds 7 1017 93 6000 2.6 20 05:43 12.11.2019
4560 Clouds 8 1017 93 6000 1.5 190 04:41 12.11.2019
4561 Mist 7 1017 93 4500 0.5 0 03:30 12.11.2019
4562 Clouds 7 1017 93 10000 1 0 01:42 12.11.2019
4563 Clouds 6 1017 93 10000 1 0 01:20 12.11.2019
4564 Clouds 7 1017 87 10000 1 0 00:46 12.11.2019
4565 Clouds 6 1017 87 10000 1 0 00:22 12.11.2019
4566 Clouds 6 1017 87 10000 2.6 80 23:43 11.11.2019
4567 Clouds 6 1017 87 10000 2.6 80 23:22 11.11.2019
4568 Clouds 5 1017 93 10000 3.1 130 22:40 11.11.2019
4569 Clouds 5 1017 93 10000 3.1 130 22:21 11.11.2019
4570 Clouds 5 1017 87 10000 2.6 110 21:59 11.11.2019
4571 Clouds 5 1017 87 10000 3.1 130 21:40 11.11.2019
4572 Clouds 5 1017 87 10000 3.1 130 21:22 11.11.2019
4573 Clouds 6 1018 87 7000 3.1 150 20:59 11.11.2019
4574 Clouds 6 1018 87 7000 3.1 150 20:59 11.11.2019
4575 Clouds 6 1018 87 7000 2.6 160 20:41 11.11.2019
4576 Clouds 6 1018 87 7000 2.6 160 20:20 11.11.2019
4577 Clouds 6 1018 87 8000 3.1 120 19:56 11.11.2019
4578 Clouds 5 1018 93 7000 3.1 90 19:38 11.11.2019
4579 Clouds 6 1018 93 7000 3.1 90 19:18 11.11.2019
4580 Clouds 6 1018 93 7000 3.1 90 19:18 11.11.2019
4581 Clouds 6 1017 87 7000 1 0 18:41 11.11.2019
4582 Clouds 6 1017 87 7000 1 0 18:21 11.11.2019
4583 Clouds 7 1018 81 7000 1 0 17:59 11.11.2019
4584 Clouds 7 1018 81 8000 2.6 110 17:40 11.11.2019
4585 Clouds 7 1018 81 8000 2.6 110 17:22 11.11.2019
4586 Clouds 8 1017 81 10000 1.5 80 16:39 11.11.2019
4587 Clouds 8 1017 81 10000 1.5 80 16:20 11.11.2019
4588 Clouds 8 1017 81 10000 1.5 80 16:20 11.11.2019
4589 Clouds 8 1018 71 8000 1 0 15:57 11.11.2019
4590 Clouds 9 1018 71 8000 1.5 310 15:38 11.11.2019
4591 Clouds 9 1018 71 8000 1.5 310 15:19 11.11.2019
4592 Clouds 8 1018 76 7000 1.5 270 14:42 11.11.2019
4593 Clouds 14 1018 76 7000 1.5 270 14:24 11.11.2019
4594 Clouds 12 1018 71 7000 1.5 290 13:57 11.11.2019
4595 Clouds 11 1018 81 6000 2.1 300 13:37 11.11.2019
4596 Clouds 11 1018 81 6000 2.1 300 13:19 11.11.2019
4597 Mist 13 1019 93 5000 0.5 0 12:56 11.11.2019
4598 Mist 14 1019 100 3000 1.5 360 12:38 11.11.2019
4599 Mist 14 1019 100 3000 1.5 360 12:19 11.11.2019
4600 Mist 12 1019 100 1400 1 0 11:41 11.11.2019
4601 Mist 10 1020 100 1500 1 0 11:21 11.11.2019
4602 Mist 8 1020 100 1000 1.5 250 10:44 11.11.2019
4603 Fog 7 1020 93 400 1.5 270 10:20 11.11.2019
4604 Mist 8 1020 100 1000 1.5 250 10:20 11.11.2019
4605 Fog 6 1020 93 400 1.5 270 09:59 11.11.2019
4606 Fog 5 1020 100 300 0.5 0 09:41 11.11.2019
4607 Fog 5 1020 100 300 0.5 0 09:21 11.11.2019
4608 Fog 4 1020 100 350 2.1 130 08:43 11.11.2019
4609 Fog 4 1020 100 350 2.1 130 08:23 11.11.2019
4610 Fog 4 1020 100 300 2.1 70 07:57 11.11.2019
4611 Fog 4 1020 100 300 2.1 70 07:57 11.11.2019
4612 Fog 4 1020 93 250 0.36 235 07:39 11.11.2019
4613 Fog 3 1020 93 250 0.36 235 07:19 11.11.2019
4614 Fog 3 1020 100 250 1.5 330 06:56 11.11.2019
4615 Fog 3 1019 100 300 1.5 360 06:37 11.11.2019
4616 Fog 3 1019 100 400 1 0 06:19 11.11.2019
4617 Fog 3 1019 100 350 1 0 05:43 11.11.2019
4618 Fog 3 1019 100 300 1.16 258 03:27 11.11.2019
4619 Fog 3 1018 100 350 1 0 02:33 11.11.2019
4620 Fog 3 1018 100 900 1 20 01:58 11.11.2019
4621 Fog 3 1018 100 400 1.5 140 01:36 11.11.2019
4622 Mist 3 1018 100 1500 1.35 244 00:54 11.11.2019
4623 Mist 4 1018 93 5000 1.5 150 00:33 11.11.2019
4624 Clouds 4 1017 93 10000 1.5 20 23:58 10.11.2019
4625 Clouds 5 1017 93 7000 1.5 310 23:37 10.11.2019
4626 Clouds 5 1017 93 7000 1.5 310 23:19 10.11.2019
4627 Mist 5 1017 100 5000 1 0 22:55 10.11.2019
4628 Mist 5 1017 100 5000 1 0 22:55 10.11.2019
4629 Clouds 5 1017 93 8000 1.67 252 22:37 10.11.2019
4630 Clouds 5 1017 93 8000 1.67 252 22:18 10.11.2019
4631 Clouds 5 1016 93 10000 1 0 21:55 10.11.2019
4632 Smoke 5 1016 93 10000 1.67 252 21:36 10.11.2019
4633 Smoke 5 1016 93 10000 1.67 252 21:36 10.11.2019
4634 Smoke 5 1016 93 10000 1.67 252 21:18 10.11.2019
4635 Clear 6 1015 93 10000 2.6 290 20:40 10.11.2019
4636 Clear 6 1015 93 10000 2.6 290 20:22 10.11.2019
4637 Clouds 7 1015 87 10000 3.1 340 19:56 10.11.2019
4638 Clouds 7 1014 81 10000 2.1 10 19:37 10.11.2019
4639 Clouds 8 1014 71 10000 1.5 310 19:18 10.11.2019
4640 Clouds 8 1014 71 10000 1.5 310 18:56 10.11.2019
4641 Clouds 8 1014 71 10000 1.5 310 18:56 10.11.2019
4642 Thunderstorm 7 1015 81 10000 4.1 290 18:38 10.11.2019
4643 Thunderstorm 7 1015 81 10000 4.1 290 18:19 10.11.2019
4644 Rain 8 1014 81 8000 6.2 290 17:56 10.11.2019
4645 Rain 8 1012 81 10000 4.6 110 17:37 10.11.2019
4646 Rain 8 1012 81 10000 4.6 110 17:19 10.11.2019
4647 Clouds 9 1012 76 10000 4.1 90 16:56 10.11.2019
4648 Clouds 9 1011 76 10000 3.1 90 16:37 10.11.2019
4649 Clouds 9 1011 76 10000 3.1 90 16:37 10.11.2019
4650 Clouds 11 1011 76 10000 3.1 90 16:19 10.11.2019
4651 Clouds 9 1011 71 10000 6.7 110 15:54 10.11.2019
4652 Clouds 10 1011 71 10000 7.2 110 15:36 10.11.2019
4653 Clouds 10 1011 71 10000 7.2 110 15:18 10.11.2019
4654 Clouds 10 1011 67 10000 6.7 120 14:40 10.11.2019
4655 Clouds 12 1011 67 10000 6.7 120 14:22 10.11.2019
4656 Clouds 12 1011 67 10000 6.2 120 13:56 10.11.2019
4657 Clouds 12 1011 72 10000 4.6 110 13:38 10.11.2019
4658 Clouds 11 1011 72 10000 4.6 110 13:19 10.11.2019
4659 Rain 10 1011 71 10000 3.1 70 12:42 10.11.2019
4660 Rain 10 1011 71 10000 3.1 70 12:20 10.11.2019
4661 Rain 10 1011 71 10000 3.1 70 12:20 10.11.2019
4662 Clouds 11 1012 67 10000 2.1 310 11:57 10.11.2019
4663 Clouds 11 1012 67 10000 2.6 270 11:38 10.11.2019
4664 Clouds 10 1012 67 10000 2.6 270 11:20 10.11.2019
4665 Clouds 11 1012 67 10000 1.5 180 10:55 10.11.2019
4666 Clouds 11 1012 67 10000 1.5 180 10:55 10.11.2019
4667 Clouds 12 1012 67 10000 2.6 180 10:37 10.11.2019
4668 Clouds 12 1012 67 10000 2.6 180 10:18 10.11.2019
4669 Rain 11 1011 76 10000 2.6 100 09:41 10.11.2019
4670 Rain 11 1011 76 10000 2.6 100 09:22 10.11.2019
4671 Clouds 10 1011 87 10000 2.6 90 08:40 10.11.2019
4672 Clouds 8 1011 87 10000 2.6 90 08:21 10.11.2019
4673 Clouds 8 1011 87 10000 2.1 70 07:53 10.11.2019
4674 Clouds 7 1011 87 10000 2.1 140 07:34 10.11.2019
4675 Clouds 7 1011 87 10000 0.5 0 06:59 10.11.2019
4676 Clouds 6 1012 93 8000 0.5 0 06:22 10.11.2019
4677 Clear 6 1012 93 8000 1.5 270 04:45 10.11.2019
4678 Fog 5 1012 100 5000 2.6 120 02:51 10.11.2019
4679 Clouds 6 1013 93 10000 1.5 190 01:41 10.11.2019
4680 Clouds 6 1013 93 10000 1.5 190 01:18 10.11.2019
4681 Clouds 6 1013 93 10000 2.6 130 00:37 10.11.2019
4682 Clouds 7 1013 81 10000 1 0 23:42 09.11.2019
4683 Clouds 7 1013 81 10000 1 0 23:20 09.11.2019
4684 Clouds 7 1014 81 10000 1.5 220 22:54 09.11.2019
4685 Clouds 7 1014 87 10000 2.1 120 22:36 09.11.2019
4686 Clouds 7 1014 87 10000 2.1 120 22:18 09.11.2019
4687 Clouds 7 1014 93 10000 1.5 200 21:54 09.11.2019
4688 Clouds 7 1014 87 10000 1.5 0 21:36 09.11.2019
4689 Clouds 7 1014 87 10000 1.5 0 21:18 09.11.2019
4690 Clouds 8 1014 81 10000 3.6 120 20:41 09.11.2019
4691 Clouds 8 1014 81 10000 3.6 120 20:41 09.11.2019
4692 Clouds 8 1014 81 10000 3.6 120 20:21 09.11.2019
4693 Clouds 8 1014 81 10000 2.6 110 19:55 09.11.2019
4694 Clouds 7 1015 87 10000 3.1 90 19:36 09.11.2019
4695 Clouds 7 1015 87 10000 3.1 90 19:18 09.11.2019
4696 Clouds 8 1015 76 10000 4.1 90 18:39 09.11.2019
4697 Clouds 8 1015 76 10000 4.1 90 18:19 09.11.2019
4698 Clouds 8 1015 76 10000 5.7 100 17:56 09.11.2019
4699 Clouds 9 1015 71 10000 3.6 60 17:37 09.11.2019
4700 Clouds 11 1015 71 10000 3.6 60 17:18 09.11.2019
4701 Clouds 11 1014 63 10000 4.6 130 16:42 09.11.2019
4702 Clouds 11 1014 63 10000 4.6 130 16:21 09.11.2019
4703 Clouds 12 1014 59 10000 4.1 120 15:54 09.11.2019
4704 Clouds 9 1014 55 10000 5.1 130 15:36 09.11.2019
4705 Clouds 12 1014 55 10000 5.1 130 15:18 09.11.2019
4706 Clouds 13 1014 48 10000 4.1 110 14:41 09.11.2019
4707 Clouds 18 1014 48 10000 4.1 110 14:20 09.11.2019
4708 Clouds 18 1015 55 10000 2.6 120 13:57 09.11.2019
4709 Clouds 18 1015 59 10000 2.1 0 13:36 09.11.2019
4710 Clouds 15 1015 59 10000 2.1 0 13:18 09.11.2019
4711 Clouds 17 1016 63 10000 1 0 12:44 09.11.2019
4712 Clouds 17 1016 63 10000 1 0 12:25 09.11.2019
4713 Clouds 15 1016 67 10000 2.1 290 11:56 09.11.2019
4714 Clouds 14 1016 67 10000 2.6 290 11:38 09.11.2019
4715 Clouds 13 1016 67 10000 2.6 290 11:18 09.11.2019
4716 Clouds 12 1017 76 10000 1 0 10:41 09.11.2019
4717 Clouds 11 1017 76 10000 1 0 10:19 09.11.2019
4718 Clouds 11 1017 76 10000 0.5 0 09:57 09.11.2019
4719 Clouds 11 1017 76 10000 0.5 0 09:56 09.11.2019
4720 Clouds 12 1017 81 10000 1 0 09:38 09.11.2019
4721 Clouds 10 1017 81 10000 1 0 09:18 09.11.2019
4722 Clouds 9 1017 93 10000 1.5 120 08:43 09.11.2019
4723 Clouds 8 1017 93 10000 1.5 120 08:24 09.11.2019
4724 Clouds 7 1017 93 7000 1.5 70 07:46 09.11.2019
4725 Clouds 7 1017 93 7000 1.5 70 07:24 09.11.2019
4726 Fog 7 1017 100 6000 1 70 06:50 09.11.2019
4727 Fog 7 1016 100 6000 2.1 100 06:32 09.11.2019
4728 Mist 6 1016 93 1200 1.5 120 05:53 09.11.2019
4729 Fog 6 1016 100 400 2.6 120 05:34 09.11.2019
4730 Fog 6 1016 100 3000 2.1 130 03:57 09.11.2019
4731 Mist 6 1015 100 1600 1 0 02:45 09.11.2019
4732 Fog 7 1015 93 5000 1 0 01:57 09.11.2019
4733 Mist 7 1015 93 2400 1.5 0 00:56 09.11.2019
4734 Mist 7 1015 93 3000 1 0 00:36 09.11.2019
4735 Mist 7 1015 100 5000 1.36 231 23:58 08.11.2019
4736 Clouds 7 1014 93 7000 2.1 110 23:40 08.11.2019
4737 Clouds 7 1014 93 7000 2.1 110 23:20 08.11.2019
4738 Clear 7 1014 93 8000 1.5 30 22:48 08.11.2019
4739 Clear 7 1014 93 8000 1.5 30 22:48 08.11.2019
4740 Clear 7 1014 93 9000 1 0 22:22 08.11.2019
4741 Clouds 7 1014 93 10000 2.1 0 21:57 08.11.2019
4742 Clouds 7 1014 93 10000 1.33 232 21:39 08.11.2019
4743 Clouds 7 1014 93 10000 1.33 232 21:19 08.11.2019
4744 Clouds 8 1013 87 10000 2.1 330 20:43 08.11.2019
4745 Clouds 9 1013 87 10000 2.1 330 20:22 08.11.2019
4746 Clouds 9 1013 87 10000 2.1 330 20:22 08.11.2019
4747 Clouds 8 1013 82 10000 1 0 19:59 08.11.2019
4748 Clear 8 1012 87 10000 2.6 80 19:39 08.11.2019
4749 Clear 8 1012 87 10000 2.6 80 19:19 08.11.2019
4750 Clouds 8 1013 76 10000 1.5 360 18:56 08.11.2019
4751 Clouds 8 1012 76 10000 1.5 100 18:38 08.11.2019
4752 Clouds 10 1012 76 10000 1.5 100 18:20 08.11.2019
4753 Clouds 8 1012 77 10000 3.6 100 17:56 08.11.2019
4754 Clouds 8 1012 77 10000 3.6 100 17:56 08.11.2019
4755 Clouds 9 1012 77 10000 2.6 40 17:37 08.11.2019
4756 Clouds 12 1012 77 10000 2.6 40 17:19 08.11.2019
4757 Clouds 12 1012 77 10000 2.6 40 17:19 08.11.2019
4758 Clouds 13 1011 77 10000 3.6 100 16:58 08.11.2019
4759 Clouds 13 1011 77 10000 2.1 80 16:39 08.11.2019
4760 Clouds 13 1011 77 10000 2.1 80 16:20 08.11.2019
4761 Clouds 13 1011 72 10000 1.5 90 15:58 08.11.2019
4762 Clouds 14 1011 72 10000 1 0 15:40 08.11.2019
4763 Clouds 14 1011 72 10000 1 0 15:21 08.11.2019
4764 Clouds 14 1011 72 10000 2.1 120 14:56 08.11.2019
4765 Clouds 15 1011 72 10000 3.1 130 14:37 08.11.2019
4766 Clouds 15 1011 72 10000 3.1 130 14:18 08.11.2019
4767 Clouds 15 1011 72 10000 3.1 130 14:18 08.11.2019
4768 Rain 14 1011 77 10000 1.5 130 13:57 08.11.2019
4769 Rain 14 1011 77 10000 1.5 130 13:57 08.11.2019
4770 Rain 15 1011 67 10000 1.5 140 13:38 08.11.2019
4771 Rain 15 1011 67 10000 1.5 140 13:38 08.11.2019
4772 Clouds 15 1011 67 10000 1.5 120 13:19 08.11.2019
4773 Clouds 15 1011 67 10000 1.5 150 12:42 08.11.2019
4774 Clouds 14 1011 67 10000 1.5 150 12:24 08.11.2019
4775 Clouds 14 1011 67 10000 2.6 130 11:57 08.11.2019
4776 Clouds 13 1011 72 10000 1.5 180 11:38 08.11.2019
4777 Clouds 14 1011 72 10000 1.5 180 11:20 08.11.2019
4778 Clouds 14 1012 72 10000 3.1 150 10:56 08.11.2019
4779 Clouds 12 1011 77 10000 6.2 120 10:38 08.11.2019
4780 Clouds 14 1011 77 10000 6.2 120 10:20 08.11.2019
4781 Clouds 15 1011 82 10000 6.2 110 09:41 08.11.2019
4782 Clouds 15 1011 82 10000 6.2 110 09:20 08.11.2019
4783 Clouds 15 1011 82 10000 6.2 110 08:58 08.11.2019
4784 Clouds 14 1011 87 10000 5.7 110 08:37 08.11.2019
4785 Clouds 14 1011 87 10000 5.7 110 08:18 08.11.2019
4786 Clouds 13 1011 87 10000 4.6 100 07:40 08.11.2019
4787 Clouds 13 1011 87 10000 4.6 100 07:22 08.11.2019
4788 Clouds 13 1010 87 10000 5.7 110 06:40 08.11.2019
4789 Clouds 13 1010 87 10000 5.7 110 06:20 08.11.2019
4790 Clouds 12 1010 93 10000 5.7 100 05:53 08.11.2019
4791 Rain 13 1010 87 10000 6.2 120 05:19 08.11.2019
4792 Clouds 11 1010 93 10000 1.5 100 03:44 08.11.2019
4793 Clouds 11 1010 93 10000 1.5 100 03:21 08.11.2019
4794 Clouds 12 1011 93 10000 3.1 170 02:41 08.11.2019
4795 Clouds 12 1011 93 10000 3.1 70 01:46 08.11.2019
4796 Clouds 12 1011 93 10000 3.1 70 01:18 08.11.2019
4797 Rain 9 1012 93 7000 1.5 90 00:24 08.11.2019
4798 Rain 10 1012 87 10000 2.1 150 23:57 07.11.2019
4799 Rain 10 1012 87 10000 1.5 90 23:39 07.11.2019
4800 Rain 10 1012 87 10000 1.5 90 23:20 07.11.2019
4801 Rain 10 1012 82 8000 1.5 360 22:42 07.11.2019
4802 Rain 12 1012 82 8000 1.5 360 22:21 07.11.2019
4803 Rain 10 1012 82 10000 2.1 0 21:56 07.11.2019
4804 Rain 10 1011 72 10000 1.5 330 21:37 07.11.2019
4805 Rain 10 1011 72 10000 1.5 330 21:19 07.11.2019
4806 Clouds 9 1011 67 10000 0.5 0 20:55 07.11.2019
4807 Clouds 10 1011 67 10000 0.5 0 20:37 07.11.2019
4808 Clouds 10 1011 63 10000 1.5 350 20:19 07.11.2019
4809 Clouds 11 1011 63 10000 1 0 19:41 07.11.2019
4810 Clouds 10 1011 63 10000 1 0 19:23 07.11.2019
4811 Clouds 11 1011 59 10000 2.1 0 18:58 07.11.2019
4812 Clouds 11 1010 59 10000 4.6 90 18:39 07.11.2019
4813 Clouds 11 1010 59 10000 4.6 90 18:19 07.11.2019
4814 Clouds 11 1010 55 10000 3.6 50 17:59 07.11.2019
4815 Clouds 12 1010 52 10000 1.5 0 17:39 07.11.2019
4816 Clouds 13 1010 52 10000 1.5 0 17:20 07.11.2019
4817 Clouds 13 1010 52 10000 3.1 190 16:56 07.11.2019
4818 Clouds 14 1010 45 10000 2.6 250 16:38 07.11.2019
4819 Clouds 16 1010 45 10000 2.6 250 16:19 07.11.2019
4820 Clouds 14 1010 52 10000 1 0 15:54 07.11.2019
4821 Clouds 14 1009 49 10000 2.1 360 15:36 07.11.2019
4822 Clouds 14 1009 49 10000 2.1 360 15:18 07.11.2019
4823 Clouds 13 1009 52 10000 2.1 50 14:41 07.11.2019
4824 Clouds 17 1009 49 10000 1.5 40 14:23 07.11.2019
4825 Clouds 17 1009 43 10000 3.6 170 13:56 07.11.2019
4826 Clouds 17 1009 43 10000 4.6 180 13:37 07.11.2019
4827 Clouds 17 1009 43 10000 4.6 180 13:19 07.11.2019
4828 Clouds 16 1009 43 10000 3.6 180 12:57 07.11.2019
4829 Clouds 16 1009 43 10000 3.6 180 12:39 07.11.2019
4830 Clouds 16 1009 55 10000 4.1 100 12:19 07.11.2019
4831 Clouds 15 1009 59 10000 4.6 80 11:42 07.11.2019
4832 Clouds 15 1009 59 10000 4.6 80 11:42 07.11.2019
4833 Clouds 15 1010 59 10000 4.6 80 11:23 07.11.2019
4834 Clouds 15 1010 63 10000 5.7 80 10:44 07.11.2019
4835 Clouds 15 1010 59 10000 7.7 100 10:20 07.11.2019
4836 Clouds 14 1010 67 10000 7.7 100 09:58 07.11.2019
4837 Clouds 14 1010 67 10000 7.7 100 09:40 07.11.2019
4838 Clouds 14 1010 67 10000 7.7 100 09:40 07.11.2019
4839 Clouds 14 1010 67 10000 5.1 110 09:20 07.11.2019
4840 Clouds 12 1010 72 10000 4.6 80 08:47 07.11.2019
4841 Clouds 13 1010 72 10000 4.6 80 08:46 07.11.2019
4842 Clouds 13 1010 72 10000 4.6 80 08:46 07.11.2019
4843 Clouds 13 1010 72 10000 4.6 80 08:46 07.11.2019
4844 Clouds 11 1009 71 10000 5.1 100 08:25 07.11.2019
4845 Clouds 11 1009 71 10000 5.1 100 08:24 07.11.2019
4846 Clouds 10 1009 76 10000 3.1 130 07:58 07.11.2019
4847 Clouds 10 1009 76 10000 3.1 130 07:40 07.11.2019
4848 Clouds 10 1008 76 10000 5.7 110 07:20 07.11.2019
4849 Clouds 9 1009 76 10000 2.6 30 06:46 07.11.2019
4850 Clouds 9 1009 76 10000 2.6 30 06:46 07.11.2019
4851 Clouds 9 1008 76 10000 5.7 120 06:25 07.11.2019
4852 Clouds 8 1009 71 10000 3.1 80 05:50 07.11.2019
4853 Clouds 8 1008 76 10000 3.6 90 05:31 07.11.2019
4854 Clouds 8 1009 76 10000 2.6 0 04:52 07.11.2019
4855 Clouds 7 1009 81 10000 2.6 0 04:29 07.11.2019
4856 Clouds 7 1010 81 10000 1.5 70 01:32 07.11.2019
4857 Clouds 8 1010 81 10000 1.5 150 00:41 07.11.2019
4858 Clouds 9 1010 81 10000 1.5 90 00:18 07.11.2019
4859 Clouds 9 1010 81 10000 0.5 0 23:43 06.11.2019
4860 Clouds 9 1010 81 10000 1 0 23:20 06.11.2019
4861 Clouds 9 1010 76 10000 3.1 120 22:41 06.11.2019
4862 Clouds 10 1010 76 10000 2.1 120 22:21 06.11.2019
4863 Clouds 10 1010 76 10000 3.6 120 21:58 06.11.2019
4864 Clouds 10 1010 76 10000 3.6 120 21:58 06.11.2019
4865 Clouds 10 1010 76 10000 3.6 120 21:39 06.11.2019
4866 Clouds 10 1010 71 10000 2.1 60 21:20 06.11.2019
4867 Clouds 10 1010 71 10000 2.1 40 20:57 06.11.2019
4868 Clouds 11 1010 71 10000 2.1 40 20:39 06.11.2019
4869 Clouds 11 1010 67 10000 2.1 80 20:20 06.11.2019
4870 Clouds 11 1010 67 10000 1.5 330 19:57 06.11.2019
4871 Clouds 12 1009 62 10000 3.1 60 19:37 06.11.2019
4872 Clouds 12 1009 62 10000 3.1 60 19:19 06.11.2019
4873 Clouds 12 1010 59 10000 5.7 90 18:55 06.11.2019
4874 Clouds 11 1009 55 10000 5.7 90 18:37 06.11.2019
4875 Clouds 11 1009 55 10000 5.7 90 18:18 06.11.2019
4876 Clouds 12 1009 52 10000 5.7 90 17:42 06.11.2019
4877 Clouds 14 1009 52 10000 5.7 90 17:23 06.11.2019
4878 Clouds 14 1008 45 10000 3.1 160 16:57 06.11.2019
4879 Clouds 15 1008 40 10000 3.1 200 16:39 06.11.2019
4880 Clouds 15 1008 35 10000 1 0 16:21 06.11.2019
4881 Clouds 15 1008 35 10000 1 0 15:58 06.11.2019
4882 Clouds 13 1008 37 10000 1.5 0 15:38 06.11.2019
4883 Clouds 13 1008 37 10000 1.5 0 15:38 06.11.2019
4884 Clouds 14 1008 35 10000 5.7 210 15:19 06.11.2019
4885 Clouds 13 1008 35 10000 5.7 210 14:57 06.11.2019
4886 Clouds 13 1008 35 10000 5.1 250 14:39 06.11.2019
4887 Clouds 21 1008 35 10000 5.1 250 14:20 06.11.2019
4888 Clouds 19 1008 33 10000 6.2 230 13:58 06.11.2019
4889 Clouds 18 1007 33 10000 8.2 250 13:37 06.11.2019
4890 Clouds 19 1007 33 10000 8.2 250 13:18 06.11.2019
4891 Clouds 18 1008 35 10000 10.8 250 12:55 06.11.2019
4892 Clouds 22 1008 33 10000 5.7 260 12:37 06.11.2019
4893 Clouds 22 1008 33 10000 5.7 260 12:18 06.11.2019
4894 Clouds 20 1008 33 10000 1.5 0 11:55 06.11.2019
4895 Clouds 19 1009 33 10000 1.5 0 11:36 06.11.2019
4896 Clouds 16 1009 40 10000 3.1 30 11:18 06.11.2019
4897 Clouds 17 1009 40 10000 2.6 10 10:42 06.11.2019
4898 Clouds 16 1009 40 10000 2.6 10 10:24 06.11.2019
4899 Clouds 17 1010 40 10000 4.1 60 09:58 06.11.2019
4900 Clouds 15 1010 40 10000 4.1 60 09:58 06.11.2019
4901 Clouds 16 1010 48 10000 3.1 20 09:40 06.11.2019
4902 Clouds 16 1010 48 10000 3.1 20 09:20 06.11.2019
4903 Clouds 17 1010 51 10000 3.1 0 08:55 06.11.2019
4904 Clouds 14 1009 58 10000 5.7 210 08:37 06.11.2019
4905 Clouds 11 1009 58 10000 5.7 210 08:18 06.11.2019
4906 Clouds 11 1009 58 10000 5.7 210 08:18 06.11.2019
4907 Clouds 10 1009 66 10000 4.1 90 07:44 06.11.2019
4908 Clouds 10 1009 66 10000 4.1 90 07:26 06.11.2019
4909 Clouds 12 1009 62 10000 3.1 80 06:52 06.11.2019
4910 Clouds 12 1009 62 10000 3.1 100 06:34 06.11.2019
4911 Clouds 10 1008 66 10000 3.6 60 05:50 06.11.2019
4912 Clouds 10 1009 58 10000 3.1 80 03:35 06.11.2019
4913 Clouds 9 1009 71 10000 3.6 130 01:42 06.11.2019
4914 Clouds 8 1009 71 10000 2.6 140 00:46 06.11.2019
4915 Clouds 8 1009 71 10000 3.1 100 23:59 05.11.2019
4916 Clouds 8 1010 71 10000 1.5 180 23:40 05.11.2019
4917 Clear 8 1010 71 10000 1.5 180 23:22 05.11.2019
4918 Clear 9 1010 71 10000 3.1 170 22:57 05.11.2019
4919 Clear 9 1010 66 10000 3.6 0 22:38 05.11.2019
4920 Clear 9 1010 66 10000 3.6 0 22:18 05.11.2019
4921 Clear 9 1010 62 10000 2.6 50 21:43 05.11.2019
4922 Clear 9 1010 62 10000 2.6 50 21:22 05.11.2019
4923 Clear 8 1010 66 10000 2.6 160 20:59 05.11.2019
4924 Clear 9 1010 62 10000 3.1 90 20:39 05.11.2019
4925 Clear 9 1010 62 10000 3.1 90 20:21 05.11.2019
4926 Clear 9 1010 58 10000 4.1 100 19:58 05.11.2019
4927 Clear 9 1010 58 10000 4.1 100 19:58 05.11.2019
4928 Clear 10 1010 54 10000 2.1 80 19:38 05.11.2019
4929 Clear 10 1010 54 10000 2.1 80 19:20 05.11.2019
4930 Clear 10 1010 48 10000 1.5 40 18:58 05.11.2019
4931 Clear 10 1010 48 10000 2.1 10 18:39 05.11.2019
4932 Clear 10 1010 48 10000 2.1 10 18:20 05.11.2019
4933 Clear 11 1010 45 10000 1.5 0 17:58 05.11.2019
4934 -273 0 0 0 0 0 17:39 05.11.2019
4935 Clear 12 1010 45 10000 2.1 190 17:19 05.11.2019
4936 Clear 13 1010 42 10000 3.6 220 16:55 05.11.2019
4937 Clear 13 1010 42 10000 4.1 170 16:37 05.11.2019
4938 Clear 16 1010 42 10000 4.1 170 16:18 05.11.2019
4939 Clear 11 1010 32 10000 3.6 180 15:38 05.11.2019
4940 Clear 13 1010 32 10000 3.6 180 15:19 05.11.2019
4941 Clear 14 1010 30 10000 2.6 120 14:58 05.11.2019
4942 Clear 14 1010 30 10000 2.6 0 14:39 05.11.2019
4943 Clear 16 1010 30 10000 2.6 0 14:21 05.11.2019
4944 Clear 16 1010 32 10000 2.1 290 13:44 05.11.2019
4945 Clear 16 1010 32 10000 2.1 290 13:25 05.11.2019
4946 Clear 16 1011 35 10000 1.5 0 12:59 05.11.2019
4947 Clear 20 1011 40 10000 1.5 0 12:39 05.11.2019
4948 Clear 20 1011 40 10000 1.5 0 12:39 05.11.2019
4949 Clear 20 1011 40 10000 1.5 0 12:20 05.11.2019
4950 Clouds 20 1012 42 10000 1 0 11:55 05.11.2019
4951 Clouds 19 1012 48 10000 2.1 0 11:36 05.11.2019
4952 Clouds 19 1012 48 10000 2.1 0 11:36 05.11.2019
4953 Clouds 17 1013 51 10000 2.1 360 11:18 05.11.2019
4954 Clouds 18 1013 51 10000 1.5 0 10:42 05.11.2019
4955 Clouds 18 1013 51 10000 1.5 0 10:42 05.11.2019
4956 Clouds 18 1013 51 10000 1.5 0 10:23 05.11.2019
4957 Clouds 16 1013 58 10000 1 0 09:57 05.11.2019
4958 Clouds 16 1013 58 10000 1 0 09:57 05.11.2019
4959 Clouds 16 1013 62 10000 2.1 120 09:38 05.11.2019
4960 Clouds 15 1013 62 10000 2.1 120 09:19 05.11.2019
4961 Clouds 12 1013 76 10000 2.6 120 08:41 05.11.2019
4962 Clouds 9 1013 76 10000 2.6 120 08:21 05.11.2019
4963 Clouds 7 1013 87 10000 2.6 110 07:59 05.11.2019
4964 Clouds 7 1012 93 10000 1.5 120 07:41 05.11.2019
4965 Clouds 6 1012 93 10000 1.5 120 07:23 05.11.2019
4966 Clouds 5 1012 93 10000 3.1 120 06:51 05.11.2019
4967 Clear 6 1012 87 10000 1 0 05:51 05.11.2019
4968 Clear 5 1011 87 10000 1.5 160 05:29 05.11.2019
4969 Clear 5 1011 93 10000 2.1 130 04:47 05.11.2019
4970 Clear 5 1011 87 10000 2.1 30 03:58 05.11.2019
4971 Clear 6 1010 81 10000 1.73 245 02:59 05.11.2019
4972 Clear 4 1010 87 10000 2.1 140 02:41 05.11.2019
4973 Clear 8 1010 76 10000 2.1 0 01:27 05.11.2019
4974 Clear 7 1009 71 10000 4.1 350 00:38 05.11.2019
4975 Clear 7 1009 48 10000 7.2 270 23:59 04.11.2019
4976 Clear 8 1009 48 10000 5.7 250 23:40 04.11.2019
4977 Clear 8 1009 48 10000 5.7 250 23:18 04.11.2019
4978 Clear 9 1008 51 10000 6.2 250 22:43 04.11.2019
4979 Clear 8 1008 51 10000 6.2 250 22:24 04.11.2019
4980 Clear 10 1008 51 10000 2.1 0 21:57 04.11.2019
4981 Clear 10 1008 48 10000 2.6 100 21:38 04.11.2019
4982 Clear 10 1008 48 10000 2.6 100 21:20 04.11.2019
4983 Clear 9 1007 45 10000 5.7 240 20:59 04.11.2019
4984 Clear 9 1007 62 10000 2.1 0 20:40 04.11.2019
4985 Rain 12 1007 62 10000 2.1 0 20:21 04.11.2019
4986 Rain 13 1006 55 10000 5.1 220 19:59 04.11.2019
4987 Clouds 14 1006 52 10000 4.6 230 19:41 04.11.2019
4988 Clouds 14 1006 52 10000 4.6 230 19:22 04.11.2019
4989 Clouds 14 1006 52 10000 1 0 18:58 04.11.2019
4990 Clouds 11 1005 52 10000 2.1 60 18:39 04.11.2019
4991 Clouds 11 1005 52 10000 2.1 60 18:19 04.11.2019
4992 Clouds 12 1006 48 10000 3.1 90 17:55 04.11.2019
4993 Clouds 12 1006 48 10000 3.1 90 17:55 04.11.2019
4994 Clouds 12 1005 48 10000 7.7 240 17:36 04.11.2019
4995 Clouds 17 1005 48 10000 7.7 240 17:18 04.11.2019
4996 Clouds 14 1004 52 10000 8.2 230 16:41 04.11.2019
4997 Clouds 17 1004 52 10000 8.2 230 16:23 04.11.2019
4998 Clouds 17 1004 52 10000 11.3 210 15:57 04.11.2019
4999 Clouds 20 1004 49 10000 4.1 230 15:39 04.11.2019
5000 Clouds 20 1004 49 10000 4.1 230 15:19 04.11.2019
5001 Clouds 11 1004 49 10000 2.1 0 14:57 04.11.2019
5002 Rain 19 1004 52 10000 2.6 160 14:39 04.11.2019
5003 Rain 18 1004 52 10000 2.6 160 14:19 04.11.2019
5004 Clouds 19 1004 55 10000 0.5 0 13:56 04.11.2019
5005 Clouds 19 1004 52 10000 5.1 140 13:38 04.11.2019
5006 Clouds 19 1004 52 10000 5.1 140 13:19 04.11.2019
5007 Clouds 19 1005 55 10000 3.6 170 12:44 04.11.2019
5008 Clouds 19 1005 55 10000 3.6 170 12:25 04.11.2019
5009 Clouds 18 1005 52 10000 7.7 120 11:58 04.11.2019
5010 Clouds 18 1005 52 10000 7.7 120 11:58 04.11.2019
5011 Clouds 18 1006 55 10000 7.7 110 11:40 04.11.2019
5012 Clouds 18 1006 55 10000 7.7 110 11:21 04.11.2019
5013 Clouds 16 1006 63 10000 5.7 100 10:45 04.11.2019
5014 Clouds 16 1006 63 10000 5.7 100 10:26 04.11.2019
5015 Clouds 15 1007 63 10000 8.2 80 09:55 04.11.2019
5016 Clouds 15 1007 63 10000 8.2 80 09:37 04.11.2019
5017 Clouds 14 1007 67 10000 8.2 100 09:18 04.11.2019
5018 Clouds 13 1007 71 10000 9.3 100 08:42 04.11.2019
5019 Clouds 11 1007 71 10000 9.3 100 08:21 04.11.2019
5020 Clouds 10 1008 76 10000 6.7 100 07:45 04.11.2019
5021 Clouds 9 1008 76 10000 6.7 100 07:25 04.11.2019
5022 Clouds 9 1008 76 10000 6.7 100 07:25 04.11.2019
5023 Clouds 9 1007 81 10000 3.1 90 06:59 04.11.2019
5024 Clouds 8 1008 81 10000 4.1 80 06:36 04.11.2019
5025 Clouds 8 1007 81 10000 7.2 110 05:59 04.11.2019
5026 Clouds 7 1008 81 10000 3.6 150 05:23 04.11.2019
5027 Clouds 7 1009 76 10000 4.6 100 04:25 04.11.2019
5028 Clouds 7 1009 81 10000 5.7 90 03:23 04.11.2019
5029 Clouds 8 1009 81 10000 5.7 100 01:23 04.11.2019
5030 Clouds 8 1009 71 10000 5.7 110 00:52 04.11.2019
5031 Clouds 8 1009 71 10000 7.7 120 00:21 04.11.2019
5032 Clouds 8 1010 71 10000 2.1 10 23:58 03.11.2019
5033 Clouds 9 1010 66 10000 5.7 70 23:36 03.11.2019
5034 Clouds 8 1010 66 10000 5.7 70 23:18 03.11.2019
5035 Clouds 8 1010 71 10000 4.1 60 22:55 03.11.2019
5036 Clouds 8 1010 76 10000 5.1 70 22:37 03.11.2019
5037 Clouds 9 1010 76 10000 5.1 70 22:18 03.11.2019
5038 Clouds 8 1010 76 10000 5.1 100 21:42 03.11.2019
5039 Clouds 7 1010 76 10000 5.1 100 21:21 03.11.2019
5040 Clouds 8 1011 71 10000 3.1 110 20:57 03.11.2019
5041 Clouds 8 1011 71 10000 3.1 110 20:37 03.11.2019
5042 Clouds 8 1011 71 10000 3.1 110 20:19 03.11.2019
5043 Clouds 7 1011 76 10000 3.1 70 19:57 03.11.2019
5044 Clouds 8 1011 76 10000 8.7 110 19:38 03.11.2019
5045 Clouds 9 1011 76 10000 8.7 110 19:20 03.11.2019
5046 Clouds 9 1011 76 10000 7.7 90 18:39 03.11.2019
5047 Clouds 9 1011 76 10000 7.7 90 18:19 03.11.2019
5048 Clouds 9 1011 76 10000 4.6 90 17:59 03.11.2019
5049 Clouds 9 1011 71 10000 7.7 110 17:41 03.11.2019
5050 Clouds 9 1011 71 10000 7.7 110 17:41 03.11.2019
5051 Clouds 9 1011 71 10000 7.7 110 17:19 03.11.2019
5052 Clouds 9 1011 71 10000 5.1 120 16:56 03.11.2019
5053 Clouds 10 1011 71 10000 3.6 110 16:38 03.11.2019
5054 Clouds 11 1011 71 10000 3.6 110 16:19 03.11.2019
5055 Clouds 10 1011 66 10000 3.6 110 15:56 03.11.2019
5056 Clouds 10 1011 71 10000 5.7 100 15:38 03.11.2019
5057 Clouds 10 1011 71 10000 5.7 100 15:20 03.11.2019
5058 Clouds 11 1011 66 10000 5.1 110 14:41 03.11.2019
5059 Clouds 12 1011 66 10000 5.1 110 14:19 03.11.2019
5060 Clouds 12 1011 66 10000 5.1 110 14:19 03.11.2019
5061 Clouds 12 1012 71 10000 4.6 110 13:56 03.11.2019
5062 Clouds 12 1012 76 10000 2.6 100 13:37 03.11.2019
5063 Clouds 12 1012 76 10000 2.6 100 13:18 03.11.2019
5064 Clouds 11 1012 76 10000 1 0 12:38 03.11.2019
5065 Clouds 11 1012 76 10000 1 0 12:19 03.11.2019
5066 Clouds 11 1013 81 10000 1 0 11:56 03.11.2019
5067 Clouds 10 1013 81 10000 1 0 11:38 03.11.2019
5068 Clouds 11 1013 81 10000 1 0 11:19 03.11.2019
5069 Clouds 10 1014 81 10000 1.5 270 10:40 03.11.2019
5070 Clouds 10 1014 81 10000 1.5 270 10:22 03.11.2019
5071 Clouds 10 1014 81 10000 1.5 270 10:22 03.11.2019
5072 Clouds 10 1014 81 10000 1.5 270 10:22 03.11.2019
5073 Clouds 10 1014 81 10000 1.5 270 10:22 03.11.2019
5074 Clouds 9 1014 87 10000 1 0 09:58 03.11.2019
5075 Clouds 8 1014 87 10000 1 0 09:40 03.11.2019
5076 Clouds 8 1014 87 10000 1 0 09:21 03.11.2019
5077 Clouds 7 1015 93 8000 0.5 0 08:48 03.11.2019
5078 Clouds 6 1015 93 8000 1 0 08:24 03.11.2019
5079 Mist 5 1015 93 5000 1.5 280 07:47 03.11.2019
5080 Mist 5 1015 93 4000 1 0 07:28 03.11.2019
5081 Mist 5 1015 93 3000 0.5 0 06:53 03.11.2019
5082 Mist 5 1015 93 3300 1.65 198 06:34 03.11.2019
5083 Mist 4 1015 100 8000 0.5 0 05:40 03.11.2019
5084 Mist 4 1015 93 4400 1 0 04:58 03.11.2019
5085 Mist 4 1015 93 5000 2.1 190 04:38 03.11.2019
5086 Clouds 4 1015 100 8000 1 0 03:39 03.11.2019
5087 Clouds 5 1016 93 6000 2.1 160 02:45 03.11.2019
5088 Clouds 5 1016 93 6000 2.1 160 02:20 03.11.2019
5089 Clouds 5 1016 93 6000 2.1 160 02:20 03.11.2019
5090 Clouds 5 1016 93 10000 2.6 80 01:42 03.11.2019
5091 Clouds 5 1016 93 10000 2.6 80 01:20 03.11.2019
5092 Clouds 5 1017 93 10000 1.5 90 00:45 03.11.2019
5093 Clouds 5 1017 93 10000 1.5 90 00:27 03.11.2019
5094 Clouds 5 1017 93 10000 3.6 90 23:58 02.11.2019
5095 Clouds 5 1017 86 10000 3.6 110 23:38 02.11.2019
5096 Clouds 5 1017 86 10000 3.6 110 23:19 02.11.2019
5097 Clouds 5 1017 93 10000 4.6 110 22:56 02.11.2019
5098 Clouds 5 1017 93 10000 3.1 120 22:37 02.11.2019
5099 Clouds 5 1017 93 10000 3.1 120 22:18 02.11.2019
5100 Clouds 5 1017 93 10000 4.1 140 21:56 02.11.2019
5101 Clouds 5 1017 93 10000 6.2 100 21:38 02.11.2019
5102 Clouds 5 1017 93 10000 6.2 100 21:18 02.11.2019
5103 Clouds 5 1017 93 10000 6.2 100 21:18 02.11.2019
5104 Clouds 5 1017 93 10000 6.2 100 20:58 02.11.2019
5105 Clouds 5 1017 87 10000 6.2 90 20:39 02.11.2019
5106 Clouds 5 1017 87 10000 6.2 90 20:19 02.11.2019
5107 Clouds 5 1017 87 10000 6.2 90 20:19 02.11.2019
5108 Clouds 5 1017 87 10000 6.7 100 19:41 02.11.2019
5109 Clouds 5 1017 87 10000 6.7 100 19:23 02.11.2019
5110 Clouds 5 1017 87 10000 7.2 90 18:57 02.11.2019
5111 Clouds 6 1017 87 10000 6.7 100 18:38 02.11.2019
5112 Clouds 6 1017 87 10000 6.7 100 18:20 02.11.2019
5113 Clouds 6 1017 87 10000 6.7 90 17:57 02.11.2019
5114 Clouds 6 1017 87 10000 7.2 90 17:38 02.11.2019
5115 Clouds 6 1017 87 10000 7.2 90 17:20 02.11.2019
5116 Clouds 6 1016 81 10000 6.7 100 16:57 02.11.2019
5117 Clouds 6 1016 75 10000 7.2 100 16:36 02.11.2019
5118 Clouds 6 1016 75 10000 7.2 100 16:18 02.11.2019
5119 Clouds 6 1016 75 10000 7.2 100 16:18 02.11.2019
5120 Clouds 6 1016 75 10000 7.2 100 16:18 02.11.2019
5121 Clouds 7 1017 71 10000 7.2 110 15:41 02.11.2019
5122 Clouds 7 1017 71 10000 7.2 110 15:19 02.11.2019
5123 Clouds 8 1017 66 10000 7.7 120 14:43 02.11.2019
5124 Clouds 9 1017 66 10000 7.7 120 14:23 02.11.2019
5125 Clouds 9 1017 66 10000 7.7 120 13:57 02.11.2019
5126 Clouds 9 1017 66 10000 7.2 110 13:38 02.11.2019
5127 Clouds 9 1017 66 10000 7.2 110 13:19 02.11.2019
5128 Clouds 9 1018 62 10000 7.7 100 12:41 02.11.2019
5129 Clouds 9 1018 62 10000 7.7 100 12:23 02.11.2019
5130 Clouds 9 1018 62 10000 7.7 100 12:22 02.11.2019
5131 Clouds 9 1018 66 10000 8.2 100 11:57 02.11.2019
5132 Clouds 8 1019 70 10000 6.2 110 11:39 02.11.2019
5133 Clouds 8 1019 70 10000 6.2 110 11:20 02.11.2019
5134 Clouds 7 1019 75 10000 6.7 110 10:48 02.11.2019
5135 Clouds 7 1019 70 10000 7.2 110 10:27 02.11.2019
5136 Clouds 7 1019 70 10000 7.2 110 10:27 02.11.2019
5137 Clouds 7 1019 81 10000 7.2 100 09:57 02.11.2019
5138 Clouds 6 1019 75 10000 6.7 110 09:39 02.11.2019
5139 Clouds 6 1019 75 10000 6.7 110 09:19 02.11.2019
5140 Clouds 5 1020 81 10000 7.7 110 08:44 02.11.2019
5141 Clouds 4 1020 81 10000 7.7 110 08:22 02.11.2019
5142 Clouds 4 1020 86 10000 5.7 100 07:47 02.11.2019
5143 Clouds 4 1020 86 10000 6.7 100 07:28 02.11.2019
5144 Clouds 4 1020 86 10000 6.7 100 07:28 02.11.2019
5145 Clouds 4 1020 86 10000 8.2 100 06:54 02.11.2019
5146 Clouds 4 1020 86 10000 7.2 100 06:29 02.11.2019
5147 Clouds 4 1020 86 10000 7.2 110 05:56 02.11.2019
5148 Clouds 3 1020 86 10000 7.2 110 04:53 02.11.2019
5149 Clouds 3 1020 86 10000 6.7 110 04:20 02.11.2019
5150 Clouds 3 1020 86 10000 6.7 110 03:47 02.11.2019
5151 Clouds 3 1020 86 10000 8.2 110 02:40 02.11.2019
5152 Clouds 3 1021 81 10000 6.7 110 01:42 02.11.2019
5153 Clouds 3 1021 81 10000 6.7 110 01:21 02.11.2019
5154 Clouds 3 1021 87 10000 7.7 110 00:43 02.11.2019
5155 Clouds 3 1021 87 10000 7.7 110 00:25 02.11.2019
5156 Clouds 3 1022 87 10000 6.7 110 23:46 01.11.2019
5157 Clouds 3 1022 87 10000 6.7 110 23:20 01.11.2019
5158 Clouds 3 1022 87 10000 7.2 110 22:57 01.11.2019
5159 Clouds 3 1022 87 10000 6.7 110 22:38 01.11.2019
5160 Clouds 3 1022 87 10000 6.7 110 22:20 01.11.2019
5161 Clouds 3 1022 87 10000 6.7 110 21:40 01.11.2019
5162 Clouds 3 1022 87 10000 6.7 110 21:22 01.11.2019
5163 Clouds 3 1022 87 10000 7.2 110 20:56 01.11.2019
5164 Clouds 4 1022 87 10000 6.7 100 20:38 01.11.2019
5165 Clouds 4 1022 87 10000 6.7 100 20:18 01.11.2019
5166 Clouds 4 1022 81 10000 6.2 100 19:42 01.11.2019
5167 Clouds 4 1022 81 10000 6.2 100 19:22 01.11.2019
5168 Clouds 4 1022 87 10000 5.7 100 18:58 01.11.2019
5169 Clouds 4 1022 93 10000 5.1 100 18:39 01.11.2019
5170 Clouds 5 1022 87 10000 4.6 100 18:19 01.11.2019
5171 Clouds 5 1022 81 10000 4.1 110 17:41 01.11.2019
5172 Clouds 5 1022 81 10000 4.1 110 17:23 01.11.2019
5173 Clouds 5 1022 81 10000 4.1 120 16:59 01.11.2019
5174 Clouds 5 1022 87 10000 3.6 120 16:36 01.11.2019
5175 Clouds 5 1022 87 10000 3.6 120 16:18 01.11.2019
5176 Clouds 5 1022 81 10000 3.6 110 15:41 01.11.2019
5177 Clouds 5 1022 81 10000 3.6 110 15:22 01.11.2019
5178 Clouds 5 1022 81 10000 2.6 120 14:57 01.11.2019
5179 Clouds 5 1022 81 10000 3.1 110 14:39 01.11.2019
5180 Clouds 7 1022 81 10000 3.1 110 14:21 01.11.2019
5181 Clouds 5 1022 81 10000 2.1 110 13:55 01.11.2019
5182 Clouds 5 1022 81 10000 1.5 50 13:36 01.11.2019
5183 Clouds 7 1022 81 10000 1.5 50 13:18 01.11.2019
5184 Clouds 7 1022 81 10000 1.5 50 13:18 01.11.2019
5185 Clouds 7 1022 87 10000 1.5 150 12:43 01.11.2019
5186 Clouds 7 1022 87 10000 1.5 150 12:24 01.11.2019
5187 Clouds 6 1023 81 10000 1.5 150 11:43 01.11.2019
5188 Clouds 6 1023 81 10000 1.5 150 11:24 01.11.2019
5189 Clouds 6 1023 87 10000 2.1 130 10:56 01.11.2019
5190 Rain 6 1023 81 10000 1 0 10:38 01.11.2019
5191 Rain 4 1023 81 10000 1 0 10:19 01.11.2019
5192 Rain 4 1023 86 10000 1.5 140 09:43 01.11.2019
5193 Rain 4 1023 86 10000 1.5 140 09:25 01.11.2019
5194 Rain 5 1022 93 10000 2.1 140 08:57 01.11.2019
5195 Rain 5 1022 93 7000 1 0 08:39 01.11.2019
5196 Rain 4 1022 93 7000 1 0 08:20 01.11.2019
5197 Rain 4 1022 93 7000 1 0 08:20 01.11.2019
5198 Rain 3 1022 93 4500 1.5 160 07:46 01.11.2019
5199 Rain 3 1022 93 4500 1.5 160 07:23 01.11.2019
5200 Rain 3 1022 93 3500 1.42 39 06:55 01.11.2019
5201 Clouds 3 1022 93 6000 1 290 06:23 01.11.2019
5202 Clouds 3 1022 86 10000 1.5 300 05:58 01.11.2019
5203 Clouds 4 1022 93 10000 2.6 300 05:38 01.11.2019
5204 Clouds 4 1021 86 10000 0.5 0 03:32 01.11.2019
5205 Clouds 4 1022 93 10000 1.5 140 01:48 01.11.2019
5206 Clouds 4 1022 93 10000 1.5 130 01:19 01.11.2019
5207 Clouds 4 1022 93 10000 1.5 140 00:20 01.11.2019
5208 Clouds 4 1022 93 10000 3.1 130 23:45 31.10.2019
5209 Clouds 4 1022 93 10000 3.1 130 23:25 31.10.2019
5210 Clouds 4 1022 87 10000 2.1 150 22:58 31.10.2019
5211 Clouds 4 1022 87 10000 1.5 170 22:40 31.10.2019
5212 Clouds 4 1022 87 10000 1.5 170 22:40 31.10.2019
5213 Clouds 6 1022 87 10000 1.5 170 22:21 31.10.2019
5214 Clouds 4 1022 87 10000 2.1 120 21:45 31.10.2019
5215 Clouds 4 1022 87 10000 2.1 120 21:23 31.10.2019
5216 Clouds 4 1022 87 10000 2.6 100 20:59 31.10.2019
5217 Clouds 4 1022 87 10000 2.1 80 20:40 31.10.2019
5218 Clouds 4 1022 87 10000 2.1 80 20:22 31.10.2019
5219 Clouds 4 1022 75 10000 1.5 20 19:45 31.10.2019
5220 Clouds 4 1022 75 10000 1.5 20 19:27 31.10.2019
5221 Clouds 4 1022 75 10000 2.1 360 18:58 31.10.2019
5222 Clouds 4 1022 75 10000 1.5 10 18:39 31.10.2019
5223 Clouds 4 1022 75 10000 1.5 10 18:21 31.10.2019
5224 Clouds 4 1022 75 10000 1.5 10 18:21 31.10.2019
5225 Clouds 4 1022 75 10000 1.5 10 18:21 31.10.2019
5226 Clouds 4 1022 81 10000 1 0 17:54 31.10.2019
5227 Clouds 5 1022 75 10000 1 0 17:36 31.10.2019
5228 Clouds 5 1021 81 10000 1 0 17:18 31.10.2019
5229 Clouds 5 1021 81 10000 2.1 10 16:41 31.10.2019
5230 Clouds 5 1021 81 10000 2.1 10 16:20 31.10.2019
5231 Clouds 5 1021 75 10000 3.6 30 15:58 31.10.2019
5232 Clouds 5 1021 75 10000 3.6 30 15:39 31.10.2019
5233 Clouds 5 1021 75 10000 3.6 30 15:20 31.10.2019
5234 Clouds 6 1021 75 10000 3.1 20 14:56 31.10.2019
5235 Clouds 6 1021 75 10000 4.1 40 14:38 31.10.2019
5236 Clouds 8 1021 75 10000 4.1 40 14:20 31.10.2019
5237 Clouds 8 1021 75 10000 3.6 360 13:56 31.10.2019
5238 Clouds 8 1021 75 10000 3.1 30 13:37 31.10.2019
5239 Clouds 8 1021 75 10000 3.1 30 13:19 31.10.2019
5240 Clouds 8 1022 75 10000 3.1 10 12:43 31.10.2019
5241 Clouds 8 1022 75 10000 3.1 10 12:24 31.10.2019
5242 Clouds 8 1022 75 10000 3.1 330 11:59 31.10.2019
5243 Clouds 8 1022 81 10000 3.1 350 11:41 31.10.2019
5244 Clouds 8 1022 75 10000 3.6 330 11:19 31.10.2019
5245 Clouds 8 1022 75 10000 3.6 330 10:57 31.10.2019
5246 Clouds 8 1022 75 10000 3.6 320 10:38 31.10.2019
5247 Clouds 8 1022 81 10000 3.6 310 10:19 31.10.2019
5248 Clouds 7 1022 87 10000 3.1 310 09:43 31.10.2019
5249 Clouds 7 1022 87 10000 3.1 310 09:19 31.10.2019
5250 Clouds 7 1022 87 10000 3.1 300 08:54 31.10.2019
5251 Clouds 7 1022 81 10000 2.6 310 08:34 31.10.2019
5252 Clouds 7 1022 87 10000 3.6 320 07:58 31.10.2019
5253 Clouds 7 1022 87 10000 2.6 310 07:39 31.10.2019
5254 Clouds 7 1022 87 10000 2.6 310 07:21 31.10.2019
5255 Clouds 7 1021 87 8000 3.1 290 06:38 31.10.2019
5256 Clouds 7 1021 87 8000 3.1 290 06:19 31.10.2019
5257 Rain 8 1021 93 10000 4.6 290 04:35 31.10.2019
5258 Drizzle 9 1021 87 10000 4.6 280 02:45 31.10.2019
5259 Clouds 10 1021 81 10000 4.1 270 01:53 31.10.2019
5260 Clouds 10 1021 76 10000 2.1 300 00:40 31.10.2019
5261 Clouds 10 1021 76 10000 2.1 300 00:22 31.10.2019
5262 Clouds 10 1021 76 10000 2.1 290 23:33 30.10.2019
5263 Clouds 10 1021 71 10000 1 0 22:55 30.10.2019
5264 Clouds 10 1021 76 8000 1 0 22:37 30.10.2019
5265 Clouds 10 1021 76 8000 1 0 22:18 30.10.2019
5266 Clouds 11 1021 76 8000 1 0 21:54 30.10.2019
5267 -273 0 0 0 0 0 21:54 30.10.2019
5268 Clouds 11 1021 76 6000 2.1 290 21:36 30.10.2019
5269 Clouds 11 1021 76 6000 1 0 21:18 30.10.2019
5270 Clouds 11 1021 76 6000 1.5 160 20:42 30.10.2019
5271 Clouds 11 1021 76 6000 1.5 160 20:22 30.10.2019
5272 Clouds 11 1021 76 8000 1.5 130 19:59 30.10.2019
5273 Clouds 11 1021 76 8000 3.1 90 19:39 30.10.2019
5274 Clouds 12 1021 76 8000 2.1 110 19:20 30.10.2019
5275 Clouds 12 1021 76 8000 2.1 110 18:58 30.10.2019
5276 Clouds 12 1021 76 7000 1.74 123 18:37 30.10.2019
5277 Clouds 12 1021 76 7000 1.74 123 18:18 30.10.2019
5278 Clouds 12 1020 71 8000 1.5 320 17:41 30.10.2019
5279 Clouds 13 1020 71 8000 1.5 320 17:20 30.10.2019
5280 Mist 13 1020 71 4500 1.5 50 16:59 30.10.2019
5281 Haze 14 1019 67 5000 2.6 20 16:40 30.10.2019
5282 Haze 14 1019 67 5000 2.6 20 16:22 30.10.2019
5283 Haze 15 1019 55 5000 2.6 120 15:57 30.10.2019
5284 Haze 16 1019 55 5000 2.1 120 15:38 30.10.2019
5285 Haze 16 1019 55 5000 2.1 120 15:19 30.10.2019
5286 Haze 17 1019 52 5000 1 0 14:56 30.10.2019
5287 Haze 17 1019 52 5000 1 0 14:56 30.10.2019
5288 Haze 17 1019 52 5000 0.5 0 14:38 30.10.2019
5289 Haze 17 1019 52 5000 0.5 0 14:18 30.10.2019
5290 Haze 17 1020 55 5000 1 0 13:42 30.10.2019
5291 Haze 17 1020 55 5000 1 0 13:21 30.10.2019
5292 Haze 17 1020 55 5000 1.5 0 12:59 30.10.2019
5293 Haze 17 1020 55 4800 2.1 260 12:41 30.10.2019
5294 Haze 17 1020 55 4800 2.1 260 12:22 30.10.2019
5295 Haze 16 1021 67 4300 2.1 280 11:43 30.10.2019
5296 Haze 15 1021 67 4300 2.1 280 11:25 30.10.2019
5297 Haze 15 1021 67 4000 2.6 290 10:58 30.10.2019
5298 Haze 16 1022 66 4000 1 0 10:39 30.10.2019
5299 Mist 14 1022 71 4500 0.5 0 10:20 30.10.2019
5300 Mist 13 1022 71 4700 1 0 09:40 30.10.2019
5301 Mist 11 1022 75 4500 1.5 90 09:22 30.10.2019
5302 Mist 11 1022 75 4500 1.5 90 08:54 30.10.2019
5303 Mist 9 1022 87 4500 1 0 08:36 30.10.2019
5304 Mist 8 1022 86 4000 1 0 08:18 30.10.2019
5305 Mist 6 1021 93 3500 1.5 70 07:42 30.10.2019
5306 Mist 4 1021 93 4000 1.5 110 06:56 30.10.2019
5307 Mist 4 1020 86 4400 1 0 06:37 30.10.2019
5308 Mist 5 1020 86 5000 1 0 05:56 30.10.2019
5309 Mist 5 1020 86 5000 1 0 05:56 30.10.2019
5310 Mist 5 1020 86 5000 1 0 05:56 30.10.2019
5311 Clouds 5 1020 86 6000 1 100 05:37 30.10.2019
5312 Clouds 3 1020 86 6000 2.1 130 03:54 30.10.2019
5313 Clouds 3 1020 75 6000 1.5 100 03:23 30.10.2019
5314 Mist 3 1019 93 5000 2.1 90 02:49 30.10.2019
5315 Mist 4 1019 86 5000 1.5 180 01:49 30.10.2019
5316 Mist 4 1018 86 5000 1.41 297 00:37 30.10.2019
5317 Mist 4 1018 86 5000 1.41 297 00:19 30.10.2019
5318 Smoke 6 1018 81 5000 1 240 23:39 29.10.2019
5319 Smoke 6 1018 81 3500 1.27 220 23:19 29.10.2019
5320 Smoke 6 1018 70 5000 1.5 270 22:41 29.10.2019
5321 Smoke 7 1018 70 5000 1.5 270 22:19 29.10.2019
5322 Clear 7 1018 70 7000 1 0 21:55 29.10.2019
5323 Clear 7 1018 66 8000 1 0 21:37 29.10.2019
5324 Clear 7 1018 66 8000 1 0 21:19 29.10.2019
5325 Clear 10 1017 70 7000 2.6 150 20:42 29.10.2019
5326 Clear 10 1017 70 7000 2.6 150 20:23 29.10.2019
5327 Clear 10 1017 62 8000 2.6 150 19:59 29.10.2019
5328 Clear 11 1017 62 7000 1.5 180 19:40 29.10.2019
5329 Clear 11 1017 62 7000 1.5 180 19:21 29.10.2019
5330 Clear 11 1017 62 7000 1 160 18:58 29.10.2019
5331 Clear 11 1017 62 7000 1 160 18:58 29.10.2019
5332 Clear 12 1016 58 8000 1 0 18:40 29.10.2019
5333 Clear 12 1016 58 8000 1 0 18:20 29.10.2019
5334 Clear 13 1016 54 8000 0.71 172 17:57 29.10.2019
5335 Clear 14 1015 50 8000 0.71 172 17:38 29.10.2019
5336 Clear 14 1015 50 8000 0.75 139 17:20 29.10.2019
5337 Clear 17 1015 34 10000 0.75 139 16:41 29.10.2019
5338 Clear 18 1015 34 10000 0.75 139 16:22 29.10.2019
5339 Clear 19 1015 32 10000 0.75 139 15:59 29.10.2019
5340 Clear 20 1015 32 10000 1 0 15:41 29.10.2019
5341 Clear 20 1015 32 10000 1.5 130 15:20 29.10.2019
5342 Clear 21 1015 32 10000 1.5 130 14:56 29.10.2019
5343 Clear 20 1015 34 10000 1 0 14:38 29.10.2019
5344 Clouds 21 1015 35 10000 0.5 0 14:20 29.10.2019
5345 Clouds 19 1015 39 10000 0.5 0 13:40 29.10.2019
5346 Clouds 19 1015 39 10000 0.5 0 13:40 29.10.2019
5347 Clouds 19 1015 39 10000 0.5 0 13:22 29.10.2019
5348 Clouds 20 1016 42 10000 1 0 12:56 29.10.2019
5349 Clouds 19 1016 45 10000 1 0 12:37 29.10.2019
5350 Clouds 20 1016 45 10000 1 0 12:19 29.10.2019
5351 Clouds 18 1017 48 10000 1 0 11:43 29.10.2019
5352 Clouds 18 1017 48 10000 1 0 11:23 29.10.2019
5353 Clouds 17 1018 54 10000 1 0 10:59 29.10.2019
5354 Clouds 16 1018 54 10000 0.7 47 10:40 29.10.2019
5355 Clouds 15 1018 57 10000 0.7 47 10:20 29.10.2019
5356 Clouds 14 1018 57 10000 0.7 47 09:59 29.10.2019
5357 Clouds 13 1018 61 10000 1 0 09:41 29.10.2019
5358 Clouds 13 1018 61 10000 1 0 09:41 29.10.2019
5359 Clouds 12 1018 61 10000 1 0 09:22 29.10.2019
5360 Clouds 6 1018 75 8000 0.5 0 08:45 29.10.2019
5361 Clouds 8 1018 75 8000 0.5 0 08:26 29.10.2019
5362 Clouds 6 1018 80 8000 0.7 274 07:55 29.10.2019
5363 Clouds 6 1018 80 7000 0.7 274 07:37 29.10.2019
5364 Clouds 5 1018 80 7000 0.7 274 07:18 29.10.2019
5365 Clouds 4 1017 61 8000 0.7 274 06:45 29.10.2019
5366 Clouds 3 1017 61 8000 0.7 274 06:26 29.10.2019
5367 Clouds 4 1017 61 8000 0.7 274 05:50 29.10.2019
5368 Clouds 3 1017 61 10000 0.5 110 05:30 29.10.2019
5369 Clouds 2 1017 86 8000 2.1 100 04:32 29.10.2019
5370 Clouds 3 1017 65 10000 1 150 02:33 29.10.2019
5371 Clear 3 1016 59 10000 1.5 130 01:47 29.10.2019
5372 Clear 3 1017 59 10000 2.1 110 01:21 29.10.2019
5373 Clear 4 1017 59 8000 1.5 140 00:43 29.10.2019
5374 Clear 4 1016 59 10000 1 120 23:43 28.10.2019
5375 Clear 5 1016 56 10000 1 120 23:21 28.10.2019
5376 Clear 5 1016 70 10000 1 120 22:58 28.10.2019
5377 Clear 5 1016 70 8000 1.5 130 22:37 28.10.2019
5378 Clear 5 1016 70 8000 1.5 130 22:18 28.10.2019
5379 Clear 7 1016 61 8000 1 0 21:56 28.10.2019
5380 Clear 7 1016 57 8000 1 0 21:38 28.10.2019
5381 Clear 8 1016 50 10000 2.1 170 21:19 28.10.2019
5382 Clear 8 1016 57 10000 1.5 120 20:45 28.10.2019
5383 Clear 8 1016 57 10000 1.5 120 20:24 28.10.2019
5384 Clear 12 1015 61 10000 2.6 90 19:59 28.10.2019
5385 Clear 12 1015 46 10000 0.5 0 19:39 28.10.2019
5386 Clear 12 1015 46 10000 0.5 0 19:21 28.10.2019
5387 Clear 13 1015 44 10000 1.5 60 18:58 28.10.2019
5388 Clear 14 1015 33 10000 2.6 250 18:39 28.10.2019
5389 Clear 14 1015 33 10000 2.6 250 18:21 28.10.2019
5390 Clear 14 1015 36 10000 0.5 0 17:56 28.10.2019
5391 Clear 15 1014 46 10000 3.1 270 17:38 28.10.2019
5392 Clear 16 1014 36 10000 3.1 270 17:19 28.10.2019
5393 Clear 16 1014 31 10000 3.6 270 16:56 28.10.2019
5394 Clear 19 1014 25 10000 3.1 270 16:38 28.10.2019
5395 Clear 21 1014 18 10000 3.6 280 16:19 28.10.2019
5396 Clear 23 1014 18 10000 3.6 280 15:56 28.10.2019
5397 Clear 24 1014 36 10000 3.1 260 15:38 28.10.2019
5398 Clear 22 1014 36 10000 3.1 260 15:18 28.10.2019
5399 Clear 22 1014 19 10000 2.1 290 14:55 28.10.2019
5400 Clear 22 1014 36 10000 2.6 270 14:37 28.10.2019
5401 Clouds 22 1014 24 10000 1.5 300 14:18 28.10.2019
5402 Clouds 21 1014 24 10000 1.5 300 13:54 28.10.2019
5403 Clouds 22 1014 24 10000 1.5 300 13:54 28.10.2019
5404 Clouds 22 1015 26 10000 1.5 290 13:36 28.10.2019
5405 Clouds 21 1015 30 10000 2.1 320 13:18 28.10.2019
5406 Clouds 20 1015 37 10000 1 0 12:40 28.10.2019
5407 Clouds 20 1015 37 10000 1 0 12:19 28.10.2019
5408 Clouds 20 1016 39 10000 1 0 11:39 28.10.2019
5409 Clouds 17 1017 44 9000 0.5 0 11:20 28.10.2019
5410 Clouds 18 1016 39 10000 1 0 11:20 28.10.2019
5411 Clouds 19 1017 44 9000 0.5 0 10:56 28.10.2019
5412 Clouds 18 1017 50 9000 1 0 10:38 28.10.2019
5413 Clouds 16 1017 50 9000 0.5 0 10:19 28.10.2019
5414 Clouds 15 1017 50 9000 0.5 0 09:54 28.10.2019
5415 Clouds 15 1017 50 9000 0.5 0 09:54 28.10.2019
5416 Clouds 13 1017 53 8000 1 0 09:36 28.10.2019
5417 Clouds 11 1017 53 8000 1 0 09:18 28.10.2019
5418 Clouds 9 1017 61 8000 1.71 338 08:55 28.10.2019
5419 Clouds 7 1017 70 8000 1.71 338 08:37 28.10.2019
5420 Clouds 7 1017 70 8000 1.03 278 08:18 28.10.2019
5421 Clouds 4 1017 80 8000 1.03 278 07:42 28.10.2019
5422 Clouds 5 1017 80 8000 1.03 278 07:21 28.10.2019
5423 Clouds 3 1017 46 8000 0.5 360 06:55 28.10.2019
5424 Clouds 3 1017 46 9000 1 340 06:34 28.10.2019
5425 Clouds 1 1017 48 10000 1.5 140 04:39 28.10.2019
5426 Clouds 1 1017 48 10000 1.5 130 03:43 28.10.2019
5427 Clouds 2 1018 48 10000 1.5 90 02:45 28.10.2019
5428 Clouds 3 1018 75 10000 1.04 263 01:27 28.10.2019
5429 Clouds 3 1018 86 10000 1.04 263 00:46 28.10.2019
5430 Clouds 4 1018 80 10000 0.5 0 00:22 28.10.2019
5431 Clouds 4 1019 75 10000 1.04 263 23:44 27.10.2019
5432 Clouds 4 1019 75 10000 0.91 255 23:21 27.10.2019
5433 Clouds 5 1018 70 10000 0.5 0 22:55 27.10.2019
5434 Clouds 7 1018 53 10000 2.1 150 22:36 27.10.2019
5435 Clouds 7 1018 53 10000 2.1 150 22:36 27.10.2019
5436 Clouds 7 1019 57 10000 2.1 200 22:18 27.10.2019
5437 Clouds 8 1019 57 10000 2.6 180 21:40 27.10.2019
5438 Clouds 8 1019 57 10000 2.6 180 21:22 27.10.2019
5439 Clouds 10 1018 53 10000 2.1 170 20:59 27.10.2019
5440 Clouds 10 1018 39 10000 2.1 120 20:40 27.10.2019
5441 Clouds 10 1018 38 10000 2.1 120 20:22 27.10.2019
5442 Clouds 11 1018 53 10000 1.5 100 19:57 27.10.2019
5443 Clouds 11 1018 53 10000 1.5 160 19:37 27.10.2019
5444 Clouds 11 1018 53 10000 1.5 160 19:19 27.10.2019
5445 Clouds 12 1018 53 10000 3.1 140 18:56 27.10.2019
5446 Clouds 13 1018 50 10000 2.1 120 18:37 27.10.2019
5447 Clouds 13 1018 50 10000 2.1 120 18:19 27.10.2019
5448 Clouds 15 1018 44 10000 2.1 150 17:41 27.10.2019
5449 Clouds 16 1018 44 10000 2.1 150 17:22 27.10.2019
5450 Clouds 17 1018 39 10000 1.5 40 16:59 27.10.2019
5451 Clouds 19 1018 28 10000 2.1 50 16:40 27.10.2019
5452 Clouds 21 1018 28 10000 2.1 50 16:22 27.10.2019
5453 Clouds 24 1018 23 10000 0.5 0 15:58 27.10.2019
5454 Clouds 24 1018 22 10000 1 0 15:39 27.10.2019
5455 Clouds 23 1018 22 10000 1 0 15:20 27.10.2019
5456 Clouds 23 1019 23 10000 1.5 0 14:44 27.10.2019
5457 Clouds 22 1019 23 10000 1.5 0 14:24 27.10.2019
5458 Clear 22 1019 27 10000 1.5 280 13:59 27.10.2019
5459 Clear 21 1019 30 10000 2.1 250 13:40 27.10.2019
5460 Clear 21 1019 30 10000 2.1 250 13:21 27.10.2019
5461 Clear 20 1020 32 10000 1.5 250 12:59 27.10.2019
5462 Clear 19 1020 37 10000 1.5 0 12:41 27.10.2019
5463 Clear 19 1020 37 10000 1.5 0 12:23 27.10.2019
5464 Clear 20 1021 42 10000 1 0 11:42 27.10.2019
5465 Clear 20 1021 42 10000 1 0 11:24 27.10.2019
5466 Clear 19 1022 41 10000 0.5 0 10:55 27.10.2019
5467 Clear 17 1022 47 10000 0.5 0 10:37 27.10.2019
5468 Clear 16 1022 54 10000 1 0 10:18 27.10.2019
5469 Clear 14 1023 57 10000 0.5 0 09:42 27.10.2019
5470 Clear 11 1023 70 10000 1 0 09:19 27.10.2019
5471 Clear 11 1023 70 10000 1 0 09:19 27.10.2019
5472 Clear 9 1023 70 10000 1 0 08:57 27.10.2019
5473 Clear 8 1023 70 10000 1 0 08:37 27.10.2019
5474 Clear 8 1023 70 10000 1 0 08:18 27.10.2019
5475 Clear 5 1023 80 8000 0.69 258 07:45 27.10.2019
5476 Clear 4 1023 80 8000 0.69 258 07:25 27.10.2019
5477 Clear 4 1023 80 8000 0.69 258 07:25 27.10.2019
5478 Clear 3 1023 93 8000 1 300 06:52 27.10.2019
5479 Clear 3 1023 93 8000 1 340 06:29 27.10.2019
5480 Clear 3 1023 86 8000 1.5 90 05:45 27.10.2019
5481 Clear 4 1023 86 9000 1 160 04:56 27.10.2019
5482 Clear 3 1023 93 10000 2.1 100 03:34 27.10.2019
5483 Clear 4 1024 75 10000 1 120 02:25 27.10.2019
5484 Clear 5 1024 75 7000 1 130 01:24 27.10.2019
5485 Clear 7 1024 81 7000 1 80 00:52 27.10.2019
5486 Clear 6 1024 70 7000 1.19 269 00:32 27.10.2019
5487 Clear 7 1024 70 8000 0.74 228 23:57 26.10.2019
5488 Clear 7 1024 65 10000 0.5 310 23:39 26.10.2019
5489 Clear 7 1024 65 10000 0.5 310 23:21 26.10.2019
5490 Clear 8 1024 61 10000 1 190 22:56 26.10.2019
5491 Clear 8 1024 57 10000 2.1 160 22:38 26.10.2019
5492 Clear 9 1024 57 10000 2.1 160 22:19 26.10.2019
5493 Clear 10 1024 57 10000 1.5 120 21:44 26.10.2019
5494 Clear 10 1024 57 10000 1.5 120 21:22 26.10.2019
5495 Clear 10 1024 50 10000 1.5 130 20:59 26.10.2019
5496 Clear 11 1024 41 10000 2.1 160 20:39 26.10.2019
5497 Clear 11 1024 50 10000 3.1 180 20:18 26.10.2019
5498 Clear 11 1024 41 10000 2.1 160 20:18 26.10.2019
5499 Clear 13 1023 41 10000 1 0 19:42 26.10.2019
5500 Clear 14 1023 41 10000 1 0 19:21 26.10.2019
5501 Clear 15 1023 36 10000 1.5 240 18:57 26.10.2019
5502 Clear 16 1023 39 10000 1 0 18:39 26.10.2019
5503 Clear 16 1023 39 10000 1 0 18:19 26.10.2019
5504 Clear 18 1023 37 10000 0.8 32 17:56 26.10.2019
5505 Clear 20 1022 25 10000 0.8 32 17:37 26.10.2019
5506 Clear 21 1022 25 10000 0.8 32 17:19 26.10.2019
5507 Clear 24 1022 22 10000 0.8 32 16:43 26.10.2019
5508 Clear 24 1022 22 10000 0.8 32 16:25 26.10.2019
5509 Clear 24 1022 22 10000 0.8 32 16:25 26.10.2019
5510 Clear 23 1023 23 10000 0.5 0 15:59 26.10.2019
5511 Clear 23 1023 23 10000 1 0 15:37 26.10.2019
5512 Clear 23 1023 27 10000 1 0 15:18 26.10.2019
5513 Clear 22 1023 30 10000 1 0 14:38 26.10.2019
5514 Clear 21 1022 22 0 1.68 55 14:19 26.10.2019
5515 Clear 21 1022 22 0 1.68 55 13:42 26.10.2019
5516 Clear 21 1022 22 0 1.68 55 13:23 26.10.2019
5517 Clear 20 1022 52 0 0.89 0 12:50 26.10.2019
5518 Clear 20 1025 45 10000 0.5 0 12:29 26.10.2019
5519 Clear 18 1026 50 10000 1.5 280 11:58 26.10.2019
5520 Clear 17 1026 50 10000 1.5 280 11:40 26.10.2019
5521 Clear 17 1026 50 10000 1.5 280 11:22 26.10.2019
5522 Clear 11 1026 62 10000 0.5 0 10:46 26.10.2019
5523 Clear 9 1026 70 10000 0.5 0 10:25 26.10.2019
5524 Clear 9 1026 70 10000 0.5 0 09:48 26.10.2019
5525 Clear 8 1026 70 9000 0.5 0 09:29 26.10.2019
5526 Clear 6 1026 81 8000 1 130 08:48 26.10.2019
5527 Clear 4 1026 93 8000 0.5 100 08:27 26.10.2019
5528 Clear 3 1025 86 8000 0.63 320 07:57 26.10.2019
5529 Clear 2 1025 100 8000 1 310 07:34 26.10.2019
5530 Clear 2 1025 93 8000 1 0 06:56 26.10.2019
5531 Clear 3 1024 86 10000 1.5 90 06:38 26.10.2019
5532 Clear 3 1024 86 10000 1 0 05:21 26.10.2019
5533 Clear 2 1024 59 10000 1.5 110 04:58 26.10.2019
5534 Clear 5 1024 80 10000 1 0 03:24 26.10.2019
5535 Clear 4 1024 86 10000 0.38 303 02:18 26.10.2019
5536 Clear 5 1023 70 10000 1 150 01:42 26.10.2019
5537 Clear 6 1023 75 10000 0.5 0 00:33 26.10.2019
5538 Clear 6 1023 66 10000 1 0 23:47 25.10.2019
5539 Clear 7 1023 65 10000 2.1 180 23:21 25.10.2019
5540 Clear 7 1023 66 10000 1 120 22:54 25.10.2019
5541 Clear 7 1023 66 10000 0.5 0 22:36 25.10.2019
5542 Clear 8 1023 66 10000 0.5 0 22:18 25.10.2019
5543 Clear 9 1022 61 10000 0.41 194 21:54 25.10.2019
5544 Clear 10 1022 50 10000 1 0 21:36 25.10.2019
5545 Clear 11 1022 50 10000 1 0 21:18 25.10.2019
5546 Clear 12 1021 47 10000 1 0 20:42 25.10.2019
5547 Clear 12 1021 47 10000 0.5 0 20:19 25.10.2019
5548 Clear 14 1021 41 10000 2.1 190 19:45 25.10.2019
5549 Clear 14 1021 41 10000 2.1 190 19:27 25.10.2019
5550 Clear 16 1020 39 10000 2.1 330 18:47 25.10.2019
5551 Clear 18 1020 39 10000 2.1 330 18:28 25.10.2019
5552 Clear 19 1019 37 10000 1.5 340 17:54 25.10.2019
5553 Clear 21 1019 31 10000 1.6 59 17:36 25.10.2019
5554 Clear 23 1019 31 10000 1.6 59 17:18 25.10.2019
5555 Clear 25 1019 25 10000 0.5 0 16:42 25.10.2019
5556 Clear 24 1019 25 10000 0.5 0 16:21 25.10.2019
5557 Clear 23 1019 27 10000 1 0 15:41 25.10.2019
5558 Clear 24 1019 27 10000 1 0 15:23 25.10.2019
5559 Clear 24 1019 31 10000 1 0 14:59 25.10.2019
5560 Clear 22 1019 33 10000 1.5 250 14:40 25.10.2019
5561 Clear 23 1019 33 10000 1.5 250 14:22 25.10.2019
5562 Clear 22 1020 37 10000 1.5 0 13:44 25.10.2019
5563 Clear 21 1020 37 10000 1.5 0 13:25 25.10.2019
5564 Clear 21 1020 39 10000 1.5 0 12:58 25.10.2019
5565 Clear 20 1020 45 10000 1 0 12:39 25.10.2019
5566 Clear 20 1020 45 10000 1 0 12:20 25.10.2019
5567 Clear 18 1021 51 10000 1.5 250 11:42 25.10.2019
5568 Clear 18 1021 51 10000 1.5 250 11:23 25.10.2019
5569 Clear 16 1021 54 10000 1.5 280 10:59 25.10.2019
5570 Clear 14 1021 58 10000 1 0 10:39 25.10.2019
5571 Clear 15 1021 58 10000 1 0 10:21 25.10.2019
5572 Clear 11 1021 62 10000 0.5 0 09:55 25.10.2019
5573 Clear 9 1021 70 8000 0.5 0 09:36 25.10.2019
5574 Clear 9 1021 70 8000 0.5 0 09:18 25.10.2019
5575 Clear 5 1021 81 6000 0.5 0 08:43 25.10.2019
5576 Clear 4 1021 81 6000 0.5 0 08:23 25.10.2019
5577 Clear 4 1021 86 6000 0.47 295 07:51 25.10.2019
5578 Clear 4 1021 86 6000 0.47 295 07:32 25.10.2019
5579 Clear 5 1020 93 7000 0.5 20 06:39 25.10.2019
5580 Clear 3 1020 86 9000 1 0 05:50 25.10.2019
5581 Clear 3 1020 86 9000 1 0 05:32 25.10.2019
5582 Clear 3 1020 86 10000 0.45 212 04:38 25.10.2019
5583 Clear 6 1020 75 10000 1 220 02:44 25.10.2019
5584 Clear 6 1020 70 10000 1 0 01:53 25.10.2019
5585 Clear 8 1020 61 10000 3.1 150 00:39 25.10.2019
5586 Clear 8 1020 61 10000 3.1 140 23:56 24.10.2019
5587 Clear 9 1020 57 10000 3.1 150 23:37 24.10.2019
5588 Clear 9 1020 57 10000 3.1 150 23:19 24.10.2019
5589 Clear 9 1020 57 10000 3.1 150 23:19 24.10.2019
5590 Clear 9 1020 54 10000 3.6 140 22:39 24.10.2019
5591 Clear 10 1020 54 10000 3.6 140 22:19 24.10.2019
5592 Clear 10 1020 54 10000 3.1 130 21:58 24.10.2019
5593 Clear 10 1020 54 10000 4.1 140 21:40 24.10.2019
5594 Clear 10 1020 54 10000 4.1 140 21:20 24.10.2019
5595 Clear 11 1019 50 10000 3.6 140 20:59 24.10.2019
5596 Clear 12 1019 47 10000 3.6 140 20:39 24.10.2019
5597 Clear 12 1019 44 10000 3.6 130 20:21 24.10.2019
5598 Clear 13 1019 44 10000 3.6 130 19:56 24.10.2019
5599 Clear 14 1019 38 10000 2.1 130 19:37 24.10.2019
5600 Clear 14 1019 38 10000 2.1 130 19:19 24.10.2019
5601 Clear 15 1019 42 10000 2.6 120 18:55 24.10.2019
5602 Clear 16 1019 42 10000 2.1 110 18:37 24.10.2019
5603 Clear 17 1019 42 10000 2.1 110 18:18 24.10.2019
5604 Clear 20 1018 28 10000 2.1 240 17:41 24.10.2019
5605 Clear 21 1018 28 10000 2.1 240 17:20 24.10.2019
5606 Clear 21 1018 28 10000 2.1 240 17:20 24.10.2019
5607 Clear 22 1018 27 10000 1.5 240 16:56 24.10.2019
5608 Clear 22 1018 27 10000 1.5 240 16:56 24.10.2019
5609 Clear 24 1018 27 10000 1.5 250 16:38 24.10.2019
5610 Clear 23 1018 27 10000 1.5 250 16:19 24.10.2019
5611 Clear 23 1019 27 10000 2.1 230 15:58 24.10.2019
5612 Clear 22 1019 28 10000 1.5 0 15:39 24.10.2019
5613 Clear 23 1019 28 10000 1.5 0 15:21 24.10.2019
5614 Clear 23 1019 27 10000 1 0 14:55 24.10.2019
5615 Clear 22 1019 28 10000 1 0 14:37 24.10.2019
5616 Clear 22 1019 28 10000 1 0 14:18 24.10.2019
5617 Clear 22 1020 32 10000 1.5 0 13:40 24.10.2019
5618 Clear 22 1020 32 10000 1.5 0 13:19 24.10.2019
5619 Clear 22 1021 34 10000 2.1 270 12:57 24.10.2019
5620 Clear 21 1021 42 10000 1.5 260 12:38 24.10.2019
5621 Clear 20 1021 42 10000 1.5 260 12:19 24.10.2019
5622 Clear 19 1022 42 10000 1.5 320 11:56 24.10.2019
5623 Clear 18 1022 51 10000 1 0 11:37 24.10.2019
5624 Clear 18 1022 51 10000 1 0 11:18 24.10.2019
5625 Clear 15 1023 62 10000 0.5 0 10:42 24.10.2019
5626 Clear 15 1023 62 10000 0.5 0 10:42 24.10.2019
5627 Clear 14 1023 62 10000 0.5 0 10:23 24.10.2019
5628 Clear 13 1023 62 10000 1.63 97 09:55 24.10.2019
5629 Clear 9 1023 71 10000 1 0 09:36 24.10.2019
5630 Clear 8 1023 75 10000 1 0 09:18 24.10.2019
5631 Clear 6 1023 87 8000 0.65 179 08:42 24.10.2019
5632 Clear 5 1023 87 8000 0.65 179 08:20 24.10.2019
5633 Clear 5 1023 86 8000 0.5 110 07:48 24.10.2019
5634 Clear 4 1022 93 8000 0.65 179 07:23 24.10.2019
5635 Clear 4 1022 93 8000 0.65 179 07:23 24.10.2019
5636 Clear 4 1022 86 8000 0.65 179 06:56 24.10.2019
5637 Clear 5 1022 86 8000 1 80 06:36 24.10.2019
5638 Clear 5 1022 86 8000 1 90 05:55 24.10.2019
5639 Clear 4 1022 86 8000 2.1 110 05:33 24.10.2019
5640 Clear 4 1022 80 10000 1.5 100 04:23 24.10.2019
5641 Clear 4 1023 75 10000 1 310 03:35 24.10.2019
5642 Clear 5 1023 70 10000 1.5 290 02:39 24.10.2019
5643 Clear 5 1023 70 10000 1.5 290 02:19 24.10.2019
5644 Clear 6 1023 75 10000 1.5 320 01:31 24.10.2019
5645 Clear 6 1023 70 10000 1 0 00:56 24.10.2019
5646 Clear 7 1023 57 10000 1 0 00:27 24.10.2019
5647 Clear 8 1023 57 10000 2.1 160 23:57 23.10.2019
5648 Clear 8 1023 57 10000 2.1 150 23:38 23.10.2019
5649 Clear 8 1023 57 10000 2.1 150 23:18 23.10.2019
5650 Clear 9 1023 54 10000 2.6 150 22:54 23.10.2019
5651 Clear 8 1023 57 10000 1.5 150 22:54 23.10.2019
5652 Clear 9 1023 54 10000 2.6 150 22:36 23.10.2019
5653 Clear 9 1023 54 10000 2.6 150 22:18 23.10.2019
5654 Clear 10 1023 50 10000 3.1 140 21:55 23.10.2019
5655 Clear 10 1023 50 10000 3.1 150 21:36 23.10.2019
5656 Clear 10 1023 50 10000 3.1 150 21:18 23.10.2019
5657 Clear 11 1023 50 10000 4.1 150 20:54 23.10.2019
5658 Clear 11 1023 50 10000 4.1 150 20:54 23.10.2019
5659 Clear 13 1022 47 10000 3.1 140 20:36 23.10.2019
5660 Clear 13 1022 47 10000 3.1 140 20:18 23.10.2019
5661 Clear 14 1022 44 10000 3.1 80 19:42 23.10.2019
5662 Clear 14 1022 44 10000 3.1 80 19:19 23.10.2019
5663 Clear 16 1022 34 10000 3.1 120 18:57 23.10.2019
5664 Clear 18 1022 34 10000 2.6 140 18:38 23.10.2019
5665 Clear 18 1021 30 10000 3.6 150 18:19 23.10.2019
5666 Clear 20 1021 25 10000 4.1 150 17:46 23.10.2019
5667 Clear 20 1021 25 10000 4.1 150 17:46 23.10.2019
5668 Clear 21 1021 25 10000 4.1 150 17:21 23.10.2019
5669 Clear 24 1021 38 10000 4.1 130 16:58 23.10.2019
5670 Clear 25 1021 23 10000 2.6 120 16:40 23.10.2019
5671 Clear 23 1021 23 10000 2.6 120 16:20 23.10.2019
5672 Clear 23 1021 23 10000 2.6 120 16:20 23.10.2019
5673 Clear 24 1022 23 10000 3.1 120 15:54 23.10.2019
5674 Clear 23 1022 27 10000 3.1 130 15:36 23.10.2019
5675 Clear 24 1022 27 10000 3.1 130 15:18 23.10.2019
5676 Clear 23 1022 29 10000 2.1 0 14:54 23.10.2019
5677 Clear 23 1022 33 10000 1.5 0 14:36 23.10.2019
5678 Clear 22 1022 33 10000 1.5 0 14:18 23.10.2019
5679 Clear 21 1023 46 10000 1.5 0 13:42 23.10.2019
5680 Clear 22 1023 46 10000 1.5 0 13:23 23.10.2019
5681 Clear 22 1024 45 10000 1 0 12:57 23.10.2019
5682 Clear 21 1024 48 10000 1.5 0 12:38 23.10.2019
5683 Clear 21 1024 48 10000 1.5 0 12:18 23.10.2019
5684 Clear 20 1024 55 10000 1.5 0 11:57 23.10.2019
5685 Clear 18 1025 59 10000 2.1 280 11:38 23.10.2019
5686 Clear 18 1025 59 10000 2.1 280 11:20 23.10.2019
5687 Clear 16 1025 66 8000 1 0 10:45 23.10.2019
5688 Clear 15 1025 66 8000 1 0 10:26 23.10.2019
5689 Clear 15 1025 66 8000 1 0 10:26 23.10.2019
5690 Clear 14 1025 71 8000 1.5 50 09:56 23.10.2019
5691 Clear 13 1026 76 7000 1 0 09:37 23.10.2019
5692 Mist 10 1026 87 5000 1 120 09:19 23.10.2019
5693 Mist 8 1026 87 5000 1.5 70 08:42 23.10.2019
5694 Mist 7 1026 87 5000 1.5 70 08:24 23.10.2019
5695 Fog 6 1025 93 5000 2.6 120 07:46 23.10.2019
5696 Fog 6 1025 93 5000 2.6 120 07:22 23.10.2019
5697 Clear 6 1025 86 7000 0.5 0 06:47 23.10.2019
5698 Clear 6 1025 87 9000 1 290 06:22 23.10.2019
5699 Clear 6 1025 87 9000 1 290 05:47 23.10.2019
5700 Clear 6 1025 87 10000 1 360 04:54 23.10.2019
5701 Clear 6 1025 87 10000 2.1 310 03:35 23.10.2019
5702 Clear 8 1025 71 10000 1.5 70 02:41 23.10.2019
5703 Clear 8 1025 71 10000 2.1 160 01:33 23.10.2019
5704 Clear 8 1025 76 10000 1.5 190 00:56 23.10.2019
5705 Clear 9 1025 76 10000 1.5 170 00:28 23.10.2019
5706 Clear 9 1025 71 10000 2.1 120 23:40 22.10.2019
5707 Clear 10 1025 76 10000 2.6 100 23:18 22.10.2019
5708 Clear 10 1025 76 10000 2.6 100 22:57 22.10.2019
5709 Clear 11 1025 66 10000 2.1 130 22:38 22.10.2019
5710 Clear 10 1025 66 10000 2.1 130 22:20 22.10.2019
5711 Clear 11 1025 62 10000 2.1 160 21:56 22.10.2019
5712 Clear 12 1025 58 10000 1.5 160 21:37 22.10.2019
5713 Clear 12 1025 62 10000 3.6 90 21:18 22.10.2019
5714 Clear 12 1025 62 10000 3.6 90 20:55 22.10.2019
5715 Clear 14 1024 55 10000 2.6 100 20:37 22.10.2019
5716 Clear 14 1024 55 10000 2.6 100 20:19 22.10.2019
5717 Clear 15 1024 51 10000 2.1 190 19:45 22.10.2019
5718 Clear 15 1024 51 10000 2.1 190 19:26 22.10.2019
5719 Clear 17 1024 45 10000 2.6 170 18:58 22.10.2019
5720 Clear 20 1023 42 10000 1.5 10 18:40 22.10.2019
5721 Clear 19 1023 42 10000 1.5 10 18:21 22.10.2019
5722 Clear 20 1023 40 10000 4.1 40 17:57 22.10.2019
5723 Clear 21 1023 35 10000 4.1 40 17:38 22.10.2019
5724 Clear 22 1023 33 10000 5.1 40 17:19 22.10.2019
5725 Clear 24 1023 33 10000 5.1 40 16:57 22.10.2019
5726 Clear 24 1023 29 10000 2.6 10 16:37 22.10.2019
5727 Clear 24 1023 29 10000 2.6 10 16:18 22.10.2019
5728 Clear 24 1023 29 10000 2.1 0 15:43 22.10.2019
5729 Clear 24 1023 29 10000 2.1 0 15:21 22.10.2019
5730 Clear 24 1023 29 10000 1.5 260 14:57 22.10.2019
5731 Clear 24 1024 29 10000 2.1 310 14:39 22.10.2019
5732 Clear 24 1024 29 10000 2.1 310 14:18 22.10.2019
5733 Clear 24 1024 38 10000 1 0 13:42 22.10.2019
5734 Clear 24 1024 38 10000 1 0 13:20 22.10.2019
5735 Clear 23 1025 43 10000 2.55 62 12:57 22.10.2019
5736 Clear 22 1025 49 10000 1 0 12:38 22.10.2019
5737 Clear 22 1025 49 10000 1 0 12:20 22.10.2019
5738 Clear 20 1026 55 10000 1 0 11:42 22.10.2019
5739 Clear 20 1026 55 10000 1 0 11:23 22.10.2019
5740 Clear 18 1026 62 10000 0.5 0 10:59 22.10.2019
5741 Clear 16 1026 67 10000 0.5 0 10:38 22.10.2019
5742 Clear 16 1026 67 10000 0.5 0 10:19 22.10.2019
5743 Clear 16 1026 67 10000 0.5 0 10:19 22.10.2019
5744 Clear 14 1026 71 10000 0.5 0 09:59 22.10.2019
5745 Clear 13 1026 81 7000 2.31 67 09:41 22.10.2019
5746 Clear 12 1026 81 7000 0.36 21 09:21 22.10.2019
5747 Mist 9 1026 87 5000 0.36 21 08:55 22.10.2019
5748 Mist 7 1026 93 3000 0.5 0 08:37 22.10.2019
5749 Mist 7 1026 93 3000 0.5 0 08:18 22.10.2019
5750 Fog 7 1025 93 3000 0.5 0 07:42 22.10.2019
5751 Fog 6 1025 93 3000 0.5 0 07:24 22.10.2019
5752 Mist 6 1025 93 5000 0.5 80 06:40 22.10.2019
5753 Mist 6 1025 93 5000 0.5 80 06:21 22.10.2019
5754 Mist 6 1025 93 4500 0.04 357 05:34 22.10.2019
5755 Mist 6 1025 87 5000 0.5 0 04:22 22.10.2019
5756 Clear 7 1025 93 8000 0.46 166 02:30 22.10.2019
5757 Clear 8 1024 87 9000 1 300 01:38 22.10.2019
5758 Clear 8 1024 87 9000 1 300 01:18 22.10.2019
5759 Clear 9 1024 76 10000 0.46 166 00:42 22.10.2019
5760 Clear 9 1024 76 10000 0.46 166 00:24 22.10.2019
5761 Clear 9 1024 76 10000 1.5 160 23:59 21.10.2019
5762 Clear 10 1024 76 10000 1.5 180 23:38 21.10.2019
5763 Clear 10 1024 76 10000 1.5 180 23:19 21.10.2019
5764 Clear 11 1024 66 10000 2.1 140 22:58 21.10.2019
5765 Clear 11 1024 71 10000 2.1 150 22:38 21.10.2019
5766 Clear 11 1024 71 10000 2.1 150 22:20 21.10.2019
5767 Clear 12 1024 66 10000 2.1 160 21:56 21.10.2019
5768 Clear 12 1024 66 10000 1 0 21:37 21.10.2019
5769 Clear 12 1024 66 10000 1 0 21:37 21.10.2019
5770 Clear 15 1024 71 10000 1.5 60 21:19 21.10.2019
5771 Clear 15 1024 71 10000 1.5 60 20:56 21.10.2019
5772 Clear 16 1024 51 10000 1.5 220 20:37 21.10.2019
5773 Clear 16 1024 51 10000 1.5 220 20:19 21.10.2019
5774 Clear 16 1024 59 10000 2.1 220 19:55 21.10.2019
5775 Clear 16 1024 59 10000 2.1 220 19:55 21.10.2019
5776 Clear 16 1024 59 10000 2.1 220 19:55 21.10.2019
5777 Clear 16 1024 55 10000 3.1 170 19:36 21.10.2019
5778 Clear 17 1024 55 10000 3.1 170 19:18 21.10.2019
5779 Clear 18 1023 48 10000 1.5 160 18:54 21.10.2019
5780 Clear 18 1023 48 10000 1.5 160 18:54 21.10.2019
5781 Clear 18 1023 48 10000 1.5 160 18:54 21.10.2019
5782 Clear 19 1023 45 10000 1.5 40 18:36 21.10.2019
5783 Clear 19 1023 45 10000 1.5 40 18:18 21.10.2019
5784 Clear 22 1023 31 10000 1.35 41 17:38 21.10.2019
5785 Clear 23 1023 31 10000 1.35 41 17:19 21.10.2019
5786 Clear 25 1023 29 10000 1.35 41 16:58 21.10.2019
5787 Clear 26 1023 29 10000 1.35 41 16:40 21.10.2019
5788 Clear 25 1023 29 10000 1.35 41 16:21 21.10.2019
5789 Clear 26 1023 27 10000 0.5 0 15:47 21.10.2019
5790 Clear 25 1023 24 10000 1 0 15:27 21.10.2019
5791 Clear 24 1023 31 10000 1 0 14:59 21.10.2019
5792 Clear 24 1023 31 10000 1.5 0 14:40 21.10.2019
5793 Clear 23 1023 31 10000 1.5 0 14:21 21.10.2019
5794 Clear 23 1024 36 10000 1 0 13:57 21.10.2019
5795 Clear 24 1024 43 10000 1 0 13:39 21.10.2019
5796 Clear 24 1024 43 10000 1 0 13:19 21.10.2019
5797 Clear 22 1025 49 10000 1.5 240 12:42 21.10.2019
5798 Clear 22 1025 49 10000 1.5 240 12:23 21.10.2019
5799 Clear 21 1025 55 10000 1 0 11:58 21.10.2019
5800 Clear 20 1025 59 10000 1.5 300 11:39 21.10.2019
5801 Clear 20 1025 59 10000 1.5 300 11:20 21.10.2019
5802 Clear 18 1025 63 8000 1 0 10:57 21.10.2019
5803 Clear 16 1026 76 7000 0.5 0 10:38 21.10.2019
5804 Clear 16 1026 76 7000 0.5 0 10:19 21.10.2019
5805 Clear 14 1026 76 6000 1 0 09:48 21.10.2019
5806 Mist 12 1026 76 5000 0.5 0 09:26 21.10.2019
5807 Mist 9 1025 87 3000 0.5 0 08:58 21.10.2019
5808 Mist 8 1025 100 2800 1.07 120.346 08:39 21.10.2019
5809 Mist 8 1025 100 2800 1.07 120.346 08:21 21.10.2019
5810 Fog 7 1025 93 3500 0.5 0 07:44 21.10.2019
5811 Fog 7 1025 93 3500 0.5 0 07:21 21.10.2019
5812 Mist 7 1025 93 3000 1 0 06:57 21.10.2019
5813 Clear 8 1025 93 6000 1 20 06:39 21.10.2019
5814 Clear 6 1025 93 8000 1 330 05:57 21.10.2019
5815 Clear 6 1025 93 8000 1 330 05:57 21.10.2019
5816 Clear 6 1024 93 7000 1.33 120.194 04:46 21.10.2019
5817 Clear 7 1024 87 8000 1.5 320 03:38 21.10.2019
5818 Clear 8 1024 87 8000 1.5 150 02:25 21.10.2019
5819 Clear 8 1024 87 8000 1.5 200 01:59 21.10.2019
5820 Clear 9 1024 87 8000 1 0 01:23 21.10.2019
5821 Clear 10 1024 81 8000 2.6 150 00:50 21.10.2019
5822 Clear 10 1024 81 8000 2.1 170 00:26 21.10.2019
5823 Clear 11 1023 76 10000 2.6 120 23:43 20.10.2019
5824 Clear 11 1023 76 10000 2.6 120 23:22 20.10.2019
5825 Clear 11 1023 76 10000 2.1 150 22:57 20.10.2019
5826 Clear 12 1023 71 10000 4.1 120 22:39 20.10.2019
5827 Clear 13 1023 71 10000 4.1 120 22:19 20.10.2019
5828 Clear 13 1023 67 10000 2.6 100 21:58 20.10.2019
5829 Clear 13 1023 67 10000 3.1 140 21:39 20.10.2019
5830 Clear 13 1023 67 10000 3.1 140 21:21 20.10.2019
5831 Clear 14 1022 59 10000 3.6 130 20:42 20.10.2019
5832 Clear 15 1022 59 10000 3.6 130 20:19 20.10.2019
5833 Clear 15 1022 63 10000 3.1 130 19:57 20.10.2019
5834 Clear 15 1022 63 10000 4.1 110 19:39 20.10.2019
5835 Clear 16 1022 55 10000 2.6 90 19:20 20.10.2019
5836 Clear 17 1022 55 10000 2.6 90 18:56 20.10.2019
5837 Clear 18 1021 48 10000 1.5 200 18:37 20.10.2019
5838 Clear 19 1021 48 10000 1.5 200 18:19 20.10.2019
5839 Clear 20 1021 40 10000 1 170 17:54 20.10.2019
5840 Clear 21 1021 33 10000 1.43 126.798 17:36 20.10.2019
5841 Clear 22 1021 33 10000 1.43 126.798 17:18 20.10.2019
5842 Clear 23 1021 33 10000 1 0 16:41 20.10.2019
5843 Clear 23 1021 33 10000 1 0 16:41 20.10.2019
5844 Clear 23 1021 33 10000 1 0 16:22 20.10.2019
5845 Clear 24 1021 31 10000 1.5 280 15:57 20.10.2019
5846 Clear 24 1021 33 10000 1.5 270 15:38 20.10.2019
5847 Clear 24 1021 33 10000 1.5 270 15:19 20.10.2019
5848 -273 0 0 0 0 0 14:56 20.10.2019
5849 Clear 24 1021 36 10000 2.1 260 14:37 20.10.2019
5850 Clear 22 1021 36 10000 2.1 260 14:18 20.10.2019
5851 Clear 23 1022 40 10000 1 0 13:55 20.10.2019
5852 Clear 23 1022 43 10000 2.1 270 13:36 20.10.2019
5853 Clear 23 1022 43 10000 2.1 270 13:18 20.10.2019
5854 Clear 22 1022 46 10000 1.5 290 12:55 20.10.2019
5855 Clear 22 1023 49 10000 1 0 12:36 20.10.2019
5856 Clear 21 1023 49 10000 1 0 12:18 20.10.2019
5857 Clear 20 1023 55 10000 1 0 11:41 20.10.2019
5858 Clear 20 1023 55 10000 1 0 11:41 20.10.2019
5859 Clear 20 1023 55 10000 1 0 11:41 20.10.2019
5860 Clear 20 1023 55 10000 1 0 11:23 20.10.2019
5861 Clear 18 1023 59 10000 0.5 0 10:58 20.10.2019
5862 Clear 17 1023 62 10000 2.1 163.669 10:39 20.10.2019
5863 Clear 16 1023 62 10000 2.1 163.669 10:21 20.10.2019
5864 Clear 15 1023 66 10000 1.5 250 09:56 20.10.2019
5865 Clear 11 1023 76 10000 0.5 0 09:37 20.10.2019
5866 Clear 11 1023 76 10000 0.5 0 09:19 20.10.2019
5867 Clear 9 1023 81 7000 0.5 0 08:40 20.10.2019
5868 Mist 8 1023 87 4700 1.5 90 08:21 20.10.2019
5869 Mist 8 1023 87 4700 1.5 90 07:47 20.10.2019
5870 Mist 7 1023 93 4500 1.34 129.449 07:28 20.10.2019
5871 Clear 7 1022 87 7000 1 340 06:30 20.10.2019
5872 Clear 7 1022 81 10000 1 0 04:30 20.10.2019
5873 Clear 7 1022 87 10000 1.46 117.885 03:51 20.10.2019
5874 Clear 7 1022 76 10000 1.4 116.381 03:22 20.10.2019
5875 Clear 7 1022 76 10000 1.4 116.381 02:49 20.10.2019
5876 Clear 8 1022 76 10000 1 0 02:22 20.10.2019
5877 Clear 8 1022 71 10000 1.5 180 01:49 20.10.2019
5878 Clear 8 1022 71 10000 2.1 170 01:21 20.10.2019
5879 Clear 9 1022 66 10000 3.1 150 00:48 20.10.2019
5880 Clear 8 1021 66 10000 3.1 150 00:20 20.10.2019
5881 Clear 9 1021 62 10000 2.6 180 23:54 19.10.2019
5882 Clear 9 1021 62 10000 2.6 180 23:54 19.10.2019
5883 Clear 9 1021 62 10000 2.6 160 23:36 19.10.2019
5884 Clear 10 1021 62 10000 2.6 160 23:18 19.10.2019
5885 Clear 10 1021 62 10000 3.6 140 22:40 19.10.2019
5886 Clear 10 1021 62 10000 3.6 140 22:21 19.10.2019
5887 Clear 11 1021 58 10000 2.1 150 21:55 19.10.2019
5888 Clear 11 1020 58 10000 2.1 140 21:37 19.10.2019
5889 Clear 11 1020 58 10000 2.1 140 21:37 19.10.2019
5890 Clear 11 1020 58 10000 3.1 130 21:19 19.10.2019
5891 Clear 12 1020 54 10000 3.1 120 20:41 19.10.2019
5892 Clear 12 1020 54 10000 3.1 120 20:20 19.10.2019
5893 Clear 13 1020 51 10000 2.6 140 19:42 19.10.2019
5894 Clear 14 1020 51 10000 2.6 140 19:24 19.10.2019
5895 Clear 13 1019 48 10000 3.6 110 18:55 19.10.2019
5896 Clear 14 1019 48 10000 3.1 120 18:37 19.10.2019
5897 Clear 19 1019 48 10000 3.1 120 18:18 19.10.2019
5898 Clear 21 1018 43 10000 1.5 130 17:41 19.10.2019
5899 Clear 21 1018 43 10000 1.5 130 17:21 19.10.2019
5900 Clouds 22 1018 46 10000 2.1 210 16:56 19.10.2019
5901 Clouds 23 1018 40 10000 2.6 240 16:37 19.10.2019
5902 Clouds 23 1018 40 10000 2.6 240 16:18 19.10.2019
5903 Clouds 23 1018 40 10000 2.6 240 16:18 19.10.2019
5904 Clear 23 1018 38 10000 2.1 290 15:41 19.10.2019
5905 Clear 24 1018 41 10000 2.1 240 15:23 19.10.2019
5906 Clear 24 1018 38 10000 1 0 14:39 19.10.2019
5907 Clear 24 1018 38 10000 1 0 14:20 19.10.2019
5908 Clear 23 1019 40 10000 1.5 250 13:58 19.10.2019
5909 Clear 23 1019 43 10000 0.5 0 13:39 19.10.2019
5910 Clear 23 1019 43 10000 0.5 0 13:19 19.10.2019
5911 Clear 22 1019 46 10000 1 0 12:55 19.10.2019
5912 Clear 22 1020 49 10000 1 0 12:36 19.10.2019
5913 Clear 22 1020 49 10000 1 0 12:18 19.10.2019
5914 Clear 22 1020 49 10000 1 0 12:18 19.10.2019
5915 Clear 20 1020 55 10000 1 0 11:41 19.10.2019
5916 Clear 20 1020 55 10000 1 0 11:22 19.10.2019
5917 Clear 18 1021 59 10000 1 0 10:55 19.10.2019
5918 Clear 18 1021 59 10000 1 0 10:37 19.10.2019
5919 Clear 17 1021 62 10000 0.5 0 10:19 19.10.2019
5920 Clear 15 1021 67 10000 0.5 0 09:41 19.10.2019
5921 Clear 12 1021 71 10000 0.5 0 09:23 19.10.2019
5922 Clear 12 1021 71 10000 0.5 0 09:23 19.10.2019
5923 Clear 10 1021 76 8000 1.11 125.814 08:58 19.10.2019
5924 Clear 10 1021 76 8000 1.11 125.814 08:58 19.10.2019
5925 Clear 9 1021 76 8000 1.11 125.814 08:39 19.10.2019
5926 Clear 9 1021 81 8000 1.11 125.814 08:20 19.10.2019
5927 Clear 9 1021 81 8000 1.11 125.814 08:20 19.10.2019
5928 Clear 8 1020 93 7000 1 140 07:42 19.10.2019
5929 Clear 8 1020 87 7000 1.5 120 07:23 19.10.2019
5930 Clear 8 1020 87 7000 1.5 120 07:23 19.10.2019
5931 Clear 7 1020 93 7000 1.5 100 06:40 19.10.2019
5932 Clear 6 1020 93 7000 1.5 100 05:54 19.10.2019
5933 Clear 7 1020 93 6000 1 0 05:26 19.10.2019
5934 Clear 7 1019 76 10000 1.5 80 03:22 19.10.2019
5935 Clear 7 1019 76 10000 1.5 80 03:22 19.10.2019
5936 Clear 8 1019 81 10000 1 0 02:34 19.10.2019
5937 Clear 9 1019 76 10000 1.5 200 01:50 19.10.2019
5938 Clear 9 1019 66 10000 1.5 170 00:57 19.10.2019
5939 Clear 9 1019 71 10000 1.5 160 00:37 19.10.2019
5940 Clear 9 1019 71 10000 1.5 160 00:19 19.10.2019
5941 Clear 10 1019 66 10000 2.6 120 23:39 18.10.2019
5942 Clear 11 1019 66 10000 2.6 120 23:21 18.10.2019
5943 Clear 11 1019 62 10000 3.1 140 22:55 18.10.2019
5944 Clear 11 1019 62 10000 2.6 160 22:36 18.10.2019
5945 Clear 11 1019 62 10000 2.6 160 22:18 18.10.2019
5946 Clear 11 1019 62 10000 3.1 110 21:55 18.10.2019
5947 Clear 12 1019 58 10000 2.6 130 21:36 18.10.2019
5948 Clear 12 1018 58 10000 2.6 140 21:18 18.10.2019
5949 Clear 12 1018 55 10000 3.1 120 20:43 18.10.2019
5950 Clear 13 1018 55 10000 3.1 120 20:23 18.10.2019
5951 Clear 13 1018 55 10000 2.6 130 19:58 18.10.2019
5952 Clear 13 1018 55 10000 2.6 130 19:58 18.10.2019
5953 Clear 13 1018 48 10000 2.6 130 19:40 18.10.2019
5954 Clear 15 1018 48 10000 2.6 130 19:22 18.10.2019
5955 Clear 15 1018 48 10000 2.1 0 18:59 18.10.2019
5956 Clear 15 1018 48 10000 2.1 0 18:59 18.10.2019
5957 Clear 15 1017 42 10000 2.6 150 18:41 18.10.2019
5958 Clear 17 1017 42 10000 2.6 150 18:22 18.10.2019
5959 Clear 17 1017 35 10000 2.1 200 17:56 18.10.2019
5960 Clear 18 1017 31 10000 1.5 210 17:37 18.10.2019
5961 Clear 22 1017 31 10000 1.5 210 17:19 18.10.2019
5962 Clear 23 1017 27 10000 1.55 125.821 16:40 18.10.2019
5963 Clear 24 1017 27 10000 1.55 125.821 16:21 18.10.2019
5964 Clear 24 1017 29 10000 0.5 0 15:57 18.10.2019
5965 Clear 24 1017 29 10000 1.5 260 15:38 18.10.2019
5966 Clear 24 1017 29 10000 1.5 260 15:19 18.10.2019
5967 Clear 23 1018 31 10000 1.5 0 14:56 18.10.2019
5968 Clear 23 1018 31 10000 1 0 14:38 18.10.2019
5969 Clear 23 1018 31 10000 1 0 14:19 18.10.2019
5970 Clear 23 1018 35 10000 2.1 0 13:55 18.10.2019
5971 Clear 23 1019 33 10000 1.5 260 13:36 18.10.2019
5972 Clear 23 1019 33 10000 1.5 260 13:18 18.10.2019
5973 Clear 22 1020 42 10000 1.5 0 12:40 18.10.2019
5974 Clear 22 1020 42 10000 1.5 0 12:22 18.10.2019
5975 Clear 21 1020 48 10000 1.5 310 11:59 18.10.2019
5976 Clear 20 1020 55 10000 1 0 11:41 18.10.2019
5977 Clear 18 1021 58 10000 1 0 11:20 18.10.2019
5978 Clear 18 1021 58 10000 1 0 10:57 18.10.2019
5979 Clear 16 1021 62 10000 0.5 0 10:38 18.10.2019
5980 Clear 16 1021 62 10000 0.5 0 10:19 18.10.2019
5981 -273 0 0 0 0 0 09:56 18.10.2019
5982 Clear 14 1021 66 10000 2.04 167.703 09:55 18.10.2019
5983 Clear 14 1021 66 10000 2.04 167.703 09:54 18.10.2019
5984 Clear 14 1021 66 10000 2.04 167.703 09:54 18.10.2019
5985 Clear 11 1021 76 10000 2.04 167.703 09:36 18.10.2019
5986 Clear 11 1021 76 10000 1.34 126.279 09:18 18.10.2019
5987 Clear 9 1021 76 10000 1.34 126.279 08:42 18.10.2019
5988 Clear 8 1021 76 10000 1.34 126.279 08:21 18.10.2019
5989 Clear 8 1021 76 10000 1.34 126.279 08:21 18.10.2019
5990 Clear 7 1020 93 10000 0.5 0 07:43 18.10.2019
5991 Clear 7 1020 93 10000 0.5 0 07:43 18.10.2019
5992 Clear 7 1020 93 10000 0.5 0 07:25 18.10.2019
5993 Clear 7 1020 87 10000 1.5 90 06:40 18.10.2019
5994 Clear 7 1020 87 10000 1.5 90 06:22 18.10.2019
5995 Clear 7 1020 87 10000 1.5 100 05:56 18.10.2019
5996 Clear 7 1020 87 10000 1 80 05:23 18.10.2019
5997 Clear 6 1020 87 10000 1 0 04:25 18.10.2019
5998 Clear 7 1020 75 10000 0.5 0 03:32 18.10.2019
5999 Clear 7 1020 76 10000 1 0 02:33 18.10.2019
6000 Clear 8 1020 62 10000 1.5 100 01:44 18.10.2019
6001 Clear 8 1020 62 10000 1.5 100 01:26 18.10.2019
6002 Clear 9 1020 58 10000 2.6 150 00:45 18.10.2019
6003 Clear 9 1020 58 10000 2.6 150 00:21 18.10.2019
6004 Clear 8 1020 66 10000 2.6 150 23:55 17.10.2019
6005 Clear 9 1020 54 10000 2.6 140 23:36 17.10.2019
6006 Clear 9 1020 54 10000 2.6 140 23:18 17.10.2019
6007 Clear 9 1020 62 10000 2.1 140 22:54 17.10.2019
6008 Clear 10 1020 54 10000 2.1 160 22:36 17.10.2019
6009 Clear 10 1020 54 10000 2.1 160 22:18 17.10.2019
6010 Clear 10 1020 54 10000 2.1 160 22:18 17.10.2019
6011 Clear 11 1020 50 10000 1 0 21:54 17.10.2019
6012 Clear 11 1020 54 10000 1.04 101.159 21:36 17.10.2019
6013 Clear 11 1020 54 10000 1.04 101.159 21:36 17.10.2019
6014 Clear 13 1019 54 10000 2.6 110 21:18 17.10.2019
6015 Clear 13 1019 54 10000 2.6 110 20:54 17.10.2019
6016 Clear 13 1019 51 10000 2.1 120 20:36 17.10.2019
6017 Clear 13 1019 51 10000 2.1 120 20:18 17.10.2019
6018 Clear 14 1019 51 10000 1 0 19:42 17.10.2019
6019 Clear 14 1019 51 10000 1 0 19:20 17.10.2019
6020 Clear 14 1019 51 10000 1 0 19:20 17.10.2019
6021 Clear 14 1019 51 10000 1 0 19:20 17.10.2019
6022 Clear 14 1019 48 10000 1 0 18:59 17.10.2019
6023 Clear 13 1018 45 10000 3.1 80 18:38 17.10.2019
6024 Clear 17 1018 45 10000 3.1 80 18:20 17.10.2019
6025 Clear 17 1018 45 10000 3.1 80 18:20 17.10.2019
6026 Clouds 18 1018 25 10000 0.705 99 17:43 17.10.2019
6027 Clouds 23 1018 25 10000 0.705 99 17:24 17.10.2019
6028 Clouds 23 1018 24 10000 1 0 16:58 17.10.2019
6029 Clouds 16 1018 25 10000 1.5 280 16:39 17.10.2019
6030 Clouds 20 1018 25 10000 1.5 280 16:18 17.10.2019
6031 Clouds 21 1018 25 10000 1 0 15:56 17.10.2019
6032 Clouds 21 1018 25 10000 1 0 15:56 17.10.2019
6033 Clouds 21 1018 25 10000 0.705 99 15:38 17.10.2019
6034 Clear 25 1018 25 10000 1.322 60 15:19 17.10.2019
6035 Clear 24 1018 27 10000 1.322 60 14:55 17.10.2019
6036 Clouds 23 1018 31 10000 1.5 0 14:36 17.10.2019
6037 Clouds 23 1018 31 10000 1.5 0 14:18 17.10.2019
6038 Clouds 21 1019 37 10000 0.5 0 13:39 17.10.2019
6039 Clouds 21 1020 42 10000 1.5 260 13:19 17.10.2019
6040 Clouds 22 1020 45 10000 1 0 12:43 17.10.2019
6041 Clouds 21 1020 48 10000 1 0 12:22 17.10.2019
6042 Clouds 21 1020 48 10000 1 0 11:59 17.10.2019
6043 Clouds 20 1021 51 10000 1.492 74 11:41 17.10.2019
6044 Clouds 18 1021 58 10000 1 0 11:20 17.10.2019
6045 Clouds 18 1021 58 10000 1 0 10:57 17.10.2019
6046 Clouds 16 1021 66 10000 0.5 0 10:39 17.10.2019
6047 Clouds 16 1021 66 10000 0.5 0 10:19 17.10.2019
6048 Clouds 14 1021 71 10000 1.492 74 09:54 17.10.2019
6049 Clouds 14 1021 71 10000 1.16 62 09:36 17.10.2019
6050 Clear 11 1021 71 10000 0.517 282 09:18 17.10.2019
6051 Clear 11 1021 71 10000 0.517 282 09:18 17.10.2019
6052 Clear 8 1021 81 8000 1.5 100 08:42 17.10.2019
6053 -273 0 0 0 0 0 08:24 17.10.2019
6054 Clear 8 1020 93 8000 1 0 07:56 17.10.2019
6055 Clear 7 1020 93 8000 1.5 130 07:37 17.10.2019
6056 Clear 7 1020 93 8000 1.5 130 07:18 17.10.2019
6057 Clear 7 1020 93 8000 1.5 100 06:40 17.10.2019
6058 Clear 7 1020 93 8000 1.5 100 06:21 17.10.2019
6059 Clear 7 1020 87 8000 1.5 110 05:54 17.10.2019
6060 Clear 7 1020 93 8000 2.1 100 05:32 17.10.2019
6061 Clear 7 1020 93 8000 2.1 100 05:32 17.10.2019
6062 Clear 6 1020 87 10000 0.618 276 04:53 17.10.2019
6063 Clear 6 1020 87 10000 1.5 320 03:55 17.10.2019
6064 Clear 8 1020 81 10000 0.5 0 02:36 17.10.2019
6065 Clear 8 1020 81 10000 0.648 233 01:27 17.10.2019
6066 Clear 9 1019 71 10000 0.648 233 00:38 17.10.2019
6067 Clear 9 1019 71 10000 0.5 0 00:19 17.10.2019
6068 Clear 9 1019 62 10000 0.844 175 23:42 16.10.2019
6069 Clear 9 1019 62 10000 0.844 175 23:21 16.10.2019
6070 Clear 9 1019 62 10000 0.844 175 23:21 16.10.2019
6071 Clear 9 1019 66 10000 1 0 22:56 16.10.2019
6072 Clear 10 1019 66 10000 1.5 150 22:37 16.10.2019
6073 Clear 10 1019 66 10000 1.5 150 22:18 16.10.2019
6074 Clear 11 1019 58 10000 1.5 130 21:56 16.10.2019
6075 Clear 11 1018 58 10000 1.5 150 21:37 16.10.2019
6076 Clear 11 1018 58 10000 1.5 150 21:18 16.10.2019
6077 Clear 12 1018 51 10000 2.1 120 20:57 16.10.2019
6078 Clear 12 1018 51 10000 2.1 130 20:38 16.10.2019
6079 Clear 12 1018 51 10000 2.1 130 20:20 16.10.2019
6080 Clear 15 1018 45 10000 2.1 130 19:56 16.10.2019
6081 Clear 15 1018 45 10000 2.1 140 19:38 16.10.2019
6082 Clear 15 1018 45 10000 2.1 140 19:38 16.10.2019
6083 Clear 15 1018 45 10000 2.1 140 19:19 16.10.2019
6084 Clear 16 1017 32 10000 2.6 30 18:39 16.10.2019
6085 Clear 16 1017 32 10000 2.6 30 18:39 16.10.2019
6086 Clear 17 1017 25 10000 1 0 18:19 16.10.2019
6087 Clear 18 1017 25 10000 1 0 17:56 16.10.2019
6088 Clear 19 1016 40 10000 1 0 17:38 16.10.2019
6089 Clear 23 1016 40 10000 1 0 17:20 16.10.2019
6090 Clear 24 1017 18 10000 1 0 16:58 16.10.2019
6091 Clear 19 1017 16 10000 1 0 16:40 16.10.2019
6092 Clear 21 1017 16 10000 1 0 16:20 16.10.2019
6093 Clear 21 1017 16 10000 1 0 15:56 16.10.2019
6094 Clear 21 1017 22 10000 0.5 0 15:37 16.10.2019
6095 Clear 25 1017 22 10000 0.5 0 15:18 16.10.2019
6096 Clear 25 1017 19 10000 1.5 270 14:56 16.10.2019
6097 Clear 24 1017 19 10000 1.5 270 14:38 16.10.2019
6098 Clear 24 1017 23 10000 1 0 14:18 16.10.2019
6099 Clear 23 1018 29 10000 1 0 13:56 16.10.2019
6100 Clear 24 1018 29 10000 1 0 13:36 16.10.2019
6101 Clear 24 1018 30 10000 1.5 0 13:18 16.10.2019
6102 Clear 22 1019 40 10000 1 0 12:40 16.10.2019
6103 Clear 22 1019 40 10000 1 0 12:18 16.10.2019
6104 Clear 21 1019 42 10000 1 0 11:42 16.10.2019
6105 Clear 20 1019 48 10000 0.59 43 11:18 16.10.2019
6106 Clear 17 1020 55 10000 1.5 110 10:39 16.10.2019
6107 Clear 17 1020 58 10000 1 0 10:20 16.10.2019
6108 Clear 15 1020 66 10000 1 0 09:55 16.10.2019
6109 Clear 14 1020 66 10000 1 0 09:37 16.10.2019
6110 Clear 11 1020 71 9000 1.5 110 09:19 16.10.2019
6111 Clear 8 1020 81 9000 0.5 0 08:42 16.10.2019
6112 Clear 8 1020 81 9000 0.5 0 08:24 16.10.2019
6113 Clouds 8 1020 87 8000 0.578 277 07:45 16.10.2019
6114 -273 0 0 0 0 0 07:25 16.10.2019
6115 Clear 7 1019 86 8000 2.1 100 06:58 16.10.2019
6116 Clear 7 1019 86 8000 2.1 100 06:58 16.10.2019
6117 Clear 7 1019 86 8000 2.1 100 06:39 16.10.2019
6118 Clear 8 1019 87 10000 0.961 249 05:44 16.10.2019
6119 Clear 10 1019 75 10000 1 280 02:58 16.10.2019
6120 Clear 10 1019 75 10000 1 280 02:38 16.10.2019
6121 Clear 9 1019 66 10000 2.1 140 01:19 16.10.2019
6122 Clear 9 1019 66 10000 2.1 170 00:47 16.10.2019
6123 Clear 10 1019 58 10000 2.1 190 00:27 16.10.2019
6124 Clear 10 1019 58 10000 2.6 150 23:40 15.10.2019
6125 Clear 10 1019 54 10000 3.1 140 23:22 15.10.2019
6126 Clear 10 1019 54 10000 3.1 140 23:22 15.10.2019
6127 Clear 10 1019 58 10000 3.6 150 22:56 15.10.2019
6128 Clear 11 1019 58 10000 3.6 150 22:38 15.10.2019
6129 Clear 11 1019 54 10000 3.6 130 22:19 15.10.2019
6130 -273 0 0 0 0 0 21:56 15.10.2019
6131 Clear 11 1019 54 10000 3.1 120 21:56 15.10.2019
6132 Clear 11 1019 54 10000 3.1 120 21:38 15.10.2019
6133 Clear 11 1019 54 10000 3.6 140 21:19 15.10.2019
6134 Clear 13 1018 51 10000 3.6 130 20:57 15.10.2019
6135 Clear 13 1018 51 10000 3.6 130 20:39 15.10.2019
6136 Clear 14 1018 48 10000 3.6 140 20:20 15.10.2019
6137 Clear 14 1018 48 10000 3.6 140 20:20 15.10.2019
6138 Clear 14 1018 51 10000 3.1 130 19:57 15.10.2019
6139 Clear 15 1018 40 10000 2.1 130 19:39 15.10.2019
6140 Clear 17 1018 40 10000 2.1 130 19:19 15.10.2019
6141 Clear 17 1018 40 10000 2.1 130 19:19 15.10.2019
6142 Clear 17 1018 45 10000 2.6 120 18:47 15.10.2019
6143 Clear 19 1017 40 10000 3.1 140 18:28 15.10.2019
6144 Clear 22 1017 23 10000 1 0 17:58 15.10.2019
6145 Clear 22 1017 23 10000 1 0 17:39 15.10.2019
6146 Clear 23 1017 22 10000 1.511 116 17:20 15.10.2019
6147 Clear 25 1017 21 10000 1 0 16:46 15.10.2019
6148 Clear 25 1017 24 10000 1 0 16:23 15.10.2019
6149 Clear 25 1018 24 10000 1 0 15:59 15.10.2019
6150 Clear 25 1018 24 10000 1 0 15:41 15.10.2019
6151 Clear 25 1018 24 10000 1 0 15:41 15.10.2019
6152 Clear 25 1018 26 10000 1 0 15:20 15.10.2019
6153 Clear 25 1018 25 10000 1.5 0 14:57 15.10.2019
6154 Clear 25 1018 25 10000 1.5 0 14:38 15.10.2019
6155 Clear 25 1018 25 10000 1.5 0 14:38 15.10.2019
6156 Clear 25 1019 27 10000 1 0 14:19 15.10.2019
6157 Clear 25 1019 31 10000 1.5 280 13:44 15.10.2019
6158 Clear 24 1019 33 10000 2.1 290 13:21 15.10.2019
6159 Clear 23 1020 40 10000 1 0 12:59 15.10.2019
6160 Clear 23 1020 40 10000 1 0 12:39 15.10.2019
6161 Clear 23 1020 40 10000 1 0 12:39 15.10.2019
6162 Clear 22 1021 48 10000 1 0 12:20 15.10.2019
6163 Clear 19 1021 48 10000 1 0 11:44 15.10.2019
6164 Clear 20 1021 55 10000 1 0 11:21 15.10.2019
6165 Clear 18 1021 55 10000 1 0 10:58 15.10.2019
6166 Clear 18 1021 55 10000 1 0 10:39 15.10.2019
6167 Clear 17 1021 62 10000 0.5 0 10:19 15.10.2019
6168 Clear 15 1022 66 10000 2.13 158.403 09:57 15.10.2019
6169 Clear 14 1022 66 10000 2.13 158.403 09:37 15.10.2019
6170 Clear 12 1022 71 8000 1.57 124.746 09:19 15.10.2019
6171 Clear 9 1022 76 8000 1.5 124.942 08:42 15.10.2019
6172 Clear 8 1022 87 6000 1.5 124.942 08:21 15.10.2019
6173 Mist 7 1021 93 7000 1 350 07:56 15.10.2019
6174 Fog 7 1021 100 5000 1 360 07:38 15.10.2019
6175 Fog 6 1021 100 5000 1 360 07:19 15.10.2019
6176 Fog 6 1021 100 5000 1.5 124.942 06:44 15.10.2019
6177 Fog 6 1021 100 5000 1.5 124.942 06:25 15.10.2019
6178 Mist 7 1021 93 5000 1 90 05:41 15.10.2019
6179 Mist 7 1021 87 5000 1.42 117.288 05:22 15.10.2019
6180 Mist 5 1021 93 5000 2.1 100 04:23 15.10.2019
6181 Clear 6 1021 81 6000 1.5 250 03:37 15.10.2019
6182 Clear 7 1022 81 10000 0.5 0 02:24 15.10.2019
6183 Clear 7 1022 81 10000 1 0 01:47 15.10.2019
6184 Clear 8 1022 81 10000 1.51 115.953 01:19 15.10.2019
6185 Clear 8 1022 71 10000 1 0 00:48 15.10.2019
6186 Clear 9 1022 71 10000 2.1 170 00:21 15.10.2019
6187 Clear 9 1022 66 10000 1.5 140 23:43 14.10.2019
6188 Clear 10 1022 62 10000 2.1 160 23:20 14.10.2019
6189 Clear 12 1022 62 10000 3.1 150 22:55 14.10.2019
6190 Clear 12 1022 62 10000 3.1 150 22:37 14.10.2019
6191 Clear 12 1022 62 10000 3.1 150 22:37 14.10.2019
6192 Clear 12 1022 62 10000 3.1 150 22:18 14.10.2019
6193 Clear 13 1022 58 10000 2.6 140 21:41 14.10.2019
6194 Clear 13 1022 58 10000 2.6 140 21:22 14.10.2019
6195 Clear 14 1021 51 10000 3.6 140 20:59 14.10.2019
6196 Clear 14 1021 55 10000 1.5 120 20:39 14.10.2019
6197 Clear 14 1021 55 10000 1.5 120 20:20 14.10.2019
6198 Clear 16 1021 48 10000 1.5 140 19:58 14.10.2019
6199 Clear 16 1021 48 10000 1.5 140 19:40 14.10.2019
6200 Clear 17 1021 48 10000 2.6 120 19:22 14.10.2019
6201 Clear 18 1021 52 10000 2.6 160 18:58 14.10.2019
6202 Clear 19 1021 52 10000 2.6 160 18:38 14.10.2019
6203 Clear 20 1021 43 10000 3.1 150 18:18 14.10.2019
6204 Clear 20 1021 43 10000 3.1 150 18:18 14.10.2019
6205 Clear 23 1021 30 10000 1 0 17:44 14.10.2019
6206 Clear 24 1021 30 10000 1 0 17:25 14.10.2019
6207 Clear 25 1021 31 10000 1 0 16:58 14.10.2019
6208 Clear 25 1021 31 10000 1.5 290 16:40 14.10.2019
6209 Clear 25 1021 31 10000 1.5 290 16:20 14.10.2019
6210 Clear 24 1021 33 10000 1.5 260 15:41 14.10.2019
6211 Clear 25 1021 33 10000 1.5 260 15:22 14.10.2019
6212 Clear 23 1022 38 10000 1.5 250 14:44 14.10.2019
6213 Clear 23 1022 38 10000 1.5 250 14:26 14.10.2019
6214 Clear 24 1022 40 10000 1 0 13:59 14.10.2019
6215 Clear 24 1023 43 10000 1 0 13:41 14.10.2019
6216 Clear 23 1023 46 10000 1.5 0 13:21 14.10.2019
6217 Clear 23 1024 52 10000 1 0 12:42 14.10.2019
6218 -273 0 0 0 0 0 12:21 14.10.2019
6219 Clear 22 1024 52 10000 1 0 12:21 14.10.2019
6220 Clear 20 1024 55 10000 1 0 11:57 14.10.2019
6221 Clear 19 1024 63 10000 1 0 11:39 14.10.2019
6222 Clear 19 1024 63 10000 1 0 11:20 14.10.2019
6223 Clear 17 1025 72 10000 0.5 0 10:44 14.10.2019
6224 Clear 17 1025 72 10000 0.5 0 10:23 14.10.2019
6225 Clear 15 1025 76 10000 1.83 164.682 09:59 14.10.2019
6226 Clear 14 1025 81 10000 1.83 164.682 09:40 14.10.2019
6227 Clear 13 1025 81 10000 1.18 114.826 09:20 14.10.2019
6228 Mist 11 1025 93 5000 1 0 08:48 14.10.2019
6229 Mist 10 1025 93 5000 1 0 08:23 14.10.2019
6230 Mist 10 1024 93 4500 1.5 110 07:47 14.10.2019
6231 Mist 10 1024 93 4500 1.5 110 07:23 14.10.2019
6232 Fog 10 1024 100 5000 1.5 120 06:57 14.10.2019
6233 Fog 10 1024 100 600 1.18 114.826 06:28 14.10.2019
6234 Mist 8 1025 93 2000 1.21 110.428 05:55 14.10.2019
6235 Clear 8 1024 93 8000 1 100 04:59 14.10.2019
6236 Clear 9 1024 93 8000 1.21 110.428 03:49 14.10.2019
6237 Clear 9 1024 87 8000 0.5 0 03:22 14.10.2019
6238 Clear 10 1025 87 10000 1.2 109.279 01:56 14.10.2019
6239 Clear 10 1025 87 10000 0.5 0 01:18 14.10.2019
6240 Clear 11 1024 71 10000 2.1 140 00:40 14.10.2019
6241 Clear 12 1024 71 10000 2.1 140 00:18 14.10.2019
6242 Clear 12 1024 71 10000 3.6 150 23:40 13.10.2019
6243 Clear 12 1024 71 10000 3.6 150 23:19 13.10.2019
6244 Clear 12 1024 67 10000 3.1 130 22:55 13.10.2019
6245 Clear 12 1024 67 10000 3.1 130 22:55 13.10.2019
6246 Clear 12 1024 67 10000 3.1 130 22:55 13.10.2019
6247 Clear 12 1024 67 10000 3.1 130 22:37 13.10.2019
6248 Clear 12 1024 67 10000 3.1 130 22:19 13.10.2019
6249 Clear 12 1024 67 10000 3.1 130 22:19 13.10.2019
6250 Clear 12 1024 67 10000 3.1 130 21:55 13.10.2019
6251 Clear 12 1024 67 10000 3.1 130 21:36 13.10.2019
6252 Clear 13 1024 67 10000 3.1 130 21:18 13.10.2019
6253 Clear 13 1024 67 10000 3.1 130 21:18 13.10.2019
6254 Clear 13 1024 67 10000 3.1 130 21:18 13.10.2019
6255 Clear 13 1024 67 10000 2.6 120 20:55 13.10.2019
6256 Clear 13 1024 67 10000 2.6 120 20:55 13.10.2019
6257 Clear 14 1024 63 10000 3.1 110 20:36 13.10.2019
6258 Clear 14 1024 72 10000 2.6 120 20:18 13.10.2019
6259 Clear 14 1023 63 10000 2.6 120 19:40 13.10.2019
6260 Clear 15 1023 63 10000 2.6 120 19:22 13.10.2019
6261 Clear 15 1023 59 10000 1.5 200 18:59 13.10.2019
6262 Clear 15 1023 56 10000 0.5 230 18:38 13.10.2019
6263 Clear 16 1023 56 10000 0.5 230 18:20 13.10.2019
6264 Clear 18 1023 43 10000 1.07 165.587 17:59 13.10.2019
6265 Clear 19 1023 38 10000 0.5 270 17:40 13.10.2019
6266 Clear 23 1023 38 10000 0.5 270 17:22 13.10.2019
6267 Clear 23 1023 41 10000 0.5 0 16:43 13.10.2019
6268 Clear 23 1023 41 10000 0.5 0 16:19 13.10.2019
6269 -273 0 0 0 0 0 15:57 13.10.2019
6270 Clear 23 1023 41 10000 1.5 330 15:39 13.10.2019
6271 Clear 24 1023 41 10000 1.5 330 15:20 13.10.2019
6272 Clear 24 1023 41 10000 1.5 330 15:20 13.10.2019
6273 Clear 24 1023 41 10000 1 0 14:57 13.10.2019
6274 Clear 24 1024 43 10000 2.1 290 14:39 13.10.2019
6275 Clear 24 1024 43 10000 2.1 290 14:20 13.10.2019
6276 Clear 23 1024 49 10000 1.5 0 13:43 13.10.2019
6277 -273 0 0 0 0 0 13:43 13.10.2019
6278 Clear 23 1024 49 10000 1.5 0 13:24 13.10.2019
6279 Clear 23 1025 52 10000 2.1 280 12:59 13.10.2019
6280 Clear 23 1025 52 10000 2.1 280 12:59 13.10.2019
6281 Clear 22 1025 52 10000 1.75 184.987 12:40 13.10.2019
6282 Clear 22 1025 52 10000 1.56 182.352 12:21 13.10.2019
6283 Clear 21 1025 55 10000 1.5 0 11:59 13.10.2019
6284 Clear 20 1026 63 10000 1 0 11:40 13.10.2019
6285 Clear 18 1026 63 10000 1 0 11:21 13.10.2019
6286 Clear 18 1026 67 10000 1 0 10:59 13.10.2019
6287 Clear 17 1026 72 10000 0.5 0 10:40 13.10.2019
6288 Clear 17 1026 72 10000 0.5 0 10:22 13.10.2019
6289 Clear 13 1026 81 10000 0.5 0 09:40 13.10.2019
6290 Clear 12 1026 81 10000 0.5 0 09:21 13.10.2019
6291 Fog 11 1026 87 7000 1.5 30 08:55 13.10.2019
6292 Fog 10 1026 87 7000 1.5 30 08:27 13.10.2019
6293 Mist 10 1026 93 5000 1.38 130.183 07:55 13.10.2019
6294 Mist 9 1026 100 5000 1.38 130.183 07:35 13.10.2019
6295 Fog 10 1026 100 7000 1.38 130.183 06:54 13.10.2019
6296 Fog 10 1026 100 7000 1.38 130.183 06:54 13.10.2019
6297 Clear 10 1025 100 8000 1.38 130.183 06:26 13.10.2019
6298 Clear 8 1025 93 10000 0.5 0 05:27 13.10.2019
6299 Clear 8 1025 93 10000 1.33 123.511 04:35 13.10.2019
6300 Clear 8 1025 87 10000 1.5 350 03:35 13.10.2019
6301 Clear 8 1026 87 10000 1.5 100 02:32 13.10.2019
6302 Clear 9 1026 76 10000 2.1 170 01:37 13.10.2019
6303 Clear 8 1026 81 10000 1.5 170 01:18 13.10.2019
6304 Clear 9 1026 81 10000 1.5 170 00:42 13.10.2019
6305 Clear 9 1026 81 10000 1.5 170 00:19 13.10.2019
6306 Clear 10 1026 76 10000 2.1 150 23:42 12.10.2019
6307 Clear 10 1026 76 10000 2.1 150 23:23 12.10.2019
6308 Clear 11 1026 71 10000 3.1 150 22:59 12.10.2019
6309 Clear 12 1025 67 10000 3.6 140 22:40 12.10.2019
6310 Clear 12 1025 67 10000 3.6 140 22:22 12.10.2019
6311 Clear 13 1025 67 10000 3.1 130 21:58 12.10.2019
6312 Clear 13 1025 67 10000 4.1 110 21:40 12.10.2019
6313 Clear 13 1025 67 10000 4.1 110 21:40 12.10.2019
6314 Clear 13 1025 67 10000 4.1 110 21:40 12.10.2019
6315 Clear 13 1025 67 10000 4.6 110 21:21 12.10.2019
6316 Clear 13 1025 67 10000 4.6 110 20:54 12.10.2019
6317 Clear 14 1025 67 10000 5.1 110 20:36 12.10.2019
6318 Clear 14 1025 67 10000 5.1 110 20:18 12.10.2019
6319 Clear 13 1024 67 10000 4.1 110 19:36 12.10.2019
6320 Clear 14 1024 67 10000 4.1 110 19:18 12.10.2019
6321 Clear 14 1024 55 10000 4.6 130 18:43 12.10.2019
6322 Clear 14 1024 55 10000 4.6 130 18:24 12.10.2019
6323 Clear 17 1024 46 10000 3.1 100 17:46 12.10.2019
6324 Clear 21 1024 46 10000 3.1 100 17:22 12.10.2019
6325 Clear 22 1024 44 10000 2.6 100 16:59 12.10.2019
6326 Clear 22 1024 44 10000 2.6 100 16:59 12.10.2019
6327 Clear 23 1024 46 10000 2.6 90 16:40 12.10.2019
6328 Clear 22 1024 46 10000 2.6 90 16:21 12.10.2019
6329 Clear 23 1024 44 10000 1.5 130 15:56 12.10.2019
6330 Clear 22 1024 46 10000 3.6 70 15:37 12.10.2019
6331 Clear 22 1024 46 10000 1.5 0 15:18 12.10.2019
6332 Clear 22 1025 43 10000 1.5 0 14:39 12.10.2019
6333 Clear 23 1025 43 10000 1 0 14:20 12.10.2019
6334 Clear 23 1025 43 10000 1 0 13:50 12.10.2019
6335 Clear 21 1026 49 10000 1.5 0 13:32 12.10.2019
6336 Clear 21 1026 49 10000 1.5 150 12:55 12.10.2019
6337 Clear 20 1027 52 10000 2.6 280 12:37 12.10.2019
6338 Clear 19 1027 55 10000 1.5 0 12:18 12.10.2019
6339 Clear 19 1027 55 10000 1 0 11:41 12.10.2019
6340 Clear 19 1027 55 10000 1 0 11:22 12.10.2019
6341 Clear 18 1027 59 10000 1.5 0 10:57 12.10.2019
6342 Clear 17 1027 62 10000 1 0 10:38 12.10.2019
6343 Clear 16 1027 62 10000 1 0 10:19 12.10.2019
6344 Clear 15 1027 66 10000 1 0 09:56 12.10.2019
6345 Clear 13 1027 71 10000 2.59 158.112 09:37 12.10.2019
6346 Clear 10 1027 71 10000 1.92 136.748 09:19 12.10.2019
6347 Clear 8 1027 75 10000 1.88 136.425 08:43 12.10.2019
6348 Clear 8 1027 87 10000 1 340 08:23 12.10.2019
6349 Clear 7 1027 87 10000 1.88 136.425 07:40 12.10.2019
6350 Clear 6 1027 87 10000 1.88 136.425 07:22 12.10.2019
6351 Clear 6 1027 93 10000 2.09 118.416 05:54 12.10.2019
6352 Clear 7 1027 87 10000 1.5 10 05:25 12.10.2019
6353 Clear 7 1027 81 10000 3.1 270 04:29 12.10.2019
6354 Clear 7 1026 81 10000 2.09 118.416 03:46 12.10.2019
6355 Clouds 8 1027 81 10000 1 20 02:37 12.10.2019
6356 Clouds 9 1027 71 10000 1 0 01:30 12.10.2019
6357 Clear 8 1026 76 10000 0.5 0 00:43 12.10.2019
6358 Clear 8 1026 81 10000 1.24 101.22 00:19 12.10.2019
6359 Clear 10 1026 66 10000 0.5 0 23:40 11.10.2019
6360 Clear 10 1026 66 10000 0.5 0 23:40 11.10.2019
6361 Clear 10 1026 66 10000 1.5 120 23:20 11.10.2019
6362 Clear 10 1026 66 10000 1.5 120 22:56 11.10.2019
6363 Clear 10 1026 66 10000 2.1 180 22:37 11.10.2019
6364 Clear 10 1026 66 10000 2.1 180 22:18 11.10.2019
6365 Clear 10 1025 58 10000 1 60 21:40 11.10.2019
6366 Clear 10 1025 58 10000 1 60 21:21 11.10.2019
6367 Clear 10 1025 58 10000 1.5 60 20:45 11.10.2019
6368 Clear 10 1025 58 10000 1.5 60 20:27 11.10.2019
6369 Clear 11 1025 47 10000 2.6 170 19:59 11.10.2019
6370 Clear 11 1025 48 10000 2.6 170 19:39 11.10.2019
6371 Clear 12 1025 48 10000 2.6 170 19:18 11.10.2019
6372 Clear 12 1025 48 10000 2.6 170 19:18 11.10.2019
6373 Clear 10 1025 45 10000 2.6 170 18:59 11.10.2019
6374 Clear 10 1024 42 10000 3.1 40 18:39 11.10.2019
6375 Clear 14 1024 42 10000 3.1 40 18:19 11.10.2019
6376 Clear 15 1024 39 10000 4.1 40 17:59 11.10.2019
6377 Clear 15 1024 40 10000 3.1 40 17:38 11.10.2019
6378 Clear 20 1024 37 10000 2.1 340 17:19 11.10.2019
6379 Clear 20 1024 37 10000 2.1 340 17:19 11.10.2019
6380 Clear 20 1024 37 10000 2.1 340 16:59 11.10.2019
6381 Clear 20 1024 37 10000 2.1 330 16:39 11.10.2019
6382 Clear 20 1024 35 10000 2.6 340 16:19 11.10.2019
6383 Clear 20 1024 37 10000 2.6 300 15:42 11.10.2019
6384 Clear 20 1024 37 10000 2.6 300 15:22 11.10.2019
6385 Clear 20 1024 35 10000 2.1 290 14:59 11.10.2019
6386 Clear 19 1024 40 10000 2.1 270 14:40 11.10.2019
6387 Clear 19 1024 40 10000 2.1 270 14:20 11.10.2019
6388 Clear 19 1025 45 10000 2.6 310 13:45 11.10.2019
6389 Clear 19 1025 45 10000 2.6 310 13:45 11.10.2019
6390 Clear 20 1025 45 10000 2.6 310 13:25 11.10.2019
6391 Clear 20 1025 42 10000 3.1 260 12:57 11.10.2019
6392 Clear 19 1025 45 10000 3.1 300 12:39 11.10.2019
6393 Clear 18 1025 45 10000 3.1 300 12:20 11.10.2019
6394 Clear 19 1025 51 10000 3.6 0 11:58 11.10.2019
6395 Clear 19 1025 51 10000 3.1 270 11:38 11.10.2019
6396 Clear 17 1025 51 10000 3.1 270 11:20 11.10.2019
6397 Clear 18 1025 59 10000 3.1 270 10:54 11.10.2019
6398 Clear 17 1025 59 10000 3.6 280 10:36 11.10.2019
6399 Clear 17 1025 59 10000 3.6 280 10:18 11.10.2019
6400 Clouds 16 1025 76 10000 6.2 270 09:41 11.10.2019
6401 Clouds 15 1025 76 10000 5.7 270 09:20 11.10.2019
6402 Clouds 14 1025 76 10000 5.7 270 08:56 11.10.2019
6403 Clouds 14 1024 82 10000 5.1 280 08:38 11.10.2019
6404 Clouds 13 1024 82 10000 5.1 280 08:20 11.10.2019
6405 Clouds 12 1024 82 10000 4.1 280 07:51 11.10.2019
6406 Clouds 12 1023 87 10000 4.6 270 07:33 11.10.2019
6407 Clouds 12 1023 87 10000 3.6 270 06:50 11.10.2019
6408 Clouds 13 1023 82 10000 3.6 290 06:25 11.10.2019
6409 Clouds 13 1022 87 10000 4.6 260 05:46 11.10.2019
6410 Clouds 14 1022 87 10000 4.6 260 05:27 11.10.2019
6411 Clouds 14 1022 87 10000 3.6 280 04:47 11.10.2019
6412 Rain 14 1021 87 10000 3.6 300 03:20 11.10.2019
6413 Clouds 14 1019 87 10000 1.5 250 00:54 11.10.2019
6414 Rain 14 1018 82 10000 2.95 316.98 00:31 11.10.2019
6415 Clouds 14 1018 77 10000 1 0 23:57 10.10.2019
6416 Clear 14 1018 77 10000 1.5 0 23:39 10.10.2019
6417 Clear 14 1018 77 10000 1.5 0 23:18 10.10.2019
6418 Clear 15 1018 82 10000 1.5 360 22:54 10.10.2019
6419 Clear 15 1018 82 10000 1 0 22:36 10.10.2019
6420 Clear 15 1017 77 10000 1.5 330 22:18 10.10.2019
6421 Clear 16 1017 72 10000 1 0 21:42 10.10.2019
6422 Clear 17 1017 72 10000 1 0 21:22 10.10.2019
6423 Clear 17 1017 72 10000 2.1 80 21:22 10.10.2019
6424 Clear 17 1017 72 10000 2.1 80 20:57 10.10.2019
6425 Clear 17 1017 77 10000 2.1 80 20:39 10.10.2019
6426 Clear 17 1017 68 10000 1 0 20:19 10.10.2019
6427 Clear 17 1017 68 10000 1 0 19:55 10.10.2019
6428 Clear 18 1017 63 10000 1.5 170 19:36 10.10.2019
6429 Clear 18 1017 63 10000 1.5 170 19:18 10.10.2019
6430 Clouds 19 1016 60 10000 1.14 263.593 18:41 10.10.2019
6431 Clouds 20 1016 60 10000 3.06 303.56 18:20 10.10.2019
6432 Clouds 21 1016 49 10000 1.5 130 17:56 10.10.2019
6433 Clouds 21 1016 49 10000 0.5 0 17:37 10.10.2019
6434 Clouds 22 1016 49 10000 0.5 0 17:18 10.10.2019
6435 Clouds 22 1016 46 10000 1 0 16:47 10.10.2019
6436 Clouds 24 1016 44 10000 1 0 16:26 10.10.2019
6437 Clouds 24 1017 44 10000 2.1 320 15:58 10.10.2019
6438 Clouds 24 1017 47 10000 1 0 15:38 10.10.2019
6439 Clouds 24 1017 47 10000 1 0 15:20 10.10.2019
6440 Clouds 23 1017 44 10000 2.6 320 14:55 10.10.2019
6441 Clouds 23 1017 44 10000 2.1 0 14:36 10.10.2019
6442 Clouds 23 1017 46 10000 1.5 0 14:18 10.10.2019
6443 Clouds 24 1018 46 10000 1 0 13:42 10.10.2019
6444 Clouds 24 1018 46 10000 1 0 13:24 10.10.2019
6445 Clouds 23 1018 52 10000 2.1 30 12:58 10.10.2019
6446 Clouds 22 1019 56 10000 1.5 0 12:40 10.10.2019
6447 Clouds 20 1019 56 10000 1.5 0 12:20 10.10.2019
6448 Clouds 21 1019 59 10000 0.5 0 11:58 10.10.2019
6449 Clear 21 1020 63 10000 0.5 0 11:38 10.10.2019
6450 Clear 20 1020 63 10000 0.5 0 11:19 10.10.2019
6451 Clear 18 1020 67 10000 1 0 10:44 10.10.2019
6452 Clear 17 1020 67 10000 1 0 10:26 10.10.2019
6453 Clear 15 1020 76 10000 1 0 09:56 10.10.2019
6454 Clear 14 1020 76 10000 1 0 09:38 10.10.2019
6455 Clear 12 1020 76 10000 1 0 09:20 10.10.2019
6456 Clear 10 1020 81 10000 1 0 08:57 10.10.2019
6457 Clear 9 1019 87 9000 0.5 0 08:37 10.10.2019
6458 Clear 8 1019 87 9000 0.5 0 08:18 10.10.2019
6459 Clouds 8 1019 93 9000 1.5 190 07:44 10.10.2019
6460 Clouds 7 1019 93 9000 3.1 180 07:21 10.10.2019
6461 Clouds 7 1019 93 9000 3.1 180 06:48 10.10.2019
6462 Clouds 6 1019 93 8000 2.6 110 06:29 10.10.2019
6463 Clouds 6 1019 93 8000 0.43 212.727 05:27 10.10.2019
6464 Clear 5 1019 93 10000 1 0 04:39 10.10.2019
6465 Clear 5 1019 93 10000 1 0 04:21 10.10.2019
6466 Clear 7 1019 87 10000 1 0 01:43 10.10.2019
6467 Clear 7 1019 87 10000 1 0 01:43 10.10.2019
6468 Clear 7 1019 87 10000 1 0 01:24 10.10.2019
6469 Clear 8 1019 81 10000 1.5 160 00:53 10.10.2019
6470 Clear 8 1019 81 10000 1 150 00:21 10.10.2019
6471 Clear 8 1019 81 10000 1.5 0 23:39 09.10.2019
6472 Clear 9 1019 81 10000 1.5 0 23:20 09.10.2019
6473 Clear 9 1019 76 10000 2.1 140 22:43 09.10.2019
6474 Clear 11 1019 76 10000 2.1 140 22:24 09.10.2019
6475 Clear 10 1019 76 10000 2.1 90 21:59 09.10.2019
6476 Clear 10 1019 76 10000 2.1 90 21:59 09.10.2019
6477 Clear 11 1019 71 10000 2.1 100 21:39 09.10.2019
6478 Clear 11 1019 71 10000 2.1 100 21:20 09.10.2019
6479 Clear 12 1019 71 10000 1 0 20:56 09.10.2019
6480 Clear 12 1019 71 10000 1 0 20:56 09.10.2019
6481 Clear 12 1019 67 10000 2.6 100 20:37 09.10.2019
6482 Clear 13 1019 62 10000 2.6 80 20:18 09.10.2019
6483 Clear 13 1019 62 10000 2.6 80 20:18 09.10.2019
6484 Clear 14 1019 55 10000 2.6 0 19:45 09.10.2019
6485 Clear 14 1019 55 10000 2.6 0 19:24 09.10.2019
6486 Clear 15 1019 59 10000 2.1 180 18:58 09.10.2019
6487 Clear 19 1019 48 10000 1.5 90 18:38 09.10.2019
6488 Clear 17 1019 48 10000 1.5 90 18:18 09.10.2019
6489 Clear 18 1019 45 10000 2.1 110 17:55 09.10.2019
6490 Clear 19 1019 40 10000 2.1 140 17:37 09.10.2019
6491 Clear 20 1019 43 10000 2.1 100 17:18 09.10.2019
6492 Clear 17 1019 40 10000 2.6 110 16:41 09.10.2019
6493 Clear 17 1019 40 10000 2.6 110 16:23 09.10.2019
6494 Clear 18 1019 40 10000 1.5 90 15:58 09.10.2019
6495 Clear 18 1020 42 10000 1 0 15:39 09.10.2019
6496 Clear 18 1020 42 10000 1 0 15:20 09.10.2019
6497 Clear 18 1020 42 10000 1.5 0 14:58 09.10.2019
6498 Clear 18 1020 45 10000 1 0 14:39 09.10.2019
6499 Clear 20 1020 45 10000 1 0 14:18 09.10.2019
6500 Clear 19 1021 52 10000 1.5 0 13:40 09.10.2019
6501 Clear 19 1021 52 10000 1.5 0 13:21 09.10.2019
6502 Clear 18 1022 51 10000 1 0 12:59 09.10.2019
6503 Clear 17 1023 55 10000 1.5 60 12:40 09.10.2019
6504 Clear 16 1023 55 10000 1.5 60 12:21 09.10.2019
6505 Clear 15 1023 58 10000 2.1 120 11:55 09.10.2019
6506 Clear 16 1023 58 10000 2.1 0 11:36 09.10.2019
6507 Clear 14 1024 66 10000 1.5 0 11:18 09.10.2019
6508 Clear 14 1024 76 10000 1.5 0 10:43 09.10.2019
6509 Clear 13 1024 76 10000 1.5 0 10:21 09.10.2019
6510 Clear 11 1024 71 10000 2.6 120 09:57 09.10.2019
6511 Clear 10 1024 81 10000 2.1 110 09:38 09.10.2019
6512 Clear 10 1024 81 10000 2.1 110 09:38 09.10.2019
6513 Clear 10 1024 81 10000 2.1 110 09:18 09.10.2019
6514 Clear 8 1024 87 8000 2.1 120 08:39 09.10.2019
6515 Clear 7 1024 93 8000 1 0 08:21 09.10.2019
6516 Clear 7 1024 93 8000 1 0 07:47 09.10.2019
6517 Clear 6 1024 87 8000 1.5 130 07:27 09.10.2019
6518 Clear 6 1024 87 8000 1.5 130 07:27 09.10.2019
6519 Clear 6 1023 93 8000 1 0 06:59 09.10.2019
6520 Clear 5 1023 93 8000 2.57 131.125 06:41 09.10.2019
6521 Clear 5 1024 93 10000 1.5 230 05:53 09.10.2019
6522 Clear 4 1024 93 10000 2.41 128.905 05:18 09.10.2019
6523 Clear 6 1024 87 10000 2.1 120 03:54 09.10.2019
6524 Clear 5 1024 87 10000 2.6 130 02:42 09.10.2019
6525 Clear 5 1024 87 10000 4.6 100 01:39 09.10.2019
6526 Clear 5 1024 87 10000 4.6 100 01:39 09.10.2019
6527 Clear 5 1024 87 10000 4.6 100 01:19 09.10.2019
6528 Clear 5 1024 87 10000 5.1 100 00:55 09.10.2019
6529 Clear 5 1024 81 10000 4.6 100 00:37 09.10.2019
6530 Clear 5 1024 81 10000 4.6 100 00:19 09.10.2019
6531 Clear 6 1024 81 10000 4.6 100 23:39 08.10.2019
6532 Clear 6 1024 81 10000 5.1 110 23:18 08.10.2019
6533 Clear 6 1024 81 10000 5.1 110 22:55 08.10.2019
6534 Clear 7 1024 76 10000 5.1 110 22:36 08.10.2019
6535 Clear 7 1024 76 10000 5.1 110 22:18 08.10.2019
6536 Clear 7 1024 81 10000 4.1 130 21:55 08.10.2019
6537 Clear 7 1024 81 10000 4.1 130 21:55 08.10.2019
6538 Clouds 7 1024 76 10000 3.6 130 21:36 08.10.2019
6539 Clouds 7 1024 76 10000 3.6 130 21:18 08.10.2019
6540 Clear 7 1023 76 10000 2.6 140 20:55 08.10.2019
6541 Clear 7 1023 76 10000 2.6 140 20:55 08.10.2019
6542 Clear 7 1023 76 10000 3.6 130 20:36 08.10.2019
6543 Clouds 8 1023 66 10000 4.1 110 20:18 08.10.2019
6544 Clouds 8 1022 62 10000 3.6 120 19:42 08.10.2019
6545 Clouds 9 1022 62 10000 3.1 130 19:24 08.10.2019
6546 Clouds 7 1022 62 10000 3.1 130 18:59 08.10.2019
6547 Clouds 8 1022 58 10000 3.1 150 18:41 08.10.2019
6548 Clouds 9 1022 54 10000 2.6 150 18:22 08.10.2019
6549 Clouds 10 1022 54 10000 2.6 150 17:57 08.10.2019
6550 Clouds 10 1021 54 10000 3.1 150 17:39 08.10.2019
6551 Clouds 10 1021 54 10000 3.1 150 17:18 08.10.2019
6552 Clouds 10 1021 51 10000 4.1 150 16:41 08.10.2019
6553 Clouds 11 1021 51 10000 4.1 150 16:22 08.10.2019
6554 Clouds 11 1021 51 10000 3.1 150 15:57 08.10.2019
6555 Clouds 10 1021 51 10000 3.1 150 15:38 08.10.2019
6556 Clouds 11 1021 51 10000 3.1 150 15:19 08.10.2019
6557 Clouds 10 1021 54 10000 3.6 140 14:42 08.10.2019
6558 Clouds 10 1021 54 10000 3.6 140 14:42 08.10.2019
6559 Clouds 11 1021 54 10000 3.6 140 14:21 08.10.2019
6560 Clouds 14 1021 51 10000 4.1 150 13:59 08.10.2019
6561 Clouds 13 1022 62 10000 3.6 130 13:39 08.10.2019
6562 Clouds 11 1022 62 10000 3.6 130 13:21 08.10.2019
6563 Clouds 11 1022 58 10000 3.1 110 12:59 08.10.2019
6564 Clouds 10 1022 62 10000 1 0 12:39 08.10.2019
6565 Clouds 8 1022 62 10000 1 0 12:19 08.10.2019
6566 Clouds 9 1022 62 10000 1 0 11:43 08.10.2019
6567 Clouds 9 1022 66 10000 0.63 56.942 11:24 08.10.2019
6568 Clouds 9 1022 66 10000 0.63 56.942 11:24 08.10.2019
6569 Clouds 8 1022 66 10000 0.63 56.942 10:59 08.10.2019
6570 Clouds 8 1022 71 10000 1.5 150 10:39 08.10.2019
6571 Clouds 8 1022 71 10000 1.5 150 10:20 08.10.2019
6572 Clouds 8 1022 71 10000 1.5 150 10:20 08.10.2019
6573 Clouds 7 1022 81 10000 2.1 180 09:57 08.10.2019
6574 Clouds 7 1021 81 10000 2.1 180 09:39 08.10.2019
6575 Clouds 7 1021 81 10000 2.1 180 09:20 08.10.2019
6576 Clouds 7 1021 81 10000 2.1 190 08:42 08.10.2019
6577 Rain 7 1020 87 10000 1.5 0 08:24 08.10.2019
6578 Clouds 7 1020 81 10000 1.5 50 07:45 08.10.2019
6579 Clouds 5 1019 87 10000 2.6 50 07:21 08.10.2019
6580 Clouds 5 1019 87 10000 2.6 50 06:56 08.10.2019
6581 Clouds 5 1019 81 10000 2.1 110 06:32 08.10.2019
6582 Clouds 4 1018 76 10000 3.6 150 05:55 08.10.2019
6583 Clouds 4 1018 76 10000 3.6 130 05:36 08.10.2019
6584 Clouds 3 1018 70 10000 0.5 0 04:33 08.10.2019
6585 Clouds 4 1018 75 10000 1.5 110 03:29 08.10.2019
6586 Clouds 3 1018 70 10000 1.44 11.45 02:39 08.10.2019
6587 Clouds 2 1018 75 10000 1.44 11.45 01:49 08.10.2019
6588 Clouds 4 1017 75 10000 1.5 350 01:31 08.10.2019
6589 Clouds 4 1017 75 10000 1 10 00:48 08.10.2019
6590 Clouds 4 1016 70 10000 1.5 0 00:21 08.10.2019
6591 Clouds 5 1017 61 10000 1 0 23:41 07.10.2019
6592 Clouds 3 1017 61 10000 1 0 23:20 07.10.2019
6593 Clouds 3 1017 61 10000 1 0 23:20 07.10.2019
6594 Clouds 3 1017 61 10000 1 0 23:20 07.10.2019
6595 Clouds 5 1017 61 10000 1 0 22:57 07.10.2019
6596 Clouds 5 1017 66 10000 1 0 22:39 07.10.2019
6597 Clouds 5 1017 57 10000 1.83 25.26 22:20 07.10.2019
6598 Clouds 5 1017 57 10000 1.83 25.26 21:57 07.10.2019
6599 Clouds 5 1016 57 10000 1 0 21:38 07.10.2019
6600 Clouds 5 1016 57 10000 2.41 35.596 21:20 07.10.2019
6601 Clouds 5 1016 57 10000 2.41 35.596 21:20 07.10.2019
6602 Clouds 5 1016 57 10000 2.31 35.336 20:57 07.10.2019
6603 Clouds 8 1016 53 10000 2.31 35.336 20:39 07.10.2019
6604 Clouds 4 1016 53 10000 2.31 35.336 20:20 07.10.2019
6605 Clouds 6 1015 50 10000 1 0 19:57 07.10.2019
6606 Clouds 4 1015 46 10000 1 0 19:39 07.10.2019
6607 Clouds 4 1015 46 10000 1 0 19:18 07.10.2019
6608 Clouds 4 1015 53 10000 3.1 70 18:56 07.10.2019
6609 Clouds 4 1014 50 10000 4.1 50 18:38 07.10.2019
6610 Clouds 10 1014 50 10000 4.1 50 18:18 07.10.2019
6611 Clear 11 1013 41 10000 4.1 50 17:42 07.10.2019
6612 Clear 11 1013 41 10000 4.1 50 17:19 07.10.2019
6613 Clear 11 1013 38 10000 3.1 70 16:55 07.10.2019
6614 Clear 11 1013 49 10000 2.1 80 16:37 07.10.2019
6615 Clear 12 1013 49 10000 2.1 80 16:19 07.10.2019
6616 Clouds 12 1013 41 10000 1.5 0 15:43 07.10.2019
6617 Clouds 12 1013 41 10000 1.5 0 15:24 07.10.2019
6618 Clouds 12 1013 38 10000 1.5 0 14:42 07.10.2019
6619 Clouds 15 1013 38 10000 1.5 0 14:23 07.10.2019
6620 Clear 14 1014 37 10000 1.5 0 13:59 07.10.2019
6621 Clear 14 1014 37 10000 2.1 280 13:40 07.10.2019
6622 Clear 13 1014 50 10000 1 0 13:18 07.10.2019
6623 Clear 14 1014 50 10000 1 0 12:55 07.10.2019
6624 Clouds 13 1014 57 10000 1 0 12:36 07.10.2019
6625 Clouds 13 1014 57 10000 1 0 12:36 07.10.2019
6626 Clouds 10 1014 66 10000 1.5 260 12:18 07.10.2019
6627 Clouds 10 1014 66 10000 1.5 260 11:56 07.10.2019
6628 Clouds 12 1014 70 10000 2.1 0 11:36 07.10.2019
6629 Clouds 11 1014 70 10000 2.1 0 11:18 07.10.2019
6630 Clouds 10 1015 81 10000 2.1 10 10:40 07.10.2019
6631 Clouds 7 1014 87 10000 1 0 10:20 07.10.2019
6632 Clouds 7 1014 81 8000 1 0 09:42 07.10.2019
6633 Clouds 5 1014 81 8000 1 0 09:23 07.10.2019
6634 Clouds 6 1014 86 8000 1.5 160 08:55 07.10.2019
6635 Clouds 5 1014 93 6000 1 0 08:37 07.10.2019
6636 Mist 3 1014 100 4000 1.5 130 08:18 07.10.2019
6637 Fog 2 1014 100 10000 0.5 0 07:40 07.10.2019
6638 Fog 2 1014 93 7000 0.5 0 07:20 07.10.2019
6639 Clouds 2 1014 93 10000 1 0 06:44 07.10.2019
6640 Clouds 2 1014 93 10000 1 0 06:22 07.10.2019
6641 Clouds 2 1014 93 10000 1.02 328.659 05:27 07.10.2019
6642 Clear 2 1014 93 10000 1.5 330 04:58 07.10.2019
6643 Clear 2 1014 86 10000 1.5 280 04:20 07.10.2019
6644 Clear 2 1014 93 10000 2.1 270 03:39 07.10.2019
6645 Clear 2 1015 86 10000 2.1 260 03:18 07.10.2019
6646 Clear 1 1015 86 10000 1.5 210 02:20 07.10.2019
6647 Clear 2 1015 93 10000 1.5 310 01:42 07.10.2019
6648 Clear 2 1015 93 10000 1.5 310 01:18 07.10.2019
6649 Clear 2 1015 81 10000 1.5 20 00:36 07.10.2019
6650 Clear 2 1015 81 10000 3.1 360 00:18 07.10.2019
6651 Clear 3 1015 75 10000 2.1 340 23:40 06.10.2019
6652 Clear 3 1015 75 10000 2.1 340 23:21 06.10.2019
6653 Clear 8 1015 70 10000 2.6 330 22:58 06.10.2019
6654 Clear 3 1015 70 10000 5.7 280 22:39 06.10.2019
6655 Clear 3 1015 70 10000 5.7 280 22:21 06.10.2019
6656 Clear 3 1015 70 10000 5.7 280 21:56 06.10.2019
6657 Clear 5 1016 66 10000 5.1 280 21:37 06.10.2019
6658 Clear 8 1016 66 10000 5.1 280 21:19 06.10.2019
6659 Clear 8 1015 70 10000 4.6 270 20:56 06.10.2019
6660 Clear 8 1015 66 10000 5.1 280 20:38 06.10.2019
6661 Clear 8 1015 66 10000 5.1 280 20:19 06.10.2019
6662 Clouds 8 1015 66 10000 3.6 280 19:56 06.10.2019
6663 Clouds 5 1015 61 10000 3.6 280 19:37 06.10.2019
6664 Clouds 5 1015 61 10000 4.6 280 19:18 06.10.2019
6665 Clouds 2 1015 61 10000 4.6 280 18:55 06.10.2019
6666 Clouds 4 1015 54 10000 5.7 280 18:37 06.10.2019
6667 Clouds 11 1015 54 10000 5.7 280 18:18 06.10.2019
6668 Clouds 12 1014 50 10000 6.2 300 17:43 06.10.2019
6669 Clouds 13 1014 50 10000 6.2 300 17:20 06.10.2019
6670 Clouds 12 1014 50 10000 6.2 300 17:20 06.10.2019
6671 Clouds 13 1014 47 10000 6.2 290 16:56 06.10.2019
6672 Clouds 13 1014 47 10000 5.1 290 16:37 06.10.2019
6673 Clouds 13 1014 50 10000 6.2 300 16:18 06.10.2019
6674 Clouds 13 1014 54 10000 4.6 290 15:43 06.10.2019
6675 Clouds 14 1014 54 10000 4.6 290 15:21 06.10.2019
6676 Clouds 13 1014 58 10000 6.2 280 14:44 06.10.2019
6677 Clouds 13 1014 58 10000 6.2 280 14:26 06.10.2019
6678 Clouds 12 1014 58 10000 6.2 290 13:59 06.10.2019
6679 Clouds 12 1015 58 10000 7.2 290 13:40 06.10.2019
6680 Clouds 11 1015 58 10000 7.2 290 13:22 06.10.2019
6681 Clouds 11 1014 62 10000 7.2 290 12:59 06.10.2019
6682 Clouds 11 1015 66 10000 7.7 290 12:40 06.10.2019
6683 Clouds 11 1015 66 10000 7.7 290 12:21 06.10.2019
6684 Clouds 11 1014 71 10000 6.2 290 11:59 06.10.2019
6685 Clouds 12 1014 71 10000 5.7 310 11:40 06.10.2019
6686 Clouds 12 1014 71 10000 5.7 310 11:21 06.10.2019
6687 Clouds 12 1014 71 10000 6.2 300 10:54 06.10.2019
6688 Clouds 12 1014 76 10000 3.6 300 10:36 06.10.2019
6689 Clouds 12 1014 76 10000 3.6 300 10:18 06.10.2019
6690 Clouds 11 1014 87 8000 0.5 0 09:41 06.10.2019
6691 Clouds 11 1014 87 8000 0.5 0 09:19 06.10.2019
6692 Clouds 10 1013 87 7000 1.5 270 08:47 06.10.2019
6693 Clouds 9 1013 93 6000 1 0 08:21 06.10.2019
6694 Clouds 8 1013 93 6000 2.1 310 07:57 06.10.2019
6695 Clouds 5 1012 93 6000 1.5 0 07:38 06.10.2019
6696 Rain 5 1012 100 8000 1 0 06:32 06.10.2019
6697 Clear 5 1012 93 8000 2.1 310 05:35 06.10.2019
6698 Clouds 6 1012 93 10000 1.01 307.52 04:27 06.10.2019
6699 Clear 6 1012 87 10000 2.1 220 02:47 06.10.2019
6700 Clouds 6 1012 93 10000 0.91 320.453 02:27 06.10.2019
6701 Clouds 7 1012 87 10000 1.5 20 01:46 06.10.2019
6702 Clouds 7 1012 87 10000 1.5 20 01:27 06.10.2019
6703 Clouds 7 1012 87 10000 1.5 20 00:57 06.10.2019
6704 Clouds 7 1012 87 10000 1.5 350 00:29 06.10.2019
6705 Rain 8 1012 81 10000 2.6 280 23:45 05.10.2019
6706 Rain 8 1012 81 10000 2.6 280 23:23 05.10.2019
6707 Rain 8 1012 81 10000 2.6 280 22:59 05.10.2019
6708 Clouds 9 1012 81 10000 3.1 250 22:40 05.10.2019
6709 Clouds 8 1012 81 10000 3.1 250 22:20 05.10.2019
6710 Clouds 9 1012 76 10000 3.1 250 21:57 05.10.2019
6711 Clouds 9 1012 76 10000 3.1 250 21:57 05.10.2019
6712 Rain 9 1012 76 10000 2.6 270 21:39 05.10.2019
6713 Rain 9 1012 76 10000 2.6 270 21:39 05.10.2019
6714 Rain 9 1011 71 10000 3.1 270 21:20 05.10.2019
6715 Rain 9 1011 71 10000 3.1 270 20:56 05.10.2019
6716 Rain 10 1011 62 10000 2.6 280 20:38 05.10.2019
6717 Rain 10 1011 62 10000 2.6 280 20:19 05.10.2019
6718 Clouds 10 1010 71 10000 2.1 330 20:19 05.10.2019
6719 Rain 10 1011 62 10000 2.6 280 20:19 05.10.2019
6720 Clouds 8 1010 71 10000 2.1 280 19:38 05.10.2019
6721 Clouds 8 1010 71 10000 2.1 280 19:20 05.10.2019
6722 Rain 9 1010 58 10000 3.1 260 18:56 05.10.2019
6723 Clouds 9 1010 54 10000 2.1 300 18:38 05.10.2019
6724 Clouds 12 1010 54 10000 2.1 300 18:20 05.10.2019
6725 Clouds 12 1010 48 10000 4.1 310 17:46 05.10.2019
6726 Clouds 13 1010 48 10000 4.1 310 17:27 05.10.2019
6727 Clouds 13 1009 48 10000 3.1 320 16:59 05.10.2019
6728 Clouds 13 1009 51 10000 3.6 320 16:41 05.10.2019
6729 Clouds 13 1009 51 10000 3.6 320 16:21 05.10.2019
6730 Clouds 13 1009 51 10000 3.6 320 15:57 05.10.2019
6731 Clouds 13 1009 51 10000 2.6 360 15:39 05.10.2019
6732 Clouds 16 1009 51 10000 2.6 360 15:20 05.10.2019
6733 Clouds 17 1009 51 10000 4.1 310 14:44 05.10.2019
6734 Clouds 13 1009 51 10000 4.1 310 14:26 05.10.2019
6735 Clouds 13 1009 51 10000 4.1 310 14:26 05.10.2019
6736 Clouds 14 1009 54 10000 4.6 300 13:59 05.10.2019
6737 Clouds 16 1009 51 10000 4.1 320 13:41 05.10.2019
6738 Clouds 16 1009 51 10000 4.1 320 13:20 05.10.2019
6739 Clouds 16 1010 51 10000 4.1 320 12:44 05.10.2019
6740 Clouds 11 1010 51 10000 4.1 320 12:20 05.10.2019
6741 Clouds 11 1011 58 10000 4.1 330 11:45 05.10.2019
6742 Clouds 14 1011 58 10000 4.1 330 11:23 05.10.2019
6743 Clouds 12 1011 58 10000 3.6 320 10:59 05.10.2019
6744 Clouds 13 1011 71 10000 2.6 320 10:41 05.10.2019
6745 Clouds 13 1011 71 10000 2.6 320 10:23 05.10.2019
6746 Clouds 11 1011 71 10000 3.1 320 09:56 05.10.2019
6747 Clouds 10 1011 76 10000 3.6 300 09:37 05.10.2019
6748 Clouds 8 1011 76 10000 3.6 300 09:19 05.10.2019
6749 Clouds 8 1011 81 10000 3.6 310 08:39 05.10.2019
6750 Clouds 7 1011 81 10000 3.6 310 08:19 05.10.2019
6751 Clouds 7 1011 75 10000 3.6 290 07:52 05.10.2019
6752</